<?xml version="1.0" encoding="UTF-8" standalone="no" ?>
<gpx xmlns="http://www.topografix.com/GPX/1/1" xmlns:xsi="http://www.w3.org/2001/XMLSchema-instance" xsi:schemaLocation="http://www.topografix.com/GPX/1/1 http://www.topografix.com/GPX/1/1/gpx.xsd" version="1.1" creator="VisuGPX - https://www.visugpx.com">
  <metadata>
    <name>Pré-Vernet par Chavoires et Talabar</name>
    <desc><![CDATA[Pré-Vernet par Talabar en partant de Chavoires dans le Veyrier sur les hauteurs d'Annecy.]]></desc>
  </metadata>
  <trk>
    <name><![CDATA[Pré-Vernet par Chavoires et Talabar_1]]></name>
    <trkseg>
      <trkpt lat="45.90407" lon="6.16067">
        <ele>461.05364990234</ele>
        <time>2017-04-05T07:51:16.000Z</time>
      </trkpt>
      <trkpt lat="45.90406" lon="6.16064">
        <ele>460.85433959961</ele>
        <time>2017-04-05T07:51:18.000Z</time>
      </trkpt>
      <trkpt lat="45.90404" lon="6.16071">
        <ele>461.08151245117</ele>
        <time>2017-04-05T07:51:22.000Z</time>
      </trkpt>
      <trkpt lat="45.90404" lon="6.16074">
        <ele>461.28198242188</ele>
        <time>2017-04-05T07:51:25.000Z</time>
      </trkpt>
      <trkpt lat="45.90406" lon="6.16076">
        <ele>461.44970703125</ele>
        <time>2017-04-05T07:51:27.000Z</time>
      </trkpt>
      <trkpt lat="45.90406" lon="6.16078">
        <ele>461.70404052734</ele>
        <time>2017-04-05T07:51:29.000Z</time>
      </trkpt>
      <trkpt lat="45.90407" lon="6.16079">
        <ele>462.07159423828</ele>
        <time>2017-04-05T07:51:31.000Z</time>
      </trkpt>
      <trkpt lat="45.90408" lon="6.16081">
        <ele>462.31610107422</ele>
        <time>2017-04-05T07:51:33.000Z</time>
      </trkpt>
      <trkpt lat="45.90409" lon="6.16084">
        <ele>462.56411743164</ele>
        <time>2017-04-05T07:51:36.000Z</time>
      </trkpt>
      <trkpt lat="45.90411" lon="6.16087">
        <ele>462.85418701172</ele>
        <time>2017-04-05T07:51:39.000Z</time>
      </trkpt>
      <trkpt lat="45.90411" lon="6.1609">
        <ele>463.20254516602</ele>
        <time>2017-04-05T07:51:42.000Z</time>
      </trkpt>
      <trkpt lat="45.90413" lon="6.16093">
        <ele>463.6044921875</ele>
        <time>2017-04-05T07:51:45.000Z</time>
      </trkpt>
      <trkpt lat="45.90413" lon="6.16095">
        <ele>464.00561523438</ele>
        <time>2017-04-05T07:51:47.000Z</time>
      </trkpt>
      <trkpt lat="45.90413" lon="6.16097">
        <ele>464.40927124023</ele>
        <time>2017-04-05T07:51:50.000Z</time>
      </trkpt>
      <trkpt lat="45.90414" lon="6.161">
        <ele>464.79833984375</ele>
        <time>2017-04-05T07:51:53.000Z</time>
      </trkpt>
      <trkpt lat="45.90414" lon="6.16102">
        <ele>465.14859008789</ele>
        <time>2017-04-05T07:51:55.000Z</time>
      </trkpt>
      <trkpt lat="45.90414" lon="6.16103">
        <ele>465.45907592773</ele>
        <time>2017-04-05T07:51:57.000Z</time>
      </trkpt>
      <trkpt lat="45.90415" lon="6.16104">
        <ele>465.76214599609</ele>
        <time>2017-04-05T07:51:59.000Z</time>
      </trkpt>
      <trkpt lat="45.90416" lon="6.16109">
        <ele>466.12884521484</ele>
        <time>2017-04-05T07:52:02.000Z</time>
      </trkpt>
      <trkpt lat="45.90416" lon="6.16112">
        <ele>466.51422119141</ele>
        <time>2017-04-05T07:52:04.000Z</time>
      </trkpt>
      <trkpt lat="45.90416" lon="6.16114">
        <ele>466.89532470703</ele>
        <time>2017-04-05T07:52:07.000Z</time>
      </trkpt>
      <trkpt lat="45.90417" lon="6.16116">
        <ele>467.31430053711</ele>
        <time>2017-04-05T07:52:10.000Z</time>
      </trkpt>
      <trkpt lat="45.90419" lon="6.16119">
        <ele>467.74893188477</ele>
        <time>2017-04-05T07:52:13.000Z</time>
      </trkpt>
      <trkpt lat="45.90421" lon="6.1612">
        <ele>468.09130859375</ele>
        <time>2017-04-05T07:52:16.000Z</time>
      </trkpt>
      <trkpt lat="45.90421" lon="6.16122">
        <ele>468.40756225586</ele>
        <time>2017-04-05T07:52:19.000Z</time>
      </trkpt>
      <trkpt lat="45.90422" lon="6.16124">
        <ele>468.70254516602</ele>
        <time>2017-04-05T07:52:21.000Z</time>
      </trkpt>
      <trkpt lat="45.90424" lon="6.16126">
        <ele>468.97811889648</ele>
        <time>2017-04-05T07:52:24.000Z</time>
      </trkpt>
      <trkpt lat="45.90425" lon="6.16129">
        <ele>469.27255249023</ele>
        <time>2017-04-05T07:52:27.000Z</time>
      </trkpt>
      <trkpt lat="45.90425" lon="6.1613">
        <ele>469.56469726562</ele>
        <time>2017-04-05T07:52:29.000Z</time>
      </trkpt>
      <trkpt lat="45.90427" lon="6.16132">
        <ele>469.82769775391</ele>
        <time>2017-04-05T07:52:32.000Z</time>
      </trkpt>
      <trkpt lat="45.90429" lon="6.16134">
        <ele>470.11044311523</ele>
        <time>2017-04-05T07:52:35.000Z</time>
      </trkpt>
      <trkpt lat="45.9043" lon="6.16136">
        <ele>470.39657592773</ele>
        <time>2017-04-05T07:52:38.000Z</time>
      </trkpt>
      <trkpt lat="45.90432" lon="6.16138">
        <ele>470.64932250977</ele>
        <time>2017-04-05T07:52:40.000Z</time>
      </trkpt>
      <trkpt lat="45.90434" lon="6.1614">
        <ele>470.91461181641</ele>
        <time>2017-04-05T07:52:43.000Z</time>
      </trkpt>
      <trkpt lat="45.90435" lon="6.16141">
        <ele>471.16625976562</ele>
        <time>2017-04-05T07:52:46.000Z</time>
      </trkpt>
      <trkpt lat="45.90437" lon="6.16143">
        <ele>471.38809204102</ele>
        <time>2017-04-05T07:52:49.000Z</time>
      </trkpt>
      <trkpt lat="45.90437" lon="6.16145">
        <ele>471.59979248047</ele>
        <time>2017-04-05T07:52:52.000Z</time>
      </trkpt>
      <trkpt lat="45.90439" lon="6.16146">
        <ele>471.80926513672</ele>
        <time>2017-04-05T07:52:55.000Z</time>
      </trkpt>
      <trkpt lat="45.9044" lon="6.16148">
        <ele>472.01483154297</ele>
        <time>2017-04-05T07:52:57.000Z</time>
      </trkpt>
      <trkpt lat="45.90441" lon="6.16151">
        <ele>472.26678466797</ele>
        <time>2017-04-05T07:53:00.000Z</time>
      </trkpt>
      <trkpt lat="45.90442" lon="6.16154">
        <ele>472.57537841797</ele>
        <time>2017-04-05T07:53:03.000Z</time>
      </trkpt>
      <trkpt lat="45.90442" lon="6.16156">
        <ele>472.88861083984</ele>
        <time>2017-04-05T07:53:06.000Z</time>
      </trkpt>
      <trkpt lat="45.90443" lon="6.16158">
        <ele>473.20352172852</ele>
        <time>2017-04-05T07:53:08.000Z</time>
      </trkpt>
      <trkpt lat="45.90445" lon="6.1616">
        <ele>473.50555419922</ele>
        <time>2017-04-05T07:53:11.000Z</time>
      </trkpt>
      <trkpt lat="45.90445" lon="6.16162">
        <ele>473.78344726562</ele>
        <time>2017-04-05T07:53:13.000Z</time>
      </trkpt>
      <trkpt lat="45.90445" lon="6.16164">
        <ele>474.03692626953</ele>
        <time>2017-04-05T07:53:16.000Z</time>
      </trkpt>
      <trkpt lat="45.90446" lon="6.16166">
        <ele>474.27774047852</ele>
        <time>2017-04-05T07:53:19.000Z</time>
      </trkpt>
      <trkpt lat="45.90446" lon="6.16167">
        <ele>474.50933837891</ele>
        <time>2017-04-05T07:53:21.000Z</time>
      </trkpt>
      <trkpt lat="45.90448" lon="6.16169">
        <ele>474.77676391602</ele>
        <time>2017-04-05T07:53:24.000Z</time>
      </trkpt>
      <trkpt lat="45.9045" lon="6.16171">
        <ele>475.07363891602</ele>
        <time>2017-04-05T07:53:27.000Z</time>
      </trkpt>
      <trkpt lat="45.9045" lon="6.16172">
        <ele>475.36376953125</ele>
        <time>2017-04-05T07:53:29.000Z</time>
      </trkpt>
      <trkpt lat="45.90451" lon="6.16174">
        <ele>475.67120361328</ele>
        <time>2017-04-05T07:53:31.000Z</time>
      </trkpt>
      <trkpt lat="45.90451" lon="6.16177">
        <ele>476.05859375</ele>
        <time>2017-04-05T07:53:34.000Z</time>
      </trkpt>
      <trkpt lat="45.90452" lon="6.16179">
        <ele>476.4453125</ele>
        <time>2017-04-05T07:53:36.000Z</time>
      </trkpt>
      <trkpt lat="45.90454" lon="6.16181">
        <ele>476.83721923828</ele>
        <time>2017-04-05T07:53:39.000Z</time>
      </trkpt>
      <trkpt lat="45.90455" lon="6.16182">
        <ele>477.22442626953</ele>
        <time>2017-04-05T07:53:41.000Z</time>
      </trkpt>
      <trkpt lat="45.90456" lon="6.16184">
        <ele>477.60864257812</ele>
        <time>2017-04-05T07:53:44.000Z</time>
      </trkpt>
      <trkpt lat="45.90457" lon="6.16186">
        <ele>477.93115234375</ele>
        <time>2017-04-05T07:53:46.000Z</time>
      </trkpt>
      <trkpt lat="45.90457" lon="6.16188">
        <ele>478.30010986328</ele>
        <time>2017-04-05T07:53:49.000Z</time>
      </trkpt>
      <trkpt lat="45.90458" lon="6.16191">
        <ele>478.67642211914</ele>
        <time>2017-04-05T07:53:52.000Z</time>
      </trkpt>
      <trkpt lat="45.90458" lon="6.16193">
        <ele>479.09439086914</ele>
        <time>2017-04-05T07:53:55.000Z</time>
      </trkpt>
      <trkpt lat="45.90457" lon="6.16195">
        <ele>479.54931640625</ele>
        <time>2017-04-05T07:53:58.000Z</time>
      </trkpt>
      <trkpt lat="45.90459" lon="6.16197">
        <ele>480.01742553711</ele>
        <time>2017-04-05T07:54:00.000Z</time>
      </trkpt>
      <trkpt lat="45.9046" lon="6.16199">
        <ele>480.43051147461</ele>
        <time>2017-04-05T07:54:03.000Z</time>
      </trkpt>
      <trkpt lat="45.9046" lon="6.162">
        <ele>480.81634521484</ele>
        <time>2017-04-05T07:54:05.000Z</time>
      </trkpt>
      <trkpt lat="45.90458" lon="6.16204">
        <ele>481.27020263672</ele>
        <time>2017-04-05T07:54:08.000Z</time>
      </trkpt>
      <trkpt lat="45.90457" lon="6.16205">
        <ele>481.705078125</ele>
        <time>2017-04-05T07:54:11.000Z</time>
      </trkpt>
      <trkpt lat="45.90457" lon="6.16207">
        <ele>482.13656616211</ele>
        <time>2017-04-05T07:54:13.000Z</time>
      </trkpt>
      <trkpt lat="45.90457" lon="6.16209">
        <ele>482.59527587891</ele>
        <time>2017-04-05T07:54:16.000Z</time>
      </trkpt>
      <trkpt lat="45.90457" lon="6.1621">
        <ele>483.04824829102</ele>
        <time>2017-04-05T07:54:18.000Z</time>
      </trkpt>
      <trkpt lat="45.90456" lon="6.16213">
        <ele>483.48602294922</ele>
        <time>2017-04-05T07:54:21.000Z</time>
      </trkpt>
      <trkpt lat="45.90454" lon="6.16216">
        <ele>483.94882202148</ele>
        <time>2017-04-05T07:54:24.000Z</time>
      </trkpt>
      <trkpt lat="45.90453" lon="6.16217">
        <ele>484.42657470703</ele>
        <time>2017-04-05T07:54:27.000Z</time>
      </trkpt>
      <trkpt lat="45.90453" lon="6.16218">
        <ele>484.87100219727</ele>
        <time>2017-04-05T07:54:30.000Z</time>
      </trkpt>
      <trkpt lat="45.90451" lon="6.16219">
        <ele>485.29116821289</ele>
        <time>2017-04-05T07:54:32.000Z</time>
      </trkpt>
      <trkpt lat="45.90451" lon="6.16219">
        <ele>485.56939697266</ele>
        <time>2017-04-05T07:54:34.000Z</time>
      </trkpt>
      <trkpt lat="45.90451" lon="6.1622">
        <ele>485.80218505859</ele>
        <time>2017-04-05T07:54:37.000Z</time>
      </trkpt>
      <trkpt lat="45.90453" lon="6.16222">
        <ele>486.00146484375</ele>
        <time>2017-04-05T07:54:51.000Z</time>
      </trkpt>
      <trkpt lat="45.90452" lon="6.16223">
        <ele>486.21670532227</ele>
        <time>2017-04-05T07:54:54.000Z</time>
      </trkpt>
      <trkpt lat="45.90452" lon="6.16225">
        <ele>486.47393798828</ele>
        <time>2017-04-05T07:54:56.000Z</time>
      </trkpt>
      <trkpt lat="45.90454" lon="6.16227">
        <ele>486.80728149414</ele>
        <time>2017-04-05T07:54:59.000Z</time>
      </trkpt>
      <trkpt lat="45.90454" lon="6.16229">
        <ele>487.14508056641</ele>
        <time>2017-04-05T07:55:01.000Z</time>
      </trkpt>
      <trkpt lat="45.90455" lon="6.16231">
        <ele>487.50958251953</ele>
        <time>2017-04-05T07:55:03.000Z</time>
      </trkpt>
      <trkpt lat="45.90456" lon="6.16233">
        <ele>487.86532592773</ele>
        <time>2017-04-05T07:55:05.000Z</time>
      </trkpt>
      <trkpt lat="45.90457" lon="6.16235">
        <ele>488.23764038086</ele>
        <time>2017-04-05T07:55:07.000Z</time>
      </trkpt>
      <trkpt lat="45.90458" lon="6.16239">
        <ele>488.66827392578</ele>
        <time>2017-04-05T07:55:10.000Z</time>
      </trkpt>
      <trkpt lat="45.90459" lon="6.16243">
        <ele>489.1806640625</ele>
        <time>2017-04-05T07:55:13.000Z</time>
      </trkpt>
      <trkpt lat="45.90459" lon="6.16247">
        <ele>489.77578735352</ele>
        <time>2017-04-05T07:55:16.000Z</time>
      </trkpt>
      <trkpt lat="45.90461" lon="6.1625">
        <ele>490.41592407227</ele>
        <time>2017-04-05T07:55:19.000Z</time>
      </trkpt>
      <trkpt lat="45.90462" lon="6.16253">
        <ele>491.11148071289</ele>
        <time>2017-04-05T07:55:22.000Z</time>
      </trkpt>
      <trkpt lat="45.90461" lon="6.16255">
        <ele>491.83822631836</ele>
        <time>2017-04-05T07:55:25.000Z</time>
      </trkpt>
      <trkpt lat="45.90462" lon="6.16256">
        <ele>492.490234375</ele>
        <time>2017-04-05T07:55:27.000Z</time>
      </trkpt>
      <trkpt lat="45.90463" lon="6.1626">
        <ele>493.16690063477</ele>
        <time>2017-04-05T07:55:30.000Z</time>
      </trkpt>
      <trkpt lat="45.90462" lon="6.16262">
        <ele>493.89755249023</ele>
        <time>2017-04-05T07:55:33.000Z</time>
      </trkpt>
      <trkpt lat="45.90462" lon="6.16265">
        <ele>494.64688110352</ele>
        <time>2017-04-05T07:55:36.000Z</time>
      </trkpt>
      <trkpt lat="45.90461" lon="6.16267">
        <ele>495.36303710938</ele>
        <time>2017-04-05T07:55:38.000Z</time>
      </trkpt>
      <trkpt lat="45.9046" lon="6.16269">
        <ele>496.13241577148</ele>
        <time>2017-04-05T07:55:40.000Z</time>
      </trkpt>
      <trkpt lat="45.90459" lon="6.16271">
        <ele>496.89688110352</ele>
        <time>2017-04-05T07:55:43.000Z</time>
      </trkpt>
      <trkpt lat="45.90459" lon="6.16273">
        <ele>497.58480834961</ele>
        <time>2017-04-05T07:55:45.000Z</time>
      </trkpt>
      <trkpt lat="45.90458" lon="6.16274">
        <ele>498.24005126953</ele>
        <time>2017-04-05T07:55:48.000Z</time>
      </trkpt>
      <trkpt lat="45.90458" lon="6.16276">
        <ele>498.87979125977</ele>
        <time>2017-04-05T07:55:51.000Z</time>
      </trkpt>
      <trkpt lat="45.90459" lon="6.16279">
        <ele>499.51889038086</ele>
        <time>2017-04-05T07:55:54.000Z</time>
      </trkpt>
      <trkpt lat="45.90459" lon="6.16281">
        <ele>500.12020874023</ele>
        <time>2017-04-05T07:55:56.000Z</time>
      </trkpt>
      <trkpt lat="45.90458" lon="6.16283">
        <ele>500.76324462891</ele>
        <time>2017-04-05T07:55:58.000Z</time>
      </trkpt>
      <trkpt lat="45.90457" lon="6.16284">
        <ele>501.37515258789</ele>
        <time>2017-04-05T07:56:01.000Z</time>
      </trkpt>
      <trkpt lat="45.90457" lon="6.16286">
        <ele>501.95687866211</ele>
        <time>2017-04-05T07:56:03.000Z</time>
      </trkpt>
      <trkpt lat="45.90458" lon="6.16288">
        <ele>502.54168701172</ele>
        <time>2017-04-05T07:56:06.000Z</time>
      </trkpt>
      <trkpt lat="45.90458" lon="6.1629">
        <ele>503.11529541016</ele>
        <time>2017-04-05T07:56:08.000Z</time>
      </trkpt>
      <trkpt lat="45.90458" lon="6.16293">
        <ele>503.71343994141</ele>
        <time>2017-04-05T07:56:11.000Z</time>
      </trkpt>
      <trkpt lat="45.90457" lon="6.16295">
        <ele>504.35675048828</ele>
        <time>2017-04-05T07:56:14.000Z</time>
      </trkpt>
      <trkpt lat="45.90456" lon="6.16297">
        <ele>505.05291748047</ele>
        <time>2017-04-05T07:56:17.000Z</time>
      </trkpt>
      <trkpt lat="45.90455" lon="6.16299">
        <ele>505.79043579102</ele>
        <time>2017-04-05T07:56:20.000Z</time>
      </trkpt>
      <trkpt lat="45.90455" lon="6.163">
        <ele>506.46957397461</ele>
        <time>2017-04-05T07:56:23.000Z</time>
      </trkpt>
      <trkpt lat="45.90455" lon="6.16302">
        <ele>507.09204101562</ele>
        <time>2017-04-05T07:56:41.000Z</time>
      </trkpt>
      <trkpt lat="45.90454" lon="6.16304">
        <ele>507.69833374023</ele>
        <time>2017-04-05T07:56:44.000Z</time>
      </trkpt>
      <trkpt lat="45.90453" lon="6.16305">
        <ele>508.27310180664</ele>
        <time>2017-04-05T07:56:47.000Z</time>
      </trkpt>
      <trkpt lat="45.90453" lon="6.16307">
        <ele>508.78619384766</ele>
        <time>2017-04-05T07:56:49.000Z</time>
      </trkpt>
      <trkpt lat="45.90454" lon="6.1631">
        <ele>509.41973876953</ele>
        <time>2017-04-05T07:56:52.000Z</time>
      </trkpt>
      <trkpt lat="45.90454" lon="6.16312">
        <ele>510.05792236328</ele>
        <time>2017-04-05T07:56:54.000Z</time>
      </trkpt>
      <trkpt lat="45.90455" lon="6.16316">
        <ele>510.79620361328</ele>
        <time>2017-04-05T07:56:57.000Z</time>
      </trkpt>
      <trkpt lat="45.90456" lon="6.1632">
        <ele>511.62631225586</ele>
        <time>2017-04-05T07:57:00.000Z</time>
      </trkpt>
      <trkpt lat="45.90458" lon="6.16321">
        <ele>512.42150878906</ele>
        <time>2017-04-05T07:57:03.000Z</time>
      </trkpt>
      <trkpt lat="45.9046" lon="6.16323">
        <ele>513.07397460938</ele>
        <time>2017-04-05T07:57:05.000Z</time>
      </trkpt>
      <trkpt lat="45.90459" lon="6.16325">
        <ele>513.79327392578</ele>
        <time>2017-04-05T07:57:07.000Z</time>
      </trkpt>
      <trkpt lat="45.90458" lon="6.16328">
        <ele>514.44946289062</ele>
        <time>2017-04-05T07:57:10.000Z</time>
      </trkpt>
      <trkpt lat="45.90458" lon="6.16329">
        <ele>515.01885986328</ele>
        <time>2017-04-05T07:57:12.000Z</time>
      </trkpt>
      <trkpt lat="45.90457" lon="6.1633">
        <ele>515.57580566406</ele>
        <time>2017-04-05T07:57:14.000Z</time>
      </trkpt>
      <trkpt lat="45.90456" lon="6.16332">
        <ele>516.22235107422</ele>
        <time>2017-04-05T07:57:17.000Z</time>
      </trkpt>
      <trkpt lat="45.90457" lon="6.16333">
        <ele>516.73669433594</ele>
        <time>2017-04-05T07:57:21.000Z</time>
      </trkpt>
      <trkpt lat="45.90458" lon="6.16334">
        <ele>517.12969970703</ele>
        <time>2017-04-05T07:57:23.000Z</time>
      </trkpt>
      <trkpt lat="45.90459" lon="6.16336">
        <ele>517.55859375</ele>
        <time>2017-04-05T07:57:26.000Z</time>
      </trkpt>
      <trkpt lat="45.9046" lon="6.16338">
        <ele>518.11303710938</ele>
        <time>2017-04-05T07:57:29.000Z</time>
      </trkpt>
      <trkpt lat="45.90461" lon="6.1634">
        <ele>518.70672607422</ele>
        <time>2017-04-05T07:57:32.000Z</time>
      </trkpt>
      <trkpt lat="45.90462" lon="6.16342">
        <ele>519.41638183594</ele>
        <time>2017-04-05T07:57:34.000Z</time>
      </trkpt>
      <trkpt lat="45.90463" lon="6.16344">
        <ele>520.25848388672</ele>
        <time>2017-04-05T07:57:37.000Z</time>
      </trkpt>
      <trkpt lat="45.90465" lon="6.16346">
        <ele>521.03033447266</ele>
        <time>2017-04-05T07:57:39.000Z</time>
      </trkpt>
      <trkpt lat="45.90466" lon="6.16348">
        <ele>521.78674316406</ele>
        <time>2017-04-05T07:57:42.000Z</time>
      </trkpt>
      <trkpt lat="45.90466" lon="6.16349">
        <ele>522.50109863281</ele>
        <time>2017-04-05T07:57:45.000Z</time>
      </trkpt>
      <trkpt lat="45.90465" lon="6.16351">
        <ele>523.20593261719</ele>
        <time>2017-04-05T07:57:47.000Z</time>
      </trkpt>
      <trkpt lat="45.90465" lon="6.16353">
        <ele>523.94226074219</ele>
        <time>2017-04-05T07:57:50.000Z</time>
      </trkpt>
      <trkpt lat="45.90464" lon="6.16355">
        <ele>524.73895263672</ele>
        <time>2017-04-05T07:57:52.000Z</time>
      </trkpt>
      <trkpt lat="45.90465" lon="6.16356">
        <ele>525.47180175781</ele>
        <time>2017-04-05T07:57:57.000Z</time>
      </trkpt>
      <trkpt lat="45.90466" lon="6.16358">
        <ele>526.25323486328</ele>
        <time>2017-04-05T07:58:00.000Z</time>
      </trkpt>
      <trkpt lat="45.90465" lon="6.16362">
        <ele>527.29016113281</ele>
        <time>2017-04-05T07:58:03.000Z</time>
      </trkpt>
      <trkpt lat="45.90465" lon="6.16366">
        <ele>528.42346191406</ele>
        <time>2017-04-05T07:58:06.000Z</time>
      </trkpt>
      <trkpt lat="45.90466" lon="6.16367">
        <ele>529.49963378906</ele>
        <time>2017-04-05T07:58:20.000Z</time>
      </trkpt>
      <trkpt lat="45.9047" lon="6.16369">
        <ele>530.58459472656</ele>
        <time>2017-04-05T07:58:23.000Z</time>
      </trkpt>
      <trkpt lat="45.90472" lon="6.1637">
        <ele>531.48321533203</ele>
        <time>2017-04-05T07:58:26.000Z</time>
      </trkpt>
      <trkpt lat="45.90473" lon="6.16369">
        <ele>531.88702392578</ele>
        <time>2017-04-05T07:58:29.000Z</time>
      </trkpt>
      <trkpt lat="45.90477" lon="6.16371">
        <ele>532.02978515625</ele>
        <time>2017-04-05T07:58:32.000Z</time>
      </trkpt>
      <trkpt lat="45.90479" lon="6.1637">
        <ele>532.01940917969</ele>
        <time>2017-04-05T07:58:34.000Z</time>
      </trkpt>
      <trkpt lat="45.9048" lon="6.1637">
        <ele>531.85321044922</ele>
        <time>2017-04-05T07:58:37.000Z</time>
      </trkpt>
      <trkpt lat="45.90479" lon="6.16371">
        <ele>531.81317138672</ele>
        <time>2017-04-05T07:58:41.000Z</time>
      </trkpt>
      <trkpt lat="45.9048" lon="6.16372">
        <ele>531.87872314453</ele>
        <time>2017-04-05T07:58:43.000Z</time>
      </trkpt>
      <trkpt lat="45.90482" lon="6.16373">
        <ele>531.91735839844</ele>
        <time>2017-04-05T07:58:46.000Z</time>
      </trkpt>
      <trkpt lat="45.90484" lon="6.16377">
        <ele>532.33514404297</ele>
        <time>2017-04-05T07:58:49.000Z</time>
      </trkpt>
      <trkpt lat="45.90486" lon="6.16379">
        <ele>532.91326904297</ele>
        <time>2017-04-05T07:58:52.000Z</time>
      </trkpt>
      <trkpt lat="45.90487" lon="6.1638">
        <ele>533.43359375</ele>
        <time>2017-04-05T07:58:54.000Z</time>
      </trkpt>
      <trkpt lat="45.90488" lon="6.16381">
        <ele>534.00109863281</ele>
        <time>2017-04-05T07:58:56.000Z</time>
      </trkpt>
      <trkpt lat="45.9049" lon="6.16381">
        <ele>534.50024414062</ele>
        <time>2017-04-05T07:58:59.000Z</time>
      </trkpt>
      <trkpt lat="45.90492" lon="6.1638">
        <ele>534.61877441406</ele>
        <time>2017-04-05T07:59:01.000Z</time>
      </trkpt>
      <trkpt lat="45.90494" lon="6.16381">
        <ele>534.63366699219</ele>
        <time>2017-04-05T07:59:04.000Z</time>
      </trkpt>
      <trkpt lat="45.90495" lon="6.16381">
        <ele>534.55487060547</ele>
        <time>2017-04-05T07:59:07.000Z</time>
      </trkpt>
      <trkpt lat="45.90496" lon="6.16383">
        <ele>534.53985595703</ele>
        <time>2017-04-05T07:59:10.000Z</time>
      </trkpt>
      <trkpt lat="45.90498" lon="6.16383">
        <ele>534.55706787109</ele>
        <time>2017-04-05T07:59:12.000Z</time>
      </trkpt>
      <trkpt lat="45.90499" lon="6.16384">
        <ele>534.64611816406</ele>
        <time>2017-04-05T07:59:15.000Z</time>
      </trkpt>
      <trkpt lat="45.90501" lon="6.16385">
        <ele>534.79577636719</ele>
        <time>2017-04-05T07:59:18.000Z</time>
      </trkpt>
      <trkpt lat="45.90503" lon="6.16387">
        <ele>535.06396484375</ele>
        <time>2017-04-05T07:59:20.000Z</time>
      </trkpt>
      <trkpt lat="45.90505" lon="6.16389">
        <ele>535.30487060547</ele>
        <time>2017-04-05T07:59:23.000Z</time>
      </trkpt>
      <trkpt lat="45.90507" lon="6.1639">
        <ele>535.63024902344</ele>
        <time>2017-04-05T07:59:26.000Z</time>
      </trkpt>
      <trkpt lat="45.90508" lon="6.16391">
        <ele>536.02349853516</ele>
        <time>2017-04-05T07:59:29.000Z</time>
      </trkpt>
      <trkpt lat="45.90509" lon="6.16392">
        <ele>536.37646484375</ele>
        <time>2017-04-05T07:59:32.000Z</time>
      </trkpt>
      <trkpt lat="45.9051" lon="6.16393">
        <ele>536.67620849609</ele>
        <time>2017-04-05T07:59:34.000Z</time>
      </trkpt>
      <trkpt lat="45.90512" lon="6.16394">
        <ele>536.89227294922</ele>
        <time>2017-04-05T07:59:37.000Z</time>
      </trkpt>
      <trkpt lat="45.90514" lon="6.16393">
        <ele>536.94012451172</ele>
        <time>2017-04-05T07:59:40.000Z</time>
      </trkpt>
      <trkpt lat="45.90515" lon="6.16393">
        <ele>536.88793945312</ele>
        <time>2017-04-05T07:59:42.000Z</time>
      </trkpt>
      <trkpt lat="45.90517" lon="6.16394">
        <ele>536.81597900391</ele>
        <time>2017-04-05T07:59:44.000Z</time>
      </trkpt>
      <trkpt lat="45.90519" lon="6.16397">
        <ele>536.93035888672</ele>
        <time>2017-04-05T07:59:47.000Z</time>
      </trkpt>
      <trkpt lat="45.9052" lon="6.16402">
        <ele>537.33776855469</ele>
        <time>2017-04-05T07:59:50.000Z</time>
      </trkpt>
      <trkpt lat="45.90519" lon="6.16403">
        <ele>538.01495361328</ele>
        <time>2017-04-05T07:59:53.000Z</time>
      </trkpt>
      <trkpt lat="45.90516" lon="6.16405">
        <ele>538.94201660156</ele>
        <time>2017-04-05T07:59:56.000Z</time>
      </trkpt>
      <trkpt lat="45.90515" lon="6.16405">
        <ele>539.90368652344</ele>
        <time>2017-04-05T07:59:58.000Z</time>
      </trkpt>
      <trkpt lat="45.90514" lon="6.16405">
        <ele>540.66436767578</ele>
        <time>2017-04-05T08:00:00.000Z</time>
      </trkpt>
      <trkpt lat="45.90512" lon="6.16405">
        <ele>541.20654296875</ele>
        <time>2017-04-05T08:00:02.000Z</time>
      </trkpt>
      <trkpt lat="45.90508" lon="6.16406">
        <ele>541.77362060547</ele>
        <time>2017-04-05T08:00:05.000Z</time>
      </trkpt>
      <trkpt lat="45.90506" lon="6.16406">
        <ele>542.21887207031</ele>
        <time>2017-04-05T08:00:07.000Z</time>
      </trkpt>
      <trkpt lat="45.90505" lon="6.16406">
        <ele>542.66101074219</ele>
        <time>2017-04-05T08:00:09.000Z</time>
      </trkpt>
      <trkpt lat="45.90503" lon="6.16408">
        <ele>543.3154296875</ele>
        <time>2017-04-05T08:00:12.000Z</time>
      </trkpt>
      <trkpt lat="45.90498" lon="6.16411">
        <ele>544.26373291016</ele>
        <time>2017-04-05T08:00:15.000Z</time>
      </trkpt>
      <trkpt lat="45.90496" lon="6.16411">
        <ele>545.11773681641</ele>
        <time>2017-04-05T08:00:17.000Z</time>
      </trkpt>
      <trkpt lat="45.90493" lon="6.16411">
        <ele>545.97229003906</ele>
        <time>2017-04-05T08:00:19.000Z</time>
      </trkpt>
      <trkpt lat="45.90489" lon="6.16411">
        <ele>546.88018798828</ele>
        <time>2017-04-05T08:00:22.000Z</time>
      </trkpt>
      <trkpt lat="45.90486" lon="6.16412">
        <ele>547.7529296875</ele>
        <time>2017-04-05T08:00:24.000Z</time>
      </trkpt>
      <trkpt lat="45.90484" lon="6.16416">
        <ele>548.61560058594</ele>
        <time>2017-04-05T08:00:27.000Z</time>
      </trkpt>
      <trkpt lat="45.90484" lon="6.16418">
        <ele>549.58349609375</ele>
        <time>2017-04-05T08:00:29.000Z</time>
      </trkpt>
      <trkpt lat="45.90482" lon="6.16419">
        <ele>550.6572265625</ele>
        <time>2017-04-05T08:00:32.000Z</time>
      </trkpt>
      <trkpt lat="45.90481" lon="6.1642">
        <ele>551.79705810547</ele>
        <time>2017-04-05T08:00:35.000Z</time>
      </trkpt>
      <trkpt lat="45.90481" lon="6.16422">
        <ele>552.88159179688</ele>
        <time>2017-04-05T08:00:39.000Z</time>
      </trkpt>
      <trkpt lat="45.9048" lon="6.16422">
        <ele>553.67443847656</ele>
        <time>2017-04-05T08:00:41.000Z</time>
      </trkpt>
      <trkpt lat="45.90479" lon="6.16422">
        <ele>554.33660888672</ele>
        <time>2017-04-05T08:00:44.000Z</time>
      </trkpt>
      <trkpt lat="45.90475" lon="6.16425">
        <ele>555.19305419922</ele>
        <time>2017-04-05T08:00:47.000Z</time>
      </trkpt>
      <trkpt lat="45.90469" lon="6.16427">
        <ele>556.3583984375</ele>
        <time>2017-04-05T08:00:50.000Z</time>
      </trkpt>
      <trkpt lat="45.90465" lon="6.16429">
        <ele>557.74481201172</ele>
        <time>2017-04-05T08:00:53.000Z</time>
      </trkpt>
      <trkpt lat="45.90461" lon="6.16432">
        <ele>559.49768066406</ele>
        <time>2017-04-05T08:00:56.000Z</time>
      </trkpt>
      <trkpt lat="45.9046" lon="6.16433">
        <ele>561.42578125</ele>
        <time>2017-04-05T08:00:59.000Z</time>
      </trkpt>
      <trkpt lat="45.90459" lon="6.16438">
        <ele>563.56756591797</ele>
        <time>2017-04-05T08:01:02.000Z</time>
      </trkpt>
      <trkpt lat="45.90456" lon="6.1644">
        <ele>565.55920410156</ele>
        <time>2017-04-05T08:01:05.000Z</time>
      </trkpt>
      <trkpt lat="45.90452" lon="6.1644">
        <ele>567.32537841797</ele>
        <time>2017-04-05T08:01:08.000Z</time>
      </trkpt>
      <trkpt lat="45.90451" lon="6.16439">
        <ele>568.64080810547</ele>
        <time>2017-04-05T08:01:11.000Z</time>
      </trkpt>
      <trkpt lat="45.90449" lon="6.16438">
        <ele>569.69323730469</ele>
        <time>2017-04-05T08:01:13.000Z</time>
      </trkpt>
      <trkpt lat="45.90449" lon="6.16437">
        <ele>569.93768310547</ele>
        <time>2017-04-05T08:01:15.000Z</time>
      </trkpt>
      <trkpt lat="45.90449" lon="6.16429">
        <ele>568.89544677734</ele>
        <time>2017-04-05T08:01:23.000Z</time>
      </trkpt>
      <trkpt lat="45.90451" lon="6.16426">
        <ele>567.16632080078</ele>
        <time>2017-04-05T08:01:26.000Z</time>
      </trkpt>
      <trkpt lat="45.90453" lon="6.16424">
        <ele>565.17987060547</ele>
        <time>2017-04-05T08:01:28.000Z</time>
      </trkpt>
      <trkpt lat="45.90452" lon="6.16425">
        <ele>563.41351318359</ele>
        <time>2017-04-05T08:01:33.000Z</time>
      </trkpt>
      <trkpt lat="45.9045" lon="6.16428">
        <ele>562.18322753906</ele>
        <time>2017-04-05T08:01:35.000Z</time>
      </trkpt>
      <trkpt lat="45.90451" lon="6.16425">
        <ele>561.59503173828</ele>
        <time>2017-04-05T08:01:38.000Z</time>
      </trkpt>
      <trkpt lat="45.90454" lon="6.16423">
        <ele>561.14685058594</ele>
        <time>2017-04-05T08:01:40.000Z</time>
      </trkpt>
      <trkpt lat="45.90455" lon="6.16422">
        <ele>560.81610107422</ele>
        <time>2017-04-05T08:01:43.000Z</time>
      </trkpt>
      <trkpt lat="45.90459" lon="6.16419">
        <ele>559.77893066406</ele>
        <time>2017-04-05T08:01:46.000Z</time>
      </trkpt>
      <trkpt lat="45.90459" lon="6.16419">
        <ele>559.77893066406</ele>
        <time>2017-04-05T08:02:06.000Z</time>
      </trkpt>
      <trkpt lat="45.9046" lon="6.16417">
        <ele>558.19372558594</ele>
        <time>2017-04-05T08:02:09.000Z</time>
      </trkpt>
      <trkpt lat="45.9046" lon="6.16417">
        <ele>558.19372558594</ele>
        <time>2017-04-05T08:02:29.000Z</time>
      </trkpt>
      <trkpt lat="45.9046" lon="6.1642">
        <ele>557.30041503906</ele>
        <time>2017-04-05T08:02:44.000Z</time>
      </trkpt>
      <trkpt lat="45.90458" lon="6.16424">
        <ele>557.39440917969</ele>
        <time>2017-04-05T08:02:47.000Z</time>
      </trkpt>
      <trkpt lat="45.90455" lon="6.16427">
        <ele>557.97808837891</ele>
        <time>2017-04-05T08:02:49.000Z</time>
      </trkpt>
      <trkpt lat="45.90453" lon="6.16429">
        <ele>559.44897460938</ele>
        <time>2017-04-05T08:02:52.000Z</time>
      </trkpt>
      <trkpt lat="45.90452" lon="6.1643">
        <ele>561.31964111328</ele>
        <time>2017-04-05T08:02:55.000Z</time>
      </trkpt>
      <trkpt lat="45.90453" lon="6.1643">
        <ele>562.71569824219</ele>
        <time>2017-04-05T08:02:57.000Z</time>
      </trkpt>
      <trkpt lat="45.90458" lon="6.16426">
        <ele>562.97448730469</ele>
        <time>2017-04-05T08:03:00.000Z</time>
      </trkpt>
      <trkpt lat="45.90459" lon="6.16428">
        <ele>563.05078125</ele>
        <time>2017-04-05T08:03:03.000Z</time>
      </trkpt>
      <trkpt lat="45.90461" lon="6.16427">
        <ele>562.59881591797</ele>
        <time>2017-04-05T08:03:06.000Z</time>
      </trkpt>
      <trkpt lat="45.90461" lon="6.16426">
        <ele>561.80194091797</ele>
        <time>2017-04-05T08:03:08.000Z</time>
      </trkpt>
      <trkpt lat="45.9046" lon="6.16426">
        <ele>561.09411621094</ele>
        <time>2017-04-05T08:03:10.000Z</time>
      </trkpt>
      <trkpt lat="45.90456" lon="6.16425">
        <ele>560.89929199219</ele>
        <time>2017-04-05T08:03:13.000Z</time>
      </trkpt>
      <trkpt lat="45.90455" lon="6.16425">
        <ele>560.58850097656</ele>
        <time>2017-04-05T08:03:15.000Z</time>
      </trkpt>
      <trkpt lat="45.90455" lon="6.16426">
        <ele>560.61682128906</ele>
        <time>2017-04-05T08:03:19.000Z</time>
      </trkpt>
      <trkpt lat="45.90456" lon="6.16427">
        <ele>560.82635498047</ele>
        <time>2017-04-05T08:03:25.000Z</time>
      </trkpt>
      <trkpt lat="45.90456" lon="6.16423">
        <ele>560.62805175781</ele>
        <time>2017-04-05T08:03:28.000Z</time>
      </trkpt>
      <trkpt lat="45.90457" lon="6.16423">
        <ele>560.40673828125</ele>
        <time>2017-04-05T08:03:31.000Z</time>
      </trkpt>
      <trkpt lat="45.90458" lon="6.16425">
        <ele>560.33514404297</ele>
        <time>2017-04-05T08:03:36.000Z</time>
      </trkpt>
      <trkpt lat="45.90459" lon="6.16426">
        <ele>560.13439941406</ele>
        <time>2017-04-05T08:03:39.000Z</time>
      </trkpt>
      <trkpt lat="45.90461" lon="6.16425">
        <ele>559.82012939453</ele>
        <time>2017-04-05T08:03:41.000Z</time>
      </trkpt>
      <trkpt lat="45.90464" lon="6.16425">
        <ele>559.72595214844</ele>
        <time>2017-04-05T08:03:44.000Z</time>
      </trkpt>
      <trkpt lat="45.90465" lon="6.16424">
        <ele>559.62634277344</ele>
        <time>2017-04-05T08:03:46.000Z</time>
      </trkpt>
      <trkpt lat="45.90466" lon="6.16426">
        <ele>559.47082519531</ele>
        <time>2017-04-05T08:03:49.000Z</time>
      </trkpt>
      <trkpt lat="45.90467" lon="6.16427">
        <ele>559.30609130859</ele>
        <time>2017-04-05T08:03:52.000Z</time>
      </trkpt>
      <trkpt lat="45.90468" lon="6.16426">
        <ele>559.16815185547</ele>
        <time>2017-04-05T08:03:55.000Z</time>
      </trkpt>
      <trkpt lat="45.90469" lon="6.16427">
        <ele>559.31573486328</ele>
        <time>2017-04-05T08:03:59.000Z</time>
      </trkpt>
      <trkpt lat="45.9047" lon="6.16428">
        <ele>559.60400390625</ele>
        <time>2017-04-05T08:04:01.000Z</time>
      </trkpt>
      <trkpt lat="45.90471" lon="6.16428">
        <ele>559.76696777344</ele>
        <time>2017-04-05T08:04:03.000Z</time>
      </trkpt>
      <trkpt lat="45.90473" lon="6.16431">
        <ele>560.12219238281</ele>
        <time>2017-04-05T08:04:06.000Z</time>
      </trkpt>
      <trkpt lat="45.90475" lon="6.16433">
        <ele>560.73913574219</ele>
        <time>2017-04-05T08:04:09.000Z</time>
      </trkpt>
      <trkpt lat="45.90477" lon="6.16435">
        <ele>561.41003417969</ele>
        <time>2017-04-05T08:04:12.000Z</time>
      </trkpt>
      <trkpt lat="45.90479" lon="6.16436">
        <ele>561.99572753906</ele>
        <time>2017-04-05T08:04:20.000Z</time>
      </trkpt>
      <trkpt lat="45.9048" lon="6.16437">
        <ele>562.64074707031</ele>
        <time>2017-04-05T08:04:22.000Z</time>
      </trkpt>
      <trkpt lat="45.90482" lon="6.16439">
        <ele>563.23852539062</ele>
        <time>2017-04-05T08:04:25.000Z</time>
      </trkpt>
      <trkpt lat="45.90484" lon="6.1644">
        <ele>563.74530029297</ele>
        <time>2017-04-05T08:04:28.000Z</time>
      </trkpt>
      <trkpt lat="45.90485" lon="6.16443">
        <ele>564.36871337891</ele>
        <time>2017-04-05T08:04:31.000Z</time>
      </trkpt>
      <trkpt lat="45.90485" lon="6.16444">
        <ele>565.16369628906</ele>
        <time>2017-04-05T08:04:34.000Z</time>
      </trkpt>
      <trkpt lat="45.90483" lon="6.16444">
        <ele>565.92004394531</ele>
        <time>2017-04-05T08:04:38.000Z</time>
      </trkpt>
      <trkpt lat="45.90482" lon="6.16444">
        <ele>566.51501464844</ele>
        <time>2017-04-05T08:04:41.000Z</time>
      </trkpt>
      <trkpt lat="45.90481" lon="6.16444">
        <ele>567.0439453125</ele>
        <time>2017-04-05T08:04:43.000Z</time>
      </trkpt>
      <trkpt lat="45.9048" lon="6.16446">
        <ele>567.52673339844</ele>
        <time>2017-04-05T08:04:45.000Z</time>
      </trkpt>
      <trkpt lat="45.90473" lon="6.16447">
        <ele>568.30773925781</ele>
        <time>2017-04-05T08:04:48.000Z</time>
      </trkpt>
      <trkpt lat="45.90469" lon="6.16446">
        <ele>569.05743408203</ele>
        <time>2017-04-05T08:04:51.000Z</time>
      </trkpt>
      <trkpt lat="45.90466" lon="6.16448">
        <ele>570.14837646484</ele>
        <time>2017-04-05T08:04:54.000Z</time>
      </trkpt>
      <trkpt lat="45.90462" lon="6.16451">
        <ele>571.70458984375</ele>
        <time>2017-04-05T08:04:57.000Z</time>
      </trkpt>
      <trkpt lat="45.90456" lon="6.16452">
        <ele>573.41986083984</ele>
        <time>2017-04-05T08:05:00.000Z</time>
      </trkpt>
      <trkpt lat="45.90454" lon="6.16451">
        <ele>574.67523193359</ele>
        <time>2017-04-05T08:05:03.000Z</time>
      </trkpt>
      <trkpt lat="45.90454" lon="6.16448">
        <ele>575.59393310547</ele>
        <time>2017-04-05T08:05:06.000Z</time>
      </trkpt>
      <trkpt lat="45.90452" lon="6.1645">
        <ele>576.37860107422</ele>
        <time>2017-04-05T08:05:09.000Z</time>
      </trkpt>
      <trkpt lat="45.9045" lon="6.16451">
        <ele>576.87554931641</ele>
        <time>2017-04-05T08:05:12.000Z</time>
      </trkpt>
      <trkpt lat="45.90449" lon="6.16451">
        <ele>577.10577392578</ele>
        <time>2017-04-05T08:05:14.000Z</time>
      </trkpt>
      <trkpt lat="45.9045" lon="6.16451">
        <ele>577.24340820312</ele>
        <time>2017-04-05T08:05:17.000Z</time>
      </trkpt>
      <trkpt lat="45.90449" lon="6.16451">
        <ele>577.78845214844</ele>
        <time>2017-04-05T08:05:22.000Z</time>
      </trkpt>
      <trkpt lat="45.90447" lon="6.16453">
        <ele>578.44226074219</ele>
        <time>2017-04-05T08:05:25.000Z</time>
      </trkpt>
      <trkpt lat="45.90446" lon="6.16456">
        <ele>579.23571777344</ele>
        <time>2017-04-05T08:05:28.000Z</time>
      </trkpt>
      <trkpt lat="45.90445" lon="6.16456">
        <ele>579.9921875</ele>
        <time>2017-04-05T08:05:30.000Z</time>
      </trkpt>
      <trkpt lat="45.90444" lon="6.16455">
        <ele>580.82751464844</ele>
        <time>2017-04-05T08:05:33.000Z</time>
      </trkpt>
      <trkpt lat="45.90442" lon="6.16453">
        <ele>581.40197753906</ele>
        <time>2017-04-05T08:05:36.000Z</time>
      </trkpt>
      <trkpt lat="45.9044" lon="6.16451">
        <ele>581.39025878906</ele>
        <time>2017-04-05T08:05:39.000Z</time>
      </trkpt>
      <trkpt lat="45.90437" lon="6.1645">
        <ele>581.04461669922</ele>
        <time>2017-04-05T08:05:41.000Z</time>
      </trkpt>
      <trkpt lat="45.90435" lon="6.1645">
        <ele>580.74188232422</ele>
        <time>2017-04-05T08:05:44.000Z</time>
      </trkpt>
      <trkpt lat="45.90436" lon="6.16451">
        <ele>580.54650878906</ele>
        <time>2017-04-05T08:05:47.000Z</time>
      </trkpt>
      <trkpt lat="45.90436" lon="6.16453">
        <ele>580.79272460938</ele>
        <time>2017-04-05T08:05:51.000Z</time>
      </trkpt>
      <trkpt lat="45.90437" lon="6.16452">
        <ele>581.07183837891</ele>
        <time>2017-04-05T08:05:57.000Z</time>
      </trkpt>
      <trkpt lat="45.90438" lon="6.1645">
        <ele>580.98474121094</ele>
        <time>2017-04-05T08:05:59.000Z</time>
      </trkpt>
      <trkpt lat="45.90438" lon="6.16449">
        <ele>580.60668945312</ele>
        <time>2017-04-05T08:06:01.000Z</time>
      </trkpt>
      <trkpt lat="45.9044" lon="6.16448">
        <ele>580.06530761719</ele>
        <time>2017-04-05T08:06:04.000Z</time>
      </trkpt>
      <trkpt lat="45.90441" lon="6.16449">
        <ele>579.29895019531</ele>
        <time>2017-04-05T08:06:11.000Z</time>
      </trkpt>
      <trkpt lat="45.90442" lon="6.16448">
        <ele>578.64825439453</ele>
        <time>2017-04-05T08:06:16.000Z</time>
      </trkpt>
      <trkpt lat="45.90443" lon="6.16448">
        <ele>578.26287841797</ele>
        <time>2017-04-05T08:06:22.000Z</time>
      </trkpt>
      <trkpt lat="45.90444" lon="6.16448">
        <ele>578.00140380859</ele>
        <time>2017-04-05T08:06:26.000Z</time>
      </trkpt>
      <trkpt lat="45.90445" lon="6.16447">
        <ele>577.67858886719</ele>
        <time>2017-04-05T08:06:29.000Z</time>
      </trkpt>
      <trkpt lat="45.90448" lon="6.16448">
        <ele>577.35064697266</ele>
        <time>2017-04-05T08:06:32.000Z</time>
      </trkpt>
      <trkpt lat="45.90448" lon="6.16449">
        <ele>577.17913818359</ele>
        <time>2017-04-05T08:06:35.000Z</time>
      </trkpt>
      <trkpt lat="45.90451" lon="6.16451">
        <ele>577.19567871094</ele>
        <time>2017-04-05T08:06:38.000Z</time>
      </trkpt>
      <trkpt lat="45.90453" lon="6.16453">
        <ele>577.45007324219</ele>
        <time>2017-04-05T08:06:41.000Z</time>
      </trkpt>
      <trkpt lat="45.90454" lon="6.16456">
        <ele>578.17639160156</ele>
        <time>2017-04-05T08:06:44.000Z</time>
      </trkpt>
      <trkpt lat="45.90455" lon="6.16457">
        <ele>578.9453125</ele>
        <time>2017-04-05T08:06:46.000Z</time>
      </trkpt>
      <trkpt lat="45.90457" lon="6.16457">
        <ele>579.5732421875</ele>
        <time>2017-04-05T08:06:49.000Z</time>
      </trkpt>
      <trkpt lat="45.90458" lon="6.16458">
        <ele>580.12268066406</ele>
        <time>2017-04-05T08:06:54.000Z</time>
      </trkpt>
      <trkpt lat="45.9046" lon="6.16459">
        <ele>580.5380859375</ele>
        <time>2017-04-05T08:06:56.000Z</time>
      </trkpt>
      <trkpt lat="45.90462" lon="6.16461">
        <ele>580.72528076172</ele>
        <time>2017-04-05T08:06:59.000Z</time>
      </trkpt>
      <trkpt lat="45.90464" lon="6.16464">
        <ele>581.14196777344</ele>
        <time>2017-04-05T08:07:02.000Z</time>
      </trkpt>
      <trkpt lat="45.90464" lon="6.16465">
        <ele>581.73974609375</ele>
        <time>2017-04-05T08:07:04.000Z</time>
      </trkpt>
      <trkpt lat="45.90466" lon="6.16466">
        <ele>582.36822509766</ele>
        <time>2017-04-05T08:07:07.000Z</time>
      </trkpt>
      <trkpt lat="45.90468" lon="6.16467">
        <ele>582.96350097656</ele>
        <time>2017-04-05T08:07:09.000Z</time>
      </trkpt>
      <trkpt lat="45.90469" lon="6.16471">
        <ele>583.95324707031</ele>
        <time>2017-04-05T08:07:19.000Z</time>
      </trkpt>
      <trkpt lat="45.90469" lon="6.16471">
        <ele>583.95324707031</ele>
        <time>2017-04-05T08:07:39.000Z</time>
      </trkpt>
      <trkpt lat="45.90469" lon="6.1647">
        <ele>584.47399902344</ele>
        <time>2017-04-05T08:08:00.000Z</time>
      </trkpt>
      <trkpt lat="45.90469" lon="6.1647">
        <ele>584.47399902344</ele>
        <time>2017-04-05T08:08:20.000Z</time>
      </trkpt>
      <trkpt lat="45.90467" lon="6.16466">
        <ele>584.49884033203</ele>
        <time>2017-04-05T08:08:38.000Z</time>
      </trkpt>
      <trkpt lat="45.90467" lon="6.16466">
        <ele>584.49884033203</ele>
        <time>2017-04-05T08:08:58.000Z</time>
      </trkpt>
      <trkpt lat="45.90468" lon="6.16467">
        <ele>584.46960449219</ele>
        <time>2017-04-05T08:09:13.000Z</time>
      </trkpt>
      <trkpt lat="45.90469" lon="6.16468">
        <ele>584.55743408203</ele>
        <time>2017-04-05T08:09:17.000Z</time>
      </trkpt>
      <trkpt lat="45.9047" lon="6.16469">
        <ele>584.28656005859</ele>
        <time>2017-04-05T08:09:20.000Z</time>
      </trkpt>
      <trkpt lat="45.90469" lon="6.1647">
        <ele>584.31085205078</ele>
        <time>2017-04-05T08:09:23.000Z</time>
      </trkpt>
      <trkpt lat="45.90467" lon="6.16473">
        <ele>585.11755371094</ele>
        <time>2017-04-05T08:09:26.000Z</time>
      </trkpt>
      <trkpt lat="45.90466" lon="6.16473">
        <ele>585.98718261719</ele>
        <time>2017-04-05T08:09:29.000Z</time>
      </trkpt>
      <trkpt lat="45.90465" lon="6.16472">
        <ele>586.73260498047</ele>
        <time>2017-04-05T08:09:31.000Z</time>
      </trkpt>
      <trkpt lat="45.90463" lon="6.1647">
        <ele>587.15399169922</ele>
        <time>2017-04-05T08:09:34.000Z</time>
      </trkpt>
      <trkpt lat="45.90463" lon="6.16473">
        <ele>587.74975585938</ele>
        <time>2017-04-05T08:09:36.000Z</time>
      </trkpt>
      <trkpt lat="45.90464" lon="6.16475">
        <ele>588.16943359375</ele>
        <time>2017-04-05T08:09:40.000Z</time>
      </trkpt>
      <trkpt lat="45.90465" lon="6.16475">
        <ele>588.51361083984</ele>
        <time>2017-04-05T08:09:42.000Z</time>
      </trkpt>
      <trkpt lat="45.90467" lon="6.16475">
        <ele>588.77398681641</ele>
        <time>2017-04-05T08:09:44.000Z</time>
      </trkpt>
      <trkpt lat="45.90468" lon="6.16475">
        <ele>589.04803466797</ele>
        <time>2017-04-05T08:09:47.000Z</time>
      </trkpt>
      <trkpt lat="45.90469" lon="6.16474">
        <ele>588.91442871094</ele>
        <time>2017-04-05T08:09:50.000Z</time>
      </trkpt>
      <trkpt lat="45.90471" lon="6.16475">
        <ele>588.62530517578</ele>
        <time>2017-04-05T08:09:53.000Z</time>
      </trkpt>
      <trkpt lat="45.90472" lon="6.16474">
        <ele>588.09680175781</ele>
        <time>2017-04-05T08:09:56.000Z</time>
      </trkpt>
      <trkpt lat="45.90473" lon="6.16473">
        <ele>587.51983642578</ele>
        <time>2017-04-05T08:09:58.000Z</time>
      </trkpt>
      <trkpt lat="45.90474" lon="6.16475">
        <ele>587.27166748047</ele>
        <time>2017-04-05T08:10:01.000Z</time>
      </trkpt>
      <trkpt lat="45.90476" lon="6.16477">
        <ele>587.30731201172</ele>
        <time>2017-04-05T08:10:04.000Z</time>
      </trkpt>
      <trkpt lat="45.90478" lon="6.1648">
        <ele>587.515625</ele>
        <time>2017-04-05T08:10:06.000Z</time>
      </trkpt>
      <trkpt lat="45.9048" lon="6.16483">
        <ele>588.16424560547</ele>
        <time>2017-04-05T08:10:09.000Z</time>
      </trkpt>
      <trkpt lat="45.90481" lon="6.16483">
        <ele>588.92517089844</ele>
        <time>2017-04-05T08:10:11.000Z</time>
      </trkpt>
      <trkpt lat="45.90481" lon="6.16485">
        <ele>589.74584960938</ele>
        <time>2017-04-05T08:10:14.000Z</time>
      </trkpt>
      <trkpt lat="45.9048" lon="6.16487">
        <ele>590.58508300781</ele>
        <time>2017-04-05T08:10:16.000Z</time>
      </trkpt>
      <trkpt lat="45.9048" lon="6.16489">
        <ele>591.44891357422</ele>
        <time>2017-04-05T08:10:18.000Z</time>
      </trkpt>
      <trkpt lat="45.9048" lon="6.16491">
        <ele>592.37274169922</ele>
        <time>2017-04-05T08:10:20.000Z</time>
      </trkpt>
      <trkpt lat="45.90481" lon="6.16493">
        <ele>593.45617675781</ele>
        <time>2017-04-05T08:10:22.000Z</time>
      </trkpt>
      <trkpt lat="45.9048" lon="6.16494">
        <ele>594.44586181641</ele>
        <time>2017-04-05T08:10:24.000Z</time>
      </trkpt>
      <trkpt lat="45.9048" lon="6.16495">
        <ele>595.38983154297</ele>
        <time>2017-04-05T08:10:27.000Z</time>
      </trkpt>
      <trkpt lat="45.90482" lon="6.16495">
        <ele>596.00537109375</ele>
        <time>2017-04-05T08:10:29.000Z</time>
      </trkpt>
      <trkpt lat="45.90484" lon="6.16494">
        <ele>596.06408691406</ele>
        <time>2017-04-05T08:10:32.000Z</time>
      </trkpt>
      <trkpt lat="45.90485" lon="6.16493">
        <ele>595.81915283203</ele>
        <time>2017-04-05T08:10:35.000Z</time>
      </trkpt>
      <trkpt lat="45.90485" lon="6.16491">
        <ele>595.29534912109</ele>
        <time>2017-04-05T08:10:38.000Z</time>
      </trkpt>
      <trkpt lat="45.90485" lon="6.16488">
        <ele>594.22058105469</ele>
        <time>2017-04-05T08:10:41.000Z</time>
      </trkpt>
      <trkpt lat="45.90487" lon="6.16488">
        <ele>593.09838867188</ele>
        <time>2017-04-05T08:10:44.000Z</time>
      </trkpt>
      <trkpt lat="45.90489" lon="6.16489">
        <ele>592.24133300781</ele>
        <time>2017-04-05T08:10:46.000Z</time>
      </trkpt>
      <trkpt lat="45.90493" lon="6.1649">
        <ele>591.47790527344</ele>
        <time>2017-04-05T08:10:49.000Z</time>
      </trkpt>
      <trkpt lat="45.90495" lon="6.16489">
        <ele>590.74536132812</ele>
        <time>2017-04-05T08:10:51.000Z</time>
      </trkpt>
      <trkpt lat="45.90496" lon="6.16489">
        <ele>590.28192138672</ele>
        <time>2017-04-05T08:10:54.000Z</time>
      </trkpt>
      <trkpt lat="45.90497" lon="6.16489">
        <ele>589.85168457031</ele>
        <time>2017-04-05T08:10:57.000Z</time>
      </trkpt>
      <trkpt lat="45.90499" lon="6.16489">
        <ele>589.40155029297</ele>
        <time>2017-04-05T08:11:00.000Z</time>
      </trkpt>
      <trkpt lat="45.905" lon="6.16491">
        <ele>589.14501953125</ele>
        <time>2017-04-05T08:11:03.000Z</time>
      </trkpt>
      <trkpt lat="45.90501" lon="6.16492">
        <ele>589.12780761719</ele>
        <time>2017-04-05T08:11:06.000Z</time>
      </trkpt>
      <trkpt lat="45.90502" lon="6.16493">
        <ele>589.24822998047</ele>
        <time>2017-04-05T08:11:10.000Z</time>
      </trkpt>
      <trkpt lat="45.90504" lon="6.16493">
        <ele>589.43273925781</ele>
        <time>2017-04-05T08:11:13.000Z</time>
      </trkpt>
      <trkpt lat="45.90505" lon="6.16494">
        <ele>589.75006103516</ele>
        <time>2017-04-05T08:11:15.000Z</time>
      </trkpt>
      <trkpt lat="45.90506" lon="6.16495">
        <ele>589.95623779297</ele>
        <time>2017-04-05T08:11:18.000Z</time>
      </trkpt>
      <trkpt lat="45.90508" lon="6.16496">
        <ele>590.13403320312</ele>
        <time>2017-04-05T08:11:20.000Z</time>
      </trkpt>
      <trkpt lat="45.90509" lon="6.16497">
        <ele>590.38391113281</ele>
        <time>2017-04-05T08:11:22.000Z</time>
      </trkpt>
      <trkpt lat="45.9051" lon="6.16497">
        <ele>590.65222167969</ele>
        <time>2017-04-05T08:11:25.000Z</time>
      </trkpt>
      <trkpt lat="45.90511" lon="6.16498">
        <ele>590.85516357422</ele>
        <time>2017-04-05T08:11:28.000Z</time>
      </trkpt>
      <trkpt lat="45.90513" lon="6.165">
        <ele>591.21490478516</ele>
        <time>2017-04-05T08:11:31.000Z</time>
      </trkpt>
      <trkpt lat="45.90514" lon="6.16502">
        <ele>591.69738769531</ele>
        <time>2017-04-05T08:11:33.000Z</time>
      </trkpt>
      <trkpt lat="45.90515" lon="6.16503">
        <ele>592.23248291016</ele>
        <time>2017-04-05T08:11:36.000Z</time>
      </trkpt>
      <trkpt lat="45.90518" lon="6.16504">
        <ele>592.87561035156</ele>
        <time>2017-04-05T08:11:39.000Z</time>
      </trkpt>
      <trkpt lat="45.90519" lon="6.16507">
        <ele>593.85510253906</ele>
        <time>2017-04-05T08:11:42.000Z</time>
      </trkpt>
      <trkpt lat="45.90521" lon="6.16508">
        <ele>594.75317382812</ele>
        <time>2017-04-05T08:11:44.000Z</time>
      </trkpt>
      <trkpt lat="45.90524" lon="6.16508">
        <ele>595.30682373047</ele>
        <time>2017-04-05T08:11:47.000Z</time>
      </trkpt>
      <trkpt lat="45.90525" lon="6.16508">
        <ele>595.76403808594</ele>
        <time>2017-04-05T08:11:49.000Z</time>
      </trkpt>
      <trkpt lat="45.90527" lon="6.16509">
        <ele>596.06707763672</ele>
        <time>2017-04-05T08:11:52.000Z</time>
      </trkpt>
      <trkpt lat="45.90529" lon="6.16507">
        <ele>595.80645751953</ele>
        <time>2017-04-05T08:11:55.000Z</time>
      </trkpt>
      <trkpt lat="45.9053" lon="6.16508">
        <ele>595.47521972656</ele>
        <time>2017-04-05T08:11:58.000Z</time>
      </trkpt>
      <trkpt lat="45.90531" lon="6.16507">
        <ele>595.07800292969</ele>
        <time>2017-04-05T08:12:01.000Z</time>
      </trkpt>
      <trkpt lat="45.90532" lon="6.16505">
        <ele>594.396484375</ele>
        <time>2017-04-05T08:12:03.000Z</time>
      </trkpt>
      <trkpt lat="45.90533" lon="6.16505">
        <ele>593.66943359375</ele>
        <time>2017-04-05T08:12:06.000Z</time>
      </trkpt>
      <trkpt lat="45.90535" lon="6.16504">
        <ele>593.07934570312</ele>
        <time>2017-04-05T08:12:09.000Z</time>
      </trkpt>
      <trkpt lat="45.90536" lon="6.16505">
        <ele>592.46185302734</ele>
        <time>2017-04-05T08:12:12.000Z</time>
      </trkpt>
      <trkpt lat="45.90538" lon="6.16505">
        <ele>592.12237548828</ele>
        <time>2017-04-05T08:12:14.000Z</time>
      </trkpt>
      <trkpt lat="45.90538" lon="6.16506">
        <ele>592.14495849609</ele>
        <time>2017-04-05T08:12:17.000Z</time>
      </trkpt>
      <trkpt lat="45.9054" lon="6.16507">
        <ele>592.25988769531</ele>
        <time>2017-04-05T08:12:20.000Z</time>
      </trkpt>
      <trkpt lat="45.90541" lon="6.16507">
        <ele>592.38726806641</ele>
        <time>2017-04-05T08:12:22.000Z</time>
      </trkpt>
      <trkpt lat="45.90543" lon="6.16508">
        <ele>592.69079589844</ele>
        <time>2017-04-05T08:12:25.000Z</time>
      </trkpt>
      <trkpt lat="45.90545" lon="6.16512">
        <ele>593.36511230469</ele>
        <time>2017-04-05T08:12:28.000Z</time>
      </trkpt>
      <trkpt lat="45.90545" lon="6.16514">
        <ele>594.14715576172</ele>
        <time>2017-04-05T08:12:30.000Z</time>
      </trkpt>
      <trkpt lat="45.90546" lon="6.16515">
        <ele>595.01666259766</ele>
        <time>2017-04-05T08:12:33.000Z</time>
      </trkpt>
      <trkpt lat="45.90547" lon="6.16516">
        <ele>596.00006103516</ele>
        <time>2017-04-05T08:12:35.000Z</time>
      </trkpt>
      <trkpt lat="45.90549" lon="6.16516">
        <ele>596.78802490234</ele>
        <time>2017-04-05T08:12:38.000Z</time>
      </trkpt>
      <trkpt lat="45.90551" lon="6.16516">
        <ele>597.08660888672</ele>
        <time>2017-04-05T08:12:40.000Z</time>
      </trkpt>
      <trkpt lat="45.90554" lon="6.16518">
        <ele>597.23303222656</ele>
        <time>2017-04-05T08:12:43.000Z</time>
      </trkpt>
      <trkpt lat="45.90556" lon="6.16519">
        <ele>597.36346435547</ele>
        <time>2017-04-05T08:12:45.000Z</time>
      </trkpt>
      <trkpt lat="45.90557" lon="6.16521">
        <ele>597.66131591797</ele>
        <time>2017-04-05T08:12:47.000Z</time>
      </trkpt>
      <trkpt lat="45.90557" lon="6.16525">
        <ele>598.48669433594</ele>
        <time>2017-04-05T08:12:50.000Z</time>
      </trkpt>
      <trkpt lat="45.90556" lon="6.16526">
        <ele>599.48577880859</ele>
        <time>2017-04-05T08:12:52.000Z</time>
      </trkpt>
      <trkpt lat="45.90553" lon="6.16528">
        <ele>600.75988769531</ele>
        <time>2017-04-05T08:12:55.000Z</time>
      </trkpt>
      <trkpt lat="45.90552" lon="6.1653">
        <ele>602.30682373047</ele>
        <time>2017-04-05T08:12:57.000Z</time>
      </trkpt>
      <trkpt lat="45.90548" lon="6.16537">
        <ele>604.64581298828</ele>
        <time>2017-04-05T08:13:00.000Z</time>
      </trkpt>
      <trkpt lat="45.90547" lon="6.16536">
        <ele>606.43670654297</ele>
        <time>2017-04-05T08:13:05.000Z</time>
      </trkpt>
      <trkpt lat="45.90548" lon="6.16534">
        <ele>607.81726074219</ele>
        <time>2017-04-05T08:13:08.000Z</time>
      </trkpt>
      <trkpt lat="45.90548" lon="6.16534">
        <ele>608.78869628906</ele>
        <time>2017-04-05T08:13:11.000Z</time>
      </trkpt>
      <trkpt lat="45.90551" lon="6.16535">
        <ele>609.53460693359</ele>
        <time>2017-04-05T08:13:14.000Z</time>
      </trkpt>
      <trkpt lat="45.90553" lon="6.16536">
        <ele>609.17858886719</ele>
        <time>2017-04-05T08:13:16.000Z</time>
      </trkpt>
      <trkpt lat="45.90555" lon="6.16536">
        <ele>608.79577636719</ele>
        <time>2017-04-05T08:13:18.000Z</time>
      </trkpt>
      <trkpt lat="45.90556" lon="6.16534">
        <ele>608.46862792969</ele>
        <time>2017-04-05T08:13:21.000Z</time>
      </trkpt>
      <trkpt lat="45.90556" lon="6.16536">
        <ele>608.40350341797</ele>
        <time>2017-04-05T08:13:26.000Z</time>
      </trkpt>
      <trkpt lat="45.90557" lon="6.16536">
        <ele>608.21319580078</ele>
        <time>2017-04-05T08:13:28.000Z</time>
      </trkpt>
      <trkpt lat="45.90559" lon="6.16536">
        <ele>608.07635498047</ele>
        <time>2017-04-05T08:13:34.000Z</time>
      </trkpt>
      <trkpt lat="45.9056" lon="6.16536">
        <ele>607.8857421875</ele>
        <time>2017-04-05T08:13:36.000Z</time>
      </trkpt>
      <trkpt lat="45.90558" lon="6.16536">
        <ele>608.07727050781</ele>
        <time>2017-04-05T08:13:39.000Z</time>
      </trkpt>
      <trkpt lat="45.90557" lon="6.16537">
        <ele>608.23028564453</ele>
        <time>2017-04-05T08:13:42.000Z</time>
      </trkpt>
      <trkpt lat="45.90555" lon="6.16537">
        <ele>608.41223144531</ele>
        <time>2017-04-05T08:13:45.000Z</time>
      </trkpt>
      <trkpt lat="45.90554" lon="6.16538">
        <ele>608.78332519531</ele>
        <time>2017-04-05T08:13:48.000Z</time>
      </trkpt>
      <trkpt lat="45.90552" lon="6.16539">
        <ele>609.51342773438</ele>
        <time>2017-04-05T08:13:50.000Z</time>
      </trkpt>
      <trkpt lat="45.90553" lon="6.16538">
        <ele>609.98791503906</ele>
        <time>2017-04-05T08:13:53.000Z</time>
      </trkpt>
      <trkpt lat="45.90552" lon="6.16539">
        <ele>610.47351074219</ele>
        <time>2017-04-05T08:13:57.000Z</time>
      </trkpt>
      <trkpt lat="45.9055" lon="6.1654">
        <ele>611.07336425781</ele>
        <time>2017-04-05T08:14:00.000Z</time>
      </trkpt>
      <trkpt lat="45.90548" lon="6.1654">
        <ele>611.64001464844</ele>
        <time>2017-04-05T08:14:03.000Z</time>
      </trkpt>
      <trkpt lat="45.90548" lon="6.16542">
        <ele>612.22821044922</ele>
        <time>2017-04-05T08:14:10.000Z</time>
      </trkpt>
      <trkpt lat="45.90548" lon="6.16544">
        <ele>613.09783935547</ele>
        <time>2017-04-05T08:14:17.000Z</time>
      </trkpt>
      <trkpt lat="45.90549" lon="6.16545">
        <ele>613.88610839844</ele>
        <time>2017-04-05T08:14:20.000Z</time>
      </trkpt>
      <trkpt lat="45.9055" lon="6.16545">
        <ele>614.57818603516</ele>
        <time>2017-04-05T08:14:23.000Z</time>
      </trkpt>
      <trkpt lat="45.9055" lon="6.16547">
        <ele>615.35095214844</ele>
        <time>2017-04-05T08:14:40.000Z</time>
      </trkpt>
      <trkpt lat="45.90551" lon="6.16547">
        <ele>615.86486816406</ele>
        <time>2017-04-05T08:14:44.000Z</time>
      </trkpt>
      <trkpt lat="45.90552" lon="6.16548">
        <ele>616.21331787109</ele>
        <time>2017-04-05T08:14:46.000Z</time>
      </trkpt>
      <trkpt lat="45.90552" lon="6.1655">
        <ele>616.72546386719</ele>
        <time>2017-04-05T08:14:49.000Z</time>
      </trkpt>
      <trkpt lat="45.90552" lon="6.16552">
        <ele>617.52880859375</ele>
        <time>2017-04-05T08:14:52.000Z</time>
      </trkpt>
      <trkpt lat="45.90552" lon="6.16554">
        <ele>618.35125732422</ele>
        <time>2017-04-05T08:14:54.000Z</time>
      </trkpt>
      <trkpt lat="45.90551" lon="6.16555">
        <ele>619.34649658203</ele>
        <time>2017-04-05T08:14:57.000Z</time>
      </trkpt>
      <trkpt lat="45.90551" lon="6.16557">
        <ele>620.52917480469</ele>
        <time>2017-04-05T08:15:00.000Z</time>
      </trkpt>
      <trkpt lat="45.9055" lon="6.16559">
        <ele>621.78112792969</ele>
        <time>2017-04-05T08:15:02.000Z</time>
      </trkpt>
      <trkpt lat="45.9055" lon="6.16562">
        <ele>623.09930419922</ele>
        <time>2017-04-05T08:15:05.000Z</time>
      </trkpt>
      <trkpt lat="45.90551" lon="6.16564">
        <ele>624.43292236328</ele>
        <time>2017-04-05T08:15:08.000Z</time>
      </trkpt>
      <trkpt lat="45.90548" lon="6.16566">
        <ele>625.90637207031</ele>
        <time>2017-04-05T08:15:10.000Z</time>
      </trkpt>
      <trkpt lat="45.90542" lon="6.16567">
        <ele>627.58264160156</ele>
        <time>2017-04-05T08:15:13.000Z</time>
      </trkpt>
      <trkpt lat="45.90542" lon="6.16564">
        <ele>628.55505371094</ele>
        <time>2017-04-05T08:15:16.000Z</time>
      </trkpt>
      <trkpt lat="45.90543" lon="6.16563">
        <ele>628.95678710938</ele>
        <time>2017-04-05T08:15:18.000Z</time>
      </trkpt>
      <trkpt lat="45.90544" lon="6.16559">
        <ele>628.67987060547</ele>
        <time>2017-04-05T08:15:21.000Z</time>
      </trkpt>
      <trkpt lat="45.90542" lon="6.16556">
        <ele>627.72088623047</ele>
        <time>2017-04-05T08:15:24.000Z</time>
      </trkpt>
      <trkpt lat="45.90544" lon="6.16556">
        <ele>626.25799560547</ele>
        <time>2017-04-05T08:15:27.000Z</time>
      </trkpt>
      <trkpt lat="45.90542" lon="6.16557">
        <ele>625.42883300781</ele>
        <time>2017-04-05T08:15:30.000Z</time>
      </trkpt>
      <trkpt lat="45.90538" lon="6.16559">
        <ele>625.11309814453</ele>
        <time>2017-04-05T08:15:32.000Z</time>
      </trkpt>
      <trkpt lat="45.90535" lon="6.16559">
        <ele>625.48376464844</ele>
        <time>2017-04-05T08:15:35.000Z</time>
      </trkpt>
      <trkpt lat="45.90533" lon="6.16561">
        <ele>626.53472900391</ele>
        <time>2017-04-05T08:15:37.000Z</time>
      </trkpt>
      <trkpt lat="45.90531" lon="6.1656">
        <ele>627.71325683594</ele>
        <time>2017-04-05T08:15:43.000Z</time>
      </trkpt>
      <trkpt lat="45.9053" lon="6.16559">
        <ele>628.44354248047</ele>
        <time>2017-04-05T08:15:46.000Z</time>
      </trkpt>
      <trkpt lat="45.90529" lon="6.16557">
        <ele>628.64910888672</ele>
        <time>2017-04-05T08:15:48.000Z</time>
      </trkpt>
      <trkpt lat="45.9053" lon="6.16556">
        <ele>628.484375</ele>
        <time>2017-04-05T08:15:51.000Z</time>
      </trkpt>
      <trkpt lat="45.9053" lon="6.16558">
        <ele>628.23059082031</ele>
        <time>2017-04-05T08:15:54.000Z</time>
      </trkpt>
      <trkpt lat="45.90528" lon="6.16558">
        <ele>628.09204101562</ele>
        <time>2017-04-05T08:15:57.000Z</time>
      </trkpt>
      <trkpt lat="45.90529" lon="6.16557">
        <ele>627.990234375</ele>
        <time>2017-04-05T08:16:11.000Z</time>
      </trkpt>
      <trkpt lat="45.90527" lon="6.16557">
        <ele>628.05505371094</ele>
        <time>2017-04-05T08:16:24.000Z</time>
      </trkpt>
      <trkpt lat="45.90528" lon="6.16557">
        <ele>628.19421386719</ele>
        <time>2017-04-05T08:16:26.000Z</time>
      </trkpt>
      <trkpt lat="45.90529" lon="6.16559">
        <ele>628.32604980469</ele>
        <time>2017-04-05T08:16:29.000Z</time>
      </trkpt>
      <trkpt lat="45.90528" lon="6.16557">
        <ele>628.19030761719</ele>
        <time>2017-04-05T08:16:34.000Z</time>
      </trkpt>
      <trkpt lat="45.90526" lon="6.16556">
        <ele>628.15570068359</ele>
        <time>2017-04-05T08:16:37.000Z</time>
      </trkpt>
      <trkpt lat="45.90526" lon="6.16558">
        <ele>628.36090087891</ele>
        <time>2017-04-05T08:16:39.000Z</time>
      </trkpt>
      <trkpt lat="45.90528" lon="6.16561">
        <ele>628.96997070312</ele>
        <time>2017-04-05T08:16:41.000Z</time>
      </trkpt>
      <trkpt lat="45.90527" lon="6.16565">
        <ele>629.90698242188</ele>
        <time>2017-04-05T08:16:44.000Z</time>
      </trkpt>
      <trkpt lat="45.90524" lon="6.16566">
        <ele>631.28314208984</ele>
        <time>2017-04-05T08:16:47.000Z</time>
      </trkpt>
      <trkpt lat="45.90522" lon="6.16569">
        <ele>633.17132568359</ele>
        <time>2017-04-05T08:16:50.000Z</time>
      </trkpt>
      <trkpt lat="45.9052" lon="6.16569">
        <ele>634.93438720703</ele>
        <time>2017-04-05T08:16:53.000Z</time>
      </trkpt>
      <trkpt lat="45.90518" lon="6.16566">
        <ele>636.01867675781</ele>
        <time>2017-04-05T08:16:56.000Z</time>
      </trkpt>
      <trkpt lat="45.90516" lon="6.16564">
        <ele>636.35388183594</ele>
        <time>2017-04-05T08:16:58.000Z</time>
      </trkpt>
      <trkpt lat="45.90515" lon="6.16561">
        <ele>636.10314941406</ele>
        <time>2017-04-05T08:17:01.000Z</time>
      </trkpt>
      <trkpt lat="45.90514" lon="6.1656">
        <ele>635.28674316406</ele>
        <time>2017-04-05T08:17:03.000Z</time>
      </trkpt>
      <trkpt lat="45.90512" lon="6.16561">
        <ele>634.56506347656</ele>
        <time>2017-04-05T08:17:06.000Z</time>
      </trkpt>
      <trkpt lat="45.90511" lon="6.16561">
        <ele>634.27423095703</ele>
        <time>2017-04-05T08:17:08.000Z</time>
      </trkpt>
      <trkpt lat="45.90511" lon="6.16563">
        <ele>634.40881347656</ele>
        <time>2017-04-05T08:17:12.000Z</time>
      </trkpt>
      <trkpt lat="45.90509" lon="6.16564">
        <ele>635.08319091797</ele>
        <time>2017-04-05T08:17:14.000Z</time>
      </trkpt>
      <trkpt lat="45.90509" lon="6.16566">
        <ele>636.09704589844</ele>
        <time>2017-04-05T08:17:19.000Z</time>
      </trkpt>
      <trkpt lat="45.90508" lon="6.16567">
        <ele>637.07385253906</ele>
        <time>2017-04-05T08:17:25.000Z</time>
      </trkpt>
      <trkpt lat="45.90504" lon="6.16567">
        <ele>638.17156982422</ele>
        <time>2017-04-05T08:17:28.000Z</time>
      </trkpt>
      <trkpt lat="45.90501" lon="6.16565">
        <ele>639.02947998047</ele>
        <time>2017-04-05T08:17:30.000Z</time>
      </trkpt>
      <trkpt lat="45.90496" lon="6.16564">
        <ele>639.58312988281</ele>
        <time>2017-04-05T08:17:33.000Z</time>
      </trkpt>
      <trkpt lat="45.90493" lon="6.16565">
        <ele>640.16827392578</ele>
        <time>2017-04-05T08:17:36.000Z</time>
      </trkpt>
      <trkpt lat="45.90491" lon="6.16564">
        <ele>640.50262451172</ele>
        <time>2017-04-05T08:17:39.000Z</time>
      </trkpt>
      <trkpt lat="45.9049" lon="6.16559">
        <ele>639.95343017578</ele>
        <time>2017-04-05T08:17:42.000Z</time>
      </trkpt>
      <trkpt lat="45.90487" lon="6.16557">
        <ele>639.25256347656</ele>
        <time>2017-04-05T08:17:45.000Z</time>
      </trkpt>
      <trkpt lat="45.90487" lon="6.16555">
        <ele>638.31988525391</ele>
        <time>2017-04-05T08:17:48.000Z</time>
      </trkpt>
      <trkpt lat="45.90485" lon="6.16555">
        <ele>637.11535644531</ele>
        <time>2017-04-05T08:17:51.000Z</time>
      </trkpt>
      <trkpt lat="45.90483" lon="6.16555">
        <ele>636.13653564453</ele>
        <time>2017-04-05T08:17:53.000Z</time>
      </trkpt>
      <trkpt lat="45.90481" lon="6.16554">
        <ele>635.78167724609</ele>
        <time>2017-04-05T08:17:56.000Z</time>
      </trkpt>
      <trkpt lat="45.90478" lon="6.16556">
        <ele>635.88977050781</ele>
        <time>2017-04-05T08:17:59.000Z</time>
      </trkpt>
      <trkpt lat="45.90476" lon="6.16557">
        <ele>636.50860595703</ele>
        <time>2017-04-05T08:18:02.000Z</time>
      </trkpt>
      <trkpt lat="45.90474" lon="6.16557">
        <ele>637.16174316406</ele>
        <time>2017-04-05T08:18:05.000Z</time>
      </trkpt>
      <trkpt lat="45.90473" lon="6.16556">
        <ele>637.56555175781</ele>
        <time>2017-04-05T08:18:08.000Z</time>
      </trkpt>
      <trkpt lat="45.90472" lon="6.16554">
        <ele>637.82647705078</ele>
        <time>2017-04-05T08:18:11.000Z</time>
      </trkpt>
      <trkpt lat="45.90471" lon="6.16555">
        <ele>637.99169921875</ele>
        <time>2017-04-05T08:18:17.000Z</time>
      </trkpt>
      <trkpt lat="45.90467" lon="6.16557">
        <ele>638.28009033203</ele>
        <time>2017-04-05T08:18:20.000Z</time>
      </trkpt>
      <trkpt lat="45.90462" lon="6.16556">
        <ele>638.53399658203</ele>
        <time>2017-04-05T08:18:25.000Z</time>
      </trkpt>
      <trkpt lat="45.90461" lon="6.16556">
        <ele>639.00543212891</ele>
        <time>2017-04-05T08:18:28.000Z</time>
      </trkpt>
      <trkpt lat="45.90459" lon="6.16554">
        <ele>639.54638671875</ele>
        <time>2017-04-05T08:18:30.000Z</time>
      </trkpt>
      <trkpt lat="45.90458" lon="6.16553">
        <ele>639.80798339844</ele>
        <time>2017-04-05T08:18:32.000Z</time>
      </trkpt>
      <trkpt lat="45.90454" lon="6.16552">
        <ele>639.66925048828</ele>
        <time>2017-04-05T08:18:34.000Z</time>
      </trkpt>
      <trkpt lat="45.90454" lon="6.1655">
        <ele>639.26141357422</ele>
        <time>2017-04-05T08:18:36.000Z</time>
      </trkpt>
      <trkpt lat="45.90454" lon="6.16548">
        <ele>638.50738525391</ele>
        <time>2017-04-05T08:18:39.000Z</time>
      </trkpt>
      <trkpt lat="45.90453" lon="6.16546">
        <ele>637.70275878906</ele>
        <time>2017-04-05T08:18:44.000Z</time>
      </trkpt>
      <trkpt lat="45.90452" lon="6.16545">
        <ele>636.9296875</ele>
        <time>2017-04-05T08:18:46.000Z</time>
      </trkpt>
      <trkpt lat="45.9045" lon="6.16546">
        <ele>636.31622314453</ele>
        <time>2017-04-05T08:18:49.000Z</time>
      </trkpt>
      <trkpt lat="45.90446" lon="6.16547">
        <ele>636.32653808594</ele>
        <time>2017-04-05T08:18:52.000Z</time>
      </trkpt>
      <trkpt lat="45.90443" lon="6.1655">
        <ele>637.01989746094</ele>
        <time>2017-04-05T08:18:55.000Z</time>
      </trkpt>
      <trkpt lat="45.90441" lon="6.16549">
        <ele>637.78143310547</ele>
        <time>2017-04-05T08:18:58.000Z</time>
      </trkpt>
      <trkpt lat="45.9044" lon="6.16547">
        <ele>638.39807128906</ele>
        <time>2017-04-05T08:19:00.000Z</time>
      </trkpt>
      <trkpt lat="45.90437" lon="6.16546">
        <ele>638.91271972656</ele>
        <time>2017-04-05T08:19:03.000Z</time>
      </trkpt>
      <trkpt lat="45.90433" lon="6.16546">
        <ele>639.24493408203</ele>
        <time>2017-04-05T08:19:05.000Z</time>
      </trkpt>
      <trkpt lat="45.9043" lon="6.16544">
        <ele>639.05438232422</ele>
        <time>2017-04-05T08:19:07.000Z</time>
      </trkpt>
      <trkpt lat="45.90428" lon="6.16542">
        <ele>638.80645751953</ele>
        <time>2017-04-05T08:19:09.000Z</time>
      </trkpt>
      <trkpt lat="45.90425" lon="6.16541">
        <ele>638.82116699219</ele>
        <time>2017-04-05T08:19:12.000Z</time>
      </trkpt>
      <trkpt lat="45.90423" lon="6.1654">
        <ele>638.80340576172</ele>
        <time>2017-04-05T08:19:14.000Z</time>
      </trkpt>
      <trkpt lat="45.90418" lon="6.16539">
        <ele>638.65966796875</ele>
        <time>2017-04-05T08:19:17.000Z</time>
      </trkpt>
      <trkpt lat="45.90414" lon="6.1654">
        <ele>638.81756591797</ele>
        <time>2017-04-05T08:19:20.000Z</time>
      </trkpt>
      <trkpt lat="45.9041" lon="6.16541">
        <ele>639.39862060547</ele>
        <time>2017-04-05T08:19:23.000Z</time>
      </trkpt>
      <trkpt lat="45.90409" lon="6.16541">
        <ele>640.01538085938</ele>
        <time>2017-04-05T08:19:25.000Z</time>
      </trkpt>
      <trkpt lat="45.90407" lon="6.16542">
        <ele>640.75231933594</ele>
        <time>2017-04-05T08:19:27.000Z</time>
      </trkpt>
      <trkpt lat="45.90403" lon="6.16543">
        <ele>641.78723144531</ele>
        <time>2017-04-05T08:19:29.000Z</time>
      </trkpt>
      <trkpt lat="45.904" lon="6.16545">
        <ele>642.85125732422</ele>
        <time>2017-04-05T08:19:32.000Z</time>
      </trkpt>
      <trkpt lat="45.90398" lon="6.16545">
        <ele>643.74249267578</ele>
        <time>2017-04-05T08:19:34.000Z</time>
      </trkpt>
      <trkpt lat="45.90396" lon="6.16546">
        <ele>644.66149902344</ele>
        <time>2017-04-05T08:19:37.000Z</time>
      </trkpt>
      <trkpt lat="45.90395" lon="6.16546">
        <ele>645.59771728516</ele>
        <time>2017-04-05T08:19:40.000Z</time>
      </trkpt>
      <trkpt lat="45.90392" lon="6.16546">
        <ele>646.302734375</ele>
        <time>2017-04-05T08:19:43.000Z</time>
      </trkpt>
      <trkpt lat="45.90392" lon="6.16545">
        <ele>646.62017822266</ele>
        <time>2017-04-05T08:19:45.000Z</time>
      </trkpt>
      <trkpt lat="45.90391" lon="6.16543">
        <ele>646.64373779297</ele>
        <time>2017-04-05T08:19:48.000Z</time>
      </trkpt>
      <trkpt lat="45.90387" lon="6.16544">
        <ele>646.771484375</ele>
        <time>2017-04-05T08:19:51.000Z</time>
      </trkpt>
      <trkpt lat="45.90385" lon="6.16544">
        <ele>646.90362548828</ele>
        <time>2017-04-05T08:19:53.000Z</time>
      </trkpt>
      <trkpt lat="45.90384" lon="6.16544">
        <ele>646.98229980469</ele>
        <time>2017-04-05T08:19:56.000Z</time>
      </trkpt>
      <trkpt lat="45.90383" lon="6.16544">
        <ele>647.21130371094</ele>
        <time>2017-04-05T08:19:59.000Z</time>
      </trkpt>
      <trkpt lat="45.90383" lon="6.16545">
        <ele>647.76226806641</ele>
        <time>2017-04-05T08:20:03.000Z</time>
      </trkpt>
      <trkpt lat="45.90382" lon="6.16547">
        <ele>648.27990722656</ele>
        <time>2017-04-05T08:20:06.000Z</time>
      </trkpt>
      <trkpt lat="45.90376" lon="6.16545">
        <ele>648.6806640625</ele>
        <time>2017-04-05T08:20:09.000Z</time>
      </trkpt>
      <trkpt lat="45.90375" lon="6.16543">
        <ele>648.85943603516</ele>
        <time>2017-04-05T08:20:11.000Z</time>
      </trkpt>
      <trkpt lat="45.90373" lon="6.1654">
        <ele>648.89715576172</ele>
        <time>2017-04-05T08:20:14.000Z</time>
      </trkpt>
      <trkpt lat="45.90371" lon="6.1654">
        <ele>648.81982421875</ele>
        <time>2017-04-05T08:20:16.000Z</time>
      </trkpt>
      <trkpt lat="45.90371" lon="6.16539">
        <ele>648.44775390625</ele>
        <time>2017-04-05T08:20:21.000Z</time>
      </trkpt>
      <trkpt lat="45.90367" lon="6.16538">
        <ele>648.16857910156</ele>
        <time>2017-04-05T08:20:24.000Z</time>
      </trkpt>
      <trkpt lat="45.90364" lon="6.16538">
        <ele>648.08361816406</ele>
        <time>2017-04-05T08:20:27.000Z</time>
      </trkpt>
      <trkpt lat="45.90363" lon="6.16536">
        <ele>648.05615234375</ele>
        <time>2017-04-05T08:20:29.000Z</time>
      </trkpt>
      <trkpt lat="45.9036" lon="6.16535">
        <ele>648.00274658203</ele>
        <time>2017-04-05T08:20:31.000Z</time>
      </trkpt>
      <trkpt lat="45.90359" lon="6.16535">
        <ele>648.08386230469</ele>
        <time>2017-04-05T08:20:33.000Z</time>
      </trkpt>
      <trkpt lat="45.90358" lon="6.16535">
        <ele>648.09906005859</ele>
        <time>2017-04-05T08:20:36.000Z</time>
      </trkpt>
      <trkpt lat="45.90355" lon="6.16535">
        <ele>648.25079345703</ele>
        <time>2017-04-05T08:20:39.000Z</time>
      </trkpt>
      <trkpt lat="45.90353" lon="6.16535">
        <ele>648.54516601562</ele>
        <time>2017-04-05T08:20:41.000Z</time>
      </trkpt>
      <trkpt lat="45.90349" lon="6.16535">
        <ele>648.97106933594</ele>
        <time>2017-04-05T08:20:44.000Z</time>
      </trkpt>
      <trkpt lat="45.90345" lon="6.16535">
        <ele>649.57666015625</ele>
        <time>2017-04-05T08:20:47.000Z</time>
      </trkpt>
      <trkpt lat="45.90343" lon="6.16534">
        <ele>650.07012939453</ele>
        <time>2017-04-05T08:20:49.000Z</time>
      </trkpt>
      <trkpt lat="45.90341" lon="6.16531">
        <ele>650.27014160156</ele>
        <time>2017-04-05T08:20:52.000Z</time>
      </trkpt>
      <trkpt lat="45.90339" lon="6.16529">
        <ele>650.22613525391</ele>
        <time>2017-04-05T08:20:55.000Z</time>
      </trkpt>
      <trkpt lat="45.90337" lon="6.16528">
        <ele>650.07165527344</ele>
        <time>2017-04-05T08:20:58.000Z</time>
      </trkpt>
      <trkpt lat="45.90336" lon="6.16527">
        <ele>649.67370605469</ele>
        <time>2017-04-05T08:21:00.000Z</time>
      </trkpt>
      <trkpt lat="45.90334" lon="6.16527">
        <ele>649.40759277344</ele>
        <time>2017-04-05T08:21:02.000Z</time>
      </trkpt>
      <trkpt lat="45.90332" lon="6.16526">
        <ele>649.28051757812</ele>
        <time>2017-04-05T08:21:05.000Z</time>
      </trkpt>
      <trkpt lat="45.90329" lon="6.16524">
        <ele>649.2509765625</ele>
        <time>2017-04-05T08:21:08.000Z</time>
      </trkpt>
      <trkpt lat="45.90329" lon="6.16522">
        <ele>649.09686279297</ele>
        <time>2017-04-05T08:21:11.000Z</time>
      </trkpt>
      <trkpt lat="45.90328" lon="6.16521">
        <ele>648.8896484375</ele>
        <time>2017-04-05T08:21:13.000Z</time>
      </trkpt>
      <trkpt lat="45.90328" lon="6.16519">
        <ele>648.43395996094</ele>
        <time>2017-04-05T08:21:16.000Z</time>
      </trkpt>
      <trkpt lat="45.90327" lon="6.16518">
        <ele>647.91333007812</ele>
        <time>2017-04-05T08:21:18.000Z</time>
      </trkpt>
      <trkpt lat="45.90324" lon="6.16517">
        <ele>647.54815673828</ele>
        <time>2017-04-05T08:21:21.000Z</time>
      </trkpt>
      <trkpt lat="45.90322" lon="6.16518">
        <ele>647.41491699219</ele>
        <time>2017-04-05T08:21:24.000Z</time>
      </trkpt>
      <trkpt lat="45.90321" lon="6.16519">
        <ele>647.52410888672</ele>
        <time>2017-04-05T08:21:26.000Z</time>
      </trkpt>
      <trkpt lat="45.90317" lon="6.1652">
        <ele>647.99230957031</ele>
        <time>2017-04-05T08:21:29.000Z</time>
      </trkpt>
      <trkpt lat="45.90312" lon="6.16521">
        <ele>648.79138183594</ele>
        <time>2017-04-05T08:21:32.000Z</time>
      </trkpt>
      <trkpt lat="45.90309" lon="6.16521">
        <ele>649.58605957031</ele>
        <time>2017-04-05T08:21:34.000Z</time>
      </trkpt>
      <trkpt lat="45.90304" lon="6.16521">
        <ele>650.4736328125</ele>
        <time>2017-04-05T08:21:37.000Z</time>
      </trkpt>
      <trkpt lat="45.90303" lon="6.16521">
        <ele>651.23852539062</ele>
        <time>2017-04-05T08:21:39.000Z</time>
      </trkpt>
      <trkpt lat="45.90301" lon="6.16519">
        <ele>651.77166748047</ele>
        <time>2017-04-05T08:21:42.000Z</time>
      </trkpt>
      <trkpt lat="45.903" lon="6.16519">
        <ele>652.02697753906</ele>
        <time>2017-04-05T08:21:46.000Z</time>
      </trkpt>
      <trkpt lat="45.90298" lon="6.16516">
        <ele>651.98889160156</ele>
        <time>2017-04-05T08:21:49.000Z</time>
      </trkpt>
      <trkpt lat="45.90296" lon="6.16514">
        <ele>651.71417236328</ele>
        <time>2017-04-05T08:21:52.000Z</time>
      </trkpt>
      <trkpt lat="45.90294" lon="6.16513">
        <ele>651.41375732422</ele>
        <time>2017-04-05T08:21:54.000Z</time>
      </trkpt>
      <trkpt lat="45.90291" lon="6.16513">
        <ele>651.19519042969</ele>
        <time>2017-04-05T08:21:57.000Z</time>
      </trkpt>
      <trkpt lat="45.90289" lon="6.16512">
        <ele>650.99725341797</ele>
        <time>2017-04-05T08:21:59.000Z</time>
      </trkpt>
      <trkpt lat="45.90287" lon="6.1651">
        <ele>650.92199707031</ele>
        <time>2017-04-05T08:22:02.000Z</time>
      </trkpt>
      <trkpt lat="45.90284" lon="6.16508">
        <ele>650.85070800781</ele>
        <time>2017-04-05T08:22:05.000Z</time>
      </trkpt>
      <trkpt lat="45.90278" lon="6.16509">
        <ele>651.04333496094</ele>
        <time>2017-04-05T08:22:08.000Z</time>
      </trkpt>
      <trkpt lat="45.90274" lon="6.16509">
        <ele>651.37384033203</ele>
        <time>2017-04-05T08:22:11.000Z</time>
      </trkpt>
      <trkpt lat="45.90272" lon="6.16508">
        <ele>651.64294433594</ele>
        <time>2017-04-05T08:22:14.000Z</time>
      </trkpt>
      <trkpt lat="45.90271" lon="6.16507">
        <ele>651.96862792969</ele>
        <time>2017-04-05T08:22:16.000Z</time>
      </trkpt>
      <trkpt lat="45.90269" lon="6.16505">
        <ele>652.23175048828</ele>
        <time>2017-04-05T08:22:19.000Z</time>
      </trkpt>
      <trkpt lat="45.90267" lon="6.16504">
        <ele>652.16278076172</ele>
        <time>2017-04-05T08:22:22.000Z</time>
      </trkpt>
      <trkpt lat="45.90265" lon="6.16503">
        <ele>651.92266845703</ele>
        <time>2017-04-05T08:22:24.000Z</time>
      </trkpt>
      <trkpt lat="45.90262" lon="6.16502">
        <ele>651.72882080078</ele>
        <time>2017-04-05T08:22:27.000Z</time>
      </trkpt>
      <trkpt lat="45.9026" lon="6.16501">
        <ele>651.60485839844</ele>
        <time>2017-04-05T08:22:29.000Z</time>
      </trkpt>
      <trkpt lat="45.90257" lon="6.165">
        <ele>651.61688232422</ele>
        <time>2017-04-05T08:22:31.000Z</time>
      </trkpt>
      <trkpt lat="45.90255" lon="6.16502">
        <ele>651.87268066406</ele>
        <time>2017-04-05T08:22:33.000Z</time>
      </trkpt>
      <trkpt lat="45.90252" lon="6.16502">
        <ele>652.31396484375</ele>
        <time>2017-04-05T08:22:36.000Z</time>
      </trkpt>
      <trkpt lat="45.90249" lon="6.16501">
        <ele>652.67956542969</ele>
        <time>2017-04-05T08:22:39.000Z</time>
      </trkpt>
      <trkpt lat="45.90248" lon="6.16498">
        <ele>652.76617431641</ele>
        <time>2017-04-05T08:22:42.000Z</time>
      </trkpt>
      <trkpt lat="45.90243" lon="6.16495">
        <ele>652.61773681641</ele>
        <time>2017-04-05T08:22:45.000Z</time>
      </trkpt>
      <trkpt lat="45.90237" lon="6.16494">
        <ele>652.29577636719</ele>
        <time>2017-04-05T08:22:48.000Z</time>
      </trkpt>
      <trkpt lat="45.90232" lon="6.16493">
        <ele>651.89862060547</ele>
        <time>2017-04-05T08:22:51.000Z</time>
      </trkpt>
      <trkpt lat="45.90229" lon="6.16494">
        <ele>651.73681640625</ele>
        <time>2017-04-05T08:22:53.000Z</time>
      </trkpt>
      <trkpt lat="45.90223" lon="6.16493">
        <ele>651.82861328125</ele>
        <time>2017-04-05T08:22:56.000Z</time>
      </trkpt>
      <trkpt lat="45.90221" lon="6.1649">
        <ele>651.89404296875</ele>
        <time>2017-04-05T08:22:58.000Z</time>
      </trkpt>
      <trkpt lat="45.90218" lon="6.16491">
        <ele>652.0283203125</ele>
        <time>2017-04-05T08:23:01.000Z</time>
      </trkpt>
      <trkpt lat="45.90215" lon="6.16492">
        <ele>652.27648925781</ele>
        <time>2017-04-05T08:23:03.000Z</time>
      </trkpt>
      <trkpt lat="45.90216" lon="6.1649">
        <ele>652.15264892578</ele>
        <time>2017-04-05T08:23:06.000Z</time>
      </trkpt>
      <trkpt lat="45.90217" lon="6.16488">
        <ele>651.82214355469</ele>
        <time>2017-04-05T08:23:08.000Z</time>
      </trkpt>
      <trkpt lat="45.90216" lon="6.16487">
        <ele>651.55993652344</ele>
        <time>2017-04-05T08:23:10.000Z</time>
      </trkpt>
      <trkpt lat="45.90213" lon="6.16486">
        <ele>651.22424316406</ele>
        <time>2017-04-05T08:23:13.000Z</time>
      </trkpt>
      <trkpt lat="45.9021" lon="6.16485">
        <ele>650.67932128906</ele>
        <time>2017-04-05T08:23:15.000Z</time>
      </trkpt>
      <trkpt lat="45.90209" lon="6.16485">
        <ele>650.36694335938</ele>
        <time>2017-04-05T08:23:18.000Z</time>
      </trkpt>
      <trkpt lat="45.90205" lon="6.16486">
        <ele>650.4296875</ele>
        <time>2017-04-05T08:23:21.000Z</time>
      </trkpt>
      <trkpt lat="45.902" lon="6.16485">
        <ele>650.67932128906</ele>
        <time>2017-04-05T08:23:24.000Z</time>
      </trkpt>
      <trkpt lat="45.90198" lon="6.16484">
        <ele>650.7841796875</ele>
        <time>2017-04-05T08:23:26.000Z</time>
      </trkpt>
      <trkpt lat="45.90196" lon="6.16483">
        <ele>650.83728027344</ele>
        <time>2017-04-05T08:23:31.000Z</time>
      </trkpt>
      <trkpt lat="45.90191" lon="6.16483">
        <ele>651.03076171875</ele>
        <time>2017-04-05T08:23:34.000Z</time>
      </trkpt>
      <trkpt lat="45.90187" lon="6.1648">
        <ele>650.87255859375</ele>
        <time>2017-04-05T08:23:36.000Z</time>
      </trkpt>
      <trkpt lat="45.90185" lon="6.16479">
        <ele>650.59875488281</ele>
        <time>2017-04-05T08:23:38.000Z</time>
      </trkpt>
      <trkpt lat="45.90182" lon="6.16481">
        <ele>650.72235107422</ele>
        <time>2017-04-05T08:23:41.000Z</time>
      </trkpt>
      <trkpt lat="45.90181" lon="6.16483">
        <ele>651.13171386719</ele>
        <time>2017-04-05T08:23:43.000Z</time>
      </trkpt>
      <trkpt lat="45.90179" lon="6.16484">
        <ele>651.57238769531</ele>
        <time>2017-04-05T08:23:45.000Z</time>
      </trkpt>
      <trkpt lat="45.90177" lon="6.16486">
        <ele>652.43969726562</ele>
        <time>2017-04-05T08:23:48.000Z</time>
      </trkpt>
      <trkpt lat="45.90176" lon="6.16485">
        <ele>653.26940917969</ele>
        <time>2017-04-05T08:23:51.000Z</time>
      </trkpt>
      <trkpt lat="45.90174" lon="6.16484">
        <ele>653.81567382812</ele>
        <time>2017-04-05T08:23:53.000Z</time>
      </trkpt>
      <trkpt lat="45.90168" lon="6.16484">
        <ele>654.19116210938</ele>
        <time>2017-04-05T08:23:56.000Z</time>
      </trkpt>
      <trkpt lat="45.90163" lon="6.16485">
        <ele>654.53717041016</ele>
        <time>2017-04-05T08:23:58.000Z</time>
      </trkpt>
      <trkpt lat="45.90159" lon="6.16484">
        <ele>654.63690185547</ele>
        <time>2017-04-05T08:24:01.000Z</time>
      </trkpt>
      <trkpt lat="45.90156" lon="6.16483">
        <ele>654.71173095703</ele>
        <time>2017-04-05T08:24:04.000Z</time>
      </trkpt>
      <trkpt lat="45.90154" lon="6.16483">
        <ele>654.81579589844</ele>
        <time>2017-04-05T08:24:06.000Z</time>
      </trkpt>
      <trkpt lat="45.90151" lon="6.16483">
        <ele>654.91479492188</ele>
        <time>2017-04-05T08:24:09.000Z</time>
      </trkpt>
      <trkpt lat="45.90149" lon="6.16484">
        <ele>655.00463867188</ele>
        <time>2017-04-05T08:24:12.000Z</time>
      </trkpt>
      <trkpt lat="45.90147" lon="6.16486">
        <ele>655.21539306641</ele>
        <time>2017-04-05T08:24:14.000Z</time>
      </trkpt>
      <trkpt lat="45.90144" lon="6.16487">
        <ele>655.71661376953</ele>
        <time>2017-04-05T08:24:17.000Z</time>
      </trkpt>
      <trkpt lat="45.9014" lon="6.16488">
        <ele>656.34881591797</ele>
        <time>2017-04-05T08:24:20.000Z</time>
      </trkpt>
      <trkpt lat="45.90137" lon="6.16487">
        <ele>656.82232666016</ele>
        <time>2017-04-05T08:24:23.000Z</time>
      </trkpt>
      <trkpt lat="45.90134" lon="6.16487">
        <ele>657.22344970703</ele>
        <time>2017-04-05T08:24:26.000Z</time>
      </trkpt>
      <trkpt lat="45.90133" lon="6.16485">
        <ele>657.22625732422</ele>
        <time>2017-04-05T08:24:29.000Z</time>
      </trkpt>
      <trkpt lat="45.90131" lon="6.16483">
        <ele>656.87469482422</ele>
        <time>2017-04-05T08:24:32.000Z</time>
      </trkpt>
      <trkpt lat="45.90128" lon="6.16482">
        <ele>656.37548828125</ele>
        <time>2017-04-05T08:24:34.000Z</time>
      </trkpt>
      <trkpt lat="45.90126" lon="6.16479">
        <ele>655.65075683594</ele>
        <time>2017-04-05T08:24:37.000Z</time>
      </trkpt>
      <trkpt lat="45.90125" lon="6.16478">
        <ele>654.66546630859</ele>
        <time>2017-04-05T08:24:40.000Z</time>
      </trkpt>
      <trkpt lat="45.90125" lon="6.16477">
        <ele>653.95050048828</ele>
        <time>2017-04-05T08:24:43.000Z</time>
      </trkpt>
      <trkpt lat="45.9012" lon="6.16478">
        <ele>653.51422119141</ele>
        <time>2017-04-05T08:24:46.000Z</time>
      </trkpt>
      <trkpt lat="45.90118" lon="6.1648">
        <ele>653.29724121094</ele>
        <time>2017-04-05T08:24:48.000Z</time>
      </trkpt>
      <trkpt lat="45.90115" lon="6.1648">
        <ele>653.4599609375</ele>
        <time>2017-04-05T08:24:51.000Z</time>
      </trkpt>
      <trkpt lat="45.90113" lon="6.16479">
        <ele>653.66485595703</ele>
        <time>2017-04-05T08:24:53.000Z</time>
      </trkpt>
      <trkpt lat="45.90111" lon="6.16477">
        <ele>653.73327636719</ele>
        <time>2017-04-05T08:24:55.000Z</time>
      </trkpt>
      <trkpt lat="45.90107" lon="6.16477">
        <ele>653.69439697266</ele>
        <time>2017-04-05T08:24:58.000Z</time>
      </trkpt>
      <trkpt lat="45.90105" lon="6.16478">
        <ele>653.54754638672</ele>
        <time>2017-04-05T08:25:01.000Z</time>
      </trkpt>
      <trkpt lat="45.901" lon="6.16477">
        <ele>653.31359863281</ele>
        <time>2017-04-05T08:25:03.000Z</time>
      </trkpt>
      <trkpt lat="45.90096" lon="6.16476">
        <ele>653.13134765625</ele>
        <time>2017-04-05T08:25:06.000Z</time>
      </trkpt>
      <trkpt lat="45.90095" lon="6.16477">
        <ele>653.14215087891</ele>
        <time>2017-04-05T08:25:09.000Z</time>
      </trkpt>
      <trkpt lat="45.90093" lon="6.16476">
        <ele>653.17999267578</ele>
        <time>2017-04-05T08:25:11.000Z</time>
      </trkpt>
      <trkpt lat="45.90091" lon="6.16475">
        <ele>652.94079589844</ele>
        <time>2017-04-05T08:25:14.000Z</time>
      </trkpt>
      <trkpt lat="45.90089" lon="6.16474">
        <ele>652.61804199219</ele>
        <time>2017-04-05T08:25:16.000Z</time>
      </trkpt>
      <trkpt lat="45.90084" lon="6.16473">
        <ele>652.34564208984</ele>
        <time>2017-04-05T08:25:19.000Z</time>
      </trkpt>
      <trkpt lat="45.90083" lon="6.16474">
        <ele>652.07409667969</ele>
        <time>2017-04-05T08:25:21.000Z</time>
      </trkpt>
      <trkpt lat="45.90081" lon="6.16474">
        <ele>651.83514404297</ele>
        <time>2017-04-05T08:25:23.000Z</time>
      </trkpt>
      <trkpt lat="45.90078" lon="6.16473">
        <ele>651.7451171875</ele>
        <time>2017-04-05T08:25:26.000Z</time>
      </trkpt>
      <trkpt lat="45.90075" lon="6.16475">
        <ele>651.90008544922</ele>
        <time>2017-04-05T08:25:29.000Z</time>
      </trkpt>
      <trkpt lat="45.90073" lon="6.16475">
        <ele>652.14617919922</ele>
        <time>2017-04-05T08:25:32.000Z</time>
      </trkpt>
      <trkpt lat="45.90071" lon="6.16473">
        <ele>652.12774658203</ele>
        <time>2017-04-05T08:25:35.000Z</time>
      </trkpt>
      <trkpt lat="45.90068" lon="6.16472">
        <ele>652.01287841797</ele>
        <time>2017-04-05T08:25:37.000Z</time>
      </trkpt>
      <trkpt lat="45.90065" lon="6.16473">
        <ele>651.96954345703</ele>
        <time>2017-04-05T08:25:40.000Z</time>
      </trkpt>
      <trkpt lat="45.90063" lon="6.16474">
        <ele>651.91564941406</ele>
        <time>2017-04-05T08:25:42.000Z</time>
      </trkpt>
      <trkpt lat="45.90058" lon="6.16477">
        <ele>652.17712402344</ele>
        <time>2017-04-05T08:25:45.000Z</time>
      </trkpt>
      <trkpt lat="45.90053" lon="6.16478">
        <ele>652.85559082031</ele>
        <time>2017-04-05T08:25:48.000Z</time>
      </trkpt>
      <trkpt lat="45.9005" lon="6.1648">
        <ele>653.76525878906</ele>
        <time>2017-04-05T08:25:50.000Z</time>
      </trkpt>
      <trkpt lat="45.90048" lon="6.16482">
        <ele>654.85760498047</ele>
        <time>2017-04-05T08:25:53.000Z</time>
      </trkpt>
      <trkpt lat="45.90046" lon="6.16483">
        <ele>655.95104980469</ele>
        <time>2017-04-05T08:25:55.000Z</time>
      </trkpt>
      <trkpt lat="45.90047" lon="6.16482">
        <ele>656.62109375</ele>
        <time>2017-04-05T08:25:59.000Z</time>
      </trkpt>
      <trkpt lat="45.90046" lon="6.16484">
        <ele>657.27282714844</ele>
        <time>2017-04-05T08:26:03.000Z</time>
      </trkpt>
      <trkpt lat="45.90044" lon="6.16487">
        <ele>658.05291748047</ele>
        <time>2017-04-05T08:26:05.000Z</time>
      </trkpt>
      <trkpt lat="45.90042" lon="6.16489">
        <ele>658.79040527344</ele>
        <time>2017-04-05T08:26:07.000Z</time>
      </trkpt>
      <trkpt lat="45.9004" lon="6.16492">
        <ele>659.75738525391</ele>
        <time>2017-04-05T08:26:09.000Z</time>
      </trkpt>
      <trkpt lat="45.90037" lon="6.16495">
        <ele>661.15106201172</ele>
        <time>2017-04-05T08:26:12.000Z</time>
      </trkpt>
      <trkpt lat="45.90036" lon="6.16496">
        <ele>662.49230957031</ele>
        <time>2017-04-05T08:26:14.000Z</time>
      </trkpt>
      <trkpt lat="45.90033" lon="6.16501">
        <ele>663.98919677734</ele>
        <time>2017-04-05T08:26:17.000Z</time>
      </trkpt>
      <trkpt lat="45.90034" lon="6.16501">
        <ele>665.2900390625</ele>
        <time>2017-04-05T08:26:21.000Z</time>
      </trkpt>
      <trkpt lat="45.90033" lon="6.16502">
        <ele>666.28479003906</ele>
        <time>2017-04-05T08:26:25.000Z</time>
      </trkpt>
      <trkpt lat="45.90031" lon="6.16502">
        <ele>666.91125488281</ele>
        <time>2017-04-05T08:26:28.000Z</time>
      </trkpt>
      <trkpt lat="45.90026" lon="6.16501">
        <ele>667.36444091797</ele>
        <time>2017-04-05T08:26:31.000Z</time>
      </trkpt>
      <trkpt lat="45.90025" lon="6.16499">
        <ele>667.22424316406</ele>
        <time>2017-04-05T08:26:34.000Z</time>
      </trkpt>
      <trkpt lat="45.90022" lon="6.16496">
        <ele>666.73602294922</ele>
        <time>2017-04-05T08:26:37.000Z</time>
      </trkpt>
      <trkpt lat="45.90021" lon="6.16494">
        <ele>666.02276611328</ele>
        <time>2017-04-05T08:26:39.000Z</time>
      </trkpt>
      <trkpt lat="45.9002" lon="6.16495">
        <ele>665.41943359375</ele>
        <time>2017-04-05T08:26:42.000Z</time>
      </trkpt>
      <trkpt lat="45.90016" lon="6.16497">
        <ele>665.07299804688</ele>
        <time>2017-04-05T08:26:45.000Z</time>
      </trkpt>
      <trkpt lat="45.90013" lon="6.16498">
        <ele>664.96746826172</ele>
        <time>2017-04-05T08:26:47.000Z</time>
      </trkpt>
      <trkpt lat="45.90009" lon="6.16498">
        <ele>665.21435546875</ele>
        <time>2017-04-05T08:26:49.000Z</time>
      </trkpt>
      <trkpt lat="45.90007" lon="6.16498">
        <ele>665.66082763672</ele>
        <time>2017-04-05T08:26:52.000Z</time>
      </trkpt>
      <trkpt lat="45.90001" lon="6.165">
        <ele>666.12567138672</ele>
        <time>2017-04-05T08:26:55.000Z</time>
      </trkpt>
      <trkpt lat="45.89997" lon="6.16501">
        <ele>666.22137451172</ele>
        <time>2017-04-05T08:26:57.000Z</time>
      </trkpt>
      <trkpt lat="45.89992" lon="6.16503">
        <ele>665.919921875</ele>
        <time>2017-04-05T08:27:00.000Z</time>
      </trkpt>
      <trkpt lat="45.89988" lon="6.16504">
        <ele>665.32629394531</ele>
        <time>2017-04-05T08:27:03.000Z</time>
      </trkpt>
      <trkpt lat="45.89987" lon="6.16505">
        <ele>664.65277099609</ele>
        <time>2017-04-05T08:27:05.000Z</time>
      </trkpt>
      <trkpt lat="45.89986" lon="6.16505">
        <ele>663.77770996094</ele>
        <time>2017-04-05T08:27:09.000Z</time>
      </trkpt>
      <trkpt lat="45.89983" lon="6.16502">
        <ele>662.75756835938</ele>
        <time>2017-04-05T08:27:13.000Z</time>
      </trkpt>
      <trkpt lat="45.89981" lon="6.165">
        <ele>661.85241699219</ele>
        <time>2017-04-05T08:27:15.000Z</time>
      </trkpt>
      <trkpt lat="45.89978" lon="6.16497">
        <ele>660.73400878906</ele>
        <time>2017-04-05T08:27:21.000Z</time>
      </trkpt>
      <trkpt lat="45.89977" lon="6.16496">
        <ele>659.51232910156</ele>
        <time>2017-04-05T08:27:24.000Z</time>
      </trkpt>
      <trkpt lat="45.89977" lon="6.16496">
        <ele>658.26574707031</ele>
        <time>2017-04-05T08:27:41.000Z</time>
      </trkpt>
      <trkpt lat="45.89975" lon="6.16496">
        <ele>657.27056884766</ele>
        <time>2017-04-05T08:27:44.000Z</time>
      </trkpt>
      <trkpt lat="45.89973" lon="6.16497">
        <ele>656.36370849609</ele>
        <time>2017-04-05T08:27:54.000Z</time>
      </trkpt>
      <trkpt lat="45.89972" lon="6.16496">
        <ele>655.83233642578</ele>
        <time>2017-04-05T08:27:56.000Z</time>
      </trkpt>
      <trkpt lat="45.89971" lon="6.16494">
        <ele>655.12927246094</ele>
        <time>2017-04-05T08:28:07.000Z</time>
      </trkpt>
      <trkpt lat="45.89969" lon="6.16494">
        <ele>654.35925292969</ele>
        <time>2017-04-05T08:28:10.000Z</time>
      </trkpt>
      <trkpt lat="45.89968" lon="6.16494">
        <ele>653.63244628906</ele>
        <time>2017-04-05T08:28:13.000Z</time>
      </trkpt>
      <trkpt lat="45.89965" lon="6.16494">
        <ele>652.78643798828</ele>
        <time>2017-04-05T08:28:16.000Z</time>
      </trkpt>
      <trkpt lat="45.89964" lon="6.16494">
        <ele>652.00213623047</ele>
        <time>2017-04-05T08:28:18.000Z</time>
      </trkpt>
      <trkpt lat="45.89963" lon="6.16495">
        <ele>651.48358154297</ele>
        <time>2017-04-05T08:28:20.000Z</time>
      </trkpt>
      <trkpt lat="45.8996" lon="6.16495">
        <ele>650.93292236328</ele>
        <time>2017-04-05T08:28:23.000Z</time>
      </trkpt>
      <trkpt lat="45.89957" lon="6.16495">
        <ele>650.23480224609</ele>
        <time>2017-04-05T08:28:26.000Z</time>
      </trkpt>
      <trkpt lat="45.89955" lon="6.16496">
        <ele>649.62677001953</ele>
        <time>2017-04-05T08:28:28.000Z</time>
      </trkpt>
      <trkpt lat="45.89952" lon="6.16495">
        <ele>648.85302734375</ele>
        <time>2017-04-05T08:28:30.000Z</time>
      </trkpt>
      <trkpt lat="45.89949" lon="6.16495">
        <ele>647.88427734375</ele>
        <time>2017-04-05T08:28:33.000Z</time>
      </trkpt>
      <trkpt lat="45.89946" lon="6.16495">
        <ele>646.82556152344</ele>
        <time>2017-04-05T08:28:36.000Z</time>
      </trkpt>
      <trkpt lat="45.89944" lon="6.16495">
        <ele>645.80993652344</ele>
        <time>2017-04-05T08:28:38.000Z</time>
      </trkpt>
      <trkpt lat="45.89942" lon="6.16495">
        <ele>644.79455566406</ele>
        <time>2017-04-05T08:28:40.000Z</time>
      </trkpt>
      <trkpt lat="45.89941" lon="6.16496">
        <ele>643.97137451172</ele>
        <time>2017-04-05T08:28:42.000Z</time>
      </trkpt>
      <trkpt lat="45.89939" lon="6.16497">
        <ele>643.41589355469</ele>
        <time>2017-04-05T08:28:45.000Z</time>
      </trkpt>
      <trkpt lat="45.89938" lon="6.16498">
        <ele>643.21759033203</ele>
        <time>2017-04-05T08:28:47.000Z</time>
      </trkpt>
      <trkpt lat="45.89936" lon="6.16501">
        <ele>643.24041748047</ele>
        <time>2017-04-05T08:28:50.000Z</time>
      </trkpt>
      <trkpt lat="45.89935" lon="6.16502">
        <ele>643.37707519531</ele>
        <time>2017-04-05T08:28:52.000Z</time>
      </trkpt>
      <trkpt lat="45.89934" lon="6.16506">
        <ele>643.517578125</ele>
        <time>2017-04-05T08:28:58.000Z</time>
      </trkpt>
      <trkpt lat="45.89933" lon="6.1651">
        <ele>643.56408691406</ele>
        <time>2017-04-05T08:29:01.000Z</time>
      </trkpt>
      <trkpt lat="45.89933" lon="6.16508">
        <ele>643.55749511719</ele>
        <time>2017-04-05T08:29:04.000Z</time>
      </trkpt>
      <trkpt lat="45.89933" lon="6.16506">
        <ele>643.44421386719</ele>
        <time>2017-04-05T08:29:10.000Z</time>
      </trkpt>
      <trkpt lat="45.89935" lon="6.16505">
        <ele>643.42102050781</ele>
        <time>2017-04-05T08:29:15.000Z</time>
      </trkpt>
      <trkpt lat="45.89937" lon="6.16506">
        <ele>643.61889648438</ele>
        <time>2017-04-05T08:29:18.000Z</time>
      </trkpt>
      <trkpt lat="45.89936" lon="6.16504">
        <ele>643.82598876953</ele>
        <time>2017-04-05T08:29:26.000Z</time>
      </trkpt>
      <trkpt lat="45.89935" lon="6.16504">
        <ele>643.93371582031</ele>
        <time>2017-04-05T08:29:30.000Z</time>
      </trkpt>
      <trkpt lat="45.89935" lon="6.16503">
        <ele>644.04333496094</ele>
        <time>2017-04-05T08:29:37.000Z</time>
      </trkpt>
      <trkpt lat="45.89935" lon="6.16504">
        <ele>644.05810546875</ele>
        <time>2017-04-05T08:29:47.000Z</time>
      </trkpt>
      <trkpt lat="45.89934" lon="6.16505">
        <ele>643.84442138672</ele>
        <time>2017-04-05T08:29:51.000Z</time>
      </trkpt>
      <trkpt lat="45.89934" lon="6.16503">
        <ele>643.65197753906</ele>
        <time>2017-04-05T08:29:54.000Z</time>
      </trkpt>
      <trkpt lat="45.89936" lon="6.16501">
        <ele>643.73413085938</ele>
        <time>2017-04-05T08:29:57.000Z</time>
      </trkpt>
      <trkpt lat="45.89938" lon="6.16502">
        <ele>643.93090820312</ele>
        <time>2017-04-05T08:30:09.000Z</time>
      </trkpt>
      <trkpt lat="45.89937" lon="6.16504">
        <ele>644.07958984375</ele>
        <time>2017-04-05T08:30:22.000Z</time>
      </trkpt>
      <trkpt lat="45.89936" lon="6.16507">
        <ele>644.28405761719</ele>
        <time>2017-04-05T08:30:25.000Z</time>
      </trkpt>
      <trkpt lat="45.89936" lon="6.16511">
        <ele>644.55114746094</ele>
        <time>2017-04-05T08:30:28.000Z</time>
      </trkpt>
      <trkpt lat="45.89937" lon="6.16513">
        <ele>644.71258544922</ele>
        <time>2017-04-05T08:30:31.000Z</time>
      </trkpt>
      <trkpt lat="45.89938" lon="6.16514">
        <ele>644.82232666016</ele>
        <time>2017-04-05T08:30:33.000Z</time>
      </trkpt>
      <trkpt lat="45.89939" lon="6.16516">
        <ele>645.07794189453</ele>
        <time>2017-04-05T08:30:36.000Z</time>
      </trkpt>
      <trkpt lat="45.89938" lon="6.16518">
        <ele>645.31481933594</ele>
        <time>2017-04-05T08:30:39.000Z</time>
      </trkpt>
      <trkpt lat="45.89939" lon="6.16519">
        <ele>645.62609863281</ele>
        <time>2017-04-05T08:30:44.000Z</time>
      </trkpt>
      <trkpt lat="45.89939" lon="6.16521">
        <ele>645.90576171875</ele>
        <time>2017-04-05T08:30:47.000Z</time>
      </trkpt>
      <trkpt lat="45.89939" lon="6.16524">
        <ele>646.14080810547</ele>
        <time>2017-04-05T08:30:52.000Z</time>
      </trkpt>
      <trkpt lat="45.8994" lon="6.16525">
        <ele>646.36895751953</ele>
        <time>2017-04-05T08:31:01.000Z</time>
      </trkpt>
      <trkpt lat="45.89941" lon="6.16526">
        <ele>646.65979003906</ele>
        <time>2017-04-05T08:31:08.000Z</time>
      </trkpt>
      <trkpt lat="45.89939" lon="6.16526">
        <ele>646.76916503906</ele>
        <time>2017-04-05T08:31:26.000Z</time>
      </trkpt>
      <trkpt lat="45.89939" lon="6.16528">
        <ele>646.85662841797</ele>
        <time>2017-04-05T08:31:38.000Z</time>
      </trkpt>
      <trkpt lat="45.8994" lon="6.16532">
        <ele>646.98077392578</ele>
        <time>2017-04-05T08:31:40.000Z</time>
      </trkpt>
      <trkpt lat="45.8994" lon="6.16533">
        <ele>647.05078125</ele>
        <time>2017-04-05T08:31:43.000Z</time>
      </trkpt>
      <trkpt lat="45.89939" lon="6.16534">
        <ele>647.01831054688</ele>
        <time>2017-04-05T08:32:00.000Z</time>
      </trkpt>
      <trkpt lat="45.89939" lon="6.16541">
        <ele>647.12854003906</ele>
        <time>2017-04-05T08:32:08.000Z</time>
      </trkpt>
      <trkpt lat="45.89939" lon="6.16544">
        <ele>647.24542236328</ele>
        <time>2017-04-05T08:32:12.000Z</time>
      </trkpt>
      <trkpt lat="45.89939" lon="6.16544">
        <ele>647.24542236328</ele>
        <time>2017-04-05T08:32:32.000Z</time>
      </trkpt>
      <trkpt lat="45.89938" lon="6.16545">
        <ele>647.23791503906</ele>
        <time>2017-04-05T08:33:00.000Z</time>
      </trkpt>
      <trkpt lat="45.89938" lon="6.16543">
        <ele>647.22058105469</ele>
        <time>2017-04-05T08:33:02.000Z</time>
      </trkpt>
      <trkpt lat="45.8994" lon="6.1654">
        <ele>647.35302734375</ele>
        <time>2017-04-05T08:33:04.000Z</time>
      </trkpt>
      <trkpt lat="45.89942" lon="6.16539">
        <ele>647.58624267578</ele>
        <time>2017-04-05T08:33:07.000Z</time>
      </trkpt>
      <trkpt lat="45.89943" lon="6.16537">
        <ele>647.8984375</ele>
        <time>2017-04-05T08:33:19.000Z</time>
      </trkpt>
      <trkpt lat="45.89944" lon="6.16536">
        <ele>648.34344482422</ele>
        <time>2017-04-05T08:33:22.000Z</time>
      </trkpt>
      <trkpt lat="45.89946" lon="6.16535">
        <ele>648.82971191406</ele>
        <time>2017-04-05T08:33:24.000Z</time>
      </trkpt>
      <trkpt lat="45.89948" lon="6.16535">
        <ele>649.37518310547</ele>
        <time>2017-04-05T08:33:27.000Z</time>
      </trkpt>
      <trkpt lat="45.89949" lon="6.16532">
        <ele>649.86669921875</ele>
        <time>2017-04-05T08:33:30.000Z</time>
      </trkpt>
      <trkpt lat="45.89952" lon="6.1653">
        <ele>650.40753173828</ele>
        <time>2017-04-05T08:33:33.000Z</time>
      </trkpt>
      <trkpt lat="45.89954" lon="6.16529">
        <ele>651.01696777344</ele>
        <time>2017-04-05T08:33:35.000Z</time>
      </trkpt>
      <trkpt lat="45.89955" lon="6.16529">
        <ele>651.69519042969</ele>
        <time>2017-04-05T08:33:38.000Z</time>
      </trkpt>
      <trkpt lat="45.89957" lon="6.16529">
        <ele>652.34875488281</ele>
        <time>2017-04-05T08:33:40.000Z</time>
      </trkpt>
      <trkpt lat="45.89958" lon="6.16529">
        <ele>652.96868896484</ele>
        <time>2017-04-05T08:33:42.000Z</time>
      </trkpt>
      <trkpt lat="45.89959" lon="6.16527">
        <ele>653.52941894531</ele>
        <time>2017-04-05T08:33:45.000Z</time>
      </trkpt>
      <trkpt lat="45.89962" lon="6.16526">
        <ele>654.14556884766</ele>
        <time>2017-04-05T08:33:48.000Z</time>
      </trkpt>
      <trkpt lat="45.89964" lon="6.16525">
        <ele>654.74395751953</ele>
        <time>2017-04-05T08:33:50.000Z</time>
      </trkpt>
      <trkpt lat="45.89965" lon="6.16524">
        <ele>655.28527832031</ele>
        <time>2017-04-05T08:33:52.000Z</time>
      </trkpt>
      <trkpt lat="45.89967" lon="6.16524">
        <ele>655.95983886719</ele>
        <time>2017-04-05T08:33:55.000Z</time>
      </trkpt>
      <trkpt lat="45.8997" lon="6.16524">
        <ele>656.69079589844</ele>
        <time>2017-04-05T08:33:58.000Z</time>
      </trkpt>
      <trkpt lat="45.89971" lon="6.16524">
        <ele>657.31872558594</ele>
        <time>2017-04-05T08:34:00.000Z</time>
      </trkpt>
      <trkpt lat="45.89973" lon="6.16526">
        <ele>658.08856201172</ele>
        <time>2017-04-05T08:34:03.000Z</time>
      </trkpt>
      <trkpt lat="45.89977" lon="6.16527">
        <ele>659.05725097656</ele>
        <time>2017-04-05T08:34:06.000Z</time>
      </trkpt>
      <trkpt lat="45.89978" lon="6.16527">
        <ele>659.90399169922</ele>
        <time>2017-04-05T08:34:09.000Z</time>
      </trkpt>
      <trkpt lat="45.8998" lon="6.16526">
        <ele>660.79412841797</ele>
        <time>2017-04-05T08:34:12.000Z</time>
      </trkpt>
      <trkpt lat="45.89982" lon="6.16526">
        <ele>661.66473388672</ele>
        <time>2017-04-05T08:34:14.000Z</time>
      </trkpt>
      <trkpt lat="45.89984" lon="6.16526">
        <ele>662.48968505859</ele>
        <time>2017-04-05T08:34:17.000Z</time>
      </trkpt>
      <trkpt lat="45.89986" lon="6.16528">
        <ele>663.27062988281</ele>
        <time>2017-04-05T08:34:20.000Z</time>
      </trkpt>
      <trkpt lat="45.89989" lon="6.16528">
        <ele>664.16003417969</ele>
        <time>2017-04-05T08:34:23.000Z</time>
      </trkpt>
      <trkpt lat="45.8999" lon="6.16529">
        <ele>664.93371582031</ele>
        <time>2017-04-05T08:34:29.000Z</time>
      </trkpt>
      <trkpt lat="45.89991" lon="6.16529">
        <ele>665.767578125</ele>
        <time>2017-04-05T08:34:31.000Z</time>
      </trkpt>
      <trkpt lat="45.89993" lon="6.1653">
        <ele>666.54083251953</ele>
        <time>2017-04-05T08:34:33.000Z</time>
      </trkpt>
      <trkpt lat="45.89995" lon="6.16532">
        <ele>667.29089355469</ele>
        <time>2017-04-05T08:34:36.000Z</time>
      </trkpt>
      <trkpt lat="45.89997" lon="6.16535">
        <ele>668.08758544922</ele>
        <time>2017-04-05T08:34:39.000Z</time>
      </trkpt>
      <trkpt lat="45.89998" lon="6.16535">
        <ele>668.91461181641</ele>
        <time>2017-04-05T08:34:41.000Z</time>
      </trkpt>
      <trkpt lat="45.89999" lon="6.16535">
        <ele>669.65130615234</ele>
        <time>2017-04-05T08:34:44.000Z</time>
      </trkpt>
      <trkpt lat="45.90001" lon="6.16536">
        <ele>670.35949707031</ele>
        <time>2017-04-05T08:34:47.000Z</time>
      </trkpt>
      <trkpt lat="45.90002" lon="6.16536">
        <ele>670.90545654297</ele>
        <time>2017-04-05T08:34:49.000Z</time>
      </trkpt>
      <trkpt lat="45.90004" lon="6.16537">
        <ele>671.298828125</ele>
        <time>2017-04-05T08:34:52.000Z</time>
      </trkpt>
      <trkpt lat="45.90005" lon="6.16538">
        <ele>671.63049316406</ele>
        <time>2017-04-05T08:34:54.000Z</time>
      </trkpt>
      <trkpt lat="45.90007" lon="6.16538">
        <ele>671.94567871094</ele>
        <time>2017-04-05T08:34:56.000Z</time>
      </trkpt>
      <trkpt lat="45.90008" lon="6.16538">
        <ele>672.20086669922</ele>
        <time>2017-04-05T08:34:59.000Z</time>
      </trkpt>
      <trkpt lat="45.90009" lon="6.16541">
        <ele>672.51354980469</ele>
        <time>2017-04-05T08:35:02.000Z</time>
      </trkpt>
      <trkpt lat="45.9001" lon="6.1654">
        <ele>672.77844238281</ele>
        <time>2017-04-05T08:35:06.000Z</time>
      </trkpt>
      <trkpt lat="45.90012" lon="6.1654">
        <ele>673.01208496094</ele>
        <time>2017-04-05T08:35:10.000Z</time>
      </trkpt>
      <trkpt lat="45.90013" lon="6.1654">
        <ele>673.25592041016</ele>
        <time>2017-04-05T08:35:12.000Z</time>
      </trkpt>
      <trkpt lat="45.90014" lon="6.16541">
        <ele>673.51623535156</ele>
        <time>2017-04-05T08:35:15.000Z</time>
      </trkpt>
      <trkpt lat="45.90016" lon="6.16541">
        <ele>673.72247314453</ele>
        <time>2017-04-05T08:35:18.000Z</time>
      </trkpt>
      <trkpt lat="45.90017" lon="6.16541">
        <ele>673.95184326172</ele>
        <time>2017-04-05T08:35:21.000Z</time>
      </trkpt>
      <trkpt lat="45.90018" lon="6.16541">
        <ele>674.17108154297</ele>
        <time>2017-04-05T08:35:24.000Z</time>
      </trkpt>
      <trkpt lat="45.90022" lon="6.16542">
        <ele>674.51080322266</ele>
        <time>2017-04-05T08:35:27.000Z</time>
      </trkpt>
      <trkpt lat="45.90023" lon="6.16542">
        <ele>674.83575439453</ele>
        <time>2017-04-05T08:35:30.000Z</time>
      </trkpt>
      <trkpt lat="45.90025" lon="6.16544">
        <ele>675.21789550781</ele>
        <time>2017-04-05T08:35:33.000Z</time>
      </trkpt>
      <trkpt lat="45.90026" lon="6.16545">
        <ele>675.62316894531</ele>
        <time>2017-04-05T08:35:36.000Z</time>
      </trkpt>
      <trkpt lat="45.90027" lon="6.16546">
        <ele>676.11572265625</ele>
        <time>2017-04-05T08:35:39.000Z</time>
      </trkpt>
      <trkpt lat="45.90028" lon="6.16547">
        <ele>676.53643798828</ele>
        <time>2017-04-05T08:35:42.000Z</time>
      </trkpt>
      <trkpt lat="45.90027" lon="6.1655">
        <ele>676.96759033203</ele>
        <time>2017-04-05T08:35:45.000Z</time>
      </trkpt>
      <trkpt lat="45.90028" lon="6.1655">
        <ele>677.36669921875</ele>
        <time>2017-04-05T08:35:51.000Z</time>
      </trkpt>
      <trkpt lat="45.90031" lon="6.16552">
        <ele>677.84655761719</ele>
        <time>2017-04-05T08:35:54.000Z</time>
      </trkpt>
      <trkpt lat="45.90033" lon="6.16553">
        <ele>678.38537597656</ele>
        <time>2017-04-05T08:35:56.000Z</time>
      </trkpt>
      <trkpt lat="45.90035" lon="6.16556">
        <ele>679.02868652344</ele>
        <time>2017-04-05T08:35:59.000Z</time>
      </trkpt>
      <trkpt lat="45.90037" lon="6.16557">
        <ele>679.75329589844</ele>
        <time>2017-04-05T08:36:01.000Z</time>
      </trkpt>
      <trkpt lat="45.9004" lon="6.16556">
        <ele>680.49206542969</ele>
        <time>2017-04-05T08:36:04.000Z</time>
      </trkpt>
      <trkpt lat="45.90042" lon="6.16555">
        <ele>681.12268066406</ele>
        <time>2017-04-05T08:36:07.000Z</time>
      </trkpt>
      <trkpt lat="45.90042" lon="6.16557">
        <ele>681.68719482422</ele>
        <time>2017-04-05T08:36:09.000Z</time>
      </trkpt>
      <trkpt lat="45.90043" lon="6.16559">
        <ele>682.19763183594</ele>
        <time>2017-04-05T08:36:12.000Z</time>
      </trkpt>
      <trkpt lat="45.90045" lon="6.16561">
        <ele>682.73693847656</ele>
        <time>2017-04-05T08:36:15.000Z</time>
      </trkpt>
      <trkpt lat="45.90047" lon="6.16562">
        <ele>683.37213134766</ele>
        <time>2017-04-05T08:36:17.000Z</time>
      </trkpt>
      <trkpt lat="45.90049" lon="6.16565">
        <ele>684.16870117188</ele>
        <time>2017-04-05T08:36:20.000Z</time>
      </trkpt>
      <trkpt lat="45.90049" lon="6.16566">
        <ele>684.99359130859</ele>
        <time>2017-04-05T08:36:22.000Z</time>
      </trkpt>
      <trkpt lat="45.9005" lon="6.16568">
        <ele>685.80932617188</ele>
        <time>2017-04-05T08:36:24.000Z</time>
      </trkpt>
      <trkpt lat="45.90051" lon="6.16569">
        <ele>686.58679199219</ele>
        <time>2017-04-05T08:36:27.000Z</time>
      </trkpt>
      <trkpt lat="45.90053" lon="6.16571">
        <ele>687.44079589844</ele>
        <time>2017-04-05T08:36:30.000Z</time>
      </trkpt>
      <trkpt lat="45.90054" lon="6.16573">
        <ele>688.22680664062</ele>
        <time>2017-04-05T08:36:37.000Z</time>
      </trkpt>
      <trkpt lat="45.90057" lon="6.16573">
        <ele>689.04925537109</ele>
        <time>2017-04-05T08:36:39.000Z</time>
      </trkpt>
      <trkpt lat="45.90058" lon="6.16574">
        <ele>689.826171875</ele>
        <time>2017-04-05T08:36:41.000Z</time>
      </trkpt>
      <trkpt lat="45.90061" lon="6.16573">
        <ele>690.59637451172</ele>
        <time>2017-04-05T08:36:44.000Z</time>
      </trkpt>
      <trkpt lat="45.90063" lon="6.16575">
        <ele>691.36395263672</ele>
        <time>2017-04-05T08:36:47.000Z</time>
      </trkpt>
      <trkpt lat="45.90065" lon="6.16576">
        <ele>692.16473388672</ele>
        <time>2017-04-05T08:36:49.000Z</time>
      </trkpt>
      <trkpt lat="45.90066" lon="6.16576">
        <ele>692.87731933594</ele>
        <time>2017-04-05T08:36:51.000Z</time>
      </trkpt>
      <trkpt lat="45.90067" lon="6.16577">
        <ele>693.56512451172</ele>
        <time>2017-04-05T08:36:53.000Z</time>
      </trkpt>
      <trkpt lat="45.90068" lon="6.16576">
        <ele>694.14862060547</ele>
        <time>2017-04-05T08:36:56.000Z</time>
      </trkpt>
      <trkpt lat="45.90071" lon="6.16579">
        <ele>694.90637207031</ele>
        <time>2017-04-05T08:36:59.000Z</time>
      </trkpt>
      <trkpt lat="45.90074" lon="6.16583">
        <ele>695.90014648438</ele>
        <time>2017-04-05T08:37:02.000Z</time>
      </trkpt>
      <trkpt lat="45.90077" lon="6.16585">
        <ele>697.16876220703</ele>
        <time>2017-04-05T08:37:05.000Z</time>
      </trkpt>
      <trkpt lat="45.90079" lon="6.16586">
        <ele>698.55413818359</ele>
        <time>2017-04-05T08:37:08.000Z</time>
      </trkpt>
      <trkpt lat="45.90079" lon="6.16588">
        <ele>700.00042724609</ele>
        <time>2017-04-05T08:37:12.000Z</time>
      </trkpt>
      <trkpt lat="45.90078" lon="6.1659">
        <ele>701.07299804688</ele>
        <time>2017-04-05T08:37:15.000Z</time>
      </trkpt>
      <trkpt lat="45.90078" lon="6.16592">
        <ele>701.91961669922</ele>
        <time>2017-04-05T08:37:18.000Z</time>
      </trkpt>
      <trkpt lat="45.90081" lon="6.16595">
        <ele>702.73492431641</ele>
        <time>2017-04-05T08:37:20.000Z</time>
      </trkpt>
      <trkpt lat="45.90084" lon="6.16595">
        <ele>703.54455566406</ele>
        <time>2017-04-05T08:37:22.000Z</time>
      </trkpt>
      <trkpt lat="45.90086" lon="6.16596">
        <ele>704.32214355469</ele>
        <time>2017-04-05T08:37:24.000Z</time>
      </trkpt>
      <trkpt lat="45.90086" lon="6.16596">
        <ele>704.32214355469</ele>
        <time>2017-04-05T08:37:44.000Z</time>
      </trkpt>
      <trkpt lat="45.90089" lon="6.16597">
        <ele>705.06042480469</ele>
        <time>2017-04-05T08:37:55.000Z</time>
      </trkpt>
      <trkpt lat="45.90089" lon="6.16597">
        <ele>705.61993408203</ele>
        <time>2017-04-05T08:37:58.000Z</time>
      </trkpt>
      <trkpt lat="45.90091" lon="6.16597">
        <ele>705.85272216797</ele>
        <time>2017-04-05T08:38:00.000Z</time>
      </trkpt>
      <trkpt lat="45.90093" lon="6.16598">
        <ele>705.96923828125</ele>
        <time>2017-04-05T08:38:03.000Z</time>
      </trkpt>
      <trkpt lat="45.90095" lon="6.166">
        <ele>706.17962646484</ele>
        <time>2017-04-05T08:38:06.000Z</time>
      </trkpt>
      <trkpt lat="45.90097" lon="6.16601">
        <ele>706.43273925781</ele>
        <time>2017-04-05T08:38:09.000Z</time>
      </trkpt>
      <trkpt lat="45.90099" lon="6.16603">
        <ele>706.77673339844</ele>
        <time>2017-04-05T08:38:11.000Z</time>
      </trkpt>
      <trkpt lat="45.901" lon="6.16604">
        <ele>707.21942138672</ele>
        <time>2017-04-05T08:38:13.000Z</time>
      </trkpt>
      <trkpt lat="45.90103" lon="6.16606">
        <ele>707.71051025391</ele>
        <time>2017-04-05T08:38:16.000Z</time>
      </trkpt>
      <trkpt lat="45.90104" lon="6.16607">
        <ele>708.11016845703</ele>
        <time>2017-04-05T08:38:18.000Z</time>
      </trkpt>
      <trkpt lat="45.90105" lon="6.16608">
        <ele>708.515625</ele>
        <time>2017-04-05T08:38:20.000Z</time>
      </trkpt>
      <trkpt lat="45.90105" lon="6.16609">
        <ele>708.88293457031</ele>
        <time>2017-04-05T08:38:22.000Z</time>
      </trkpt>
      <trkpt lat="45.90107" lon="6.16611">
        <ele>709.29779052734</ele>
        <time>2017-04-05T08:38:24.000Z</time>
      </trkpt>
      <trkpt lat="45.90107" lon="6.16613">
        <ele>709.69439697266</ele>
        <time>2017-04-05T08:38:27.000Z</time>
      </trkpt>
      <trkpt lat="45.90108" lon="6.16614">
        <ele>710.10919189453</ele>
        <time>2017-04-05T08:38:30.000Z</time>
      </trkpt>
      <trkpt lat="45.90109" lon="6.16615">
        <ele>710.53106689453</ele>
        <time>2017-04-05T08:38:34.000Z</time>
      </trkpt>
      <trkpt lat="45.90111" lon="6.16618">
        <ele>711.06274414062</ele>
        <time>2017-04-05T08:38:36.000Z</time>
      </trkpt>
      <trkpt lat="45.90113" lon="6.16619">
        <ele>711.54455566406</ele>
        <time>2017-04-05T08:38:38.000Z</time>
      </trkpt>
      <trkpt lat="45.90116" lon="6.16622">
        <ele>712.08966064453</ele>
        <time>2017-04-05T08:38:41.000Z</time>
      </trkpt>
      <trkpt lat="45.90117" lon="6.16623">
        <ele>712.60491943359</ele>
        <time>2017-04-05T08:38:43.000Z</time>
      </trkpt>
      <trkpt lat="45.90118" lon="6.16623">
        <ele>713.06628417969</ele>
        <time>2017-04-05T08:38:46.000Z</time>
      </trkpt>
      <trkpt lat="45.9012" lon="6.16624">
        <ele>713.423828125</ele>
        <time>2017-04-05T08:38:48.000Z</time>
      </trkpt>
      <trkpt lat="45.90121" lon="6.16626">
        <ele>713.81091308594</ele>
        <time>2017-04-05T08:38:50.000Z</time>
      </trkpt>
      <trkpt lat="45.90123" lon="6.16627">
        <ele>714.08489990234</ele>
        <time>2017-04-05T08:38:52.000Z</time>
      </trkpt>
      <trkpt lat="45.90124" lon="6.16625">
        <ele>714.20324707031</ele>
        <time>2017-04-05T08:38:55.000Z</time>
      </trkpt>
      <trkpt lat="45.90125" lon="6.16626">
        <ele>714.36877441406</ele>
        <time>2017-04-05T08:38:58.000Z</time>
      </trkpt>
      <trkpt lat="45.90126" lon="6.16626">
        <ele>714.50982666016</ele>
        <time>2017-04-05T08:39:01.000Z</time>
      </trkpt>
      <trkpt lat="45.90128" lon="6.16627">
        <ele>714.57958984375</ele>
        <time>2017-04-05T08:39:03.000Z</time>
      </trkpt>
      <trkpt lat="45.90129" lon="6.16628">
        <ele>714.67761230469</ele>
        <time>2017-04-05T08:39:05.000Z</time>
      </trkpt>
      <trkpt lat="45.9013" lon="6.16629">
        <ele>714.95062255859</ele>
        <time>2017-04-05T08:39:07.000Z</time>
      </trkpt>
      <trkpt lat="45.90132" lon="6.16629">
        <ele>715.16418457031</ele>
        <time>2017-04-05T08:39:10.000Z</time>
      </trkpt>
      <trkpt lat="45.90133" lon="6.16631">
        <ele>715.41015625</ele>
        <time>2017-04-05T08:39:12.000Z</time>
      </trkpt>
      <trkpt lat="45.90136" lon="6.16633">
        <ele>715.76654052734</ele>
        <time>2017-04-05T08:39:15.000Z</time>
      </trkpt>
      <trkpt lat="45.90138" lon="6.16634">
        <ele>716.13562011719</ele>
        <time>2017-04-05T08:39:17.000Z</time>
      </trkpt>
      <trkpt lat="45.90141" lon="6.16636">
        <ele>716.55694580078</ele>
        <time>2017-04-05T08:39:20.000Z</time>
      </trkpt>
      <trkpt lat="45.90143" lon="6.16639">
        <ele>717.10986328125</ele>
        <time>2017-04-05T08:39:22.000Z</time>
      </trkpt>
      <trkpt lat="45.90144" lon="6.16641">
        <ele>717.72900390625</ele>
        <time>2017-04-05T08:39:26.000Z</time>
      </trkpt>
      <trkpt lat="45.90146" lon="6.16642">
        <ele>718.28887939453</ele>
        <time>2017-04-05T08:39:29.000Z</time>
      </trkpt>
      <trkpt lat="45.90148" lon="6.16643">
        <ele>718.83349609375</ele>
        <time>2017-04-05T08:39:32.000Z</time>
      </trkpt>
      <trkpt lat="45.9015" lon="6.16645">
        <ele>719.3447265625</ele>
        <time>2017-04-05T08:39:35.000Z</time>
      </trkpt>
      <trkpt lat="45.90152" lon="6.16645">
        <ele>719.76013183594</ele>
        <time>2017-04-05T08:39:37.000Z</time>
      </trkpt>
      <trkpt lat="45.90152" lon="6.16646">
        <ele>720.08233642578</ele>
        <time>2017-04-05T08:39:40.000Z</time>
      </trkpt>
      <trkpt lat="45.90155" lon="6.16648">
        <ele>720.43273925781</ele>
        <time>2017-04-05T08:39:43.000Z</time>
      </trkpt>
      <trkpt lat="45.90157" lon="6.16649">
        <ele>720.79626464844</ele>
        <time>2017-04-05T08:39:45.000Z</time>
      </trkpt>
      <trkpt lat="45.90161" lon="6.16652">
        <ele>721.251953125</ele>
        <time>2017-04-05T08:39:48.000Z</time>
      </trkpt>
      <trkpt lat="45.90163" lon="6.16654">
        <ele>721.80261230469</ele>
        <time>2017-04-05T08:39:50.000Z</time>
      </trkpt>
      <trkpt lat="45.90165" lon="6.16656">
        <ele>722.41998291016</ele>
        <time>2017-04-05T08:39:52.000Z</time>
      </trkpt>
      <trkpt lat="45.90165" lon="6.16656">
        <ele>722.8837890625</ele>
        <time>2017-04-05T08:39:55.000Z</time>
      </trkpt>
      <trkpt lat="45.90167" lon="6.16655">
        <ele>723.24688720703</ele>
        <time>2017-04-05T08:39:58.000Z</time>
      </trkpt>
      <trkpt lat="45.90168" lon="6.16657">
        <ele>723.51306152344</ele>
        <time>2017-04-05T08:40:01.000Z</time>
      </trkpt>
      <trkpt lat="45.90169" lon="6.16659">
        <ele>723.73370361328</ele>
        <time>2017-04-05T08:40:03.000Z</time>
      </trkpt>
      <trkpt lat="45.90167" lon="6.1666">
        <ele>723.96270751953</ele>
        <time>2017-04-05T08:40:06.000Z</time>
      </trkpt>
      <trkpt lat="45.90168" lon="6.16661">
        <ele>724.27911376953</ele>
        <time>2017-04-05T08:40:10.000Z</time>
      </trkpt>
      <trkpt lat="45.9017" lon="6.16663">
        <ele>724.68145751953</ele>
        <time>2017-04-05T08:40:13.000Z</time>
      </trkpt>
      <trkpt lat="45.90171" lon="6.16663">
        <ele>724.984375</ele>
        <time>2017-04-05T08:40:18.000Z</time>
      </trkpt>
      <trkpt lat="45.90172" lon="6.16663">
        <ele>725.19769287109</ele>
        <time>2017-04-05T08:40:22.000Z</time>
      </trkpt>
      <trkpt lat="45.90173" lon="6.16665">
        <ele>725.43048095703</ele>
        <time>2017-04-05T08:40:25.000Z</time>
      </trkpt>
      <trkpt lat="45.90174" lon="6.16666">
        <ele>725.61145019531</ele>
        <time>2017-04-05T08:40:28.000Z</time>
      </trkpt>
      <trkpt lat="45.90176" lon="6.16666">
        <ele>725.69653320312</ele>
        <time>2017-04-05T08:40:30.000Z</time>
      </trkpt>
      <trkpt lat="45.90178" lon="6.16667">
        <ele>725.845703125</ele>
        <time>2017-04-05T08:40:32.000Z</time>
      </trkpt>
      <trkpt lat="45.90179" lon="6.16667">
        <ele>725.92663574219</ele>
        <time>2017-04-05T08:40:35.000Z</time>
      </trkpt>
      <trkpt lat="45.90181" lon="6.16667">
        <ele>725.86267089844</ele>
        <time>2017-04-05T08:40:37.000Z</time>
      </trkpt>
      <trkpt lat="45.90182" lon="6.16668">
        <ele>725.84027099609</ele>
        <time>2017-04-05T08:40:39.000Z</time>
      </trkpt>
      <trkpt lat="45.90183" lon="6.16669">
        <ele>725.95593261719</ele>
        <time>2017-04-05T08:40:42.000Z</time>
      </trkpt>
      <trkpt lat="45.90184" lon="6.1667">
        <ele>726.05242919922</ele>
        <time>2017-04-05T08:40:45.000Z</time>
      </trkpt>
      <trkpt lat="45.90186" lon="6.1667">
        <ele>726.21148681641</ele>
        <time>2017-04-05T08:40:49.000Z</time>
      </trkpt>
      <trkpt lat="45.90187" lon="6.16671">
        <ele>726.38879394531</ele>
        <time>2017-04-05T08:40:53.000Z</time>
      </trkpt>
      <trkpt lat="45.90189" lon="6.16672">
        <ele>726.59033203125</ele>
        <time>2017-04-05T08:40:56.000Z</time>
      </trkpt>
      <trkpt lat="45.9019" lon="6.16673">
        <ele>726.79614257812</ele>
        <time>2017-04-05T08:40:58.000Z</time>
      </trkpt>
      <trkpt lat="45.90191" lon="6.16675">
        <ele>727.05432128906</ele>
        <time>2017-04-05T08:41:01.000Z</time>
      </trkpt>
      <trkpt lat="45.90192" lon="6.16676">
        <ele>727.38397216797</ele>
        <time>2017-04-05T08:41:04.000Z</time>
      </trkpt>
      <trkpt lat="45.90194" lon="6.16677">
        <ele>727.75024414062</ele>
        <time>2017-04-05T08:41:07.000Z</time>
      </trkpt>
      <trkpt lat="45.90196" lon="6.16677">
        <ele>728.03234863281</ele>
        <time>2017-04-05T08:41:10.000Z</time>
      </trkpt>
      <trkpt lat="45.90197" lon="6.16677">
        <ele>728.1533203125</ele>
        <time>2017-04-05T08:41:12.000Z</time>
      </trkpt>
      <trkpt lat="45.90199" lon="6.16676">
        <ele>728.11761474609</ele>
        <time>2017-04-05T08:41:15.000Z</time>
      </trkpt>
      <trkpt lat="45.90201" lon="6.16677">
        <ele>728.03448486328</ele>
        <time>2017-04-05T08:41:18.000Z</time>
      </trkpt>
      <trkpt lat="45.90202" lon="6.16678">
        <ele>727.94665527344</ele>
        <time>2017-04-05T08:41:20.000Z</time>
      </trkpt>
      <trkpt lat="45.90204" lon="6.16678">
        <ele>727.89141845703</ele>
        <time>2017-04-05T08:41:23.000Z</time>
      </trkpt>
      <trkpt lat="45.90205" lon="6.16679">
        <ele>727.90051269531</ele>
        <time>2017-04-05T08:41:25.000Z</time>
      </trkpt>
      <trkpt lat="45.90208" lon="6.16682">
        <ele>728.15966796875</ele>
        <time>2017-04-05T08:41:28.000Z</time>
      </trkpt>
      <trkpt lat="45.9021" lon="6.16683">
        <ele>728.45910644531</ele>
        <time>2017-04-05T08:41:31.000Z</time>
      </trkpt>
      <trkpt lat="45.90212" lon="6.16684">
        <ele>728.7998046875</ele>
        <time>2017-04-05T08:41:34.000Z</time>
      </trkpt>
      <trkpt lat="45.90213" lon="6.16686">
        <ele>729.240234375</ele>
        <time>2017-04-05T08:41:36.000Z</time>
      </trkpt>
      <trkpt lat="45.90215" lon="6.16688">
        <ele>729.81005859375</ele>
        <time>2017-04-05T08:41:38.000Z</time>
      </trkpt>
      <trkpt lat="45.90218" lon="6.16691">
        <ele>730.33184814453</ele>
        <time>2017-04-05T08:41:41.000Z</time>
      </trkpt>
      <trkpt lat="45.9022" lon="6.16691">
        <ele>730.8291015625</ele>
        <time>2017-04-05T08:41:43.000Z</time>
      </trkpt>
      <trkpt lat="45.90222" lon="6.16692">
        <ele>731.27380371094</ele>
        <time>2017-04-05T08:41:46.000Z</time>
      </trkpt>
      <trkpt lat="45.90224" lon="6.16693">
        <ele>731.57446289062</ele>
        <time>2017-04-05T08:41:49.000Z</time>
      </trkpt>
      <trkpt lat="45.90226" lon="6.16694">
        <ele>731.83032226562</ele>
        <time>2017-04-05T08:41:51.000Z</time>
      </trkpt>
      <trkpt lat="45.90227" lon="6.16695">
        <ele>732.02911376953</ele>
        <time>2017-04-05T08:41:53.000Z</time>
      </trkpt>
      <trkpt lat="45.9023" lon="6.16696">
        <ele>732.22857666016</ele>
        <time>2017-04-05T08:41:56.000Z</time>
      </trkpt>
      <trkpt lat="45.90231" lon="6.16697">
        <ele>732.41540527344</ele>
        <time>2017-04-05T08:41:58.000Z</time>
      </trkpt>
      <trkpt lat="45.90232" lon="6.16698">
        <ele>732.69396972656</ele>
        <time>2017-04-05T08:42:00.000Z</time>
      </trkpt>
      <trkpt lat="45.90234" lon="6.16698">
        <ele>732.84783935547</ele>
        <time>2017-04-05T08:42:02.000Z</time>
      </trkpt>
      <trkpt lat="45.90234" lon="6.16696">
        <ele>732.77526855469</ele>
        <time>2017-04-05T08:42:05.000Z</time>
      </trkpt>
      <trkpt lat="45.90235" lon="6.16696">
        <ele>732.61730957031</ele>
        <time>2017-04-05T08:42:08.000Z</time>
      </trkpt>
      <trkpt lat="45.90237" lon="6.16696">
        <ele>732.43133544922</ele>
        <time>2017-04-05T08:42:11.000Z</time>
      </trkpt>
      <trkpt lat="45.90237" lon="6.16697">
        <ele>732.25354003906</ele>
        <time>2017-04-05T08:42:13.000Z</time>
      </trkpt>
      <trkpt lat="45.90239" lon="6.16698">
        <ele>732.18395996094</ele>
        <time>2017-04-05T08:42:15.000Z</time>
      </trkpt>
      <trkpt lat="45.90241" lon="6.167">
        <ele>732.33740234375</ele>
        <time>2017-04-05T08:42:18.000Z</time>
      </trkpt>
      <trkpt lat="45.90243" lon="6.16701">
        <ele>732.60009765625</ele>
        <time>2017-04-05T08:42:20.000Z</time>
      </trkpt>
      <trkpt lat="45.90247" lon="6.16704">
        <ele>733.00476074219</ele>
        <time>2017-04-05T08:42:23.000Z</time>
      </trkpt>
      <trkpt lat="45.90251" lon="6.16705">
        <ele>733.39697265625</ele>
        <time>2017-04-05T08:42:26.000Z</time>
      </trkpt>
      <trkpt lat="45.90252" lon="6.16705">
        <ele>733.65106201172</ele>
        <time>2017-04-05T08:42:29.000Z</time>
      </trkpt>
      <trkpt lat="45.90255" lon="6.16705">
        <ele>733.81085205078</ele>
        <time>2017-04-05T08:42:32.000Z</time>
      </trkpt>
      <trkpt lat="45.90257" lon="6.16707">
        <ele>733.96813964844</ele>
        <time>2017-04-05T08:42:34.000Z</time>
      </trkpt>
      <trkpt lat="45.90258" lon="6.16707">
        <ele>734.009765625</ele>
        <time>2017-04-05T08:42:37.000Z</time>
      </trkpt>
      <trkpt lat="45.9026" lon="6.16708">
        <ele>734.02185058594</ele>
        <time>2017-04-05T08:42:39.000Z</time>
      </trkpt>
      <trkpt lat="45.90261" lon="6.16709">
        <ele>734.15570068359</ele>
        <time>2017-04-05T08:42:41.000Z</time>
      </trkpt>
      <trkpt lat="45.90263" lon="6.16711">
        <ele>734.45446777344</ele>
        <time>2017-04-05T08:42:43.000Z</time>
      </trkpt>
      <trkpt lat="45.90264" lon="6.16713">
        <ele>734.76477050781</ele>
        <time>2017-04-05T08:42:45.000Z</time>
      </trkpt>
      <trkpt lat="45.90266" lon="6.16716">
        <ele>735.2548828125</ele>
        <time>2017-04-05T08:42:48.000Z</time>
      </trkpt>
      <trkpt lat="45.90267" lon="6.16718">
        <ele>735.85656738281</ele>
        <time>2017-04-05T08:42:51.000Z</time>
      </trkpt>
      <trkpt lat="45.90269" lon="6.16719">
        <ele>736.4375</ele>
        <time>2017-04-05T08:42:54.000Z</time>
      </trkpt>
      <trkpt lat="45.9027" lon="6.16719">
        <ele>736.89642333984</ele>
        <time>2017-04-05T08:42:56.000Z</time>
      </trkpt>
      <trkpt lat="45.90272" lon="6.1672">
        <ele>737.32122802734</ele>
        <time>2017-04-05T08:42:59.000Z</time>
      </trkpt>
      <trkpt lat="45.90273" lon="6.16721">
        <ele>737.60266113281</ele>
        <time>2017-04-05T08:43:01.000Z</time>
      </trkpt>
      <trkpt lat="45.90274" lon="6.16722">
        <ele>737.7744140625</ele>
        <time>2017-04-05T08:43:03.000Z</time>
      </trkpt>
      <trkpt lat="45.90275" lon="6.16725">
        <ele>738.08703613281</ele>
        <time>2017-04-05T08:43:06.000Z</time>
      </trkpt>
      <trkpt lat="45.90277" lon="6.16726">
        <ele>738.42565917969</ele>
        <time>2017-04-05T08:43:09.000Z</time>
      </trkpt>
      <trkpt lat="45.90279" lon="6.16727">
        <ele>738.77172851562</ele>
        <time>2017-04-05T08:43:12.000Z</time>
      </trkpt>
      <trkpt lat="45.90281" lon="6.16728">
        <ele>739.09191894531</ele>
        <time>2017-04-05T08:43:14.000Z</time>
      </trkpt>
      <trkpt lat="45.90284" lon="6.16727">
        <ele>739.27270507812</ele>
        <time>2017-04-05T08:43:17.000Z</time>
      </trkpt>
      <trkpt lat="45.90285" lon="6.16727">
        <ele>739.21740722656</ele>
        <time>2017-04-05T08:43:19.000Z</time>
      </trkpt>
      <trkpt lat="45.90288" lon="6.16729">
        <ele>739.24346923828</ele>
        <time>2017-04-05T08:43:22.000Z</time>
      </trkpt>
      <trkpt lat="45.90291" lon="6.1673">
        <ele>739.21411132812</ele>
        <time>2017-04-05T08:43:25.000Z</time>
      </trkpt>
      <trkpt lat="45.90293" lon="6.1673">
        <ele>739.11145019531</ele>
        <time>2017-04-05T08:43:27.000Z</time>
      </trkpt>
      <trkpt lat="45.90297" lon="6.16731">
        <ele>739.13220214844</ele>
        <time>2017-04-05T08:43:30.000Z</time>
      </trkpt>
      <trkpt lat="45.90299" lon="6.16734">
        <ele>739.35681152344</ele>
        <time>2017-04-05T08:43:33.000Z</time>
      </trkpt>
      <trkpt lat="45.90301" lon="6.16736">
        <ele>739.57958984375</ele>
        <time>2017-04-05T08:43:35.000Z</time>
      </trkpt>
      <trkpt lat="45.90302" lon="6.16738">
        <ele>739.94104003906</ele>
        <time>2017-04-05T08:43:38.000Z</time>
      </trkpt>
      <trkpt lat="45.90303" lon="6.1674">
        <ele>740.48669433594</ele>
        <time>2017-04-05T08:43:41.000Z</time>
      </trkpt>
      <trkpt lat="45.90306" lon="6.16743">
        <ele>741.14324951172</ele>
        <time>2017-04-05T08:43:44.000Z</time>
      </trkpt>
      <trkpt lat="45.90307" lon="6.16744">
        <ele>741.712890625</ele>
        <time>2017-04-05T08:43:46.000Z</time>
      </trkpt>
      <trkpt lat="45.90309" lon="6.16745">
        <ele>742.216796875</ele>
        <time>2017-04-05T08:43:49.000Z</time>
      </trkpt>
      <trkpt lat="45.90311" lon="6.16745">
        <ele>742.57391357422</ele>
        <time>2017-04-05T08:43:51.000Z</time>
      </trkpt>
      <trkpt lat="45.90313" lon="6.16746">
        <ele>742.78936767578</ele>
        <time>2017-04-05T08:43:53.000Z</time>
      </trkpt>
      <trkpt lat="45.90315" lon="6.16747">
        <ele>742.89495849609</ele>
        <time>2017-04-05T08:43:55.000Z</time>
      </trkpt>
      <trkpt lat="45.90318" lon="6.16748">
        <ele>742.92980957031</ele>
        <time>2017-04-05T08:43:58.000Z</time>
      </trkpt>
      <trkpt lat="45.90321" lon="6.16748">
        <ele>742.89733886719</ele>
        <time>2017-04-05T08:44:00.000Z</time>
      </trkpt>
      <trkpt lat="45.90325" lon="6.16751">
        <ele>743.09020996094</ele>
        <time>2017-04-05T08:44:03.000Z</time>
      </trkpt>
      <trkpt lat="45.90326" lon="6.16753">
        <ele>743.40295410156</ele>
        <time>2017-04-05T08:44:05.000Z</time>
      </trkpt>
      <trkpt lat="45.90327" lon="6.16751">
        <ele>743.42602539062</ele>
        <time>2017-04-05T08:44:08.000Z</time>
      </trkpt>
      <trkpt lat="45.90329" lon="6.16749">
        <ele>743.23162841797</ele>
        <time>2017-04-05T08:44:11.000Z</time>
      </trkpt>
      <trkpt lat="45.90332" lon="6.16749">
        <ele>743.01934814453</ele>
        <time>2017-04-05T08:44:14.000Z</time>
      </trkpt>
      <trkpt lat="45.90335" lon="6.16749">
        <ele>742.51159667969</ele>
        <time>2017-04-05T08:44:16.000Z</time>
      </trkpt>
      <trkpt lat="45.90338" lon="6.16749">
        <ele>741.81091308594</ele>
        <time>2017-04-05T08:44:19.000Z</time>
      </trkpt>
      <trkpt lat="45.90339" lon="6.16749">
        <ele>741.32678222656</ele>
        <time>2017-04-05T08:44:21.000Z</time>
      </trkpt>
      <trkpt lat="45.90342" lon="6.16748">
        <ele>740.92443847656</ele>
        <time>2017-04-05T08:44:24.000Z</time>
      </trkpt>
      <trkpt lat="45.90344" lon="6.16748">
        <ele>740.53765869141</ele>
        <time>2017-04-05T08:44:27.000Z</time>
      </trkpt>
      <trkpt lat="45.90346" lon="6.16748">
        <ele>740.177734375</ele>
        <time>2017-04-05T08:44:30.000Z</time>
      </trkpt>
      <trkpt lat="45.90345" lon="6.16747">
        <ele>739.84100341797</ele>
        <time>2017-04-05T08:44:37.000Z</time>
      </trkpt>
      <trkpt lat="45.90345" lon="6.16746">
        <ele>739.44128417969</ele>
        <time>2017-04-05T08:44:39.000Z</time>
      </trkpt>
      <trkpt lat="45.90344" lon="6.16743">
        <ele>738.99432373047</ele>
        <time>2017-04-05T08:44:44.000Z</time>
      </trkpt>
      <trkpt lat="45.90345" lon="6.16745">
        <ele>738.72766113281</ele>
        <time>2017-04-05T08:44:48.000Z</time>
      </trkpt>
      <trkpt lat="45.90346" lon="6.16746">
        <ele>738.57061767578</ele>
        <time>2017-04-05T08:44:53.000Z</time>
      </trkpt>
      <trkpt lat="45.90348" lon="6.16747">
        <ele>738.48840332031</ele>
        <time>2017-04-05T08:44:56.000Z</time>
      </trkpt>
      <trkpt lat="45.90346" lon="6.16746">
        <ele>738.50793457031</ele>
        <time>2017-04-05T08:45:07.000Z</time>
      </trkpt>
      <trkpt lat="45.90344" lon="6.16746">
        <ele>738.7041015625</ele>
        <time>2017-04-05T08:45:10.000Z</time>
      </trkpt>
      <trkpt lat="45.90342" lon="6.16745">
        <ele>738.79040527344</ele>
        <time>2017-04-05T08:45:13.000Z</time>
      </trkpt>
      <trkpt lat="45.90339" lon="6.16746">
        <ele>738.951171875</ele>
        <time>2017-04-05T08:45:18.000Z</time>
      </trkpt>
      <trkpt lat="45.90339" lon="6.16748">
        <ele>739.2880859375</ele>
        <time>2017-04-05T08:45:21.000Z</time>
      </trkpt>
      <trkpt lat="45.9034" lon="6.16749">
        <ele>739.67987060547</ele>
        <time>2017-04-05T08:45:23.000Z</time>
      </trkpt>
      <trkpt lat="45.90338" lon="6.16747">
        <ele>739.93469238281</ele>
        <time>2017-04-05T08:45:34.000Z</time>
      </trkpt>
      <trkpt lat="45.90339" lon="6.16746">
        <ele>740.09539794922</ele>
        <time>2017-04-05T08:45:37.000Z</time>
      </trkpt>
      <trkpt lat="45.90339" lon="6.16746">
        <ele>740.11108398438</ele>
        <time>2017-04-05T08:45:40.000Z</time>
      </trkpt>
      <trkpt lat="45.90339" lon="6.16745">
        <ele>739.85662841797</ele>
        <time>2017-04-05T08:45:52.000Z</time>
      </trkpt>
      <trkpt lat="45.9034" lon="6.16745">
        <ele>739.49627685547</ele>
        <time>2017-04-05T08:45:55.000Z</time>
      </trkpt>
      <trkpt lat="45.90343" lon="6.16742">
        <ele>738.98663330078</ele>
        <time>2017-04-05T08:45:58.000Z</time>
      </trkpt>
      <trkpt lat="45.90347" lon="6.16741">
        <ele>738.35479736328</ele>
        <time>2017-04-05T08:46:00.000Z</time>
      </trkpt>
      <trkpt lat="45.90351" lon="6.16741">
        <ele>737.65972900391</ele>
        <time>2017-04-05T08:46:03.000Z</time>
      </trkpt>
      <trkpt lat="45.90354" lon="6.16743">
        <ele>737.08215332031</ele>
        <time>2017-04-05T08:46:06.000Z</time>
      </trkpt>
      <trkpt lat="45.90356" lon="6.16743">
        <ele>736.47302246094</ele>
        <time>2017-04-05T08:46:08.000Z</time>
      </trkpt>
      <trkpt lat="45.90358" lon="6.16742">
        <ele>736.07141113281</ele>
        <time>2017-04-05T08:46:11.000Z</time>
      </trkpt>
      <trkpt lat="45.9036" lon="6.16743">
        <ele>735.81530761719</ele>
        <time>2017-04-05T08:46:13.000Z</time>
      </trkpt>
      <trkpt lat="45.90361" lon="6.16743">
        <ele>735.65399169922</ele>
        <time>2017-04-05T08:46:15.000Z</time>
      </trkpt>
      <trkpt lat="45.90364" lon="6.16746">
        <ele>735.57635498047</ele>
        <time>2017-04-05T08:46:18.000Z</time>
      </trkpt>
      <trkpt lat="45.90368" lon="6.16749">
        <ele>735.75622558594</ele>
        <time>2017-04-05T08:46:21.000Z</time>
      </trkpt>
      <trkpt lat="45.90371" lon="6.1675">
        <ele>736.00659179688</ele>
        <time>2017-04-05T08:46:23.000Z</time>
      </trkpt>
      <trkpt lat="45.90373" lon="6.1675">
        <ele>736.19970703125</ele>
        <time>2017-04-05T08:46:26.000Z</time>
      </trkpt>
      <trkpt lat="45.90376" lon="6.1675">
        <ele>736.33520507812</ele>
        <time>2017-04-05T08:46:29.000Z</time>
      </trkpt>
      <trkpt lat="45.90377" lon="6.16751">
        <ele>736.33514404297</ele>
        <time>2017-04-05T08:46:32.000Z</time>
      </trkpt>
      <trkpt lat="45.90379" lon="6.16751">
        <ele>736.16186523438</ele>
        <time>2017-04-05T08:46:35.000Z</time>
      </trkpt>
      <trkpt lat="45.9038" lon="6.16751">
        <ele>736.01696777344</ele>
        <time>2017-04-05T08:46:38.000Z</time>
      </trkpt>
      <trkpt lat="45.90382" lon="6.16751">
        <ele>735.84497070312</ele>
        <time>2017-04-05T08:46:41.000Z</time>
      </trkpt>
      <trkpt lat="45.90384" lon="6.16753">
        <ele>735.87689208984</ele>
        <time>2017-04-05T08:46:44.000Z</time>
      </trkpt>
      <trkpt lat="45.90385" lon="6.16753">
        <ele>735.8818359375</ele>
        <time>2017-04-05T08:46:46.000Z</time>
      </trkpt>
      <trkpt lat="45.90387" lon="6.16754">
        <ele>735.94470214844</ele>
        <time>2017-04-05T08:46:49.000Z</time>
      </trkpt>
      <trkpt lat="45.90388" lon="6.16755">
        <ele>736.09887695312</ele>
        <time>2017-04-05T08:46:52.000Z</time>
      </trkpt>
      <trkpt lat="45.9039" lon="6.16756">
        <ele>736.48187255859</ele>
        <time>2017-04-05T08:46:57.000Z</time>
      </trkpt>
      <trkpt lat="45.90391" lon="6.16757">
        <ele>736.7568359375</ele>
        <time>2017-04-05T08:46:59.000Z</time>
      </trkpt>
      <trkpt lat="45.90392" lon="6.16758">
        <ele>737.10125732422</ele>
        <time>2017-04-05T08:47:02.000Z</time>
      </trkpt>
      <trkpt lat="45.90393" lon="6.16759">
        <ele>737.50048828125</ele>
        <time>2017-04-05T08:47:04.000Z</time>
      </trkpt>
      <trkpt lat="45.90394" lon="6.1676">
        <ele>737.84423828125</ele>
        <time>2017-04-05T08:47:06.000Z</time>
      </trkpt>
      <trkpt lat="45.90396" lon="6.1676">
        <ele>738.01690673828</ele>
        <time>2017-04-05T08:47:09.000Z</time>
      </trkpt>
      <trkpt lat="45.90399" lon="6.16759">
        <ele>737.97247314453</ele>
        <time>2017-04-05T08:47:12.000Z</time>
      </trkpt>
      <trkpt lat="45.90401" lon="6.1676">
        <ele>737.88671875</ele>
        <time>2017-04-05T08:47:14.000Z</time>
      </trkpt>
      <trkpt lat="45.90404" lon="6.16763">
        <ele>737.92077636719</ele>
        <time>2017-04-05T08:47:17.000Z</time>
      </trkpt>
      <trkpt lat="45.90406" lon="6.16764">
        <ele>737.99060058594</ele>
        <time>2017-04-05T08:47:19.000Z</time>
      </trkpt>
      <trkpt lat="45.90409" lon="6.16765">
        <ele>738.11059570312</ele>
        <time>2017-04-05T08:47:22.000Z</time>
      </trkpt>
      <trkpt lat="45.90412" lon="6.16765">
        <ele>738.39373779297</ele>
        <time>2017-04-05T08:47:25.000Z</time>
      </trkpt>
      <trkpt lat="45.90414" lon="6.16766">
        <ele>738.66418457031</ele>
        <time>2017-04-05T08:47:28.000Z</time>
      </trkpt>
      <trkpt lat="45.90415" lon="6.16766">
        <ele>738.68939208984</ele>
        <time>2017-04-05T08:47:30.000Z</time>
      </trkpt>
      <trkpt lat="45.90417" lon="6.16767">
        <ele>738.65808105469</ele>
        <time>2017-04-05T08:47:33.000Z</time>
      </trkpt>
      <trkpt lat="45.90419" lon="6.16768">
        <ele>738.74139404297</ele>
        <time>2017-04-05T08:47:35.000Z</time>
      </trkpt>
      <trkpt lat="45.90421" lon="6.1677">
        <ele>739.05639648438</ele>
        <time>2017-04-05T08:47:38.000Z</time>
      </trkpt>
      <trkpt lat="45.90423" lon="6.16772">
        <ele>739.55432128906</ele>
        <time>2017-04-05T08:47:41.000Z</time>
      </trkpt>
      <trkpt lat="45.90425" lon="6.16774">
        <ele>740.23480224609</ele>
        <time>2017-04-05T08:47:43.000Z</time>
      </trkpt>
      <trkpt lat="45.90428" lon="6.16775">
        <ele>741.00622558594</ele>
        <time>2017-04-05T08:47:45.000Z</time>
      </trkpt>
      <trkpt lat="45.9043" lon="6.16775">
        <ele>741.67529296875</ele>
        <time>2017-04-05T08:47:48.000Z</time>
      </trkpt>
      <trkpt lat="45.90433" lon="6.16777">
        <ele>742.25817871094</ele>
        <time>2017-04-05T08:47:51.000Z</time>
      </trkpt>
      <trkpt lat="45.90435" lon="6.16778">
        <ele>742.72393798828</ele>
        <time>2017-04-05T08:47:54.000Z</time>
      </trkpt>
      <trkpt lat="45.90436" lon="6.16777">
        <ele>743.02227783203</ele>
        <time>2017-04-05T08:47:56.000Z</time>
      </trkpt>
      <trkpt lat="45.90441" lon="6.16779">
        <ele>743.30541992188</ele>
        <time>2017-04-05T08:47:59.000Z</time>
      </trkpt>
      <trkpt lat="45.90444" lon="6.16779">
        <ele>743.56005859375</ele>
        <time>2017-04-05T08:48:02.000Z</time>
      </trkpt>
      <trkpt lat="45.90446" lon="6.16779">
        <ele>743.64172363281</ele>
        <time>2017-04-05T08:48:05.000Z</time>
      </trkpt>
      <trkpt lat="45.90449" lon="6.16779">
        <ele>743.70355224609</ele>
        <time>2017-04-05T08:48:07.000Z</time>
      </trkpt>
      <trkpt lat="45.90451" lon="6.1678">
        <ele>743.82269287109</ele>
        <time>2017-04-05T08:48:10.000Z</time>
      </trkpt>
      <trkpt lat="45.90453" lon="6.16779">
        <ele>743.75885009766</ele>
        <time>2017-04-05T08:48:12.000Z</time>
      </trkpt>
      <trkpt lat="45.90455" lon="6.16778">
        <ele>743.59582519531</ele>
        <time>2017-04-05T08:48:15.000Z</time>
      </trkpt>
      <trkpt lat="45.90458" lon="6.16778">
        <ele>743.43829345703</ele>
        <time>2017-04-05T08:48:18.000Z</time>
      </trkpt>
      <trkpt lat="45.90457" lon="6.1678">
        <ele>743.41369628906</ele>
        <time>2017-04-05T08:48:21.000Z</time>
      </trkpt>
      <trkpt lat="45.90458" lon="6.16779">
        <ele>743.27655029297</ele>
        <time>2017-04-05T08:48:24.000Z</time>
      </trkpt>
      <trkpt lat="45.90461" lon="6.16777">
        <ele>742.96063232422</ele>
        <time>2017-04-05T08:48:27.000Z</time>
      </trkpt>
      <trkpt lat="45.90462" lon="6.16775">
        <ele>742.6328125</ele>
        <time>2017-04-05T08:48:29.000Z</time>
      </trkpt>
      <trkpt lat="45.90465" lon="6.16777">
        <ele>742.42987060547</ele>
        <time>2017-04-05T08:48:32.000Z</time>
      </trkpt>
      <trkpt lat="45.90467" lon="6.16778">
        <ele>742.158203125</ele>
        <time>2017-04-05T08:48:34.000Z</time>
      </trkpt>
      <trkpt lat="45.90469" lon="6.16778">
        <ele>741.91223144531</ele>
        <time>2017-04-05T08:48:37.000Z</time>
      </trkpt>
      <trkpt lat="45.90472" lon="6.16777">
        <ele>741.89471435547</ele>
        <time>2017-04-05T08:48:40.000Z</time>
      </trkpt>
      <trkpt lat="45.90474" lon="6.16779">
        <ele>742.11614990234</ele>
        <time>2017-04-05T08:48:43.000Z</time>
      </trkpt>
      <trkpt lat="45.90475" lon="6.16779">
        <ele>742.26177978516</ele>
        <time>2017-04-05T08:48:45.000Z</time>
      </trkpt>
      <trkpt lat="45.90478" lon="6.1678">
        <ele>742.36633300781</ele>
        <time>2017-04-05T08:48:47.000Z</time>
      </trkpt>
      <trkpt lat="45.9048" lon="6.16782">
        <ele>742.74530029297</ele>
        <time>2017-04-05T08:48:50.000Z</time>
      </trkpt>
      <trkpt lat="45.90482" lon="6.16784">
        <ele>743.34429931641</ele>
        <time>2017-04-05T08:48:53.000Z</time>
      </trkpt>
      <trkpt lat="45.90484" lon="6.16786">
        <ele>743.97888183594</ele>
        <time>2017-04-05T08:48:56.000Z</time>
      </trkpt>
      <trkpt lat="45.90485" lon="6.16787">
        <ele>744.66668701172</ele>
        <time>2017-04-05T08:48:58.000Z</time>
      </trkpt>
      <trkpt lat="45.90488" lon="6.16788">
        <ele>745.36462402344</ele>
        <time>2017-04-05T08:49:01.000Z</time>
      </trkpt>
      <trkpt lat="45.90489" lon="6.16789">
        <ele>745.94451904297</ele>
        <time>2017-04-05T08:49:04.000Z</time>
      </trkpt>
      <trkpt lat="45.9049" lon="6.1679">
        <ele>746.4130859375</ele>
        <time>2017-04-05T08:49:06.000Z</time>
      </trkpt>
      <trkpt lat="45.90491" lon="6.16791">
        <ele>746.798828125</ele>
        <time>2017-04-05T08:49:09.000Z</time>
      </trkpt>
      <trkpt lat="45.90491" lon="6.16791">
        <ele>747.13793945312</ele>
        <time>2017-04-05T08:49:11.000Z</time>
      </trkpt>
      <trkpt lat="45.90494" lon="6.16793">
        <ele>747.60107421875</ele>
        <time>2017-04-05T08:49:14.000Z</time>
      </trkpt>
      <trkpt lat="45.90497" lon="6.16795">
        <ele>748.10321044922</ele>
        <time>2017-04-05T08:49:17.000Z</time>
      </trkpt>
      <trkpt lat="45.90499" lon="6.16796">
        <ele>748.595703125</ele>
        <time>2017-04-05T08:49:20.000Z</time>
      </trkpt>
      <trkpt lat="45.90498" lon="6.16798">
        <ele>749.18994140625</ele>
        <time>2017-04-05T08:49:23.000Z</time>
      </trkpt>
      <trkpt lat="45.90497" lon="6.16799">
        <ele>749.85217285156</ele>
        <time>2017-04-05T08:49:26.000Z</time>
      </trkpt>
      <trkpt lat="45.90499" lon="6.168">
        <ele>750.390625</ele>
        <time>2017-04-05T08:49:28.000Z</time>
      </trkpt>
      <trkpt lat="45.90501" lon="6.16801">
        <ele>750.85485839844</ele>
        <time>2017-04-05T08:49:30.000Z</time>
      </trkpt>
      <trkpt lat="45.90502" lon="6.16801">
        <ele>751.27410888672</ele>
        <time>2017-04-05T08:49:32.000Z</time>
      </trkpt>
      <trkpt lat="45.90505" lon="6.168">
        <ele>751.48901367188</ele>
        <time>2017-04-05T08:49:35.000Z</time>
      </trkpt>
      <trkpt lat="45.90507" lon="6.16801">
        <ele>751.64410400391</ele>
        <time>2017-04-05T08:49:37.000Z</time>
      </trkpt>
      <trkpt lat="45.90509" lon="6.16801">
        <ele>751.81579589844</ele>
        <time>2017-04-05T08:49:40.000Z</time>
      </trkpt>
      <trkpt lat="45.90511" lon="6.16802">
        <ele>751.94128417969</ele>
        <time>2017-04-05T08:49:42.000Z</time>
      </trkpt>
      <trkpt lat="45.90512" lon="6.16803">
        <ele>752.14465332031</ele>
        <time>2017-04-05T08:49:45.000Z</time>
      </trkpt>
      <trkpt lat="45.90514" lon="6.16804">
        <ele>752.55993652344</ele>
        <time>2017-04-05T08:49:48.000Z</time>
      </trkpt>
      <trkpt lat="45.90516" lon="6.16806">
        <ele>753.05072021484</ele>
        <time>2017-04-05T08:49:50.000Z</time>
      </trkpt>
      <trkpt lat="45.90517" lon="6.16806">
        <ele>753.55603027344</ele>
        <time>2017-04-05T08:49:52.000Z</time>
      </trkpt>
      <trkpt lat="45.9052" lon="6.16807">
        <ele>754.10144042969</ele>
        <time>2017-04-05T08:49:55.000Z</time>
      </trkpt>
      <trkpt lat="45.90522" lon="6.16807">
        <ele>754.56384277344</ele>
        <time>2017-04-05T08:49:57.000Z</time>
      </trkpt>
      <trkpt lat="45.90524" lon="6.16809">
        <ele>754.99237060547</ele>
        <time>2017-04-05T08:50:00.000Z</time>
      </trkpt>
      <trkpt lat="45.90526" lon="6.1681">
        <ele>755.47229003906</ele>
        <time>2017-04-05T08:50:03.000Z</time>
      </trkpt>
      <trkpt lat="45.90527" lon="6.16811">
        <ele>755.95178222656</ele>
        <time>2017-04-05T08:50:05.000Z</time>
      </trkpt>
      <trkpt lat="45.90528" lon="6.16812">
        <ele>756.46472167969</ele>
        <time>2017-04-05T08:50:08.000Z</time>
      </trkpt>
      <trkpt lat="45.90529" lon="6.16814">
        <ele>757.11657714844</ele>
        <time>2017-04-05T08:50:12.000Z</time>
      </trkpt>
      <trkpt lat="45.9053" lon="6.16815">
        <ele>757.72631835938</ele>
        <time>2017-04-05T08:50:14.000Z</time>
      </trkpt>
      <trkpt lat="45.90532" lon="6.16815">
        <ele>758.21520996094</ele>
        <time>2017-04-05T08:50:17.000Z</time>
      </trkpt>
      <trkpt lat="45.90534" lon="6.16815">
        <ele>758.59307861328</ele>
        <time>2017-04-05T08:50:20.000Z</time>
      </trkpt>
      <trkpt lat="45.90536" lon="6.16815">
        <ele>758.83282470703</ele>
        <time>2017-04-05T08:50:22.000Z</time>
      </trkpt>
      <trkpt lat="45.90538" lon="6.16815">
        <ele>758.96160888672</ele>
        <time>2017-04-05T08:50:25.000Z</time>
      </trkpt>
      <trkpt lat="45.9054" lon="6.16816">
        <ele>759.11004638672</ele>
        <time>2017-04-05T08:50:28.000Z</time>
      </trkpt>
      <trkpt lat="45.90541" lon="6.16818">
        <ele>759.359375</ele>
        <time>2017-04-05T08:50:30.000Z</time>
      </trkpt>
      <trkpt lat="45.90543" lon="6.16818">
        <ele>759.64862060547</ele>
        <time>2017-04-05T08:50:35.000Z</time>
      </trkpt>
      <trkpt lat="45.90544" lon="6.16817">
        <ele>759.89562988281</ele>
        <time>2017-04-05T08:50:37.000Z</time>
      </trkpt>
      <trkpt lat="45.90546" lon="6.16816">
        <ele>759.96990966797</ele>
        <time>2017-04-05T08:50:39.000Z</time>
      </trkpt>
      <trkpt lat="45.90549" lon="6.16815">
        <ele>759.84100341797</ele>
        <time>2017-04-05T08:50:42.000Z</time>
      </trkpt>
      <trkpt lat="45.90551" lon="6.16814">
        <ele>759.55822753906</ele>
        <time>2017-04-05T08:50:44.000Z</time>
      </trkpt>
      <trkpt lat="45.90554" lon="6.16814">
        <ele>759.2080078125</ele>
        <time>2017-04-05T08:50:47.000Z</time>
      </trkpt>
      <trkpt lat="45.90556" lon="6.16813">
        <ele>758.87335205078</ele>
        <time>2017-04-05T08:50:49.000Z</time>
      </trkpt>
      <trkpt lat="45.90557" lon="6.16812">
        <ele>758.59777832031</ele>
        <time>2017-04-05T08:50:51.000Z</time>
      </trkpt>
      <trkpt lat="45.90558" lon="6.16812">
        <ele>758.35528564453</ele>
        <time>2017-04-05T08:50:53.000Z</time>
      </trkpt>
      <trkpt lat="45.90561" lon="6.16813">
        <ele>758.2509765625</ele>
        <time>2017-04-05T08:50:56.000Z</time>
      </trkpt>
      <trkpt lat="45.90564" lon="6.16815">
        <ele>758.41052246094</ele>
        <time>2017-04-05T08:50:59.000Z</time>
      </trkpt>
      <trkpt lat="45.90566" lon="6.16816">
        <ele>758.73126220703</ele>
        <time>2017-04-05T08:51:01.000Z</time>
      </trkpt>
      <trkpt lat="45.90568" lon="6.16818">
        <ele>759.2490234375</ele>
        <time>2017-04-05T08:51:03.000Z</time>
      </trkpt>
      <trkpt lat="45.90571" lon="6.1682">
        <ele>760.02294921875</ele>
        <time>2017-04-05T08:51:06.000Z</time>
      </trkpt>
      <trkpt lat="45.90572" lon="6.16821">
        <ele>760.77722167969</ele>
        <time>2017-04-05T08:51:08.000Z</time>
      </trkpt>
      <trkpt lat="45.90573" lon="6.16823">
        <ele>761.47705078125</ele>
        <time>2017-04-05T08:51:10.000Z</time>
      </trkpt>
      <trkpt lat="45.90574" lon="6.16823">
        <ele>762.06945800781</ele>
        <time>2017-04-05T08:51:13.000Z</time>
      </trkpt>
      <trkpt lat="45.90575" lon="6.16823">
        <ele>762.61938476562</ele>
        <time>2017-04-05T08:51:16.000Z</time>
      </trkpt>
      <trkpt lat="45.90578" lon="6.16826">
        <ele>763.24377441406</ele>
        <time>2017-04-05T08:51:19.000Z</time>
      </trkpt>
      <trkpt lat="45.9058" lon="6.16828">
        <ele>763.94879150391</ele>
        <time>2017-04-05T08:51:22.000Z</time>
      </trkpt>
      <trkpt lat="45.90584" lon="6.16831">
        <ele>764.73303222656</ele>
        <time>2017-04-05T08:51:25.000Z</time>
      </trkpt>
      <trkpt lat="45.90586" lon="6.16832">
        <ele>765.63879394531</ele>
        <time>2017-04-05T08:51:28.000Z</time>
      </trkpt>
      <trkpt lat="45.90589" lon="6.16831">
        <ele>766.53021240234</ele>
        <time>2017-04-05T08:51:31.000Z</time>
      </trkpt>
      <trkpt lat="45.90591" lon="6.16832">
        <ele>767.27215576172</ele>
        <time>2017-04-05T08:51:33.000Z</time>
      </trkpt>
      <trkpt lat="45.90594" lon="6.16833">
        <ele>767.99755859375</ele>
        <time>2017-04-05T08:51:36.000Z</time>
      </trkpt>
      <trkpt lat="45.90598" lon="6.16835">
        <ele>768.80773925781</ele>
        <time>2017-04-05T08:51:38.000Z</time>
      </trkpt>
      <trkpt lat="45.906" lon="6.16836">
        <ele>769.59887695312</ele>
        <time>2017-04-05T08:51:40.000Z</time>
      </trkpt>
      <trkpt lat="45.90602" lon="6.16835">
        <ele>770.29602050781</ele>
        <time>2017-04-05T08:51:42.000Z</time>
      </trkpt>
      <trkpt lat="45.90605" lon="6.16834">
        <ele>770.82141113281</ele>
        <time>2017-04-05T08:51:45.000Z</time>
      </trkpt>
      <trkpt lat="45.90607" lon="6.16832">
        <ele>771.02307128906</ele>
        <time>2017-04-05T08:51:48.000Z</time>
      </trkpt>
      <trkpt lat="45.90607" lon="6.16831">
        <ele>770.83758544922</ele>
        <time>2017-04-05T08:51:50.000Z</time>
      </trkpt>
      <trkpt lat="45.90609" lon="6.1683">
        <ele>770.43194580078</ele>
        <time>2017-04-05T08:51:53.000Z</time>
      </trkpt>
      <trkpt lat="45.90611" lon="6.16828">
        <ele>769.97650146484</ele>
        <time>2017-04-05T08:51:56.000Z</time>
      </trkpt>
      <trkpt lat="45.90612" lon="6.16828">
        <ele>769.58093261719</ele>
        <time>2017-04-05T08:51:58.000Z</time>
      </trkpt>
      <trkpt lat="45.90615" lon="6.16826">
        <ele>769.25842285156</ele>
        <time>2017-04-05T08:52:01.000Z</time>
      </trkpt>
      <trkpt lat="45.90617" lon="6.16826">
        <ele>769.015625</ele>
        <time>2017-04-05T08:52:03.000Z</time>
      </trkpt>
      <trkpt lat="45.90619" lon="6.16825">
        <ele>768.86651611328</ele>
        <time>2017-04-05T08:52:06.000Z</time>
      </trkpt>
      <trkpt lat="45.9062" lon="6.16823">
        <ele>768.59259033203</ele>
        <time>2017-04-05T08:52:09.000Z</time>
      </trkpt>
      <trkpt lat="45.90622" lon="6.16822">
        <ele>768.25958251953</ele>
        <time>2017-04-05T08:52:11.000Z</time>
      </trkpt>
      <trkpt lat="45.90624" lon="6.16822">
        <ele>768.05303955078</ele>
        <time>2017-04-05T08:52:14.000Z</time>
      </trkpt>
      <trkpt lat="45.90626" lon="6.16822">
        <ele>767.89422607422</ele>
        <time>2017-04-05T08:52:17.000Z</time>
      </trkpt>
      <trkpt lat="45.90629" lon="6.16822">
        <ele>767.88171386719</ele>
        <time>2017-04-05T08:52:19.000Z</time>
      </trkpt>
      <trkpt lat="45.90631" lon="6.16822">
        <ele>768.08026123047</ele>
        <time>2017-04-05T08:52:22.000Z</time>
      </trkpt>
      <trkpt lat="45.90635" lon="6.16822">
        <ele>768.400390625</ele>
        <time>2017-04-05T08:52:25.000Z</time>
      </trkpt>
      <trkpt lat="45.90638" lon="6.16823">
        <ele>768.86260986328</ele>
        <time>2017-04-05T08:52:28.000Z</time>
      </trkpt>
      <trkpt lat="45.90639" lon="6.16823">
        <ele>769.27331542969</ele>
        <time>2017-04-05T08:52:30.000Z</time>
      </trkpt>
      <trkpt lat="45.90641" lon="6.16822">
        <ele>769.52142333984</ele>
        <time>2017-04-05T08:52:33.000Z</time>
      </trkpt>
      <trkpt lat="45.90644" lon="6.16821">
        <ele>769.78680419922</ele>
        <time>2017-04-05T08:52:35.000Z</time>
      </trkpt>
      <trkpt lat="45.90644" lon="6.1682">
        <ele>769.89385986328</ele>
        <time>2017-04-05T08:52:37.000Z</time>
      </trkpt>
      <trkpt lat="45.90644" lon="6.16818">
        <ele>769.65814208984</ele>
        <time>2017-04-05T08:52:39.000Z</time>
      </trkpt>
      <trkpt lat="45.90646" lon="6.16818">
        <ele>769.38171386719</ele>
        <time>2017-04-05T08:52:47.000Z</time>
      </trkpt>
      <trkpt lat="45.90647" lon="6.16814">
        <ele>768.81750488281</ele>
        <time>2017-04-05T08:53:03.000Z</time>
      </trkpt>
      <trkpt lat="45.90648" lon="6.16813">
        <ele>768.17620849609</ele>
        <time>2017-04-05T08:53:06.000Z</time>
      </trkpt>
      <trkpt lat="45.9065" lon="6.16813">
        <ele>767.64611816406</ele>
        <time>2017-04-05T08:53:09.000Z</time>
      </trkpt>
      <trkpt lat="45.90652" lon="6.1681">
        <ele>767.13293457031</ele>
        <time>2017-04-05T08:53:12.000Z</time>
      </trkpt>
      <trkpt lat="45.90653" lon="6.16809">
        <ele>766.57775878906</ele>
        <time>2017-04-05T08:53:14.000Z</time>
      </trkpt>
      <trkpt lat="45.90655" lon="6.16808">
        <ele>766.27722167969</ele>
        <time>2017-04-05T08:53:17.000Z</time>
      </trkpt>
      <trkpt lat="45.90656" lon="6.16805">
        <ele>765.81970214844</ele>
        <time>2017-04-05T08:53:19.000Z</time>
      </trkpt>
      <trkpt lat="45.90657" lon="6.16804">
        <ele>765.24639892578</ele>
        <time>2017-04-05T08:53:22.000Z</time>
      </trkpt>
      <trkpt lat="45.90658" lon="6.16802">
        <ele>764.68957519531</ele>
        <time>2017-04-05T08:53:25.000Z</time>
      </trkpt>
      <trkpt lat="45.9066" lon="6.16801">
        <ele>764.13824462891</ele>
        <time>2017-04-05T08:53:27.000Z</time>
      </trkpt>
      <trkpt lat="45.90662" lon="6.16799">
        <ele>763.58239746094</ele>
        <time>2017-04-05T08:53:30.000Z</time>
      </trkpt>
      <trkpt lat="45.90663" lon="6.16799">
        <ele>763.21228027344</ele>
        <time>2017-04-05T08:53:32.000Z</time>
      </trkpt>
      <trkpt lat="45.90665" lon="6.16798">
        <ele>762.88635253906</ele>
        <time>2017-04-05T08:53:35.000Z</time>
      </trkpt>
      <trkpt lat="45.90667" lon="6.16797">
        <ele>762.67126464844</ele>
        <time>2017-04-05T08:53:37.000Z</time>
      </trkpt>
      <trkpt lat="45.9067" lon="6.16795">
        <ele>762.43603515625</ele>
        <time>2017-04-05T08:53:40.000Z</time>
      </trkpt>
      <trkpt lat="45.90671" lon="6.16794">
        <ele>762.15515136719</ele>
        <time>2017-04-05T08:53:42.000Z</time>
      </trkpt>
      <trkpt lat="45.90672" lon="6.16793">
        <ele>761.82293701172</ele>
        <time>2017-04-05T08:53:44.000Z</time>
      </trkpt>
      <trkpt lat="45.90673" lon="6.16792">
        <ele>761.48425292969</ele>
        <time>2017-04-05T08:53:47.000Z</time>
      </trkpt>
      <trkpt lat="45.90675" lon="6.16792">
        <ele>761.19580078125</ele>
        <time>2017-04-05T08:53:49.000Z</time>
      </trkpt>
      <trkpt lat="45.90677" lon="6.16791">
        <ele>760.92828369141</ele>
        <time>2017-04-05T08:53:51.000Z</time>
      </trkpt>
      <trkpt lat="45.90678" lon="6.16787">
        <ele>760.43859863281</ele>
        <time>2017-04-05T08:53:54.000Z</time>
      </trkpt>
      <trkpt lat="45.90678" lon="6.16782">
        <ele>759.54681396484</ele>
        <time>2017-04-05T08:53:57.000Z</time>
      </trkpt>
      <trkpt lat="45.9068" lon="6.16781">
        <ele>758.61169433594</ele>
        <time>2017-04-05T08:54:00.000Z</time>
      </trkpt>
      <trkpt lat="45.90681" lon="6.16781">
        <ele>757.69152832031</ele>
        <time>2017-04-05T08:54:02.000Z</time>
      </trkpt>
      <trkpt lat="45.90686" lon="6.16781">
        <ele>756.84521484375</ele>
        <time>2017-04-05T08:54:04.000Z</time>
      </trkpt>
      <trkpt lat="45.90691" lon="6.16782">
        <ele>756.57287597656</ele>
        <time>2017-04-05T08:54:07.000Z</time>
      </trkpt>
      <trkpt lat="45.90693" lon="6.16785">
        <ele>757.05126953125</ele>
        <time>2017-04-05T08:54:09.000Z</time>
      </trkpt>
      <trkpt lat="45.90693" lon="6.16788">
        <ele>757.96209716797</ele>
        <time>2017-04-05T08:54:11.000Z</time>
      </trkpt>
      <trkpt lat="45.90691" lon="6.16792">
        <ele>759.17883300781</ele>
        <time>2017-04-05T08:54:14.000Z</time>
      </trkpt>
      <trkpt lat="45.90689" lon="6.16794">
        <ele>760.59161376953</ele>
        <time>2017-04-05T08:54:16.000Z</time>
      </trkpt>
      <trkpt lat="45.90688" lon="6.16797">
        <ele>762.02355957031</ele>
        <time>2017-04-05T08:54:19.000Z</time>
      </trkpt>
      <trkpt lat="45.90687" lon="6.168">
        <ele>763.41741943359</ele>
        <time>2017-04-05T08:54:22.000Z</time>
      </trkpt>
      <trkpt lat="45.90686" lon="6.16802">
        <ele>764.62384033203</ele>
        <time>2017-04-05T08:54:24.000Z</time>
      </trkpt>
      <trkpt lat="45.90685" lon="6.16804">
        <ele>765.65252685547</ele>
        <time>2017-04-05T08:54:27.000Z</time>
      </trkpt>
      <trkpt lat="45.90684" lon="6.16807">
        <ele>766.77386474609</ele>
        <time>2017-04-05T08:54:30.000Z</time>
      </trkpt>
      <trkpt lat="45.90685" lon="6.16809">
        <ele>767.85076904297</ele>
        <time>2017-04-05T08:54:32.000Z</time>
      </trkpt>
      <trkpt lat="45.90685" lon="6.16811">
        <ele>768.89978027344</ele>
        <time>2017-04-05T08:54:34.000Z</time>
      </trkpt>
      <trkpt lat="45.90682" lon="6.16814">
        <ele>769.96002197266</ele>
        <time>2017-04-05T08:54:37.000Z</time>
      </trkpt>
      <trkpt lat="45.90681" lon="6.16815">
        <ele>770.97143554688</ele>
        <time>2017-04-05T08:54:40.000Z</time>
      </trkpt>
      <trkpt lat="45.90681" lon="6.16817">
        <ele>771.84411621094</ele>
        <time>2017-04-05T08:54:42.000Z</time>
      </trkpt>
      <trkpt lat="45.90679" lon="6.16819">
        <ele>772.65655517578</ele>
        <time>2017-04-05T08:54:44.000Z</time>
      </trkpt>
      <trkpt lat="45.90677" lon="6.16821">
        <ele>773.32440185547</ele>
        <time>2017-04-05T08:54:47.000Z</time>
      </trkpt>
      <trkpt lat="45.90676" lon="6.16822">
        <ele>773.96411132812</ele>
        <time>2017-04-05T08:54:49.000Z</time>
      </trkpt>
      <trkpt lat="45.90676" lon="6.16826">
        <ele>774.81103515625</ele>
        <time>2017-04-05T08:54:52.000Z</time>
      </trkpt>
      <trkpt lat="45.90676" lon="6.1683">
        <ele>775.82568359375</ele>
        <time>2017-04-05T08:54:54.000Z</time>
      </trkpt>
      <trkpt lat="45.90675" lon="6.16834">
        <ele>776.99090576172</ele>
        <time>2017-04-05T08:54:57.000Z</time>
      </trkpt>
      <trkpt lat="45.90674" lon="6.16837">
        <ele>778.42840576172</ele>
        <time>2017-04-05T08:55:00.000Z</time>
      </trkpt>
      <trkpt lat="45.90673" lon="6.1684">
        <ele>779.92419433594</ele>
        <time>2017-04-05T08:55:02.000Z</time>
      </trkpt>
      <trkpt lat="45.9067" lon="6.16843">
        <ele>781.33514404297</ele>
        <time>2017-04-05T08:55:05.000Z</time>
      </trkpt>
      <trkpt lat="45.90669" lon="6.16845">
        <ele>782.58972167969</ele>
        <time>2017-04-05T08:55:07.000Z</time>
      </trkpt>
      <trkpt lat="45.90666" lon="6.16847">
        <ele>783.57397460938</ele>
        <time>2017-04-05T08:55:10.000Z</time>
      </trkpt>
      <trkpt lat="45.90664" lon="6.16848">
        <ele>784.25939941406</ele>
        <time>2017-04-05T08:55:13.000Z</time>
      </trkpt>
      <trkpt lat="45.90662" lon="6.16848">
        <ele>784.76721191406</ele>
        <time>2017-04-05T08:55:16.000Z</time>
      </trkpt>
      <trkpt lat="45.90659" lon="6.16848">
        <ele>784.95538330078</ele>
        <time>2017-04-05T08:55:18.000Z</time>
      </trkpt>
      <trkpt lat="45.90658" lon="6.1685">
        <ele>785.11260986328</ele>
        <time>2017-04-05T08:55:20.000Z</time>
      </trkpt>
      <trkpt lat="45.90657" lon="6.1685">
        <ele>785.28527832031</ele>
        <time>2017-04-05T08:55:24.000Z</time>
      </trkpt>
      <trkpt lat="45.90656" lon="6.16848">
        <ele>785.13659667969</ele>
        <time>2017-04-05T08:55:27.000Z</time>
      </trkpt>
      <trkpt lat="45.90656" lon="6.16846">
        <ele>784.77899169922</ele>
        <time>2017-04-05T08:55:29.000Z</time>
      </trkpt>
      <trkpt lat="45.90655" lon="6.16844">
        <ele>784.26300048828</ele>
        <time>2017-04-05T08:55:31.000Z</time>
      </trkpt>
      <trkpt lat="45.90656" lon="6.16843">
        <ele>783.55432128906</ele>
        <time>2017-04-05T08:55:34.000Z</time>
      </trkpt>
      <trkpt lat="45.90656" lon="6.16842">
        <ele>782.68035888672</ele>
        <time>2017-04-05T08:55:37.000Z</time>
      </trkpt>
      <trkpt lat="45.90656" lon="6.16841">
        <ele>781.94079589844</ele>
        <time>2017-04-05T08:55:39.000Z</time>
      </trkpt>
      <trkpt lat="45.90657" lon="6.16839">
        <ele>781.17645263672</ele>
        <time>2017-04-05T08:55:42.000Z</time>
      </trkpt>
      <trkpt lat="45.90658" lon="6.16837">
        <ele>780.48333740234</ele>
        <time>2017-04-05T08:55:44.000Z</time>
      </trkpt>
      <trkpt lat="45.90659" lon="6.16836">
        <ele>779.7607421875</ele>
        <time>2017-04-05T08:55:46.000Z</time>
      </trkpt>
      <trkpt lat="45.90661" lon="6.16835">
        <ele>779.16809082031</ele>
        <time>2017-04-05T08:55:48.000Z</time>
      </trkpt>
      <trkpt lat="45.90663" lon="6.16834">
        <ele>778.6220703125</ele>
        <time>2017-04-05T08:55:51.000Z</time>
      </trkpt>
      <trkpt lat="45.90664" lon="6.16832">
        <ele>778.14111328125</ele>
        <time>2017-04-05T08:55:53.000Z</time>
      </trkpt>
      <trkpt lat="45.90665" lon="6.1683">
        <ele>777.62902832031</ele>
        <time>2017-04-05T08:55:55.000Z</time>
      </trkpt>
      <trkpt lat="45.90668" lon="6.16828">
        <ele>777.17919921875</ele>
        <time>2017-04-05T08:55:58.000Z</time>
      </trkpt>
      <trkpt lat="45.9067" lon="6.16829">
        <ele>776.85192871094</ele>
        <time>2017-04-05T08:56:00.000Z</time>
      </trkpt>
      <trkpt lat="45.90672" lon="6.1683">
        <ele>776.771484375</ele>
        <time>2017-04-05T08:56:02.000Z</time>
      </trkpt>
      <trkpt lat="45.90673" lon="6.1683">
        <ele>776.96697998047</ele>
        <time>2017-04-05T08:56:04.000Z</time>
      </trkpt>
      <trkpt lat="45.90676" lon="6.16829">
        <ele>777.31878662109</ele>
        <time>2017-04-05T08:56:07.000Z</time>
      </trkpt>
      <trkpt lat="45.90677" lon="6.16827">
        <ele>777.61895751953</ele>
        <time>2017-04-05T08:56:10.000Z</time>
      </trkpt>
      <trkpt lat="45.90681" lon="6.16827">
        <ele>777.88238525391</ele>
        <time>2017-04-05T08:56:13.000Z</time>
      </trkpt>
      <trkpt lat="45.90683" lon="6.16828">
        <ele>778.18792724609</ele>
        <time>2017-04-05T08:56:15.000Z</time>
      </trkpt>
      <trkpt lat="45.90685" lon="6.16828">
        <ele>778.48303222656</ele>
        <time>2017-04-05T08:56:17.000Z</time>
      </trkpt>
      <trkpt lat="45.90686" lon="6.16827">
        <ele>778.70196533203</ele>
        <time>2017-04-05T08:56:20.000Z</time>
      </trkpt>
      <trkpt lat="45.90688" lon="6.16826">
        <ele>778.99304199219</ele>
        <time>2017-04-05T08:56:22.000Z</time>
      </trkpt>
      <trkpt lat="45.90689" lon="6.16825">
        <ele>779.11584472656</ele>
        <time>2017-04-05T08:56:24.000Z</time>
      </trkpt>
      <trkpt lat="45.90689" lon="6.16823">
        <ele>778.90100097656</ele>
        <time>2017-04-05T08:56:26.000Z</time>
      </trkpt>
      <trkpt lat="45.90693" lon="6.16822">
        <ele>778.60852050781</ele>
        <time>2017-04-05T08:56:29.000Z</time>
      </trkpt>
      <trkpt lat="45.90693" lon="6.16821">
        <ele>778.34387207031</ele>
        <time>2017-04-05T08:56:31.000Z</time>
      </trkpt>
      <trkpt lat="45.90695" lon="6.16821">
        <ele>778.15539550781</ele>
        <time>2017-04-05T08:56:36.000Z</time>
      </trkpt>
      <trkpt lat="45.90698" lon="6.16822">
        <ele>778.27136230469</ele>
        <time>2017-04-05T08:56:39.000Z</time>
      </trkpt>
      <trkpt lat="45.90701" lon="6.16823">
        <ele>778.77087402344</ele>
        <time>2017-04-05T08:56:40.000Z</time>
      </trkpt>
      <trkpt lat="45.90703" lon="6.16824">
        <ele>779.34545898438</ele>
        <time>2017-04-05T08:56:42.000Z</time>
      </trkpt>
      <trkpt lat="45.90707" lon="6.16824">
        <ele>780.23992919922</ele>
        <time>2017-04-05T08:56:45.000Z</time>
      </trkpt>
      <trkpt lat="45.90709" lon="6.16824">
        <ele>781.04138183594</ele>
        <time>2017-04-05T08:56:47.000Z</time>
      </trkpt>
      <trkpt lat="45.90711" lon="6.16823">
        <ele>781.60107421875</ele>
        <time>2017-04-05T08:56:50.000Z</time>
      </trkpt>
      <trkpt lat="45.90712" lon="6.16821">
        <ele>781.76910400391</ele>
        <time>2017-04-05T08:56:53.000Z</time>
      </trkpt>
      <trkpt lat="45.90714" lon="6.16819">
        <ele>781.67572021484</ele>
        <time>2017-04-05T08:56:56.000Z</time>
      </trkpt>
      <trkpt lat="45.90717" lon="6.16819">
        <ele>781.404296875</ele>
        <time>2017-04-05T08:56:59.000Z</time>
      </trkpt>
      <trkpt lat="45.90718" lon="6.16819">
        <ele>781.16870117188</ele>
        <time>2017-04-05T08:57:01.000Z</time>
      </trkpt>
      <trkpt lat="45.90721" lon="6.1682">
        <ele>781.16723632812</ele>
        <time>2017-04-05T08:57:04.000Z</time>
      </trkpt>
      <trkpt lat="45.90723" lon="6.1682">
        <ele>781.45593261719</ele>
        <time>2017-04-05T08:57:06.000Z</time>
      </trkpt>
      <trkpt lat="45.90725" lon="6.1682">
        <ele>781.91845703125</ele>
        <time>2017-04-05T08:57:09.000Z</time>
      </trkpt>
      <trkpt lat="45.90726" lon="6.16818">
        <ele>782.15625</ele>
        <time>2017-04-05T08:57:12.000Z</time>
      </trkpt>
      <trkpt lat="45.90727" lon="6.16819">
        <ele>782.55731201172</ele>
        <time>2017-04-05T08:57:19.000Z</time>
      </trkpt>
      <trkpt lat="45.90727" lon="6.1682">
        <ele>782.84338378906</ele>
        <time>2017-04-05T08:57:22.000Z</time>
      </trkpt>
      <trkpt lat="45.90726" lon="6.16824">
        <ele>783.41845703125</ele>
        <time>2017-04-05T08:57:25.000Z</time>
      </trkpt>
      <trkpt lat="45.90726" lon="6.16826">
        <ele>784.21380615234</ele>
        <time>2017-04-05T08:57:27.000Z</time>
      </trkpt>
      <trkpt lat="45.90725" lon="6.16828">
        <ele>785.36639404297</ele>
        <time>2017-04-05T08:57:30.000Z</time>
      </trkpt>
      <trkpt lat="45.90723" lon="6.1683">
        <ele>786.552734375</ele>
        <time>2017-04-05T08:57:33.000Z</time>
      </trkpt>
      <trkpt lat="45.90723" lon="6.16832">
        <ele>787.78967285156</ele>
        <time>2017-04-05T08:57:35.000Z</time>
      </trkpt>
      <trkpt lat="45.90721" lon="6.16832">
        <ele>788.61065673828</ele>
        <time>2017-04-05T08:57:38.000Z</time>
      </trkpt>
      <trkpt lat="45.9072" lon="6.16834">
        <ele>789.33776855469</ele>
        <time>2017-04-05T08:57:41.000Z</time>
      </trkpt>
      <trkpt lat="45.9072" lon="6.16836">
        <ele>790.05090332031</ele>
        <time>2017-04-05T08:57:46.000Z</time>
      </trkpt>
      <trkpt lat="45.90719" lon="6.16837">
        <ele>790.69036865234</ele>
        <time>2017-04-05T08:57:49.000Z</time>
      </trkpt>
      <trkpt lat="45.90717" lon="6.16839">
        <ele>791.29748535156</ele>
        <time>2017-04-05T08:57:52.000Z</time>
      </trkpt>
      <trkpt lat="45.90715" lon="6.16841">
        <ele>791.94903564453</ele>
        <time>2017-04-05T08:57:55.000Z</time>
      </trkpt>
      <trkpt lat="45.90715" lon="6.16843">
        <ele>792.61602783203</ele>
        <time>2017-04-05T08:57:58.000Z</time>
      </trkpt>
      <trkpt lat="45.90715" lon="6.16845">
        <ele>793.32800292969</ele>
        <time>2017-04-05T08:58:01.000Z</time>
      </trkpt>
      <trkpt lat="45.90715" lon="6.16846">
        <ele>794.0419921875</ele>
        <time>2017-04-05T08:58:04.000Z</time>
      </trkpt>
      <trkpt lat="45.90714" lon="6.16848">
        <ele>794.79486083984</ele>
        <time>2017-04-05T08:58:07.000Z</time>
      </trkpt>
      <trkpt lat="45.90713" lon="6.1685">
        <ele>795.61932373047</ele>
        <time>2017-04-05T08:58:10.000Z</time>
      </trkpt>
      <trkpt lat="45.90711" lon="6.16852">
        <ele>796.4267578125</ele>
        <time>2017-04-05T08:58:13.000Z</time>
      </trkpt>
      <trkpt lat="45.9071" lon="6.16853">
        <ele>797.03692626953</ele>
        <time>2017-04-05T08:58:15.000Z</time>
      </trkpt>
      <trkpt lat="45.90708" lon="6.16852">
        <ele>797.37139892578</ele>
        <time>2017-04-05T08:58:17.000Z</time>
      </trkpt>
      <trkpt lat="45.90705" lon="6.16853">
        <ele>797.51354980469</ele>
        <time>2017-04-05T08:58:20.000Z</time>
      </trkpt>
      <trkpt lat="45.90704" lon="6.16853">
        <ele>797.51501464844</ele>
        <time>2017-04-05T08:58:23.000Z</time>
      </trkpt>
      <trkpt lat="45.90702" lon="6.16855">
        <ele>797.45538330078</ele>
        <time>2017-04-05T08:58:25.000Z</time>
      </trkpt>
      <trkpt lat="45.90699" lon="6.16856">
        <ele>797.31860351562</ele>
        <time>2017-04-05T08:58:28.000Z</time>
      </trkpt>
      <trkpt lat="45.90698" lon="6.16859">
        <ele>797.58135986328</ele>
        <time>2017-04-05T08:58:31.000Z</time>
      </trkpt>
      <trkpt lat="45.90697" lon="6.16863">
        <ele>798.2421875</ele>
        <time>2017-04-05T08:58:34.000Z</time>
      </trkpt>
      <trkpt lat="45.90698" lon="6.16866">
        <ele>799.33251953125</ele>
        <time>2017-04-05T08:58:36.000Z</time>
      </trkpt>
      <trkpt lat="45.90696" lon="6.1687">
        <ele>800.63720703125</ele>
        <time>2017-04-05T08:58:39.000Z</time>
      </trkpt>
      <trkpt lat="45.90692" lon="6.16871">
        <ele>801.90759277344</ele>
        <time>2017-04-05T08:58:42.000Z</time>
      </trkpt>
      <trkpt lat="45.9069" lon="6.16873">
        <ele>802.98156738281</ele>
        <time>2017-04-05T08:58:45.000Z</time>
      </trkpt>
      <trkpt lat="45.90691" lon="6.16876">
        <ele>804.04260253906</ele>
        <time>2017-04-05T08:58:48.000Z</time>
      </trkpt>
      <trkpt lat="45.9069" lon="6.16878">
        <ele>804.91619873047</ele>
        <time>2017-04-05T08:58:50.000Z</time>
      </trkpt>
      <trkpt lat="45.90688" lon="6.16881">
        <ele>805.6220703125</ele>
        <time>2017-04-05T08:58:53.000Z</time>
      </trkpt>
      <trkpt lat="45.90686" lon="6.16882">
        <ele>806.46960449219</ele>
        <time>2017-04-05T08:58:55.000Z</time>
      </trkpt>
      <trkpt lat="45.90685" lon="6.16886">
        <ele>807.57366943359</ele>
        <time>2017-04-05T08:58:58.000Z</time>
      </trkpt>
      <trkpt lat="45.90685" lon="6.16889">
        <ele>808.68908691406</ele>
        <time>2017-04-05T08:59:01.000Z</time>
      </trkpt>
      <trkpt lat="45.90685" lon="6.16893">
        <ele>809.88287353516</ele>
        <time>2017-04-05T08:59:04.000Z</time>
      </trkpt>
      <trkpt lat="45.90686" lon="6.16897">
        <ele>811.44641113281</ele>
        <time>2017-04-05T08:59:07.000Z</time>
      </trkpt>
      <trkpt lat="45.90687" lon="6.16901">
        <ele>813.42901611328</ele>
        <time>2017-04-05T08:59:10.000Z</time>
      </trkpt>
      <trkpt lat="45.90687" lon="6.16903">
        <ele>815.29034423828</ele>
        <time>2017-04-05T08:59:12.000Z</time>
      </trkpt>
      <trkpt lat="45.90685" lon="6.16905">
        <ele>816.85540771484</ele>
        <time>2017-04-05T08:59:15.000Z</time>
      </trkpt>
      <trkpt lat="45.90683" lon="6.16905">
        <ele>818.10491943359</ele>
        <time>2017-04-05T08:59:18.000Z</time>
      </trkpt>
      <trkpt lat="45.90681" lon="6.16904">
        <ele>818.66760253906</ele>
        <time>2017-04-05T08:59:20.000Z</time>
      </trkpt>
      <trkpt lat="45.9068" lon="6.16905">
        <ele>818.72393798828</ele>
        <time>2017-04-05T08:59:23.000Z</time>
      </trkpt>
      <trkpt lat="45.90679" lon="6.16907">
        <ele>818.73681640625</ele>
        <time>2017-04-05T08:59:25.000Z</time>
      </trkpt>
      <trkpt lat="45.90678" lon="6.16909">
        <ele>818.90441894531</ele>
        <time>2017-04-05T08:59:28.000Z</time>
      </trkpt>
      <trkpt lat="45.90677" lon="6.16911">
        <ele>819.20178222656</ele>
        <time>2017-04-05T08:59:30.000Z</time>
      </trkpt>
      <trkpt lat="45.90675" lon="6.16912">
        <ele>819.68957519531</ele>
        <time>2017-04-05T08:59:33.000Z</time>
      </trkpt>
      <trkpt lat="45.90675" lon="6.16914">
        <ele>820.41619873047</ele>
        <time>2017-04-05T08:59:37.000Z</time>
      </trkpt>
      <trkpt lat="45.90674" lon="6.16916">
        <ele>821.11651611328</ele>
        <time>2017-04-05T08:59:39.000Z</time>
      </trkpt>
      <trkpt lat="45.90673" lon="6.16917">
        <ele>821.62567138672</ele>
        <time>2017-04-05T08:59:42.000Z</time>
      </trkpt>
      <trkpt lat="45.90672" lon="6.16916">
        <ele>821.93469238281</ele>
        <time>2017-04-05T08:59:45.000Z</time>
      </trkpt>
      <trkpt lat="45.90672" lon="6.16918">
        <ele>822.36199951172</ele>
        <time>2017-04-05T08:59:48.000Z</time>
      </trkpt>
      <trkpt lat="45.90672" lon="6.1692">
        <ele>822.76708984375</ele>
        <time>2017-04-05T08:59:50.000Z</time>
      </trkpt>
      <trkpt lat="45.9067" lon="6.16924">
        <ele>823.27880859375</ele>
        <time>2017-04-05T08:59:53.000Z</time>
      </trkpt>
      <trkpt lat="45.90668" lon="6.16926">
        <ele>823.91455078125</ele>
        <time>2017-04-05T08:59:55.000Z</time>
      </trkpt>
      <trkpt lat="45.90667" lon="6.16929">
        <ele>824.77490234375</ele>
        <time>2017-04-05T08:59:58.000Z</time>
      </trkpt>
      <trkpt lat="45.90664" lon="6.1693">
        <ele>825.58312988281</ele>
        <time>2017-04-05T09:00:01.000Z</time>
      </trkpt>
      <trkpt lat="45.90661" lon="6.16931">
        <ele>826.25604248047</ele>
        <time>2017-04-05T09:00:04.000Z</time>
      </trkpt>
      <trkpt lat="45.9066" lon="6.16933">
        <ele>826.90270996094</ele>
        <time>2017-04-05T09:00:07.000Z</time>
      </trkpt>
      <trkpt lat="45.90659" lon="6.16935">
        <ele>827.58270263672</ele>
        <time>2017-04-05T09:00:09.000Z</time>
      </trkpt>
      <trkpt lat="45.90656" lon="6.16936">
        <ele>828.14697265625</ele>
        <time>2017-04-05T09:00:12.000Z</time>
      </trkpt>
      <trkpt lat="45.90654" lon="6.16938">
        <ele>828.85235595703</ele>
        <time>2017-04-05T09:00:15.000Z</time>
      </trkpt>
      <trkpt lat="45.90652" lon="6.16941">
        <ele>829.75537109375</ele>
        <time>2017-04-05T09:00:18.000Z</time>
      </trkpt>
      <trkpt lat="45.9065" lon="6.16942">
        <ele>830.44763183594</ele>
        <time>2017-04-05T09:00:20.000Z</time>
      </trkpt>
      <trkpt lat="45.90649" lon="6.16941">
        <ele>830.90264892578</ele>
        <time>2017-04-05T09:00:22.000Z</time>
      </trkpt>
      <trkpt lat="45.90648" lon="6.16942">
        <ele>831.37042236328</ele>
        <time>2017-04-05T09:00:27.000Z</time>
      </trkpt>
      <trkpt lat="45.90645" lon="6.16944">
        <ele>831.78759765625</ele>
        <time>2017-04-05T09:00:30.000Z</time>
      </trkpt>
      <trkpt lat="45.90643" lon="6.16944">
        <ele>831.92559814453</ele>
        <time>2017-04-05T09:00:32.000Z</time>
      </trkpt>
      <trkpt lat="45.9064" lon="6.16943">
        <ele>831.94958496094</ele>
        <time>2017-04-05T09:00:35.000Z</time>
      </trkpt>
      <trkpt lat="45.90638" lon="6.16942">
        <ele>831.95294189453</ele>
        <time>2017-04-05T09:00:38.000Z</time>
      </trkpt>
      <trkpt lat="45.90636" lon="6.16942">
        <ele>831.92321777344</ele>
        <time>2017-04-05T09:00:41.000Z</time>
      </trkpt>
      <trkpt lat="45.90635" lon="6.16942">
        <ele>831.72509765625</ele>
        <time>2017-04-05T09:00:44.000Z</time>
      </trkpt>
      <trkpt lat="45.90632" lon="6.16943">
        <ele>831.56689453125</ele>
        <time>2017-04-05T09:00:46.000Z</time>
      </trkpt>
      <trkpt lat="45.90631" lon="6.16944">
        <ele>831.63104248047</ele>
        <time>2017-04-05T09:00:51.000Z</time>
      </trkpt>
      <trkpt lat="45.9063" lon="6.16944">
        <ele>831.79187011719</ele>
        <time>2017-04-05T09:00:53.000Z</time>
      </trkpt>
      <trkpt lat="45.90627" lon="6.16944">
        <ele>831.94207763672</ele>
        <time>2017-04-05T09:00:56.000Z</time>
      </trkpt>
      <trkpt lat="45.90624" lon="6.16945">
        <ele>832.08184814453</ele>
        <time>2017-04-05T09:00:59.000Z</time>
      </trkpt>
      <trkpt lat="45.90622" lon="6.16945">
        <ele>832.18487548828</ele>
        <time>2017-04-05T09:01:01.000Z</time>
      </trkpt>
      <trkpt lat="45.9062" lon="6.16945">
        <ele>832.19128417969</ele>
        <time>2017-04-05T09:01:04.000Z</time>
      </trkpt>
      <trkpt lat="45.90619" lon="6.16945">
        <ele>832.1728515625</ele>
        <time>2017-04-05T09:01:08.000Z</time>
      </trkpt>
      <trkpt lat="45.90617" lon="6.16946">
        <ele>832.23175048828</ele>
        <time>2017-04-05T09:01:10.000Z</time>
      </trkpt>
      <trkpt lat="45.90614" lon="6.16947">
        <ele>832.44140625</ele>
        <time>2017-04-05T09:01:13.000Z</time>
      </trkpt>
      <trkpt lat="45.90612" lon="6.16948">
        <ele>832.72448730469</ele>
        <time>2017-04-05T09:01:15.000Z</time>
      </trkpt>
      <trkpt lat="45.90611" lon="6.16949">
        <ele>833.05285644531</ele>
        <time>2017-04-05T09:01:18.000Z</time>
      </trkpt>
      <trkpt lat="45.90612" lon="6.1695">
        <ele>833.55352783203</ele>
        <time>2017-04-05T09:01:23.000Z</time>
      </trkpt>
      <trkpt lat="45.90613" lon="6.16951">
        <ele>834.0791015625</ele>
        <time>2017-04-05T09:01:26.000Z</time>
      </trkpt>
      <trkpt lat="45.90614" lon="6.16952">
        <ele>834.59100341797</ele>
        <time>2017-04-05T09:01:32.000Z</time>
      </trkpt>
      <trkpt lat="45.90615" lon="6.16952">
        <ele>835.07696533203</ele>
        <time>2017-04-05T09:01:35.000Z</time>
      </trkpt>
      <trkpt lat="45.90616" lon="6.16952">
        <ele>835.44366455078</ele>
        <time>2017-04-05T09:01:38.000Z</time>
      </trkpt>
      <trkpt lat="45.90617" lon="6.16952">
        <ele>835.61688232422</ele>
        <time>2017-04-05T09:01:41.000Z</time>
      </trkpt>
      <trkpt lat="45.90618" lon="6.16951">
        <ele>835.60144042969</ele>
        <time>2017-04-05T09:01:44.000Z</time>
      </trkpt>
      <trkpt lat="45.90618" lon="6.16949">
        <ele>835.30877685547</ele>
        <time>2017-04-05T09:01:46.000Z</time>
      </trkpt>
      <trkpt lat="45.9062" lon="6.16949">
        <ele>834.97430419922</ele>
        <time>2017-04-05T09:01:49.000Z</time>
      </trkpt>
      <trkpt lat="45.9062" lon="6.1695">
        <ele>834.81970214844</ele>
        <time>2017-04-05T09:01:52.000Z</time>
      </trkpt>
      <trkpt lat="45.90621" lon="6.16953">
        <ele>834.95684814453</ele>
        <time>2017-04-05T09:01:56.000Z</time>
      </trkpt>
      <trkpt lat="45.90621" lon="6.16954">
        <ele>835.33349609375</ele>
        <time>2017-04-05T09:01:58.000Z</time>
      </trkpt>
      <trkpt lat="45.90622" lon="6.16955">
        <ele>835.99084472656</ele>
        <time>2017-04-05T09:02:05.000Z</time>
      </trkpt>
      <trkpt lat="45.90623" lon="6.16956">
        <ele>836.72326660156</ele>
        <time>2017-04-05T09:02:08.000Z</time>
      </trkpt>
      <trkpt lat="45.90623" lon="6.16957">
        <ele>837.47424316406</ele>
        <time>2017-04-05T09:02:11.000Z</time>
      </trkpt>
      <trkpt lat="45.90625" lon="6.16957">
        <ele>837.95294189453</ele>
        <time>2017-04-05T09:02:14.000Z</time>
      </trkpt>
      <trkpt lat="45.90627" lon="6.16958">
        <ele>838.35144042969</ele>
        <time>2017-04-05T09:02:16.000Z</time>
      </trkpt>
      <trkpt lat="45.90628" lon="6.16959">
        <ele>838.71447753906</ele>
        <time>2017-04-05T09:02:18.000Z</time>
      </trkpt>
      <trkpt lat="45.9063" lon="6.16962">
        <ele>839.3798828125</ele>
        <time>2017-04-05T09:02:21.000Z</time>
      </trkpt>
      <trkpt lat="45.90631" lon="6.16965">
        <ele>840.19659423828</ele>
        <time>2017-04-05T09:02:23.000Z</time>
      </trkpt>
      <trkpt lat="45.90633" lon="6.16968">
        <ele>841.29333496094</ele>
        <time>2017-04-05T09:02:26.000Z</time>
      </trkpt>
      <trkpt lat="45.90636" lon="6.16972">
        <ele>842.69873046875</ele>
        <time>2017-04-05T09:02:33.000Z</time>
      </trkpt>
      <trkpt lat="45.90638" lon="6.16974">
        <ele>844.21795654297</ele>
        <time>2017-04-05T09:02:36.000Z</time>
      </trkpt>
      <trkpt lat="45.9064" lon="6.16974">
        <ele>845.37322998047</ele>
        <time>2017-04-05T09:02:38.000Z</time>
      </trkpt>
      <trkpt lat="45.90642" lon="6.16972">
        <ele>846.06866455078</ele>
        <time>2017-04-05T09:02:41.000Z</time>
      </trkpt>
      <trkpt lat="45.90643" lon="6.16971">
        <ele>846.36248779297</ele>
        <time>2017-04-05T09:02:43.000Z</time>
      </trkpt>
      <trkpt lat="45.90643" lon="6.1697">
        <ele>846.1708984375</ele>
        <time>2017-04-05T09:02:45.000Z</time>
      </trkpt>
      <trkpt lat="45.90646" lon="6.16971">
        <ele>845.88806152344</ele>
        <time>2017-04-05T09:02:48.000Z</time>
      </trkpt>
      <trkpt lat="45.90648" lon="6.16972">
        <ele>845.68981933594</ele>
        <time>2017-04-05T09:02:50.000Z</time>
      </trkpt>
      <trkpt lat="45.90649" lon="6.16973">
        <ele>845.79748535156</ele>
        <time>2017-04-05T09:02:52.000Z</time>
      </trkpt>
      <trkpt lat="45.90651" lon="6.16975">
        <ele>846.19812011719</ele>
        <time>2017-04-05T09:02:54.000Z</time>
      </trkpt>
      <trkpt lat="45.90653" lon="6.16976">
        <ele>846.85095214844</ele>
        <time>2017-04-05T09:02:57.000Z</time>
      </trkpt>
      <trkpt lat="45.90655" lon="6.16977">
        <ele>847.46350097656</ele>
        <time>2017-04-05T09:03:00.000Z</time>
      </trkpt>
      <trkpt lat="45.90656" lon="6.16978">
        <ele>848.11022949219</ele>
        <time>2017-04-05T09:03:02.000Z</time>
      </trkpt>
      <trkpt lat="45.90659" lon="6.16979">
        <ele>848.6591796875</ele>
        <time>2017-04-05T09:03:05.000Z</time>
      </trkpt>
      <trkpt lat="45.9066" lon="6.16979">
        <ele>849.06817626953</ele>
        <time>2017-04-05T09:03:07.000Z</time>
      </trkpt>
      <trkpt lat="45.90663" lon="6.1698">
        <ele>849.40417480469</ele>
        <time>2017-04-05T09:03:10.000Z</time>
      </trkpt>
      <trkpt lat="45.90664" lon="6.16978">
        <ele>849.47576904297</ele>
        <time>2017-04-05T09:03:13.000Z</time>
      </trkpt>
      <trkpt lat="45.90664" lon="6.16976">
        <ele>849.24725341797</ele>
        <time>2017-04-05T09:03:15.000Z</time>
      </trkpt>
      <trkpt lat="45.90664" lon="6.16978">
        <ele>849.17120361328</ele>
        <time>2017-04-05T09:03:24.000Z</time>
      </trkpt>
      <trkpt lat="45.90665" lon="6.16981">
        <ele>849.32049560547</ele>
        <time>2017-04-05T09:03:27.000Z</time>
      </trkpt>
      <trkpt lat="45.90665" lon="6.16984">
        <ele>849.62286376953</ele>
        <time>2017-04-05T09:03:30.000Z</time>
      </trkpt>
      <trkpt lat="45.90665" lon="6.16983">
        <ele>850.03259277344</ele>
        <time>2017-04-05T09:03:34.000Z</time>
      </trkpt>
      <trkpt lat="45.90663" lon="6.16982">
        <ele>850.61932373047</ele>
        <time>2017-04-05T09:03:36.000Z</time>
      </trkpt>
      <trkpt lat="45.9066" lon="6.16984">
        <ele>851.11669921875</ele>
        <time>2017-04-05T09:03:43.000Z</time>
      </trkpt>
      <trkpt lat="45.90661" lon="6.16985">
        <ele>851.4697265625</ele>
        <time>2017-04-05T09:03:51.000Z</time>
      </trkpt>
      <trkpt lat="45.90663" lon="6.16985">
        <ele>851.59289550781</ele>
        <time>2017-04-05T09:04:11.000Z</time>
      </trkpt>
      <trkpt lat="45.90664" lon="6.16986">
        <ele>851.916015625</ele>
        <time>2017-04-05T09:04:30.000Z</time>
      </trkpt>
      <trkpt lat="45.90667" lon="6.16991">
        <ele>852.71484375</ele>
        <time>2017-04-05T09:04:33.000Z</time>
      </trkpt>
      <trkpt lat="45.90667" lon="6.16991">
        <ele>852.71484375</ele>
        <time>2017-04-05T09:04:53.000Z</time>
      </trkpt>
      <trkpt lat="45.9067" lon="6.1699">
        <ele>853.44030761719</ele>
        <time>2017-04-05T09:05:00.000Z</time>
      </trkpt>
      <trkpt lat="45.90666" lon="6.1699">
        <ele>853.89367675781</ele>
        <time>2017-04-05T09:05:13.000Z</time>
      </trkpt>
      <trkpt lat="45.90665" lon="6.16989">
        <ele>854.32208251953</ele>
        <time>2017-04-05T09:05:23.000Z</time>
      </trkpt>
      <trkpt lat="45.90664" lon="6.16988">
        <ele>854.49169921875</ele>
        <time>2017-04-05T09:05:26.000Z</time>
      </trkpt>
      <trkpt lat="45.90663" lon="6.16985">
        <ele>853.89562988281</ele>
        <time>2017-04-05T09:05:28.000Z</time>
      </trkpt>
      <trkpt lat="45.90664" lon="6.16984">
        <ele>853.17810058594</ele>
        <time>2017-04-05T09:05:31.000Z</time>
      </trkpt>
      <trkpt lat="45.90665" lon="6.16984">
        <ele>852.63342285156</ele>
        <time>2017-04-05T09:05:34.000Z</time>
      </trkpt>
      <trkpt lat="45.90666" lon="6.16983">
        <ele>852.04846191406</ele>
        <time>2017-04-05T09:05:37.000Z</time>
      </trkpt>
      <trkpt lat="45.90667" lon="6.16982">
        <ele>851.52801513672</ele>
        <time>2017-04-05T09:05:39.000Z</time>
      </trkpt>
      <trkpt lat="45.90668" lon="6.16981">
        <ele>851.2890625</ele>
        <time>2017-04-05T09:05:42.000Z</time>
      </trkpt>
      <trkpt lat="45.90669" lon="6.16981">
        <ele>851.1142578125</ele>
        <time>2017-04-05T09:05:44.000Z</time>
      </trkpt>
      <trkpt lat="45.90668" lon="6.16981">
        <ele>850.90106201172</ele>
        <time>2017-04-05T09:05:48.000Z</time>
      </trkpt>
      <trkpt lat="45.90667" lon="6.16978">
        <ele>850.43475341797</ele>
        <time>2017-04-05T09:05:51.000Z</time>
      </trkpt>
      <trkpt lat="45.90668" lon="6.16975">
        <ele>849.81884765625</ele>
        <time>2017-04-05T09:05:54.000Z</time>
      </trkpt>
      <trkpt lat="45.90669" lon="6.16974">
        <ele>849.142578125</ele>
        <time>2017-04-05T09:05:56.000Z</time>
      </trkpt>
      <trkpt lat="45.90671" lon="6.16973">
        <ele>848.48565673828</ele>
        <time>2017-04-05T09:06:02.000Z</time>
      </trkpt>
      <trkpt lat="45.90674" lon="6.16973">
        <ele>848.06817626953</ele>
        <time>2017-04-05T09:06:05.000Z</time>
      </trkpt>
      <trkpt lat="45.90675" lon="6.16977">
        <ele>848.31707763672</ele>
        <time>2017-04-05T09:06:08.000Z</time>
      </trkpt>
      <trkpt lat="45.90676" lon="6.16979">
        <ele>849.03106689453</ele>
        <time>2017-04-05T09:06:10.000Z</time>
      </trkpt>
      <trkpt lat="45.90678" lon="6.16981">
        <ele>850.05773925781</ele>
        <time>2017-04-05T09:06:12.000Z</time>
      </trkpt>
      <trkpt lat="45.9068" lon="6.16982">
        <ele>851.30859375</ele>
        <time>2017-04-05T09:06:15.000Z</time>
      </trkpt>
      <trkpt lat="45.9068" lon="6.16984">
        <ele>852.57110595703</ele>
        <time>2017-04-05T09:06:19.000Z</time>
      </trkpt>
      <trkpt lat="45.9068" lon="6.16986">
        <ele>853.65783691406</ele>
        <time>2017-04-05T09:06:22.000Z</time>
      </trkpt>
      <trkpt lat="45.90678" lon="6.16989">
        <ele>854.66241455078</ele>
        <time>2017-04-05T09:06:24.000Z</time>
      </trkpt>
      <trkpt lat="45.90677" lon="6.16991">
        <ele>855.55358886719</ele>
        <time>2017-04-05T09:06:27.000Z</time>
      </trkpt>
      <trkpt lat="45.90678" lon="6.16993">
        <ele>856.44903564453</ele>
        <time>2017-04-05T09:06:30.000Z</time>
      </trkpt>
      <trkpt lat="45.90679" lon="6.16995">
        <ele>857.33428955078</ele>
        <time>2017-04-05T09:06:32.000Z</time>
      </trkpt>
      <trkpt lat="45.90679" lon="6.16998">
        <ele>858.33905029297</ele>
        <time>2017-04-05T09:06:35.000Z</time>
      </trkpt>
      <trkpt lat="45.90678" lon="6.17">
        <ele>859.35430908203</ele>
        <time>2017-04-05T09:06:37.000Z</time>
      </trkpt>
      <trkpt lat="45.90676" lon="6.16999">
        <ele>860.12194824219</ele>
        <time>2017-04-05T09:06:40.000Z</time>
      </trkpt>
      <trkpt lat="45.90678" lon="6.16999">
        <ele>860.69189453125</ele>
        <time>2017-04-05T09:06:43.000Z</time>
      </trkpt>
      <trkpt lat="45.90679" lon="6.16998">
        <ele>861.00817871094</ele>
        <time>2017-04-05T09:06:45.000Z</time>
      </trkpt>
      <trkpt lat="45.90679" lon="6.16999">
        <ele>861.13195800781</ele>
        <time>2017-04-05T09:06:50.000Z</time>
      </trkpt>
      <trkpt lat="45.90678" lon="6.17002">
        <ele>861.31561279297</ele>
        <time>2017-04-05T09:06:53.000Z</time>
      </trkpt>
      <trkpt lat="45.90679" lon="6.17003">
        <ele>861.7802734375</ele>
        <time>2017-04-05T09:06:55.000Z</time>
      </trkpt>
      <trkpt lat="45.9068" lon="6.17004">
        <ele>862.32067871094</ele>
        <time>2017-04-05T09:06:57.000Z</time>
      </trkpt>
      <trkpt lat="45.90682" lon="6.17">
        <ele>862.63635253906</ele>
        <time>2017-04-05T09:07:00.000Z</time>
      </trkpt>
      <trkpt lat="45.90684" lon="6.16998">
        <ele>862.73797607422</ele>
        <time>2017-04-05T09:07:03.000Z</time>
      </trkpt>
      <trkpt lat="45.90685" lon="6.16997">
        <ele>862.51574707031</ele>
        <time>2017-04-05T09:07:05.000Z</time>
      </trkpt>
      <trkpt lat="45.90686" lon="6.16996">
        <ele>862.17346191406</ele>
        <time>2017-04-05T09:07:07.000Z</time>
      </trkpt>
      <trkpt lat="45.90687" lon="6.16996">
        <ele>861.70574951172</ele>
        <time>2017-04-05T09:07:10.000Z</time>
      </trkpt>
      <trkpt lat="45.90686" lon="6.16998">
        <ele>861.703125</ele>
        <time>2017-04-05T09:07:13.000Z</time>
      </trkpt>
      <trkpt lat="45.90686" lon="6.17">
        <ele>861.99951171875</ele>
        <time>2017-04-05T09:07:15.000Z</time>
      </trkpt>
      <trkpt lat="45.90686" lon="6.17003">
        <ele>862.61895751953</ele>
        <time>2017-04-05T09:07:17.000Z</time>
      </trkpt>
      <trkpt lat="45.90685" lon="6.17007">
        <ele>863.56408691406</ele>
        <time>2017-04-05T09:07:20.000Z</time>
      </trkpt>
      <trkpt lat="45.90685" lon="6.17011">
        <ele>864.85870361328</ele>
        <time>2017-04-05T09:07:23.000Z</time>
      </trkpt>
      <trkpt lat="45.90684" lon="6.17013">
        <ele>866.07110595703</ele>
        <time>2017-04-05T09:07:26.000Z</time>
      </trkpt>
      <trkpt lat="45.90683" lon="6.17016">
        <ele>867.30078125</ele>
        <time>2017-04-05T09:07:28.000Z</time>
      </trkpt>
      <trkpt lat="45.90681" lon="6.17019">
        <ele>868.52429199219</ele>
        <time>2017-04-05T09:07:31.000Z</time>
      </trkpt>
      <trkpt lat="45.9068" lon="6.17021">
        <ele>869.55749511719</ele>
        <time>2017-04-05T09:07:34.000Z</time>
      </trkpt>
      <trkpt lat="45.90679" lon="6.17022">
        <ele>870.32751464844</ele>
        <time>2017-04-05T09:07:37.000Z</time>
      </trkpt>
      <trkpt lat="45.90677" lon="6.17023">
        <ele>871.00311279297</ele>
        <time>2017-04-05T09:07:40.000Z</time>
      </trkpt>
      <trkpt lat="45.90675" lon="6.17025">
        <ele>871.60467529297</ele>
        <time>2017-04-05T09:07:43.000Z</time>
      </trkpt>
      <trkpt lat="45.90674" lon="6.17026">
        <ele>872.01843261719</ele>
        <time>2017-04-05T09:07:45.000Z</time>
      </trkpt>
      <trkpt lat="45.90671" lon="6.17027">
        <ele>872.30975341797</ele>
        <time>2017-04-05T09:07:48.000Z</time>
      </trkpt>
      <trkpt lat="45.9067" lon="6.17028">
        <ele>872.61962890625</ele>
        <time>2017-04-05T09:07:50.000Z</time>
      </trkpt>
      <trkpt lat="45.90671" lon="6.17026">
        <ele>872.72644042969</ele>
        <time>2017-04-05T09:07:53.000Z</time>
      </trkpt>
      <trkpt lat="45.90671" lon="6.17024">
        <ele>872.49450683594</ele>
        <time>2017-04-05T09:07:55.000Z</time>
      </trkpt>
      <trkpt lat="45.90673" lon="6.17024">
        <ele>872.310546875</ele>
        <time>2017-04-05T09:07:58.000Z</time>
      </trkpt>
      <trkpt lat="45.90673" lon="6.17022">
        <ele>871.86212158203</ele>
        <time>2017-04-05T09:08:00.000Z</time>
      </trkpt>
      <trkpt lat="45.90674" lon="6.1702">
        <ele>871.17059326172</ele>
        <time>2017-04-05T09:08:02.000Z</time>
      </trkpt>
      <trkpt lat="45.90677" lon="6.17018">
        <ele>870.63806152344</ele>
        <time>2017-04-05T09:08:05.000Z</time>
      </trkpt>
      <trkpt lat="45.90679" lon="6.17018">
        <ele>870.36901855469</ele>
        <time>2017-04-05T09:08:07.000Z</time>
      </trkpt>
      <trkpt lat="45.90681" lon="6.17019">
        <ele>870.12567138672</ele>
        <time>2017-04-05T09:08:09.000Z</time>
      </trkpt>
      <trkpt lat="45.90683" lon="6.17019">
        <ele>870.19091796875</ele>
        <time>2017-04-05T09:08:12.000Z</time>
      </trkpt>
      <trkpt lat="45.90684" lon="6.17019">
        <ele>870.49987792969</ele>
        <time>2017-04-05T09:08:14.000Z</time>
      </trkpt>
      <trkpt lat="45.90686" lon="6.17019">
        <ele>870.86492919922</ele>
        <time>2017-04-05T09:08:17.000Z</time>
      </trkpt>
      <trkpt lat="45.90686" lon="6.17017">
        <ele>871.05895996094</ele>
        <time>2017-04-05T09:08:23.000Z</time>
      </trkpt>
      <trkpt lat="45.90688" lon="6.17018">
        <ele>871.27893066406</ele>
        <time>2017-04-05T09:08:25.000Z</time>
      </trkpt>
      <trkpt lat="45.90688" lon="6.17017">
        <ele>871.283203125</ele>
        <time>2017-04-05T09:08:28.000Z</time>
      </trkpt>
      <trkpt lat="45.90689" lon="6.17018">
        <ele>871.30822753906</ele>
        <time>2017-04-05T09:08:33.000Z</time>
      </trkpt>
      <trkpt lat="45.90692" lon="6.1702">
        <ele>871.58953857422</ele>
        <time>2017-04-05T09:08:36.000Z</time>
      </trkpt>
      <trkpt lat="45.90694" lon="6.17021">
        <ele>872.12744140625</ele>
        <time>2017-04-05T09:08:38.000Z</time>
      </trkpt>
      <trkpt lat="45.90695" lon="6.17022">
        <ele>872.66711425781</ele>
        <time>2017-04-05T09:08:41.000Z</time>
      </trkpt>
      <trkpt lat="45.90697" lon="6.17023">
        <ele>873.44567871094</ele>
        <time>2017-04-05T09:08:43.000Z</time>
      </trkpt>
      <trkpt lat="45.907" lon="6.17025">
        <ele>874.4140625</ele>
        <time>2017-04-05T09:08:46.000Z</time>
      </trkpt>
      <trkpt lat="45.907" lon="6.17028">
        <ele>875.30480957031</ele>
        <time>2017-04-05T09:08:48.000Z</time>
      </trkpt>
      <trkpt lat="45.90701" lon="6.17029">
        <ele>876.201171875</ele>
        <time>2017-04-05T09:08:51.000Z</time>
      </trkpt>
      <trkpt lat="45.90704" lon="6.1703">
        <ele>877.1298828125</ele>
        <time>2017-04-05T09:08:54.000Z</time>
      </trkpt>
      <trkpt lat="45.90707" lon="6.17033">
        <ele>878.29669189453</ele>
        <time>2017-04-05T09:08:57.000Z</time>
      </trkpt>
      <trkpt lat="45.9071" lon="6.17038">
        <ele>879.60791015625</ele>
        <time>2017-04-05T09:09:00.000Z</time>
      </trkpt>
      <trkpt lat="45.90712" lon="6.17041">
        <ele>880.92712402344</ele>
        <time>2017-04-05T09:09:02.000Z</time>
      </trkpt>
      <trkpt lat="45.90713" lon="6.17041">
        <ele>882.16925048828</ele>
        <time>2017-04-05T09:09:04.000Z</time>
      </trkpt>
      <trkpt lat="45.90712" lon="6.1704">
        <ele>883.12353515625</ele>
        <time>2017-04-05T09:09:14.000Z</time>
      </trkpt>
      <trkpt lat="45.9071" lon="6.1704">
        <ele>883.67596435547</ele>
        <time>2017-04-05T09:09:15.000Z</time>
      </trkpt>
      <trkpt lat="45.90709" lon="6.17041">
        <ele>883.89776611328</ele>
        <time>2017-04-05T09:09:17.000Z</time>
      </trkpt>
      <trkpt lat="45.90708" lon="6.17043">
        <ele>883.96026611328</ele>
        <time>2017-04-05T09:09:19.000Z</time>
      </trkpt>
      <trkpt lat="45.90705" lon="6.17041">
        <ele>883.77227783203</ele>
        <time>2017-04-05T09:09:22.000Z</time>
      </trkpt>
      <trkpt lat="45.90704" lon="6.17041">
        <ele>883.66357421875</ele>
        <time>2017-04-05T09:09:24.000Z</time>
      </trkpt>
      <trkpt lat="45.90704" lon="6.17041">
        <ele>883.64562988281</ele>
        <time>2017-04-05T09:09:26.000Z</time>
      </trkpt>
      <trkpt lat="45.90702" lon="6.17042">
        <ele>883.52264404297</ele>
        <time>2017-04-05T09:09:28.000Z</time>
      </trkpt>
      <trkpt lat="45.907" lon="6.17042">
        <ele>883.34704589844</ele>
        <time>2017-04-05T09:09:30.000Z</time>
      </trkpt>
      <trkpt lat="45.90698" lon="6.17042">
        <ele>883.3232421875</ele>
        <time>2017-04-05T09:09:33.000Z</time>
      </trkpt>
      <trkpt lat="45.90697" lon="6.17043">
        <ele>883.33361816406</ele>
        <time>2017-04-05T09:09:35.000Z</time>
      </trkpt>
      <trkpt lat="45.90697" lon="6.17043">
        <ele>883.33361816406</ele>
        <time>2017-04-05T09:09:55.000Z</time>
      </trkpt>
      <trkpt lat="45.90699" lon="6.17048">
        <ele>883.75030517578</ele>
        <time>2017-04-05T09:09:58.000Z</time>
      </trkpt>
      <trkpt lat="45.90699" lon="6.17049">
        <ele>884.28741455078</ele>
        <time>2017-04-05T09:10:07.000Z</time>
      </trkpt>
      <trkpt lat="45.90697" lon="6.1705">
        <ele>884.84338378906</ele>
        <time>2017-04-05T09:10:09.000Z</time>
      </trkpt>
      <trkpt lat="45.90696" lon="6.17051">
        <ele>885.49932861328</ele>
        <time>2017-04-05T09:10:12.000Z</time>
      </trkpt>
      <trkpt lat="45.90694" lon="6.17053">
        <ele>886.28009033203</ele>
        <time>2017-04-05T09:10:15.000Z</time>
      </trkpt>
      <trkpt lat="45.90692" lon="6.17054">
        <ele>886.65393066406</ele>
        <time>2017-04-05T09:10:17.000Z</time>
      </trkpt>
      <trkpt lat="45.90689" lon="6.17055">
        <ele>886.99688720703</ele>
        <time>2017-04-05T09:10:19.000Z</time>
      </trkpt>
      <trkpt lat="45.90688" lon="6.17056">
        <ele>887.3974609375</ele>
        <time>2017-04-05T09:10:22.000Z</time>
      </trkpt>
      <trkpt lat="45.90687" lon="6.17058">
        <ele>887.84765625</ele>
        <time>2017-04-05T09:10:24.000Z</time>
      </trkpt>
      <trkpt lat="45.90687" lon="6.17059">
        <ele>888.32897949219</ele>
        <time>2017-04-05T09:10:28.000Z</time>
      </trkpt>
      <trkpt lat="45.90689" lon="6.1706">
        <ele>888.81103515625</ele>
        <time>2017-04-05T09:10:31.000Z</time>
      </trkpt>
      <trkpt lat="45.90688" lon="6.17058">
        <ele>888.99743652344</ele>
        <time>2017-04-05T09:10:34.000Z</time>
      </trkpt>
      <trkpt lat="45.90687" lon="6.17054">
        <ele>888.79376220703</ele>
        <time>2017-04-05T09:10:37.000Z</time>
      </trkpt>
      <trkpt lat="45.90687" lon="6.17053">
        <ele>888.3544921875</ele>
        <time>2017-04-05T09:10:39.000Z</time>
      </trkpt>
      <trkpt lat="45.90689" lon="6.17052">
        <ele>887.72296142578</ele>
        <time>2017-04-05T09:10:42.000Z</time>
      </trkpt>
      <trkpt lat="45.9069" lon="6.17052">
        <ele>887.05792236328</ele>
        <time>2017-04-05T09:10:45.000Z</time>
      </trkpt>
      <trkpt lat="45.90692" lon="6.17052">
        <ele>886.61602783203</ele>
        <time>2017-04-05T09:10:47.000Z</time>
      </trkpt>
      <trkpt lat="45.90694" lon="6.17054">
        <ele>886.72900390625</ele>
        <time>2017-04-05T09:10:49.000Z</time>
      </trkpt>
      <trkpt lat="45.90696" lon="6.17056">
        <ele>887.09942626953</ele>
        <time>2017-04-05T09:10:52.000Z</time>
      </trkpt>
      <trkpt lat="45.90699" lon="6.17058">
        <ele>887.7568359375</ele>
        <time>2017-04-05T09:10:55.000Z</time>
      </trkpt>
      <trkpt lat="45.90701" lon="6.17058">
        <ele>888.3896484375</ele>
        <time>2017-04-05T09:10:58.000Z</time>
      </trkpt>
      <trkpt lat="45.90702" lon="6.17057">
        <ele>888.98010253906</ele>
        <time>2017-04-05T09:11:01.000Z</time>
      </trkpt>
      <trkpt lat="45.90703" lon="6.17056">
        <ele>889.28240966797</ele>
        <time>2017-04-05T09:11:05.000Z</time>
      </trkpt>
      <trkpt lat="45.90705" lon="6.17056">
        <ele>889.45086669922</ele>
        <time>2017-04-05T09:11:08.000Z</time>
      </trkpt>
      <trkpt lat="45.90707" lon="6.17056">
        <ele>889.39660644531</ele>
        <time>2017-04-05T09:11:11.000Z</time>
      </trkpt>
      <trkpt lat="45.90708" lon="6.17057">
        <ele>889.44757080078</ele>
        <time>2017-04-05T09:11:13.000Z</time>
      </trkpt>
      <trkpt lat="45.9071" lon="6.1706">
        <ele>889.80078125</ele>
        <time>2017-04-05T09:11:16.000Z</time>
      </trkpt>
      <trkpt lat="45.9071" lon="6.17063">
        <ele>890.42218017578</ele>
        <time>2017-04-05T09:11:18.000Z</time>
      </trkpt>
      <trkpt lat="45.90709" lon="6.17065">
        <ele>891.13427734375</ele>
        <time>2017-04-05T09:11:20.000Z</time>
      </trkpt>
      <trkpt lat="45.90709" lon="6.17066">
        <ele>891.97473144531</ele>
        <time>2017-04-05T09:11:22.000Z</time>
      </trkpt>
      <trkpt lat="45.90708" lon="6.17068">
        <ele>892.84851074219</ele>
        <time>2017-04-05T09:11:25.000Z</time>
      </trkpt>
      <trkpt lat="45.90707" lon="6.17069">
        <ele>893.4814453125</ele>
        <time>2017-04-05T09:11:33.000Z</time>
      </trkpt>
      <trkpt lat="45.90705" lon="6.17069">
        <ele>893.88897705078</ele>
        <time>2017-04-05T09:11:36.000Z</time>
      </trkpt>
      <trkpt lat="45.90705" lon="6.1707">
        <ele>894.26953125</ele>
        <time>2017-04-05T09:11:38.000Z</time>
      </trkpt>
      <trkpt lat="45.90704" lon="6.17071">
        <ele>894.58679199219</ele>
        <time>2017-04-05T09:11:42.000Z</time>
      </trkpt>
      <trkpt lat="45.90702" lon="6.17073">
        <ele>894.88708496094</ele>
        <time>2017-04-05T09:11:44.000Z</time>
      </trkpt>
      <trkpt lat="45.90703" lon="6.17075">
        <ele>895.31884765625</ele>
        <time>2017-04-05T09:11:47.000Z</time>
      </trkpt>
      <trkpt lat="45.907" lon="6.17076">
        <ele>895.81774902344</ele>
        <time>2017-04-05T09:11:49.000Z</time>
      </trkpt>
      <trkpt lat="45.90699" lon="6.17077">
        <ele>896.359375</ele>
        <time>2017-04-05T09:11:51.000Z</time>
      </trkpt>
      <trkpt lat="45.90699" lon="6.17079">
        <ele>896.95263671875</ele>
        <time>2017-04-05T09:11:53.000Z</time>
      </trkpt>
      <trkpt lat="45.90698" lon="6.1708">
        <ele>897.52600097656</ele>
        <time>2017-04-05T09:11:55.000Z</time>
      </trkpt>
      <trkpt lat="45.90697" lon="6.1708">
        <ele>897.92431640625</ele>
        <time>2017-04-05T09:11:58.000Z</time>
      </trkpt>
      <trkpt lat="45.90697" lon="6.17081">
        <ele>898.35418701172</ele>
        <time>2017-04-05T09:12:00.000Z</time>
      </trkpt>
      <trkpt lat="45.90696" lon="6.17083">
        <ele>898.79705810547</ele>
        <time>2017-04-05T09:12:03.000Z</time>
      </trkpt>
      <trkpt lat="45.90697" lon="6.17084">
        <ele>899.20721435547</ele>
        <time>2017-04-05T09:12:09.000Z</time>
      </trkpt>
      <trkpt lat="45.90696" lon="6.17083">
        <ele>899.43243408203</ele>
        <time>2017-04-05T09:12:12.000Z</time>
      </trkpt>
      <trkpt lat="45.90695" lon="6.17081">
        <ele>899.55725097656</ele>
        <time>2017-04-05T09:12:14.000Z</time>
      </trkpt>
      <trkpt lat="45.90696" lon="6.1708">
        <ele>899.44610595703</ele>
        <time>2017-04-05T09:12:16.000Z</time>
      </trkpt>
      <trkpt lat="45.90697" lon="6.17078">
        <ele>899.04815673828</ele>
        <time>2017-04-05T09:12:19.000Z</time>
      </trkpt>
      <trkpt lat="45.907" lon="6.17078">
        <ele>898.56658935547</ele>
        <time>2017-04-05T09:12:21.000Z</time>
      </trkpt>
      <trkpt lat="45.90702" lon="6.17078">
        <ele>898.19500732422</ele>
        <time>2017-04-05T09:12:24.000Z</time>
      </trkpt>
      <trkpt lat="45.90704" lon="6.17078">
        <ele>897.97790527344</ele>
        <time>2017-04-05T09:12:26.000Z</time>
      </trkpt>
      <trkpt lat="45.90705" lon="6.17079">
        <ele>897.92028808594</ele>
        <time>2017-04-05T09:12:29.000Z</time>
      </trkpt>
      <trkpt lat="45.90708" lon="6.17079">
        <ele>898.01690673828</ele>
        <time>2017-04-05T09:12:32.000Z</time>
      </trkpt>
      <trkpt lat="45.9071" lon="6.17079">
        <ele>898.13555908203</ele>
        <time>2017-04-05T09:12:34.000Z</time>
      </trkpt>
      <trkpt lat="45.90712" lon="6.17078">
        <ele>898.18084716797</ele>
        <time>2017-04-05T09:12:38.000Z</time>
      </trkpt>
      <trkpt lat="45.90713" lon="6.1708">
        <ele>898.28747558594</ele>
        <time>2017-04-05T09:12:42.000Z</time>
      </trkpt>
      <trkpt lat="45.90714" lon="6.17081">
        <ele>898.44592285156</ele>
        <time>2017-04-05T09:12:44.000Z</time>
      </trkpt>
      <trkpt lat="45.90715" lon="6.17082">
        <ele>898.7255859375</ele>
        <time>2017-04-05T09:12:47.000Z</time>
      </trkpt>
      <trkpt lat="45.90717" lon="6.17082">
        <ele>898.94592285156</ele>
        <time>2017-04-05T09:12:49.000Z</time>
      </trkpt>
      <trkpt lat="45.90717" lon="6.17083">
        <ele>899.27282714844</ele>
        <time>2017-04-05T09:12:51.000Z</time>
      </trkpt>
      <trkpt lat="45.90718" lon="6.17084">
        <ele>899.60266113281</ele>
        <time>2017-04-05T09:12:54.000Z</time>
      </trkpt>
      <trkpt lat="45.90719" lon="6.17086">
        <ele>900.02362060547</ele>
        <time>2017-04-05T09:12:57.000Z</time>
      </trkpt>
      <trkpt lat="45.9072" lon="6.1709">
        <ele>900.63623046875</ele>
        <time>2017-04-05T09:12:59.000Z</time>
      </trkpt>
      <trkpt lat="45.90722" lon="6.17094">
        <ele>901.58758544922</ele>
        <time>2017-04-05T09:13:02.000Z</time>
      </trkpt>
      <trkpt lat="45.90723" lon="6.17096">
        <ele>902.62811279297</ele>
        <time>2017-04-05T09:13:04.000Z</time>
      </trkpt>
      <trkpt lat="45.9072" lon="6.17099">
        <ele>903.85070800781</ele>
        <time>2017-04-05T09:13:07.000Z</time>
      </trkpt>
      <trkpt lat="45.90719" lon="6.17102">
        <ele>905.11560058594</ele>
        <time>2017-04-05T09:13:09.000Z</time>
      </trkpt>
      <trkpt lat="45.90719" lon="6.17105">
        <ele>906.31561279297</ele>
        <time>2017-04-05T09:13:12.000Z</time>
      </trkpt>
      <trkpt lat="45.90722" lon="6.1711">
        <ele>907.52471923828</ele>
        <time>2017-04-05T09:13:15.000Z</time>
      </trkpt>
      <trkpt lat="45.90725" lon="6.1711">
        <ele>908.57147216797</ele>
        <time>2017-04-05T09:13:17.000Z</time>
      </trkpt>
      <trkpt lat="45.90725" lon="6.1711">
        <ele>909.2666015625</ele>
        <time>2017-04-05T09:13:19.000Z</time>
      </trkpt>
      <trkpt lat="45.90728" lon="6.17108">
        <ele>909.59973144531</ele>
        <time>2017-04-05T09:13:22.000Z</time>
      </trkpt>
      <trkpt lat="45.9073" lon="6.17107">
        <ele>909.53466796875</ele>
        <time>2017-04-05T09:13:25.000Z</time>
      </trkpt>
      <trkpt lat="45.9073" lon="6.17107">
        <ele>909.17639160156</ele>
        <time>2017-04-05T09:13:27.000Z</time>
      </trkpt>
      <trkpt lat="45.90731" lon="6.17109">
        <ele>908.92565917969</ele>
        <time>2017-04-05T09:13:30.000Z</time>
      </trkpt>
      <trkpt lat="45.90733" lon="6.1711">
        <ele>908.76623535156</ele>
        <time>2017-04-05T09:13:32.000Z</time>
      </trkpt>
      <trkpt lat="45.90734" lon="6.17111">
        <ele>908.78778076172</ele>
        <time>2017-04-05T09:13:34.000Z</time>
      </trkpt>
      <trkpt lat="45.90736" lon="6.17113">
        <ele>909.04022216797</ele>
        <time>2017-04-05T09:13:37.000Z</time>
      </trkpt>
      <trkpt lat="45.90737" lon="6.17113">
        <ele>909.25665283203</ele>
        <time>2017-04-05T09:13:39.000Z</time>
      </trkpt>
      <trkpt lat="45.90739" lon="6.17115">
        <ele>909.44708251953</ele>
        <time>2017-04-05T09:13:42.000Z</time>
      </trkpt>
      <trkpt lat="45.90741" lon="6.17116">
        <ele>909.59826660156</ele>
        <time>2017-04-05T09:13:44.000Z</time>
      </trkpt>
      <trkpt lat="45.90742" lon="6.17117">
        <ele>909.79357910156</ele>
        <time>2017-04-05T09:13:46.000Z</time>
      </trkpt>
      <trkpt lat="45.90744" lon="6.1712">
        <ele>910.00665283203</ele>
        <time>2017-04-05T09:13:49.000Z</time>
      </trkpt>
      <trkpt lat="45.90745" lon="6.17121">
        <ele>910.26574707031</ele>
        <time>2017-04-05T09:13:51.000Z</time>
      </trkpt>
      <trkpt lat="45.90746" lon="6.17122">
        <ele>910.48748779297</ele>
        <time>2017-04-05T09:13:53.000Z</time>
      </trkpt>
      <trkpt lat="45.90747" lon="6.17126">
        <ele>910.86004638672</ele>
        <time>2017-04-05T09:13:56.000Z</time>
      </trkpt>
      <trkpt lat="45.90748" lon="6.1713">
        <ele>911.36511230469</ele>
        <time>2017-04-05T09:13:59.000Z</time>
      </trkpt>
      <trkpt lat="45.90749" lon="6.17134">
        <ele>911.921875</ele>
        <time>2017-04-05T09:14:02.000Z</time>
      </trkpt>
      <trkpt lat="45.90749" lon="6.17136">
        <ele>912.54016113281</ele>
        <time>2017-04-05T09:14:05.000Z</time>
      </trkpt>
      <trkpt lat="45.90752" lon="6.17137">
        <ele>913.25225830078</ele>
        <time>2017-04-05T09:14:08.000Z</time>
      </trkpt>
      <trkpt lat="45.90754" lon="6.17141">
        <ele>914.07580566406</ele>
        <time>2017-04-05T09:14:10.000Z</time>
      </trkpt>
      <trkpt lat="45.90755" lon="6.17143">
        <ele>914.869140625</ele>
        <time>2017-04-05T09:14:12.000Z</time>
      </trkpt>
      <trkpt lat="45.90758" lon="6.17147">
        <ele>915.79284667969</ele>
        <time>2017-04-05T09:14:15.000Z</time>
      </trkpt>
      <trkpt lat="45.9076" lon="6.17149">
        <ele>916.80743408203</ele>
        <time>2017-04-05T09:14:18.000Z</time>
      </trkpt>
      <trkpt lat="45.90762" lon="6.17154">
        <ele>918.00555419922</ele>
        <time>2017-04-05T09:14:21.000Z</time>
      </trkpt>
      <trkpt lat="45.90764" lon="6.17155">
        <ele>919.046875</ele>
        <time>2017-04-05T09:14:24.000Z</time>
      </trkpt>
      <trkpt lat="45.90767" lon="6.17157">
        <ele>920.0556640625</ele>
        <time>2017-04-05T09:14:27.000Z</time>
      </trkpt>
      <trkpt lat="45.90769" lon="6.17158">
        <ele>920.93566894531</ele>
        <time>2017-04-05T09:14:30.000Z</time>
      </trkpt>
      <trkpt lat="45.90771" lon="6.1716">
        <ele>921.75146484375</ele>
        <time>2017-04-05T09:14:32.000Z</time>
      </trkpt>
      <trkpt lat="45.90772" lon="6.17163">
        <ele>922.42498779297</ele>
        <time>2017-04-05T09:14:35.000Z</time>
      </trkpt>
      <trkpt lat="45.90775" lon="6.17164">
        <ele>923.08239746094</ele>
        <time>2017-04-05T09:14:38.000Z</time>
      </trkpt>
      <trkpt lat="45.90775" lon="6.17165">
        <ele>923.65979003906</ele>
        <time>2017-04-05T09:14:41.000Z</time>
      </trkpt>
      <trkpt lat="45.90777" lon="6.17166">
        <ele>924.19714355469</ele>
        <time>2017-04-05T09:14:44.000Z</time>
      </trkpt>
      <trkpt lat="45.90778" lon="6.17169">
        <ele>924.72686767578</ele>
        <time>2017-04-05T09:14:46.000Z</time>
      </trkpt>
      <trkpt lat="45.9078" lon="6.17171">
        <ele>925.259765625</ele>
        <time>2017-04-05T09:14:49.000Z</time>
      </trkpt>
      <trkpt lat="45.90781" lon="6.17172">
        <ele>925.76739501953</ele>
        <time>2017-04-05T09:14:52.000Z</time>
      </trkpt>
      <trkpt lat="45.90782" lon="6.17171">
        <ele>926.18927001953</ele>
        <time>2017-04-05T09:14:54.000Z</time>
      </trkpt>
      <trkpt lat="45.90783" lon="6.17174">
        <ele>926.62860107422</ele>
        <time>2017-04-05T09:14:57.000Z</time>
      </trkpt>
      <trkpt lat="45.90784" lon="6.17176">
        <ele>927.02032470703</ele>
        <time>2017-04-05T09:14:59.000Z</time>
      </trkpt>
      <trkpt lat="45.90785" lon="6.17177">
        <ele>927.33068847656</ele>
        <time>2017-04-05T09:15:01.000Z</time>
      </trkpt>
      <trkpt lat="45.90786" lon="6.17179">
        <ele>927.65588378906</ele>
        <time>2017-04-05T09:15:03.000Z</time>
      </trkpt>
      <trkpt lat="45.90788" lon="6.17182">
        <ele>928.13397216797</ele>
        <time>2017-04-05T09:15:05.000Z</time>
      </trkpt>
      <trkpt lat="45.9079" lon="6.17186">
        <ele>928.64978027344</ele>
        <time>2017-04-05T09:15:07.000Z</time>
      </trkpt>
      <trkpt lat="45.90792" lon="6.1719">
        <ele>929.24182128906</ele>
        <time>2017-04-05T09:15:10.000Z</time>
      </trkpt>
      <trkpt lat="45.90796" lon="6.17192">
        <ele>929.84228515625</ele>
        <time>2017-04-05T09:15:13.000Z</time>
      </trkpt>
      <trkpt lat="45.90797" lon="6.17193">
        <ele>930.38623046875</ele>
        <time>2017-04-05T09:15:15.000Z</time>
      </trkpt>
      <trkpt lat="45.90799" lon="6.17195">
        <ele>930.85955810547</ele>
        <time>2017-04-05T09:15:18.000Z</time>
      </trkpt>
      <trkpt lat="45.90801" lon="6.17196">
        <ele>931.2158203125</ele>
        <time>2017-04-05T09:15:21.000Z</time>
      </trkpt>
      <trkpt lat="45.90804" lon="6.17197">
        <ele>931.45397949219</ele>
        <time>2017-04-05T09:15:24.000Z</time>
      </trkpt>
      <trkpt lat="45.90807" lon="6.17201">
        <ele>931.6787109375</ele>
        <time>2017-04-05T09:15:27.000Z</time>
      </trkpt>
      <trkpt lat="45.90807" lon="6.17205">
        <ele>931.95861816406</ele>
        <time>2017-04-05T09:15:30.000Z</time>
      </trkpt>
      <trkpt lat="45.90809" lon="6.17208">
        <ele>932.22131347656</ele>
        <time>2017-04-05T09:15:32.000Z</time>
      </trkpt>
      <trkpt lat="45.90812" lon="6.17211">
        <ele>932.47985839844</ele>
        <time>2017-04-05T09:15:35.000Z</time>
      </trkpt>
      <trkpt lat="45.90813" lon="6.17213">
        <ele>932.72424316406</ele>
        <time>2017-04-05T09:15:38.000Z</time>
      </trkpt>
      <trkpt lat="45.90815" lon="6.17216">
        <ele>932.92541503906</ele>
        <time>2017-04-05T09:15:40.000Z</time>
      </trkpt>
      <trkpt lat="45.90817" lon="6.1722">
        <ele>933.07580566406</ele>
        <time>2017-04-05T09:15:43.000Z</time>
      </trkpt>
      <trkpt lat="45.90818" lon="6.17225">
        <ele>933.21649169922</ele>
        <time>2017-04-05T09:15:46.000Z</time>
      </trkpt>
      <trkpt lat="45.90819" lon="6.17228">
        <ele>933.34246826172</ele>
        <time>2017-04-05T09:15:48.000Z</time>
      </trkpt>
      <trkpt lat="45.9082" lon="6.17232">
        <ele>933.46447753906</ele>
        <time>2017-04-05T09:15:51.000Z</time>
      </trkpt>
      <trkpt lat="45.9082" lon="6.17236">
        <ele>933.58728027344</ele>
        <time>2017-04-05T09:15:54.000Z</time>
      </trkpt>
      <trkpt lat="45.90821" lon="6.17238">
        <ele>933.69201660156</ele>
        <time>2017-04-05T09:15:56.000Z</time>
      </trkpt>
      <trkpt lat="45.90822" lon="6.17237">
        <ele>933.71514892578</ele>
        <time>2017-04-05T09:16:15.000Z</time>
      </trkpt>
      <trkpt lat="45.90821" lon="6.17237">
        <ele>933.74493408203</ele>
        <time>2017-04-05T09:16:17.000Z</time>
      </trkpt>
      <trkpt lat="45.90818" lon="6.17239">
        <ele>933.86608886719</ele>
        <time>2017-04-05T09:16:20.000Z</time>
      </trkpt>
      <trkpt lat="45.90814" lon="6.17242">
        <ele>934.13171386719</ele>
        <time>2017-04-05T09:16:23.000Z</time>
      </trkpt>
      <trkpt lat="45.90813" lon="6.17243">
        <ele>934.42840576172</ele>
        <time>2017-04-05T09:16:25.000Z</time>
      </trkpt>
      <trkpt lat="45.90813" lon="6.17245">
        <ele>934.8134765625</ele>
        <time>2017-04-05T09:16:28.000Z</time>
      </trkpt>
      <trkpt lat="45.90814" lon="6.17248">
        <ele>935.17419433594</ele>
        <time>2017-04-05T09:16:39.000Z</time>
      </trkpt>
      <trkpt lat="45.90813" lon="6.17249">
        <ele>935.49072265625</ele>
        <time>2017-04-05T09:16:44.000Z</time>
      </trkpt>
      <trkpt lat="45.90812" lon="6.17248">
        <ele>935.67596435547</ele>
        <time>2017-04-05T09:16:46.000Z</time>
      </trkpt>
      <trkpt lat="45.90809" lon="6.17247">
        <ele>935.87512207031</ele>
        <time>2017-04-05T09:16:49.000Z</time>
      </trkpt>
      <trkpt lat="45.90808" lon="6.17246">
        <ele>936.0673828125</ele>
        <time>2017-04-05T09:16:51.000Z</time>
      </trkpt>
      <trkpt lat="45.90807" lon="6.17246">
        <ele>936.29833984375</ele>
        <time>2017-04-05T09:16:54.000Z</time>
      </trkpt>
      <trkpt lat="45.90805" lon="6.17246">
        <ele>936.52410888672</ele>
        <time>2017-04-05T09:16:57.000Z</time>
      </trkpt>
      <trkpt lat="45.90804" lon="6.17245">
        <ele>936.72509765625</ele>
        <time>2017-04-05T09:16:59.000Z</time>
      </trkpt>
      <trkpt lat="45.90802" lon="6.17244">
        <ele>936.92645263672</ele>
        <time>2017-04-05T09:17:02.000Z</time>
      </trkpt>
      <trkpt lat="45.908" lon="6.17242">
        <ele>937.0986328125</ele>
        <time>2017-04-05T09:17:05.000Z</time>
      </trkpt>
      <trkpt lat="45.908" lon="6.17241">
        <ele>937.22882080078</ele>
        <time>2017-04-05T09:17:08.000Z</time>
      </trkpt>
      <trkpt lat="45.90799" lon="6.1724">
        <ele>937.29229736328</ele>
        <time>2017-04-05T09:17:10.000Z</time>
      </trkpt>
      <trkpt lat="45.90797" lon="6.1724">
        <ele>937.38494873047</ele>
        <time>2017-04-05T09:17:13.000Z</time>
      </trkpt>
      <trkpt lat="45.90796" lon="6.17239">
        <ele>937.46618652344</ele>
        <time>2017-04-05T09:17:15.000Z</time>
      </trkpt>
      <trkpt lat="45.90793" lon="6.17238">
        <ele>937.57440185547</ele>
        <time>2017-04-05T09:17:18.000Z</time>
      </trkpt>
      <trkpt lat="45.90793" lon="6.17234">
        <ele>937.57342529297</ele>
        <time>2017-04-05T09:17:21.000Z</time>
      </trkpt>
      <trkpt lat="45.90792" lon="6.17231">
        <ele>937.5048828125</ele>
        <time>2017-04-05T09:17:24.000Z</time>
      </trkpt>
      <trkpt lat="45.90793" lon="6.1723">
        <ele>937.3447265625</ele>
        <time>2017-04-05T09:17:26.000Z</time>
      </trkpt>
      <trkpt lat="45.90792" lon="6.17227">
        <ele>937.06072998047</ele>
        <time>2017-04-05T09:17:29.000Z</time>
      </trkpt>
      <trkpt lat="45.90789" lon="6.17224">
        <ele>936.71301269531</ele>
        <time>2017-04-05T09:17:32.000Z</time>
      </trkpt>
      <trkpt lat="45.90788" lon="6.17223">
        <ele>936.46826171875</ele>
        <time>2017-04-05T09:17:34.000Z</time>
      </trkpt>
      <trkpt lat="45.90786" lon="6.1722">
        <ele>936.23388671875</ele>
        <time>2017-04-05T09:17:36.000Z</time>
      </trkpt>
      <trkpt lat="45.90785" lon="6.17216">
        <ele>935.90185546875</ele>
        <time>2017-04-05T09:17:39.000Z</time>
      </trkpt>
      <trkpt lat="45.90785" lon="6.17213">
        <ele>935.55334472656</ele>
        <time>2017-04-05T09:17:41.000Z</time>
      </trkpt>
      <trkpt lat="45.90784" lon="6.1721">
        <ele>935.13201904297</ele>
        <time>2017-04-05T09:17:44.000Z</time>
      </trkpt>
      <trkpt lat="45.90782" lon="6.17205">
        <ele>934.55895996094</ele>
        <time>2017-04-05T09:17:47.000Z</time>
      </trkpt>
      <trkpt lat="45.9078" lon="6.17203">
        <ele>933.95587158203</ele>
        <time>2017-04-05T09:17:49.000Z</time>
      </trkpt>
      <trkpt lat="45.90778" lon="6.17199">
        <ele>933.33612060547</ele>
        <time>2017-04-05T09:17:52.000Z</time>
      </trkpt>
      <trkpt lat="45.90777" lon="6.17196">
        <ele>932.70965576172</ele>
        <time>2017-04-05T09:17:54.000Z</time>
      </trkpt>
      <trkpt lat="45.90775" lon="6.17192">
        <ele>932.02099609375</ele>
        <time>2017-04-05T09:17:57.000Z</time>
      </trkpt>
      <trkpt lat="45.90774" lon="6.1719">
        <ele>931.39782714844</ele>
        <time>2017-04-05T09:17:59.000Z</time>
      </trkpt>
      <trkpt lat="45.90772" lon="6.17188">
        <ele>930.77117919922</ele>
        <time>2017-04-05T09:18:02.000Z</time>
      </trkpt>
      <trkpt lat="45.90772" lon="6.17186">
        <ele>930.20391845703</ele>
        <time>2017-04-05T09:18:04.000Z</time>
      </trkpt>
      <trkpt lat="45.90772" lon="6.17184">
        <ele>929.62561035156</ele>
        <time>2017-04-05T09:18:06.000Z</time>
      </trkpt>
      <trkpt lat="45.90771" lon="6.17181">
        <ele>929.0986328125</ele>
        <time>2017-04-05T09:18:09.000Z</time>
      </trkpt>
      <trkpt lat="45.90771" lon="6.17179">
        <ele>928.53063964844</ele>
        <time>2017-04-05T09:18:13.000Z</time>
      </trkpt>
      <trkpt lat="45.90771" lon="6.17176">
        <ele>927.93572998047</ele>
        <time>2017-04-05T09:18:14.000Z</time>
      </trkpt>
      <trkpt lat="45.9077" lon="6.17171">
        <ele>927.1962890625</ele>
        <time>2017-04-05T09:18:17.000Z</time>
      </trkpt>
      <trkpt lat="45.9077" lon="6.17171">
        <ele>927.1962890625</ele>
        <time>2017-04-05T09:18:37.000Z</time>
      </trkpt>
      <trkpt lat="45.90767" lon="6.1717">
        <ele>926.45947265625</ele>
        <time>2017-04-05T09:18:37.000Z</time>
      </trkpt>
      <trkpt lat="45.90765" lon="6.17169">
        <ele>925.75750732422</ele>
        <time>2017-04-05T09:18:38.000Z</time>
      </trkpt>
      <trkpt lat="45.90763" lon="6.17166">
        <ele>924.98791503906</ele>
        <time>2017-04-05T09:18:38.000Z</time>
      </trkpt>
      <trkpt lat="45.90761" lon="6.17161">
        <ele>924.03869628906</ele>
        <time>2017-04-05T09:18:39.000Z</time>
      </trkpt>
      <trkpt lat="45.90759" lon="6.17157">
        <ele>923.09167480469</ele>
        <time>2017-04-05T09:18:39.000Z</time>
      </trkpt>
      <trkpt lat="45.90757" lon="6.17154">
        <ele>922.01232910156</ele>
        <time>2017-04-05T09:18:39.000Z</time>
      </trkpt>
      <trkpt lat="45.90755" lon="6.17152">
        <ele>920.90167236328</ele>
        <time>2017-04-05T09:18:39.000Z</time>
      </trkpt>
      <trkpt lat="45.90755" lon="6.17151">
        <ele>919.91094970703</ele>
        <time>2017-04-05T09:18:39.000Z</time>
      </trkpt>
      <trkpt lat="45.90754" lon="6.17149">
        <ele>919.11193847656</ele>
        <time>2017-04-05T09:18:41.000Z</time>
      </trkpt>
      <trkpt lat="45.90753" lon="6.17148">
        <ele>918.4619140625</ele>
        <time>2017-04-05T09:18:43.000Z</time>
      </trkpt>
      <trkpt lat="45.90751" lon="6.17146">
        <ele>917.88934326172</ele>
        <time>2017-04-05T09:18:46.000Z</time>
      </trkpt>
      <trkpt lat="45.90749" lon="6.17144">
        <ele>917.3515625</ele>
        <time>2017-04-05T09:18:48.000Z</time>
      </trkpt>
      <trkpt lat="45.90748" lon="6.17142">
        <ele>916.87628173828</ele>
        <time>2017-04-05T09:18:50.000Z</time>
      </trkpt>
      <trkpt lat="45.90747" lon="6.17141">
        <ele>916.5048828125</ele>
        <time>2017-04-05T09:18:52.000Z</time>
      </trkpt>
      <trkpt lat="45.90745" lon="6.17138">
        <ele>916.14141845703</ele>
        <time>2017-04-05T09:18:55.000Z</time>
      </trkpt>
      <trkpt lat="45.90744" lon="6.17135">
        <ele>915.85723876953</ele>
        <time>2017-04-05T09:18:57.000Z</time>
      </trkpt>
      <trkpt lat="45.90742" lon="6.17134">
        <ele>915.63214111328</ele>
        <time>2017-04-05T09:19:00.000Z</time>
      </trkpt>
      <trkpt lat="45.90742" lon="6.17133">
        <ele>915.40887451172</ele>
        <time>2017-04-05T09:19:03.000Z</time>
      </trkpt>
      <trkpt lat="45.90741" lon="6.17133">
        <ele>915.203125</ele>
        <time>2017-04-05T09:19:05.000Z</time>
      </trkpt>
      <trkpt lat="45.90739" lon="6.17129">
        <ele>914.94647216797</ele>
        <time>2017-04-05T09:19:07.000Z</time>
      </trkpt>
      <trkpt lat="45.90738" lon="6.17125">
        <ele>914.57507324219</ele>
        <time>2017-04-05T09:19:10.000Z</time>
      </trkpt>
      <trkpt lat="45.90734" lon="6.17123">
        <ele>914.19921875</ele>
        <time>2017-04-05T09:19:13.000Z</time>
      </trkpt>
      <trkpt lat="45.90734" lon="6.17121">
        <ele>913.74914550781</ele>
        <time>2017-04-05T09:19:15.000Z</time>
      </trkpt>
      <trkpt lat="45.90733" lon="6.17118">
        <ele>913.08367919922</ele>
        <time>2017-04-05T09:19:18.000Z</time>
      </trkpt>
      <trkpt lat="45.90731" lon="6.17113">
        <ele>912.24737548828</ele>
        <time>2017-04-05T09:19:20.000Z</time>
      </trkpt>
      <trkpt lat="45.90731" lon="6.17109">
        <ele>911.38488769531</ele>
        <time>2017-04-05T09:19:23.000Z</time>
      </trkpt>
      <trkpt lat="45.90729" lon="6.17107">
        <ele>910.45294189453</ele>
        <time>2017-04-05T09:19:25.000Z</time>
      </trkpt>
      <trkpt lat="45.90728" lon="6.17107">
        <ele>909.595703125</ele>
        <time>2017-04-05T09:19:27.000Z</time>
      </trkpt>
      <trkpt lat="45.90724" lon="6.17106">
        <ele>908.9765625</ele>
        <time>2017-04-05T09:19:30.000Z</time>
      </trkpt>
      <trkpt lat="45.90722" lon="6.17104">
        <ele>908.52032470703</ele>
        <time>2017-04-05T09:19:32.000Z</time>
      </trkpt>
      <trkpt lat="45.90724" lon="6.17102">
        <ele>908.15301513672</ele>
        <time>2017-04-05T09:19:35.000Z</time>
      </trkpt>
      <trkpt lat="45.90725" lon="6.17102">
        <ele>907.85467529297</ele>
        <time>2017-04-05T09:19:37.000Z</time>
      </trkpt>
      <trkpt lat="45.90726" lon="6.17101">
        <ele>907.47393798828</ele>
        <time>2017-04-05T09:19:39.000Z</time>
      </trkpt>
      <trkpt lat="45.90729" lon="6.171">
        <ele>906.94549560547</ele>
        <time>2017-04-05T09:19:42.000Z</time>
      </trkpt>
      <trkpt lat="45.9073" lon="6.17098">
        <ele>906.3681640625</ele>
        <time>2017-04-05T09:19:45.000Z</time>
      </trkpt>
      <trkpt lat="45.90729" lon="6.17096">
        <ele>905.80773925781</ele>
        <time>2017-04-05T09:19:48.000Z</time>
      </trkpt>
      <trkpt lat="45.90726" lon="6.17095">
        <ele>905.28332519531</ele>
        <time>2017-04-05T09:19:50.000Z</time>
      </trkpt>
      <trkpt lat="45.90725" lon="6.17095">
        <ele>904.85998535156</ele>
        <time>2017-04-05T09:19:52.000Z</time>
      </trkpt>
      <trkpt lat="45.90722" lon="6.17093">
        <ele>904.37567138672</ele>
        <time>2017-04-05T09:19:55.000Z</time>
      </trkpt>
      <trkpt lat="45.90721" lon="6.17091">
        <ele>903.94152832031</ele>
        <time>2017-04-05T09:19:57.000Z</time>
      </trkpt>
      <trkpt lat="45.90719" lon="6.17089">
        <ele>903.54229736328</ele>
        <time>2017-04-05T09:20:00.000Z</time>
      </trkpt>
      <trkpt lat="45.90717" lon="6.17086">
        <ele>902.90637207031</ele>
        <time>2017-04-05T09:20:03.000Z</time>
      </trkpt>
      <trkpt lat="45.90716" lon="6.17084">
        <ele>902.09344482422</ele>
        <time>2017-04-05T09:20:05.000Z</time>
      </trkpt>
      <trkpt lat="45.90713" lon="6.1708">
        <ele>901.1640625</ele>
        <time>2017-04-05T09:20:08.000Z</time>
      </trkpt>
      <trkpt lat="45.90712" lon="6.17079">
        <ele>900.26208496094</ele>
        <time>2017-04-05T09:20:10.000Z</time>
      </trkpt>
      <trkpt lat="45.9071" lon="6.17078">
        <ele>899.36169433594</ele>
        <time>2017-04-05T09:20:13.000Z</time>
      </trkpt>
      <trkpt lat="45.90709" lon="6.17077">
        <ele>898.58709716797</ele>
        <time>2017-04-05T09:20:15.000Z</time>
      </trkpt>
      <trkpt lat="45.90705" lon="6.17077">
        <ele>897.98010253906</ele>
        <time>2017-04-05T09:20:18.000Z</time>
      </trkpt>
      <trkpt lat="45.90704" lon="6.17076">
        <ele>897.59442138672</ele>
        <time>2017-04-05T09:20:20.000Z</time>
      </trkpt>
      <trkpt lat="45.90703" lon="6.17077">
        <ele>897.38244628906</ele>
        <time>2017-04-05T09:20:22.000Z</time>
      </trkpt>
      <trkpt lat="45.90704" lon="6.17078">
        <ele>897.40673828125</ele>
        <time>2017-04-05T09:20:25.000Z</time>
      </trkpt>
      <trkpt lat="45.90702" lon="6.17079">
        <ele>897.55908203125</ele>
        <time>2017-04-05T09:20:29.000Z</time>
      </trkpt>
      <trkpt lat="45.90699" lon="6.1708">
        <ele>897.79992675781</ele>
        <time>2017-04-05T09:20:31.000Z</time>
      </trkpt>
      <trkpt lat="45.90697" lon="6.1708">
        <ele>898.1240234375</ele>
        <time>2017-04-05T09:20:34.000Z</time>
      </trkpt>
      <trkpt lat="45.90696" lon="6.17081">
        <ele>898.43438720703</ele>
        <time>2017-04-05T09:20:36.000Z</time>
      </trkpt>
      <trkpt lat="45.90693" lon="6.17077">
        <ele>898.32604980469</ele>
        <time>2017-04-05T09:20:39.000Z</time>
      </trkpt>
      <trkpt lat="45.90693" lon="6.17074">
        <ele>897.90148925781</ele>
        <time>2017-04-05T09:20:41.000Z</time>
      </trkpt>
      <trkpt lat="45.90694" lon="6.17073">
        <ele>897.35461425781</ele>
        <time>2017-04-05T09:20:43.000Z</time>
      </trkpt>
      <trkpt lat="45.90696" lon="6.17076">
        <ele>897.01971435547</ele>
        <time>2017-04-05T09:20:46.000Z</time>
      </trkpt>
      <trkpt lat="45.90696" lon="6.17074">
        <ele>896.47326660156</ele>
        <time>2017-04-05T09:20:49.000Z</time>
      </trkpt>
      <trkpt lat="45.90697" lon="6.17071">
        <ele>895.94793701172</ele>
        <time>2017-04-05T09:20:52.000Z</time>
      </trkpt>
      <trkpt lat="45.90699" lon="6.17069">
        <ele>895.60205078125</ele>
        <time>2017-04-05T09:20:54.000Z</time>
      </trkpt>
      <trkpt lat="45.90702" lon="6.17066">
        <ele>895.08966064453</ele>
        <time>2017-04-05T09:20:57.000Z</time>
      </trkpt>
      <trkpt lat="45.90702" lon="6.17064">
        <ele>894.19317626953</ele>
        <time>2017-04-05T09:21:00.000Z</time>
      </trkpt>
      <trkpt lat="45.90703" lon="6.17063">
        <ele>893.36340332031</ele>
        <time>2017-04-05T09:21:02.000Z</time>
      </trkpt>
      <trkpt lat="45.90705" lon="6.17062">
        <ele>892.6923828125</ele>
        <time>2017-04-05T09:21:05.000Z</time>
      </trkpt>
      <trkpt lat="45.90707" lon="6.17061">
        <ele>892.12072753906</ele>
        <time>2017-04-05T09:21:07.000Z</time>
      </trkpt>
      <trkpt lat="45.90708" lon="6.17061">
        <ele>891.78240966797</ele>
        <time>2017-04-05T09:21:09.000Z</time>
      </trkpt>
      <trkpt lat="45.9071" lon="6.17062">
        <ele>891.64123535156</ele>
        <time>2017-04-05T09:21:12.000Z</time>
      </trkpt>
      <trkpt lat="45.90711" lon="6.17061">
        <ele>891.54949951172</ele>
        <time>2017-04-05T09:21:16.000Z</time>
      </trkpt>
      <trkpt lat="45.90709" lon="6.17059">
        <ele>891.39343261719</ele>
        <time>2017-04-05T09:21:21.000Z</time>
      </trkpt>
      <trkpt lat="45.90707" lon="6.17058">
        <ele>891.11065673828</ele>
        <time>2017-04-05T09:21:24.000Z</time>
      </trkpt>
      <trkpt lat="45.90706" lon="6.17057">
        <ele>890.767578125</ele>
        <time>2017-04-05T09:21:26.000Z</time>
      </trkpt>
      <trkpt lat="45.90705" lon="6.17057">
        <ele>890.34637451172</ele>
        <time>2017-04-05T09:21:30.000Z</time>
      </trkpt>
      <trkpt lat="45.90704" lon="6.17056">
        <ele>889.90594482422</ele>
        <time>2017-04-05T09:21:32.000Z</time>
      </trkpt>
      <trkpt lat="45.90702" lon="6.17054">
        <ele>889.3935546875</ele>
        <time>2017-04-05T09:21:35.000Z</time>
      </trkpt>
      <trkpt lat="45.90701" lon="6.17052">
        <ele>888.81378173828</ele>
        <time>2017-04-05T09:21:37.000Z</time>
      </trkpt>
      <trkpt lat="45.90697" lon="6.17051">
        <ele>888.15173339844</ele>
        <time>2017-04-05T09:21:40.000Z</time>
      </trkpt>
      <trkpt lat="45.90696" lon="6.17051">
        <ele>887.49401855469</ele>
        <time>2017-04-05T09:21:43.000Z</time>
      </trkpt>
      <trkpt lat="45.90695" lon="6.1705">
        <ele>886.884765625</ele>
        <time>2017-04-05T09:21:46.000Z</time>
      </trkpt>
      <trkpt lat="45.90693" lon="6.1705">
        <ele>886.4482421875</ele>
        <time>2017-04-05T09:21:49.000Z</time>
      </trkpt>
      <trkpt lat="45.9069" lon="6.17052">
        <ele>886.29766845703</ele>
        <time>2017-04-05T09:21:52.000Z</time>
      </trkpt>
      <trkpt lat="45.90688" lon="6.17052">
        <ele>886.27032470703</ele>
        <time>2017-04-05T09:21:54.000Z</time>
      </trkpt>
      <trkpt lat="45.90687" lon="6.17053">
        <ele>886.30615234375</ele>
        <time>2017-04-05T09:21:57.000Z</time>
      </trkpt>
      <trkpt lat="45.90686" lon="6.17055">
        <ele>886.56121826172</ele>
        <time>2017-04-05T09:22:00.000Z</time>
      </trkpt>
      <trkpt lat="45.90685" lon="6.17052">
        <ele>886.55206298828</ele>
        <time>2017-04-05T09:22:03.000Z</time>
      </trkpt>
      <trkpt lat="45.90686" lon="6.17048">
        <ele>886.158203125</ele>
        <time>2017-04-05T09:22:05.000Z</time>
      </trkpt>
      <trkpt lat="45.90688" lon="6.17043">
        <ele>885.392578125</ele>
        <time>2017-04-05T09:22:07.000Z</time>
      </trkpt>
      <trkpt lat="45.90689" lon="6.17039">
        <ele>884.23663330078</ele>
        <time>2017-04-05T09:22:10.000Z</time>
      </trkpt>
      <trkpt lat="45.90691" lon="6.17036">
        <ele>882.68438720703</ele>
        <time>2017-04-05T09:22:12.000Z</time>
      </trkpt>
      <trkpt lat="45.90692" lon="6.17034">
        <ele>881.30584716797</ele>
        <time>2017-04-05T09:22:14.000Z</time>
      </trkpt>
      <trkpt lat="45.90694" lon="6.17034">
        <ele>880.28106689453</ele>
        <time>2017-04-05T09:22:17.000Z</time>
      </trkpt>
      <trkpt lat="45.90698" lon="6.17034">
        <ele>879.67541503906</ele>
        <time>2017-04-05T09:22:20.000Z</time>
      </trkpt>
      <trkpt lat="45.907" lon="6.17035">
        <ele>879.63171386719</ele>
        <time>2017-04-05T09:22:23.000Z</time>
      </trkpt>
      <trkpt lat="45.90702" lon="6.17037">
        <ele>880.00329589844</ele>
        <time>2017-04-05T09:22:25.000Z</time>
      </trkpt>
      <trkpt lat="45.90704" lon="6.17037">
        <ele>880.51135253906</ele>
        <time>2017-04-05T09:22:28.000Z</time>
      </trkpt>
      <trkpt lat="45.90705" lon="6.17035">
        <ele>880.8837890625</ele>
        <time>2017-04-05T09:22:30.000Z</time>
      </trkpt>
      <trkpt lat="45.90708" lon="6.17033">
        <ele>881.07287597656</ele>
        <time>2017-04-05T09:22:33.000Z</time>
      </trkpt>
      <trkpt lat="45.90709" lon="6.17032">
        <ele>881.00549316406</ele>
        <time>2017-04-05T09:22:36.000Z</time>
      </trkpt>
      <trkpt lat="45.9071" lon="6.17029">
        <ele>880.52331542969</ele>
        <time>2017-04-05T09:22:39.000Z</time>
      </trkpt>
      <trkpt lat="45.90709" lon="6.17028">
        <ele>879.9794921875</ele>
        <time>2017-04-05T09:22:43.000Z</time>
      </trkpt>
      <trkpt lat="45.90707" lon="6.17027">
        <ele>879.42578125</ele>
        <time>2017-04-05T09:22:46.000Z</time>
      </trkpt>
      <trkpt lat="45.90704" lon="6.17027">
        <ele>878.84704589844</ele>
        <time>2017-04-05T09:22:49.000Z</time>
      </trkpt>
      <trkpt lat="45.90701" lon="6.17027">
        <ele>878.28747558594</ele>
        <time>2017-04-05T09:22:51.000Z</time>
      </trkpt>
      <trkpt lat="45.90699" lon="6.17029">
        <ele>877.99725341797</ele>
        <time>2017-04-05T09:22:54.000Z</time>
      </trkpt>
      <trkpt lat="45.90697" lon="6.17029">
        <ele>877.75274658203</ele>
        <time>2017-04-05T09:22:56.000Z</time>
      </trkpt>
      <trkpt lat="45.90694" lon="6.17029">
        <ele>877.47985839844</ele>
        <time>2017-04-05T09:22:59.000Z</time>
      </trkpt>
      <trkpt lat="45.90693" lon="6.17028">
        <ele>877.27062988281</ele>
        <time>2017-04-05T09:23:01.000Z</time>
      </trkpt>
      <trkpt lat="45.90691" lon="6.17026">
        <ele>876.82629394531</ele>
        <time>2017-04-05T09:23:04.000Z</time>
      </trkpt>
      <trkpt lat="45.9069" lon="6.17025">
        <ele>876.24853515625</ele>
        <time>2017-04-05T09:23:08.000Z</time>
      </trkpt>
      <trkpt lat="45.90689" lon="6.17026">
        <ele>875.77453613281</ele>
        <time>2017-04-05T09:23:10.000Z</time>
      </trkpt>
      <trkpt lat="45.90688" lon="6.17026">
        <ele>875.37829589844</ele>
        <time>2017-04-05T09:23:12.000Z</time>
      </trkpt>
      <trkpt lat="45.90687" lon="6.17026">
        <ele>875.05432128906</ele>
        <time>2017-04-05T09:23:14.000Z</time>
      </trkpt>
      <trkpt lat="45.90685" lon="6.17025">
        <ele>874.8623046875</ele>
        <time>2017-04-05T09:23:17.000Z</time>
      </trkpt>
      <trkpt lat="45.90684" lon="6.17025">
        <ele>874.63269042969</ele>
        <time>2017-04-05T09:23:19.000Z</time>
      </trkpt>
      <trkpt lat="45.90681" lon="6.17026">
        <ele>874.37780761719</ele>
        <time>2017-04-05T09:23:22.000Z</time>
      </trkpt>
      <trkpt lat="45.9068" lon="6.17027">
        <ele>874.22985839844</ele>
        <time>2017-04-05T09:23:25.000Z</time>
      </trkpt>
      <trkpt lat="45.90679" lon="6.17028">
        <ele>874.1064453125</ele>
        <time>2017-04-05T09:23:28.000Z</time>
      </trkpt>
      <trkpt lat="45.90678" lon="6.17027">
        <ele>874.06579589844</ele>
        <time>2017-04-05T09:23:31.000Z</time>
      </trkpt>
      <trkpt lat="45.90677" lon="6.17027">
        <ele>874.11389160156</ele>
        <time>2017-04-05T09:23:35.000Z</time>
      </trkpt>
      <trkpt lat="45.90676" lon="6.17027">
        <ele>874.05212402344</ele>
        <time>2017-04-05T09:23:38.000Z</time>
      </trkpt>
      <trkpt lat="45.90673" lon="6.17022">
        <ele>873.34130859375</ele>
        <time>2017-04-05T09:23:41.000Z</time>
      </trkpt>
      <trkpt lat="45.90672" lon="6.17018">
        <ele>872.22021484375</ele>
        <time>2017-04-05T09:23:43.000Z</time>
      </trkpt>
      <trkpt lat="45.9067" lon="6.17013">
        <ele>870.59295654297</ele>
        <time>2017-04-05T09:23:46.000Z</time>
      </trkpt>
      <trkpt lat="45.90672" lon="6.1701">
        <ele>868.78778076172</ele>
        <time>2017-04-05T09:23:49.000Z</time>
      </trkpt>
      <trkpt lat="45.90673" lon="6.1701">
        <ele>867.05505371094</ele>
        <time>2017-04-05T09:23:52.000Z</time>
      </trkpt>
      <trkpt lat="45.90675" lon="6.17006">
        <ele>865.64611816406</ele>
        <time>2017-04-05T09:23:55.000Z</time>
      </trkpt>
      <trkpt lat="45.90676" lon="6.17001">
        <ele>864.26202392578</ele>
        <time>2017-04-05T09:23:58.000Z</time>
      </trkpt>
      <trkpt lat="45.90677" lon="6.16998">
        <ele>863.14904785156</ele>
        <time>2017-04-05T09:24:00.000Z</time>
      </trkpt>
      <trkpt lat="45.90678" lon="6.16993">
        <ele>861.84338378906</ele>
        <time>2017-04-05T09:24:03.000Z</time>
      </trkpt>
      <trkpt lat="45.90681" lon="6.16991">
        <ele>860.46569824219</ele>
        <time>2017-04-05T09:24:06.000Z</time>
      </trkpt>
      <trkpt lat="45.90683" lon="6.1699">
        <ele>859.29962158203</ele>
        <time>2017-04-05T09:24:08.000Z</time>
      </trkpt>
      <trkpt lat="45.90685" lon="6.16988">
        <ele>858.40655517578</ele>
        <time>2017-04-05T09:24:11.000Z</time>
      </trkpt>
      <trkpt lat="45.90685" lon="6.1699">
        <ele>858.03564453125</ele>
        <time>2017-04-05T09:24:14.000Z</time>
      </trkpt>
      <trkpt lat="45.90684" lon="6.16996">
        <ele>858.54064941406</ele>
        <time>2017-04-05T09:24:17.000Z</time>
      </trkpt>
      <trkpt lat="45.90683" lon="6.16999">
        <ele>859.31561279297</ele>
        <time>2017-04-05T09:24:19.000Z</time>
      </trkpt>
      <trkpt lat="45.90682" lon="6.17001">
        <ele>860.33233642578</ele>
        <time>2017-04-05T09:24:22.000Z</time>
      </trkpt>
      <trkpt lat="45.90681" lon="6.17003">
        <ele>861.55114746094</ele>
        <time>2017-04-05T09:24:25.000Z</time>
      </trkpt>
      <trkpt lat="45.90682" lon="6.17002">
        <ele>862.45947265625</ele>
        <time>2017-04-05T09:24:29.000Z</time>
      </trkpt>
      <trkpt lat="45.90684" lon="6.16998">
        <ele>862.63232421875</ele>
        <time>2017-04-05T09:24:32.000Z</time>
      </trkpt>
      <trkpt lat="45.90685" lon="6.16994">
        <ele>862.28234863281</ele>
        <time>2017-04-05T09:24:34.000Z</time>
      </trkpt>
      <trkpt lat="45.90687" lon="6.1699">
        <ele>861.4677734375</ele>
        <time>2017-04-05T09:24:37.000Z</time>
      </trkpt>
      <trkpt lat="45.90688" lon="6.16987">
        <ele>860.32928466797</ele>
        <time>2017-04-05T09:24:39.000Z</time>
      </trkpt>
      <trkpt lat="45.90689" lon="6.16984">
        <ele>859.01873779297</ele>
        <time>2017-04-05T09:24:42.000Z</time>
      </trkpt>
      <trkpt lat="45.90689" lon="6.16982">
        <ele>857.83654785156</ele>
        <time>2017-04-05T09:24:45.000Z</time>
      </trkpt>
      <trkpt lat="45.90688" lon="6.16981">
        <ele>856.85681152344</ele>
        <time>2017-04-05T09:24:47.000Z</time>
      </trkpt>
      <trkpt lat="45.90686" lon="6.16982">
        <ele>856.05615234375</ele>
        <time>2017-04-05T09:24:49.000Z</time>
      </trkpt>
      <trkpt lat="45.90684" lon="6.16982">
        <ele>855.39196777344</ele>
        <time>2017-04-05T09:24:51.000Z</time>
      </trkpt>
      <trkpt lat="45.90682" lon="6.16983">
        <ele>855.01934814453</ele>
        <time>2017-04-05T09:24:54.000Z</time>
      </trkpt>
      <trkpt lat="45.90681" lon="6.16982">
        <ele>854.60485839844</ele>
        <time>2017-04-05T09:24:56.000Z</time>
      </trkpt>
      <trkpt lat="45.90681" lon="6.16979">
        <ele>854.06170654297</ele>
        <time>2017-04-05T09:24:59.000Z</time>
      </trkpt>
      <trkpt lat="45.90682" lon="6.16978">
        <ele>853.55499267578</ele>
        <time>2017-04-05T09:25:02.000Z</time>
      </trkpt>
      <trkpt lat="45.90684" lon="6.16976">
        <ele>853.03479003906</ele>
        <time>2017-04-05T09:25:05.000Z</time>
      </trkpt>
      <trkpt lat="45.90685" lon="6.16975">
        <ele>852.4599609375</ele>
        <time>2017-04-05T09:25:08.000Z</time>
      </trkpt>
      <trkpt lat="45.90686" lon="6.16977">
        <ele>852.23669433594</ele>
        <time>2017-04-05T09:25:14.000Z</time>
      </trkpt>
      <trkpt lat="45.90686" lon="6.1698">
        <ele>852.55212402344</ele>
        <time>2017-04-05T09:25:16.000Z</time>
      </trkpt>
      <trkpt lat="45.90685" lon="6.16981">
        <ele>852.97229003906</ele>
        <time>2017-04-05T09:25:20.000Z</time>
      </trkpt>
      <trkpt lat="45.90684" lon="6.16984">
        <ele>853.70703125</ele>
        <time>2017-04-05T09:25:23.000Z</time>
      </trkpt>
      <trkpt lat="45.90682" lon="6.16986">
        <ele>854.62438964844</ele>
        <time>2017-04-05T09:25:26.000Z</time>
      </trkpt>
      <trkpt lat="45.90681" lon="6.16986">
        <ele>855.25958251953</ele>
        <time>2017-04-05T09:25:28.000Z</time>
      </trkpt>
      <trkpt lat="45.90679" lon="6.16982">
        <ele>855.10009765625</ele>
        <time>2017-04-05T09:25:31.000Z</time>
      </trkpt>
      <trkpt lat="45.90677" lon="6.16982">
        <ele>854.79022216797</ele>
        <time>2017-04-05T09:25:34.000Z</time>
      </trkpt>
      <trkpt lat="45.90677" lon="6.16981">
        <ele>854.18298339844</ele>
        <time>2017-04-05T09:25:38.000Z</time>
      </trkpt>
      <trkpt lat="45.90675" lon="6.16981">
        <ele>853.31970214844</ele>
        <time>2017-04-05T09:25:40.000Z</time>
      </trkpt>
      <trkpt lat="45.90674" lon="6.1698">
        <ele>852.48278808594</ele>
        <time>2017-04-05T09:25:42.000Z</time>
      </trkpt>
      <trkpt lat="45.9067" lon="6.16983">
        <ele>852.17462158203</ele>
        <time>2017-04-05T09:25:45.000Z</time>
      </trkpt>
      <trkpt lat="45.90668" lon="6.16983">
        <ele>851.9404296875</ele>
        <time>2017-04-05T09:25:47.000Z</time>
      </trkpt>
      <trkpt lat="45.90666" lon="6.16982">
        <ele>851.59484863281</ele>
        <time>2017-04-05T09:25:49.000Z</time>
      </trkpt>
      <trkpt lat="45.90665" lon="6.1698">
        <ele>851.17578125</ele>
        <time>2017-04-05T09:25:51.000Z</time>
      </trkpt>
      <trkpt lat="45.90663" lon="6.1698">
        <ele>850.78204345703</ele>
        <time>2017-04-05T09:25:54.000Z</time>
      </trkpt>
      <trkpt lat="45.90661" lon="6.16982">
        <ele>850.59387207031</ele>
        <time>2017-04-05T09:25:57.000Z</time>
      </trkpt>
      <trkpt lat="45.90659" lon="6.16982">
        <ele>850.46008300781</ele>
        <time>2017-04-05T09:26:00.000Z</time>
      </trkpt>
      <trkpt lat="45.90657" lon="6.16982">
        <ele>850.46228027344</ele>
        <time>2017-04-05T09:26:03.000Z</time>
      </trkpt>
      <trkpt lat="45.90656" lon="6.16982">
        <ele>850.69061279297</ele>
        <time>2017-04-05T09:26:06.000Z</time>
      </trkpt>
      <trkpt lat="45.90655" lon="6.16981">
        <ele>850.87957763672</ele>
        <time>2017-04-05T09:26:09.000Z</time>
      </trkpt>
      <trkpt lat="45.90654" lon="6.16979">
        <ele>850.62878417969</ele>
        <time>2017-04-05T09:26:11.000Z</time>
      </trkpt>
      <trkpt lat="45.90652" lon="6.16978">
        <ele>850.20330810547</ele>
        <time>2017-04-05T09:26:14.000Z</time>
      </trkpt>
      <trkpt lat="45.90649" lon="6.16977">
        <ele>849.8046875</ele>
        <time>2017-04-05T09:26:17.000Z</time>
      </trkpt>
      <trkpt lat="45.90649" lon="6.1698">
        <ele>849.57012939453</ele>
        <time>2017-04-05T09:26:20.000Z</time>
      </trkpt>
      <trkpt lat="45.90646" lon="6.16982">
        <ele>849.65417480469</ele>
        <time>2017-04-05T09:26:23.000Z</time>
      </trkpt>
      <trkpt lat="45.90644" lon="6.16982">
        <ele>849.89440917969</ele>
        <time>2017-04-05T09:26:26.000Z</time>
      </trkpt>
      <trkpt lat="45.90641" lon="6.1698">
        <ele>850.14489746094</ele>
        <time>2017-04-05T09:26:30.000Z</time>
      </trkpt>
      <trkpt lat="45.90637" lon="6.16977">
        <ele>850.13055419922</ele>
        <time>2017-04-05T09:26:33.000Z</time>
      </trkpt>
      <trkpt lat="45.90635" lon="6.16971">
        <ele>849.3271484375</ele>
        <time>2017-04-05T09:26:35.000Z</time>
      </trkpt>
      <trkpt lat="45.90633" lon="6.16969">
        <ele>848.02453613281</ele>
        <time>2017-04-05T09:26:36.000Z</time>
      </trkpt>
      <trkpt lat="45.90631" lon="6.16967">
        <ele>846.59490966797</ele>
        <time>2017-04-05T09:26:38.000Z</time>
      </trkpt>
      <trkpt lat="45.90629" lon="6.16965">
        <ele>845.09240722656</ele>
        <time>2017-04-05T09:26:41.000Z</time>
      </trkpt>
      <trkpt lat="45.90627" lon="6.16963">
        <ele>843.72674560547</ele>
        <time>2017-04-05T09:26:43.000Z</time>
      </trkpt>
      <trkpt lat="45.90623" lon="6.16961">
        <ele>842.68194580078</ele>
        <time>2017-04-05T09:26:46.000Z</time>
      </trkpt>
      <trkpt lat="45.9062" lon="6.16959">
        <ele>841.69793701172</ele>
        <time>2017-04-05T09:26:49.000Z</time>
      </trkpt>
      <trkpt lat="45.90618" lon="6.16957">
        <ele>840.61877441406</ele>
        <time>2017-04-05T09:26:52.000Z</time>
      </trkpt>
      <trkpt lat="45.90617" lon="6.16954">
        <ele>839.47204589844</ele>
        <time>2017-04-05T09:26:55.000Z</time>
      </trkpt>
      <trkpt lat="45.90615" lon="6.16951">
        <ele>838.14990234375</ele>
        <time>2017-04-05T09:26:57.000Z</time>
      </trkpt>
      <trkpt lat="45.90615" lon="6.16949">
        <ele>836.90887451172</ele>
        <time>2017-04-05T09:26:59.000Z</time>
      </trkpt>
      <trkpt lat="45.90614" lon="6.16947">
        <ele>835.64855957031</ele>
        <time>2017-04-05T09:27:02.000Z</time>
      </trkpt>
      <trkpt lat="45.90612" lon="6.16947">
        <ele>834.58166503906</ele>
        <time>2017-04-05T09:27:04.000Z</time>
      </trkpt>
      <trkpt lat="45.90611" lon="6.16946">
        <ele>833.73516845703</ele>
        <time>2017-04-05T09:27:06.000Z</time>
      </trkpt>
      <trkpt lat="45.90609" lon="6.16946">
        <ele>833.16229248047</ele>
        <time>2017-04-05T09:27:09.000Z</time>
      </trkpt>
      <trkpt lat="45.90609" lon="6.16945">
        <ele>832.68615722656</ele>
        <time>2017-04-05T09:27:13.000Z</time>
      </trkpt>
      <trkpt lat="45.9061" lon="6.16944">
        <ele>832.24493408203</ele>
        <time>2017-04-05T09:27:16.000Z</time>
      </trkpt>
      <trkpt lat="45.90614" lon="6.16942">
        <ele>831.73516845703</ele>
        <time>2017-04-05T09:27:19.000Z</time>
      </trkpt>
      <trkpt lat="45.90618" lon="6.16942">
        <ele>831.28515625</ele>
        <time>2017-04-05T09:27:22.000Z</time>
      </trkpt>
      <trkpt lat="45.90621" lon="6.16941">
        <ele>830.85467529297</ele>
        <time>2017-04-05T09:27:24.000Z</time>
      </trkpt>
      <trkpt lat="45.90624" lon="6.16938">
        <ele>830.24523925781</ele>
        <time>2017-04-05T09:27:27.000Z</time>
      </trkpt>
      <trkpt lat="45.90628" lon="6.16936">
        <ele>829.62286376953</ele>
        <time>2017-04-05T09:27:30.000Z</time>
      </trkpt>
      <trkpt lat="45.9063" lon="6.16935">
        <ele>829.08331298828</ele>
        <time>2017-04-05T09:27:32.000Z</time>
      </trkpt>
      <trkpt lat="45.90633" lon="6.16934">
        <ele>828.4365234375</ele>
        <time>2017-04-05T09:27:34.000Z</time>
      </trkpt>
      <trkpt lat="45.90636" lon="6.16932">
        <ele>827.70721435547</ele>
        <time>2017-04-05T09:27:37.000Z</time>
      </trkpt>
      <trkpt lat="45.90638" lon="6.1693">
        <ele>827.03643798828</ele>
        <time>2017-04-05T09:27:40.000Z</time>
      </trkpt>
      <trkpt lat="45.90639" lon="6.16926">
        <ele>826.10949707031</ele>
        <time>2017-04-05T09:27:42.000Z</time>
      </trkpt>
      <trkpt lat="45.90641" lon="6.16923">
        <ele>825.02087402344</ele>
        <time>2017-04-05T09:27:44.000Z</time>
      </trkpt>
      <trkpt lat="45.90647" lon="6.16926">
        <ele>824.42236328125</ele>
        <time>2017-04-05T09:27:47.000Z</time>
      </trkpt>
      <trkpt lat="45.9065" lon="6.16928">
        <ele>824.1611328125</ele>
        <time>2017-04-05T09:27:49.000Z</time>
      </trkpt>
      <trkpt lat="45.90652" lon="6.16928">
        <ele>824.07971191406</ele>
        <time>2017-04-05T09:27:51.000Z</time>
      </trkpt>
      <trkpt lat="45.90653" lon="6.16925">
        <ele>824.18908691406</ele>
        <time>2017-04-05T09:27:54.000Z</time>
      </trkpt>
      <trkpt lat="45.90654" lon="6.16923">
        <ele>824.38409423828</ele>
        <time>2017-04-05T09:27:57.000Z</time>
      </trkpt>
      <trkpt lat="45.90654" lon="6.1692">
        <ele>823.85095214844</ele>
        <time>2017-04-05T09:28:00.000Z</time>
      </trkpt>
      <trkpt lat="45.90654" lon="6.16916">
        <ele>822.73651123047</ele>
        <time>2017-04-05T09:28:02.000Z</time>
      </trkpt>
      <trkpt lat="45.90657" lon="6.1691">
        <ele>821.07409667969</ele>
        <time>2017-04-05T09:28:05.000Z</time>
      </trkpt>
      <trkpt lat="45.90659" lon="6.16907">
        <ele>819.38684082031</ele>
        <time>2017-04-05T09:28:08.000Z</time>
      </trkpt>
      <trkpt lat="45.9066" lon="6.16906">
        <ele>817.76776123047</ele>
        <time>2017-04-05T09:28:10.000Z</time>
      </trkpt>
      <trkpt lat="45.90662" lon="6.16903">
        <ele>816.1318359375</ele>
        <time>2017-04-05T09:28:12.000Z</time>
      </trkpt>
      <trkpt lat="45.90664" lon="6.16897">
        <ele>814.31353759766</ele>
        <time>2017-04-05T09:28:15.000Z</time>
      </trkpt>
      <trkpt lat="45.90664" lon="6.16895">
        <ele>812.86993408203</ele>
        <time>2017-04-05T09:28:18.000Z</time>
      </trkpt>
      <trkpt lat="45.90663" lon="6.16893">
        <ele>811.46295166016</ele>
        <time>2017-04-05T09:28:21.000Z</time>
      </trkpt>
      <trkpt lat="45.90663" lon="6.16889">
        <ele>809.69812011719</ele>
        <time>2017-04-05T09:28:23.000Z</time>
      </trkpt>
      <trkpt lat="45.90664" lon="6.16885">
        <ele>807.95544433594</ele>
        <time>2017-04-05T09:28:26.000Z</time>
      </trkpt>
      <trkpt lat="45.90665" lon="6.16882">
        <ele>806.48431396484</ele>
        <time>2017-04-05T09:28:28.000Z</time>
      </trkpt>
      <trkpt lat="45.90668" lon="6.16879">
        <ele>804.91687011719</ele>
        <time>2017-04-05T09:28:31.000Z</time>
      </trkpt>
      <trkpt lat="45.90668" lon="6.16876">
        <ele>803.27697753906</ele>
        <time>2017-04-05T09:28:33.000Z</time>
      </trkpt>
      <trkpt lat="45.90667" lon="6.16873">
        <ele>801.7587890625</ele>
        <time>2017-04-05T09:28:36.000Z</time>
      </trkpt>
      <trkpt lat="45.90668" lon="6.16871">
        <ele>800.34808349609</ele>
        <time>2017-04-05T09:28:38.000Z</time>
      </trkpt>
      <trkpt lat="45.90669" lon="6.16866">
        <ele>798.77569580078</ele>
        <time>2017-04-05T09:28:41.000Z</time>
      </trkpt>
      <trkpt lat="45.90669" lon="6.16863">
        <ele>797.1982421875</ele>
        <time>2017-04-05T09:28:43.000Z</time>
      </trkpt>
      <trkpt lat="45.90671" lon="6.16861">
        <ele>795.79870605469</ele>
        <time>2017-04-05T09:28:46.000Z</time>
      </trkpt>
      <trkpt lat="45.90673" lon="6.16861">
        <ele>794.84765625</ele>
        <time>2017-04-05T09:28:49.000Z</time>
      </trkpt>
      <trkpt lat="45.90675" lon="6.16861">
        <ele>794.14764404297</ele>
        <time>2017-04-05T09:28:51.000Z</time>
      </trkpt>
      <trkpt lat="45.9068" lon="6.16863">
        <ele>794.32220458984</ele>
        <time>2017-04-05T09:28:54.000Z</time>
      </trkpt>
      <trkpt lat="45.90682" lon="6.16864">
        <ele>794.99841308594</ele>
        <time>2017-04-05T09:28:56.000Z</time>
      </trkpt>
      <trkpt lat="45.90685" lon="6.16861">
        <ele>795.60888671875</ele>
        <time>2017-04-05T09:28:59.000Z</time>
      </trkpt>
      <trkpt lat="45.90687" lon="6.16856">
        <ele>795.74694824219</ele>
        <time>2017-04-05T09:29:02.000Z</time>
      </trkpt>
      <trkpt lat="45.90688" lon="6.16854">
        <ele>795.64923095703</ele>
        <time>2017-04-05T09:29:04.000Z</time>
      </trkpt>
      <trkpt lat="45.90689" lon="6.16849">
        <ele>794.64929199219</ele>
        <time>2017-04-05T09:29:07.000Z</time>
      </trkpt>
      <trkpt lat="45.90691" lon="6.16845">
        <ele>793.12365722656</ele>
        <time>2017-04-05T09:29:10.000Z</time>
      </trkpt>
      <trkpt lat="45.90694" lon="6.1684">
        <ele>791.39855957031</ele>
        <time>2017-04-05T09:29:13.000Z</time>
      </trkpt>
      <trkpt lat="45.90695" lon="6.16837">
        <ele>789.78314208984</ele>
        <time>2017-04-05T09:29:16.000Z</time>
      </trkpt>
      <trkpt lat="45.90696" lon="6.16832">
        <ele>787.91436767578</ele>
        <time>2017-04-05T09:29:19.000Z</time>
      </trkpt>
      <trkpt lat="45.90697" lon="6.16827">
        <ele>785.94793701172</ele>
        <time>2017-04-05T09:29:22.000Z</time>
      </trkpt>
      <trkpt lat="45.90699" lon="6.16826">
        <ele>784.22790527344</ele>
        <time>2017-04-05T09:29:24.000Z</time>
      </trkpt>
      <trkpt lat="45.90701" lon="6.16825">
        <ele>782.96142578125</ele>
        <time>2017-04-05T09:29:26.000Z</time>
      </trkpt>
      <trkpt lat="45.90703" lon="6.16821">
        <ele>781.56530761719</ele>
        <time>2017-04-05T09:29:29.000Z</time>
      </trkpt>
      <trkpt lat="45.90705" lon="6.16819">
        <ele>780.48663330078</ele>
        <time>2017-04-05T09:29:31.000Z</time>
      </trkpt>
      <trkpt lat="45.90707" lon="6.16817">
        <ele>779.87518310547</ele>
        <time>2017-04-05T09:29:33.000Z</time>
      </trkpt>
      <trkpt lat="45.90709" lon="6.16815">
        <ele>779.12652587891</ele>
        <time>2017-04-05T09:29:35.000Z</time>
      </trkpt>
      <trkpt lat="45.90712" lon="6.16812">
        <ele>778.08044433594</ele>
        <time>2017-04-05T09:29:38.000Z</time>
      </trkpt>
      <trkpt lat="45.90714" lon="6.16811">
        <ele>777.26318359375</ele>
        <time>2017-04-05T09:29:41.000Z</time>
      </trkpt>
      <trkpt lat="45.90717" lon="6.16808">
        <ele>776.37750244141</ele>
        <time>2017-04-05T09:29:43.000Z</time>
      </trkpt>
      <trkpt lat="45.90719" lon="6.16804">
        <ele>775.22094726562</ele>
        <time>2017-04-05T09:29:46.000Z</time>
      </trkpt>
      <trkpt lat="45.90721" lon="6.16802">
        <ele>774.08874511719</ele>
        <time>2017-04-05T09:29:48.000Z</time>
      </trkpt>
      <trkpt lat="45.90723" lon="6.168">
        <ele>773.02099609375</ele>
        <time>2017-04-05T09:29:51.000Z</time>
      </trkpt>
      <trkpt lat="45.90726" lon="6.16799">
        <ele>771.90106201172</ele>
        <time>2017-04-05T09:29:54.000Z</time>
      </trkpt>
      <trkpt lat="45.90729" lon="6.16798">
        <ele>771.05993652344</ele>
        <time>2017-04-05T09:29:57.000Z</time>
      </trkpt>
      <trkpt lat="45.9073" lon="6.16798">
        <ele>770.49475097656</ele>
        <time>2017-04-05T09:29:59.000Z</time>
      </trkpt>
      <trkpt lat="45.90729" lon="6.168">
        <ele>770.45007324219</ele>
        <time>2017-04-05T09:30:02.000Z</time>
      </trkpt>
      <trkpt lat="45.90728" lon="6.16805">
        <ele>771.11096191406</ele>
        <time>2017-04-05T09:30:04.000Z</time>
      </trkpt>
      <trkpt lat="45.90726" lon="6.16808">
        <ele>772.28344726562</ele>
        <time>2017-04-05T09:30:06.000Z</time>
      </trkpt>
      <trkpt lat="45.90725" lon="6.16812">
        <ele>773.83575439453</ele>
        <time>2017-04-05T09:30:09.000Z</time>
      </trkpt>
      <trkpt lat="45.90723" lon="6.16815">
        <ele>775.80615234375</ele>
        <time>2017-04-05T09:30:11.000Z</time>
      </trkpt>
      <trkpt lat="45.90721" lon="6.16817">
        <ele>777.57598876953</ele>
        <time>2017-04-05T09:30:13.000Z</time>
      </trkpt>
      <trkpt lat="45.9072" lon="6.16818">
        <ele>778.96337890625</ele>
        <time>2017-04-05T09:30:15.000Z</time>
      </trkpt>
      <trkpt lat="45.90717" lon="6.16819">
        <ele>780.02502441406</ele>
        <time>2017-04-05T09:30:18.000Z</time>
      </trkpt>
      <trkpt lat="45.90716" lon="6.16819">
        <ele>780.60144042969</ele>
        <time>2017-04-05T09:30:20.000Z</time>
      </trkpt>
      <trkpt lat="45.90713" lon="6.1682">
        <ele>780.89990234375</ele>
        <time>2017-04-05T09:30:22.000Z</time>
      </trkpt>
      <trkpt lat="45.90709" lon="6.16824">
        <ele>781.24481201172</ele>
        <time>2017-04-05T09:30:25.000Z</time>
      </trkpt>
      <trkpt lat="45.90705" lon="6.16826">
        <ele>781.60955810547</ele>
        <time>2017-04-05T09:30:28.000Z</time>
      </trkpt>
      <trkpt lat="45.90704" lon="6.16829">
        <ele>782.17028808594</ele>
        <time>2017-04-05T09:30:30.000Z</time>
      </trkpt>
      <trkpt lat="45.90701" lon="6.16831">
        <ele>782.90740966797</ele>
        <time>2017-04-05T09:30:33.000Z</time>
      </trkpt>
      <trkpt lat="45.907" lon="6.1683">
        <ele>783.44952392578</ele>
        <time>2017-04-05T09:30:35.000Z</time>
      </trkpt>
      <trkpt lat="45.90699" lon="6.16829">
        <ele>783.68359375</ele>
        <time>2017-04-05T09:30:37.000Z</time>
      </trkpt>
      <trkpt lat="45.907" lon="6.16833">
        <ele>784.22247314453</ele>
        <time>2017-04-05T09:30:40.000Z</time>
      </trkpt>
      <trkpt lat="45.90702" lon="6.16835">
        <ele>784.78649902344</ele>
        <time>2017-04-05T09:30:43.000Z</time>
      </trkpt>
      <trkpt lat="45.90701" lon="6.16836">
        <ele>785.3525390625</ele>
        <time>2017-04-05T09:30:45.000Z</time>
      </trkpt>
      <trkpt lat="45.90697" lon="6.16837">
        <ele>785.94873046875</ele>
        <time>2017-04-05T09:30:48.000Z</time>
      </trkpt>
      <trkpt lat="45.90693" lon="6.16836">
        <ele>786.42614746094</ele>
        <time>2017-04-05T09:30:51.000Z</time>
      </trkpt>
      <trkpt lat="45.90687" lon="6.16837">
        <ele>786.21008300781</ele>
        <time>2017-04-05T09:30:54.000Z</time>
      </trkpt>
      <trkpt lat="45.90685" lon="6.16837">
        <ele>785.66522216797</ele>
        <time>2017-04-05T09:30:56.000Z</time>
      </trkpt>
      <trkpt lat="45.90683" lon="6.16838">
        <ele>784.99676513672</ele>
        <time>2017-04-05T09:30:58.000Z</time>
      </trkpt>
      <trkpt lat="45.90682" lon="6.1684">
        <ele>784.59851074219</ele>
        <time>2017-04-05T09:31:01.000Z</time>
      </trkpt>
      <trkpt lat="45.9068" lon="6.16842">
        <ele>784.54943847656</ele>
        <time>2017-04-05T09:31:04.000Z</time>
      </trkpt>
      <trkpt lat="45.90675" lon="6.16845">
        <ele>784.80255126953</ele>
        <time>2017-04-05T09:31:07.000Z</time>
      </trkpt>
      <trkpt lat="45.90672" lon="6.16844">
        <ele>784.87689208984</ele>
        <time>2017-04-05T09:31:09.000Z</time>
      </trkpt>
      <trkpt lat="45.90669" lon="6.16845">
        <ele>784.94165039062</ele>
        <time>2017-04-05T09:31:12.000Z</time>
      </trkpt>
      <trkpt lat="45.90667" lon="6.1685">
        <ele>785.28424072266</ele>
        <time>2017-04-05T09:31:15.000Z</time>
      </trkpt>
      <trkpt lat="45.90667" lon="6.16853">
        <ele>785.89251708984</ele>
        <time>2017-04-05T09:31:17.000Z</time>
      </trkpt>
      <trkpt lat="45.90667" lon="6.16855">
        <ele>786.55560302734</ele>
        <time>2017-04-05T09:31:19.000Z</time>
      </trkpt>
      <trkpt lat="45.90665" lon="6.16855">
        <ele>787.51165771484</ele>
        <time>2017-04-05T09:31:22.000Z</time>
      </trkpt>
      <trkpt lat="45.90663" lon="6.16856">
        <ele>788.48486328125</ele>
        <time>2017-04-05T09:31:25.000Z</time>
      </trkpt>
      <trkpt lat="45.90662" lon="6.16856">
        <ele>789.04309082031</ele>
        <time>2017-04-05T09:31:28.000Z</time>
      </trkpt>
      <trkpt lat="45.90661" lon="6.16856">
        <ele>789.18664550781</ele>
        <time>2017-04-05T09:31:31.000Z</time>
      </trkpt>
      <trkpt lat="45.90659" lon="6.16853">
        <ele>788.84979248047</ele>
        <time>2017-04-05T09:31:33.000Z</time>
      </trkpt>
      <trkpt lat="45.90659" lon="6.16846">
        <ele>787.71130371094</ele>
        <time>2017-04-05T09:31:36.000Z</time>
      </trkpt>
      <trkpt lat="45.90659" lon="6.16841">
        <ele>786.03637695312</ele>
        <time>2017-04-05T09:31:38.000Z</time>
      </trkpt>
      <trkpt lat="45.90659" lon="6.16835">
        <ele>783.77551269531</ele>
        <time>2017-04-05T09:31:40.000Z</time>
      </trkpt>
      <trkpt lat="45.90659" lon="6.16828">
        <ele>780.92218017578</ele>
        <time>2017-04-05T09:31:43.000Z</time>
      </trkpt>
      <trkpt lat="45.9066" lon="6.16822">
        <ele>777.87585449219</ele>
        <time>2017-04-05T09:31:46.000Z</time>
      </trkpt>
      <trkpt lat="45.90661" lon="6.16815">
        <ele>775.02893066406</ele>
        <time>2017-04-05T09:31:49.000Z</time>
      </trkpt>
      <trkpt lat="45.90662" lon="6.16811">
        <ele>772.40502929688</ele>
        <time>2017-04-05T09:31:51.000Z</time>
      </trkpt>
      <trkpt lat="45.90664" lon="6.16807">
        <ele>770.09320068359</ele>
        <time>2017-04-05T09:31:54.000Z</time>
      </trkpt>
      <trkpt lat="45.90667" lon="6.16803">
        <ele>768.07464599609</ele>
        <time>2017-04-05T09:31:57.000Z</time>
      </trkpt>
      <trkpt lat="45.90668" lon="6.168">
        <ele>766.45440673828</ele>
        <time>2017-04-05T09:31:59.000Z</time>
      </trkpt>
      <trkpt lat="45.90671" lon="6.16797">
        <ele>765.11065673828</ele>
        <time>2017-04-05T09:32:02.000Z</time>
      </trkpt>
      <trkpt lat="45.90672" lon="6.16794">
        <ele>763.82897949219</ele>
        <time>2017-04-05T09:32:04.000Z</time>
      </trkpt>
      <trkpt lat="45.90675" lon="6.16789">
        <ele>762.46997070312</ele>
        <time>2017-04-05T09:32:07.000Z</time>
      </trkpt>
      <trkpt lat="45.90678" lon="6.16785">
        <ele>761.07897949219</ele>
        <time>2017-04-05T09:32:10.000Z</time>
      </trkpt>
      <trkpt lat="45.9068" lon="6.16783">
        <ele>759.72674560547</ele>
        <time>2017-04-05T09:32:13.000Z</time>
      </trkpt>
      <trkpt lat="45.90682" lon="6.16782">
        <ele>758.54876708984</ele>
        <time>2017-04-05T09:32:16.000Z</time>
      </trkpt>
      <trkpt lat="45.90684" lon="6.16779">
        <ele>757.39239501953</ele>
        <time>2017-04-05T09:32:19.000Z</time>
      </trkpt>
      <trkpt lat="45.90688" lon="6.1678">
        <ele>756.72424316406</ele>
        <time>2017-04-05T09:32:22.000Z</time>
      </trkpt>
      <trkpt lat="45.90691" lon="6.16782">
        <ele>756.5869140625</ele>
        <time>2017-04-05T09:32:24.000Z</time>
      </trkpt>
      <trkpt lat="45.90694" lon="6.1678">
        <ele>756.44677734375</ele>
        <time>2017-04-05T09:32:27.000Z</time>
      </trkpt>
      <trkpt lat="45.90695" lon="6.16777">
        <ele>756.15185546875</ele>
        <time>2017-04-05T09:32:29.000Z</time>
      </trkpt>
      <trkpt lat="45.90695" lon="6.16779">
        <ele>756.20684814453</ele>
        <time>2017-04-05T09:32:34.000Z</time>
      </trkpt>
      <trkpt lat="45.90694" lon="6.16782">
        <ele>756.52233886719</ele>
        <time>2017-04-05T09:32:36.000Z</time>
      </trkpt>
      <trkpt lat="45.90692" lon="6.16788">
        <ele>757.16223144531</ele>
        <time>2017-04-05T09:32:38.000Z</time>
      </trkpt>
      <trkpt lat="45.9069" lon="6.16792">
        <ele>758.34173583984</ele>
        <time>2017-04-05T09:32:41.000Z</time>
      </trkpt>
      <trkpt lat="45.90688" lon="6.16795">
        <ele>760.01123046875</ele>
        <time>2017-04-05T09:32:44.000Z</time>
      </trkpt>
      <trkpt lat="45.90685" lon="6.16798">
        <ele>761.80279541016</ele>
        <time>2017-04-05T09:32:47.000Z</time>
      </trkpt>
      <trkpt lat="45.90683" lon="6.16799">
        <ele>763.23260498047</ele>
        <time>2017-04-05T09:32:49.000Z</time>
      </trkpt>
      <trkpt lat="45.90681" lon="6.16799">
        <ele>764.19915771484</ele>
        <time>2017-04-05T09:32:51.000Z</time>
      </trkpt>
      <trkpt lat="45.90678" lon="6.16801">
        <ele>764.77722167969</ele>
        <time>2017-04-05T09:32:54.000Z</time>
      </trkpt>
      <trkpt lat="45.90675" lon="6.16802">
        <ele>765.17370605469</ele>
        <time>2017-04-05T09:32:57.000Z</time>
      </trkpt>
      <trkpt lat="45.90671" lon="6.16803">
        <ele>765.33361816406</ele>
        <time>2017-04-05T09:33:00.000Z</time>
      </trkpt>
      <trkpt lat="45.90668" lon="6.16805">
        <ele>765.51623535156</ele>
        <time>2017-04-05T09:33:03.000Z</time>
      </trkpt>
      <trkpt lat="45.90666" lon="6.16806">
        <ele>765.69860839844</ele>
        <time>2017-04-05T09:33:05.000Z</time>
      </trkpt>
      <trkpt lat="45.90663" lon="6.16808">
        <ele>765.91064453125</ele>
        <time>2017-04-05T09:33:08.000Z</time>
      </trkpt>
      <trkpt lat="45.90661" lon="6.16808">
        <ele>766.12030029297</ele>
        <time>2017-04-05T09:33:11.000Z</time>
      </trkpt>
      <trkpt lat="45.9066" lon="6.16809">
        <ele>766.33117675781</ele>
        <time>2017-04-05T09:33:13.000Z</time>
      </trkpt>
      <trkpt lat="45.90657" lon="6.16811">
        <ele>766.58557128906</ele>
        <time>2017-04-05T09:33:15.000Z</time>
      </trkpt>
      <trkpt lat="45.90656" lon="6.16814">
        <ele>766.97619628906</ele>
        <time>2017-04-05T09:33:18.000Z</time>
      </trkpt>
      <trkpt lat="45.90654" lon="6.16815">
        <ele>767.36840820312</ele>
        <time>2017-04-05T09:33:20.000Z</time>
      </trkpt>
      <trkpt lat="45.90653" lon="6.16816">
        <ele>767.7822265625</ele>
        <time>2017-04-05T09:33:25.000Z</time>
      </trkpt>
      <trkpt lat="45.90652" lon="6.16815">
        <ele>768.07855224609</ele>
        <time>2017-04-05T09:33:27.000Z</time>
      </trkpt>
      <trkpt lat="45.90651" lon="6.16813">
        <ele>768.08709716797</ele>
        <time>2017-04-05T09:33:29.000Z</time>
      </trkpt>
      <trkpt lat="45.90651" lon="6.16811">
        <ele>767.78802490234</ele>
        <time>2017-04-05T09:33:31.000Z</time>
      </trkpt>
      <trkpt lat="45.90651" lon="6.1681">
        <ele>767.28454589844</ele>
        <time>2017-04-05T09:33:34.000Z</time>
      </trkpt>
      <trkpt lat="45.90652" lon="6.16809">
        <ele>766.6416015625</ele>
        <time>2017-04-05T09:33:36.000Z</time>
      </trkpt>
      <trkpt lat="45.90653" lon="6.16803">
        <ele>765.65075683594</ele>
        <time>2017-04-05T09:33:39.000Z</time>
      </trkpt>
      <trkpt lat="45.90654" lon="6.168">
        <ele>764.57287597656</ele>
        <time>2017-04-05T09:33:41.000Z</time>
      </trkpt>
      <trkpt lat="45.90655" lon="6.16798">
        <ele>763.5048828125</ele>
        <time>2017-04-05T09:33:43.000Z</time>
      </trkpt>
      <trkpt lat="45.90657" lon="6.16795">
        <ele>762.32214355469</ele>
        <time>2017-04-05T09:33:46.000Z</time>
      </trkpt>
      <trkpt lat="45.90657" lon="6.16791">
        <ele>760.98596191406</ele>
        <time>2017-04-05T09:33:48.000Z</time>
      </trkpt>
      <trkpt lat="45.90659" lon="6.16788">
        <ele>759.80004882812</ele>
        <time>2017-04-05T09:33:51.000Z</time>
      </trkpt>
      <trkpt lat="45.9066" lon="6.16785">
        <ele>758.67987060547</ele>
        <time>2017-04-05T09:33:53.000Z</time>
      </trkpt>
      <trkpt lat="45.90661" lon="6.16781">
        <ele>757.37628173828</ele>
        <time>2017-04-05T09:33:55.000Z</time>
      </trkpt>
      <trkpt lat="45.90663" lon="6.16776">
        <ele>755.93939208984</ele>
        <time>2017-04-05T09:33:58.000Z</time>
      </trkpt>
      <trkpt lat="45.90665" lon="6.16775">
        <ele>754.66772460938</ele>
        <time>2017-04-05T09:34:00.000Z</time>
      </trkpt>
      <trkpt lat="45.90668" lon="6.16771">
        <ele>753.4658203125</ele>
        <time>2017-04-05T09:34:03.000Z</time>
      </trkpt>
      <trkpt lat="45.9067" lon="6.1677">
        <ele>752.33801269531</ele>
        <time>2017-04-05T09:34:05.000Z</time>
      </trkpt>
      <trkpt lat="45.90673" lon="6.16769">
        <ele>751.47186279297</ele>
        <time>2017-04-05T09:34:08.000Z</time>
      </trkpt>
      <trkpt lat="45.90676" lon="6.1677">
        <ele>751.06848144531</ele>
        <time>2017-04-05T09:34:11.000Z</time>
      </trkpt>
      <trkpt lat="45.90678" lon="6.16769">
        <ele>750.70239257812</ele>
        <time>2017-04-05T09:34:14.000Z</time>
      </trkpt>
      <trkpt lat="45.90678" lon="6.16767">
        <ele>750.33459472656</ele>
        <time>2017-04-05T09:34:19.000Z</time>
      </trkpt>
      <trkpt lat="45.90677" lon="6.16767">
        <ele>750.15625</ele>
        <time>2017-04-05T09:34:22.000Z</time>
      </trkpt>
      <trkpt lat="45.90675" lon="6.16768">
        <ele>750.11267089844</ele>
        <time>2017-04-05T09:34:25.000Z</time>
      </trkpt>
      <trkpt lat="45.90674" lon="6.16769">
        <ele>750.04217529297</ele>
        <time>2017-04-05T09:34:27.000Z</time>
      </trkpt>
      <trkpt lat="45.90673" lon="6.16772">
        <ele>750.25927734375</ele>
        <time>2017-04-05T09:34:30.000Z</time>
      </trkpt>
      <trkpt lat="45.90671" lon="6.16773">
        <ele>750.82977294922</ele>
        <time>2017-04-05T09:34:32.000Z</time>
      </trkpt>
      <trkpt lat="45.90667" lon="6.16776">
        <ele>751.53479003906</ele>
        <time>2017-04-05T09:34:35.000Z</time>
      </trkpt>
      <trkpt lat="45.90664" lon="6.16778">
        <ele>752.23956298828</ele>
        <time>2017-04-05T09:34:37.000Z</time>
      </trkpt>
      <trkpt lat="45.90661" lon="6.1678">
        <ele>752.95556640625</ele>
        <time>2017-04-05T09:34:39.000Z</time>
      </trkpt>
      <trkpt lat="45.90657" lon="6.16784">
        <ele>753.73754882812</ele>
        <time>2017-04-05T09:34:42.000Z</time>
      </trkpt>
      <trkpt lat="45.90654" lon="6.16785">
        <ele>754.36059570312</ele>
        <time>2017-04-05T09:34:45.000Z</time>
      </trkpt>
      <trkpt lat="45.90652" lon="6.16784">
        <ele>754.64154052734</ele>
        <time>2017-04-05T09:34:48.000Z</time>
      </trkpt>
      <trkpt lat="45.9065" lon="6.16784">
        <ele>754.83386230469</ele>
        <time>2017-04-05T09:34:51.000Z</time>
      </trkpt>
      <trkpt lat="45.90648" lon="6.16784">
        <ele>754.90142822266</ele>
        <time>2017-04-05T09:34:54.000Z</time>
      </trkpt>
      <trkpt lat="45.90647" lon="6.16783">
        <ele>754.54193115234</ele>
        <time>2017-04-05T09:34:56.000Z</time>
      </trkpt>
      <trkpt lat="45.90645" lon="6.16784">
        <ele>754.20642089844</ele>
        <time>2017-04-05T09:34:59.000Z</time>
      </trkpt>
      <trkpt lat="45.90643" lon="6.16786">
        <ele>754.16729736328</ele>
        <time>2017-04-05T09:35:01.000Z</time>
      </trkpt>
      <trkpt lat="45.90641" lon="6.16789">
        <ele>754.31231689453</ele>
        <time>2017-04-05T09:35:04.000Z</time>
      </trkpt>
      <trkpt lat="45.90639" lon="6.1679">
        <ele>754.62878417969</ele>
        <time>2017-04-05T09:35:06.000Z</time>
      </trkpt>
      <trkpt lat="45.90637" lon="6.1679">
        <ele>754.94189453125</ele>
        <time>2017-04-05T09:35:10.000Z</time>
      </trkpt>
      <trkpt lat="45.90637" lon="6.16784">
        <ele>754.77716064453</ele>
        <time>2017-04-05T09:35:13.000Z</time>
      </trkpt>
      <trkpt lat="45.90637" lon="6.1678">
        <ele>754.10760498047</ele>
        <time>2017-04-05T09:35:16.000Z</time>
      </trkpt>
      <trkpt lat="45.90638" lon="6.16777">
        <ele>753.03063964844</ele>
        <time>2017-04-05T09:35:19.000Z</time>
      </trkpt>
      <trkpt lat="45.90639" lon="6.16775">
        <ele>751.70642089844</ele>
        <time>2017-04-05T09:35:21.000Z</time>
      </trkpt>
      <trkpt lat="45.9064" lon="6.16773">
        <ele>750.28137207031</ele>
        <time>2017-04-05T09:35:23.000Z</time>
      </trkpt>
      <trkpt lat="45.90641" lon="6.16768">
        <ele>748.91094970703</ele>
        <time>2017-04-05T09:35:25.000Z</time>
      </trkpt>
      <trkpt lat="45.90644" lon="6.16765">
        <ele>747.74157714844</ele>
        <time>2017-04-05T09:35:28.000Z</time>
      </trkpt>
      <trkpt lat="45.90646" lon="6.16762">
        <ele>746.56890869141</ele>
        <time>2017-04-05T09:35:31.000Z</time>
      </trkpt>
      <trkpt lat="45.90648" lon="6.16758">
        <ele>745.26239013672</ele>
        <time>2017-04-05T09:35:33.000Z</time>
      </trkpt>
      <trkpt lat="45.90652" lon="6.16757">
        <ele>744.21765136719</ele>
        <time>2017-04-05T09:35:36.000Z</time>
      </trkpt>
      <trkpt lat="45.90654" lon="6.16752">
        <ele>743.19946289062</ele>
        <time>2017-04-05T09:35:39.000Z</time>
      </trkpt>
      <trkpt lat="45.90654" lon="6.16747">
        <ele>741.88293457031</ele>
        <time>2017-04-05T09:35:41.000Z</time>
      </trkpt>
      <trkpt lat="45.90655" lon="6.16742">
        <ele>740.24694824219</ele>
        <time>2017-04-05T09:35:43.000Z</time>
      </trkpt>
      <trkpt lat="45.90656" lon="6.16734">
        <ele>738.0224609375</ele>
        <time>2017-04-05T09:35:46.000Z</time>
      </trkpt>
      <trkpt lat="45.90657" lon="6.16728">
        <ele>735.18768310547</ele>
        <time>2017-04-05T09:35:49.000Z</time>
      </trkpt>
      <trkpt lat="45.90659" lon="6.16724">
        <ele>732.33947753906</ele>
        <time>2017-04-05T09:35:51.000Z</time>
      </trkpt>
      <trkpt lat="45.9066" lon="6.16723">
        <ele>729.77368164062</ele>
        <time>2017-04-05T09:35:53.000Z</time>
      </trkpt>
      <trkpt lat="45.90663" lon="6.16722">
        <ele>727.71716308594</ele>
        <time>2017-04-05T09:35:56.000Z</time>
      </trkpt>
      <trkpt lat="45.90664" lon="6.16721">
        <ele>726.41632080078</ele>
        <time>2017-04-05T09:35:58.000Z</time>
      </trkpt>
      <trkpt lat="45.90666" lon="6.16718">
        <ele>725.41033935547</ele>
        <time>2017-04-05T09:36:00.000Z</time>
      </trkpt>
      <trkpt lat="45.9067" lon="6.16715">
        <ele>724.40612792969</ele>
        <time>2017-04-05T09:36:03.000Z</time>
      </trkpt>
      <trkpt lat="45.90672" lon="6.16714">
        <ele>723.35144042969</ele>
        <time>2017-04-05T09:36:06.000Z</time>
      </trkpt>
      <trkpt lat="45.90676" lon="6.16712">
        <ele>722.02331542969</ele>
        <time>2017-04-05T09:36:09.000Z</time>
      </trkpt>
      <trkpt lat="45.90678" lon="6.16713">
        <ele>720.80773925781</ele>
        <time>2017-04-05T09:36:11.000Z</time>
      </trkpt>
      <trkpt lat="45.9068" lon="6.16714">
        <ele>719.99517822266</ele>
        <time>2017-04-05T09:36:13.000Z</time>
      </trkpt>
      <trkpt lat="45.90682" lon="6.16714">
        <ele>719.47198486328</ele>
        <time>2017-04-05T09:36:16.000Z</time>
      </trkpt>
      <trkpt lat="45.90684" lon="6.16714">
        <ele>719.10290527344</ele>
        <time>2017-04-05T09:36:18.000Z</time>
      </trkpt>
      <trkpt lat="45.90687" lon="6.16714">
        <ele>718.95397949219</ele>
        <time>2017-04-05T09:36:21.000Z</time>
      </trkpt>
      <trkpt lat="45.90689" lon="6.16714">
        <ele>718.71453857422</ele>
        <time>2017-04-05T09:36:23.000Z</time>
      </trkpt>
      <trkpt lat="45.90692" lon="6.16714">
        <ele>718.25067138672</ele>
        <time>2017-04-05T09:36:26.000Z</time>
      </trkpt>
      <trkpt lat="45.90693" lon="6.16712">
        <ele>717.61682128906</ele>
        <time>2017-04-05T09:36:28.000Z</time>
      </trkpt>
      <trkpt lat="45.90696" lon="6.1671">
        <ele>716.76257324219</ele>
        <time>2017-04-05T09:36:31.000Z</time>
      </trkpt>
      <trkpt lat="45.90697" lon="6.1671">
        <ele>715.93664550781</ele>
        <time>2017-04-05T09:36:33.000Z</time>
      </trkpt>
      <trkpt lat="45.90699" lon="6.1671">
        <ele>715.06408691406</ele>
        <time>2017-04-05T09:36:35.000Z</time>
      </trkpt>
      <trkpt lat="45.90698" lon="6.16708">
        <ele>714.08612060547</ele>
        <time>2017-04-05T09:36:38.000Z</time>
      </trkpt>
      <trkpt lat="45.90697" lon="6.1671">
        <ele>713.67645263672</ele>
        <time>2017-04-05T09:36:41.000Z</time>
      </trkpt>
      <trkpt lat="45.90696" lon="6.16709">
        <ele>713.58862304688</ele>
        <time>2017-04-05T09:36:43.000Z</time>
      </trkpt>
      <trkpt lat="45.90693" lon="6.16709">
        <ele>713.61682128906</ele>
        <time>2017-04-05T09:36:46.000Z</time>
      </trkpt>
      <trkpt lat="45.90691" lon="6.16709">
        <ele>713.81066894531</ele>
        <time>2017-04-05T09:36:48.000Z</time>
      </trkpt>
      <trkpt lat="45.90687" lon="6.16709">
        <ele>714.35235595703</ele>
        <time>2017-04-05T09:36:51.000Z</time>
      </trkpt>
      <trkpt lat="45.90683" lon="6.1671">
        <ele>714.92236328125</ele>
        <time>2017-04-05T09:36:54.000Z</time>
      </trkpt>
      <trkpt lat="45.9068" lon="6.16712">
        <ele>715.79858398438</ele>
        <time>2017-04-05T09:36:57.000Z</time>
      </trkpt>
      <trkpt lat="45.90678" lon="6.16711">
        <ele>716.58679199219</ele>
        <time>2017-04-05T09:37:00.000Z</time>
      </trkpt>
      <trkpt lat="45.90676" lon="6.16711">
        <ele>717.38427734375</ele>
        <time>2017-04-05T09:37:02.000Z</time>
      </trkpt>
      <trkpt lat="45.90673" lon="6.16711">
        <ele>718.19689941406</ele>
        <time>2017-04-05T09:37:05.000Z</time>
      </trkpt>
      <trkpt lat="45.90669" lon="6.1671">
        <ele>718.63732910156</ele>
        <time>2017-04-05T09:37:08.000Z</time>
      </trkpt>
      <trkpt lat="45.90666" lon="6.16709">
        <ele>718.70233154297</ele>
        <time>2017-04-05T09:37:11.000Z</time>
      </trkpt>
      <trkpt lat="45.90664" lon="6.16709">
        <ele>718.74322509766</ele>
        <time>2017-04-05T09:37:14.000Z</time>
      </trkpt>
      <trkpt lat="45.90663" lon="6.16709">
        <ele>718.74450683594</ele>
        <time>2017-04-05T09:37:16.000Z</time>
      </trkpt>
      <trkpt lat="45.90661" lon="6.16709">
        <ele>718.62365722656</ele>
        <time>2017-04-05T09:37:20.000Z</time>
      </trkpt>
      <trkpt lat="45.90658" lon="6.16711">
        <ele>718.71032714844</ele>
        <time>2017-04-05T09:37:23.000Z</time>
      </trkpt>
      <trkpt lat="45.90657" lon="6.1671">
        <ele>718.66491699219</ele>
        <time>2017-04-05T09:37:26.000Z</time>
      </trkpt>
      <trkpt lat="45.90654" lon="6.1671">
        <ele>718.70092773438</ele>
        <time>2017-04-05T09:37:29.000Z</time>
      </trkpt>
      <trkpt lat="45.90652" lon="6.1671">
        <ele>718.71057128906</ele>
        <time>2017-04-05T09:37:32.000Z</time>
      </trkpt>
      <trkpt lat="45.90651" lon="6.1671">
        <ele>718.56408691406</ele>
        <time>2017-04-05T09:37:35.000Z</time>
      </trkpt>
      <trkpt lat="45.90648" lon="6.16708">
        <ele>718.10290527344</ele>
        <time>2017-04-05T09:37:38.000Z</time>
      </trkpt>
      <trkpt lat="45.90647" lon="6.16709">
        <ele>717.84234619141</ele>
        <time>2017-04-05T09:37:41.000Z</time>
      </trkpt>
      <trkpt lat="45.90646" lon="6.1671">
        <ele>717.69842529297</ele>
        <time>2017-04-05T09:37:43.000Z</time>
      </trkpt>
      <trkpt lat="45.90644" lon="6.16711">
        <ele>717.68572998047</ele>
        <time>2017-04-05T09:37:46.000Z</time>
      </trkpt>
      <trkpt lat="45.90643" lon="6.16714">
        <ele>718.06188964844</ele>
        <time>2017-04-05T09:37:49.000Z</time>
      </trkpt>
      <trkpt lat="45.90643" lon="6.16716">
        <ele>718.75390625</ele>
        <time>2017-04-05T09:37:51.000Z</time>
      </trkpt>
      <trkpt lat="45.9064" lon="6.16717">
        <ele>719.49963378906</ele>
        <time>2017-04-05T09:37:54.000Z</time>
      </trkpt>
      <trkpt lat="45.90637" lon="6.16716">
        <ele>719.98754882812</ele>
        <time>2017-04-05T09:37:57.000Z</time>
      </trkpt>
      <trkpt lat="45.90633" lon="6.16716">
        <ele>720.27136230469</ele>
        <time>2017-04-05T09:38:00.000Z</time>
      </trkpt>
      <trkpt lat="45.9063" lon="6.16716">
        <ele>720.17785644531</ele>
        <time>2017-04-05T09:38:02.000Z</time>
      </trkpt>
      <trkpt lat="45.90627" lon="6.16716">
        <ele>719.97430419922</ele>
        <time>2017-04-05T09:38:05.000Z</time>
      </trkpt>
      <trkpt lat="45.90626" lon="6.16718">
        <ele>719.80206298828</ele>
        <time>2017-04-05T09:38:07.000Z</time>
      </trkpt>
      <trkpt lat="45.90627" lon="6.16719">
        <ele>719.93127441406</ele>
        <time>2017-04-05T09:38:09.000Z</time>
      </trkpt>
      <trkpt lat="45.90626" lon="6.16718">
        <ele>720.00720214844</ele>
        <time>2017-04-05T09:38:12.000Z</time>
      </trkpt>
      <trkpt lat="45.90624" lon="6.16714">
        <ele>719.77673339844</ele>
        <time>2017-04-05T09:38:15.000Z</time>
      </trkpt>
      <trkpt lat="45.90623" lon="6.1671">
        <ele>719.10821533203</ele>
        <time>2017-04-05T09:38:17.000Z</time>
      </trkpt>
      <trkpt lat="45.90623" lon="6.16705">
        <ele>717.79034423828</ele>
        <time>2017-04-05T09:38:20.000Z</time>
      </trkpt>
      <trkpt lat="45.90624" lon="6.167">
        <ele>715.83367919922</ele>
        <time>2017-04-05T09:38:23.000Z</time>
      </trkpt>
      <trkpt lat="45.90625" lon="6.16697">
        <ele>713.67047119141</ele>
        <time>2017-04-05T09:38:26.000Z</time>
      </trkpt>
      <trkpt lat="45.90626" lon="6.1669">
        <ele>711.27117919922</ele>
        <time>2017-04-05T09:38:29.000Z</time>
      </trkpt>
      <trkpt lat="45.90626" lon="6.16684">
        <ele>708.66973876953</ele>
        <time>2017-04-05T09:38:32.000Z</time>
      </trkpt>
      <trkpt lat="45.90626" lon="6.16681">
        <ele>706.32312011719</ele>
        <time>2017-04-05T09:38:34.000Z</time>
      </trkpt>
      <trkpt lat="45.90626" lon="6.16678">
        <ele>704.13232421875</ele>
        <time>2017-04-05T09:38:36.000Z</time>
      </trkpt>
      <trkpt lat="45.90628" lon="6.16674">
        <ele>701.84545898438</ele>
        <time>2017-04-05T09:38:39.000Z</time>
      </trkpt>
      <trkpt lat="45.90629" lon="6.16671">
        <ele>699.93615722656</ele>
        <time>2017-04-05T09:38:41.000Z</time>
      </trkpt>
      <trkpt lat="45.9063" lon="6.16668">
        <ele>698.31561279297</ele>
        <time>2017-04-05T09:38:44.000Z</time>
      </trkpt>
      <trkpt lat="45.90631" lon="6.16667">
        <ele>696.87158203125</ele>
        <time>2017-04-05T09:38:46.000Z</time>
      </trkpt>
      <trkpt lat="45.90632" lon="6.16668">
        <ele>695.83923339844</ele>
        <time>2017-04-05T09:38:50.000Z</time>
      </trkpt>
      <trkpt lat="45.90631" lon="6.16671">
        <ele>695.58203125</ele>
        <time>2017-04-05T09:38:52.000Z</time>
      </trkpt>
      <trkpt lat="45.90629" lon="6.16676">
        <ele>696.10998535156</ele>
        <time>2017-04-05T09:38:55.000Z</time>
      </trkpt>
      <trkpt lat="45.90628" lon="6.1668">
        <ele>697.396484375</ele>
        <time>2017-04-05T09:38:58.000Z</time>
      </trkpt>
      <trkpt lat="45.90626" lon="6.16684">
        <ele>699.16033935547</ele>
        <time>2017-04-05T09:39:01.000Z</time>
      </trkpt>
      <trkpt lat="45.90625" lon="6.16688">
        <ele>701.20867919922</ele>
        <time>2017-04-05T09:39:04.000Z</time>
      </trkpt>
      <trkpt lat="45.90624" lon="6.1669">
        <ele>703.07629394531</ele>
        <time>2017-04-05T09:39:06.000Z</time>
      </trkpt>
      <trkpt lat="45.90623" lon="6.16692">
        <ele>704.57659912109</ele>
        <time>2017-04-05T09:39:08.000Z</time>
      </trkpt>
      <trkpt lat="45.90622" lon="6.16692">
        <ele>705.72088623047</ele>
        <time>2017-04-05T09:39:11.000Z</time>
      </trkpt>
      <trkpt lat="45.9062" lon="6.16693">
        <ele>706.51745605469</ele>
        <time>2017-04-05T09:39:13.000Z</time>
      </trkpt>
      <trkpt lat="45.90619" lon="6.16694">
        <ele>706.99200439453</ele>
        <time>2017-04-05T09:39:15.000Z</time>
      </trkpt>
      <trkpt lat="45.90617" lon="6.16697">
        <ele>707.58166503906</ele>
        <time>2017-04-05T09:39:18.000Z</time>
      </trkpt>
      <trkpt lat="45.90614" lon="6.16699">
        <ele>708.19317626953</ele>
        <time>2017-04-05T09:39:21.000Z</time>
      </trkpt>
      <trkpt lat="45.90612" lon="6.167">
        <ele>708.78967285156</ele>
        <time>2017-04-05T09:39:23.000Z</time>
      </trkpt>
      <trkpt lat="45.90612" lon="6.16701">
        <ele>709.50476074219</ele>
        <time>2017-04-05T09:39:25.000Z</time>
      </trkpt>
      <trkpt lat="45.90613" lon="6.16702">
        <ele>710.21795654297</ele>
        <time>2017-04-05T09:39:27.000Z</time>
      </trkpt>
      <trkpt lat="45.90611" lon="6.16702">
        <ele>710.63916015625</ele>
        <time>2017-04-05T09:39:30.000Z</time>
      </trkpt>
      <trkpt lat="45.90608" lon="6.16704">
        <ele>711.04699707031</ele>
        <time>2017-04-05T09:39:33.000Z</time>
      </trkpt>
      <trkpt lat="45.90607" lon="6.16705">
        <ele>711.48645019531</ele>
        <time>2017-04-05T09:39:35.000Z</time>
      </trkpt>
      <trkpt lat="45.90606" lon="6.16706">
        <ele>711.80847167969</ele>
        <time>2017-04-05T09:39:38.000Z</time>
      </trkpt>
      <trkpt lat="45.90604" lon="6.16707">
        <ele>712.11639404297</ele>
        <time>2017-04-05T09:39:40.000Z</time>
      </trkpt>
      <trkpt lat="45.90602" lon="6.16705">
        <ele>712.26879882812</ele>
        <time>2017-04-05T09:39:43.000Z</time>
      </trkpt>
      <trkpt lat="45.90602" lon="6.16703">
        <ele>712.07971191406</ele>
        <time>2017-04-05T09:39:45.000Z</time>
      </trkpt>
      <trkpt lat="45.90603" lon="6.16698">
        <ele>711.35040283203</ele>
        <time>2017-04-05T09:39:48.000Z</time>
      </trkpt>
      <trkpt lat="45.90603" lon="6.16694">
        <ele>710.26220703125</ele>
        <time>2017-04-05T09:39:50.000Z</time>
      </trkpt>
      <trkpt lat="45.90605" lon="6.1669">
        <ele>708.69189453125</ele>
        <time>2017-04-05T09:39:53.000Z</time>
      </trkpt>
      <trkpt lat="45.90606" lon="6.16685">
        <ele>706.88684082031</ele>
        <time>2017-04-05T09:39:56.000Z</time>
      </trkpt>
      <trkpt lat="45.90607" lon="6.16681">
        <ele>704.94409179688</ele>
        <time>2017-04-05T09:39:58.000Z</time>
      </trkpt>
      <trkpt lat="45.90607" lon="6.16678">
        <ele>703.1640625</ele>
        <time>2017-04-05T09:40:00.000Z</time>
      </trkpt>
      <trkpt lat="45.90607" lon="6.16675">
        <ele>701.42987060547</ele>
        <time>2017-04-05T09:40:03.000Z</time>
      </trkpt>
      <trkpt lat="45.90609" lon="6.16672">
        <ele>699.82147216797</ele>
        <time>2017-04-05T09:40:06.000Z</time>
      </trkpt>
      <trkpt lat="45.9061" lon="6.16667">
        <ele>698.12957763672</ele>
        <time>2017-04-05T09:40:09.000Z</time>
      </trkpt>
      <trkpt lat="45.90611" lon="6.16661">
        <ele>695.87091064453</ele>
        <time>2017-04-05T09:40:12.000Z</time>
      </trkpt>
      <trkpt lat="45.90612" lon="6.16658">
        <ele>693.36560058594</ele>
        <time>2017-04-05T09:40:15.000Z</time>
      </trkpt>
      <trkpt lat="45.90613" lon="6.16657">
        <ele>691.07678222656</ele>
        <time>2017-04-05T09:40:18.000Z</time>
      </trkpt>
      <trkpt lat="45.90615" lon="6.16655">
        <ele>688.75048828125</ele>
        <time>2017-04-05T09:40:21.000Z</time>
      </trkpt>
      <trkpt lat="45.90616" lon="6.16654">
        <ele>686.82122802734</ele>
        <time>2017-04-05T09:40:24.000Z</time>
      </trkpt>
      <trkpt lat="45.90617" lon="6.16653">
        <ele>685.60778808594</ele>
        <time>2017-04-05T09:40:28.000Z</time>
      </trkpt>
      <trkpt lat="45.90618" lon="6.16652">
        <ele>684.71856689453</ele>
        <time>2017-04-05T09:40:31.000Z</time>
      </trkpt>
      <trkpt lat="45.90619" lon="6.16651">
        <ele>683.71502685547</ele>
        <time>2017-04-05T09:40:34.000Z</time>
      </trkpt>
      <trkpt lat="45.90619" lon="6.16649">
        <ele>682.79699707031</ele>
        <time>2017-04-05T09:40:36.000Z</time>
      </trkpt>
      <trkpt lat="45.90618" lon="6.16648">
        <ele>681.74328613281</ele>
        <time>2017-04-05T09:40:39.000Z</time>
      </trkpt>
      <trkpt lat="45.90616" lon="6.16652">
        <ele>681.51885986328</ele>
        <time>2017-04-05T09:40:42.000Z</time>
      </trkpt>
      <trkpt lat="45.90615" lon="6.16655">
        <ele>681.93707275391</ele>
        <time>2017-04-05T09:40:44.000Z</time>
      </trkpt>
      <trkpt lat="45.90615" lon="6.16658">
        <ele>683.01373291016</ele>
        <time>2017-04-05T09:40:47.000Z</time>
      </trkpt>
      <trkpt lat="45.90613" lon="6.1666">
        <ele>684.63494873047</ele>
        <time>2017-04-05T09:40:50.000Z</time>
      </trkpt>
      <trkpt lat="45.90611" lon="6.16661">
        <ele>686.73327636719</ele>
        <time>2017-04-05T09:40:53.000Z</time>
      </trkpt>
      <trkpt lat="45.9061" lon="6.16662">
        <ele>688.29711914062</ele>
        <time>2017-04-05T09:40:55.000Z</time>
      </trkpt>
      <trkpt lat="45.90608" lon="6.16663">
        <ele>689.52111816406</ele>
        <time>2017-04-05T09:40:57.000Z</time>
      </trkpt>
      <trkpt lat="45.90607" lon="6.16664">
        <ele>690.52404785156</ele>
        <time>2017-04-05T09:41:00.000Z</time>
      </trkpt>
      <trkpt lat="45.90607" lon="6.16667">
        <ele>691.60650634766</ele>
        <time>2017-04-05T09:41:02.000Z</time>
      </trkpt>
      <trkpt lat="45.90606" lon="6.16669">
        <ele>692.70477294922</ele>
        <time>2017-04-05T09:41:05.000Z</time>
      </trkpt>
      <trkpt lat="45.90604" lon="6.1667">
        <ele>693.79693603516</ele>
        <time>2017-04-05T09:41:07.000Z</time>
      </trkpt>
      <trkpt lat="45.90601" lon="6.16671">
        <ele>694.85827636719</ele>
        <time>2017-04-05T09:41:09.000Z</time>
      </trkpt>
      <trkpt lat="45.90601" lon="6.16673">
        <ele>695.7705078125</ele>
        <time>2017-04-05T09:41:12.000Z</time>
      </trkpt>
      <trkpt lat="45.90599" lon="6.16671">
        <ele>696.20751953125</ele>
        <time>2017-04-05T09:41:14.000Z</time>
      </trkpt>
      <trkpt lat="45.90599" lon="6.1667">
        <ele>696.22589111328</ele>
        <time>2017-04-05T09:41:16.000Z</time>
      </trkpt>
      <trkpt lat="45.90597" lon="6.1667">
        <ele>696.16418457031</ele>
        <time>2017-04-05T09:41:18.000Z</time>
      </trkpt>
      <trkpt lat="45.90593" lon="6.16674">
        <ele>696.41052246094</ele>
        <time>2017-04-05T09:41:21.000Z</time>
      </trkpt>
      <trkpt lat="45.90589" lon="6.16678">
        <ele>696.85858154297</ele>
        <time>2017-04-05T09:41:24.000Z</time>
      </trkpt>
      <trkpt lat="45.90587" lon="6.1668">
        <ele>697.54357910156</ele>
        <time>2017-04-05T09:41:27.000Z</time>
      </trkpt>
      <trkpt lat="45.90587" lon="6.16682">
        <ele>698.59289550781</ele>
        <time>2017-04-05T09:41:30.000Z</time>
      </trkpt>
      <trkpt lat="45.90586" lon="6.16681">
        <ele>699.48815917969</ele>
        <time>2017-04-05T09:41:33.000Z</time>
      </trkpt>
      <trkpt lat="45.90584" lon="6.1668">
        <ele>699.91223144531</ele>
        <time>2017-04-05T09:41:35.000Z</time>
      </trkpt>
      <trkpt lat="45.90582" lon="6.16677">
        <ele>699.81134033203</ele>
        <time>2017-04-05T09:41:38.000Z</time>
      </trkpt>
      <trkpt lat="45.90582" lon="6.16675">
        <ele>699.35778808594</ele>
        <time>2017-04-05T09:41:41.000Z</time>
      </trkpt>
      <trkpt lat="45.9058" lon="6.16675">
        <ele>698.6845703125</ele>
        <time>2017-04-05T09:41:55.000Z</time>
      </trkpt>
      <trkpt lat="45.9058" lon="6.16675">
        <ele>698.6845703125</ele>
        <time>2017-04-05T09:42:15.000Z</time>
      </trkpt>
      <trkpt lat="45.90579" lon="6.16674">
        <ele>698.10888671875</ele>
        <time>2017-04-05T09:43:38.000Z</time>
      </trkpt>
      <trkpt lat="45.90578" lon="6.16674">
        <ele>697.62219238281</ele>
        <time>2017-04-05T09:43:52.000Z</time>
      </trkpt>
      <trkpt lat="45.90577" lon="6.16673">
        <ele>697.21325683594</ele>
        <time>2017-04-05T09:43:55.000Z</time>
      </trkpt>
      <trkpt lat="45.90577" lon="6.16671">
        <ele>696.85607910156</ele>
        <time>2017-04-05T09:43:57.000Z</time>
      </trkpt>
      <trkpt lat="45.90577" lon="6.1667">
        <ele>696.44299316406</ele>
        <time>2017-04-05T09:44:01.000Z</time>
      </trkpt>
      <trkpt lat="45.90574" lon="6.1667">
        <ele>696.01300048828</ele>
        <time>2017-04-05T09:44:04.000Z</time>
      </trkpt>
      <trkpt lat="45.90572" lon="6.16668">
        <ele>695.44543457031</ele>
        <time>2017-04-05T09:44:06.000Z</time>
      </trkpt>
      <trkpt lat="45.90569" lon="6.16665">
        <ele>694.60339355469</ele>
        <time>2017-04-05T09:44:09.000Z</time>
      </trkpt>
      <trkpt lat="45.90565" lon="6.16662">
        <ele>693.56286621094</ele>
        <time>2017-04-05T09:44:12.000Z</time>
      </trkpt>
      <trkpt lat="45.90563" lon="6.1666">
        <ele>692.27215576172</ele>
        <time>2017-04-05T09:44:15.000Z</time>
      </trkpt>
      <trkpt lat="45.90561" lon="6.16658">
        <ele>690.78570556641</ele>
        <time>2017-04-05T09:44:17.000Z</time>
      </trkpt>
      <trkpt lat="45.90559" lon="6.16657">
        <ele>689.35095214844</ele>
        <time>2017-04-05T09:44:20.000Z</time>
      </trkpt>
      <trkpt lat="45.90557" lon="6.16656">
        <ele>688.19396972656</ele>
        <time>2017-04-05T09:44:22.000Z</time>
      </trkpt>
      <trkpt lat="45.90556" lon="6.16655">
        <ele>687.25384521484</ele>
        <time>2017-04-05T09:44:25.000Z</time>
      </trkpt>
      <trkpt lat="45.90553" lon="6.16651">
        <ele>686.20263671875</ele>
        <time>2017-04-05T09:44:28.000Z</time>
      </trkpt>
      <trkpt lat="45.90551" lon="6.16649">
        <ele>685.07891845703</ele>
        <time>2017-04-05T09:44:31.000Z</time>
      </trkpt>
      <trkpt lat="45.90549" lon="6.16649">
        <ele>684.10778808594</ele>
        <time>2017-04-05T09:44:33.000Z</time>
      </trkpt>
      <trkpt lat="45.90548" lon="6.1665">
        <ele>683.32507324219</ele>
        <time>2017-04-05T09:44:35.000Z</time>
      </trkpt>
      <trkpt lat="45.90546" lon="6.1665">
        <ele>682.80187988281</ele>
        <time>2017-04-05T09:44:37.000Z</time>
      </trkpt>
      <trkpt lat="45.90545" lon="6.16649">
        <ele>682.52960205078</ele>
        <time>2017-04-05T09:44:40.000Z</time>
      </trkpt>
      <trkpt lat="45.90543" lon="6.16647">
        <ele>682.34484863281</ele>
        <time>2017-04-05T09:44:43.000Z</time>
      </trkpt>
      <trkpt lat="45.90543" lon="6.16644">
        <ele>681.77172851562</ele>
        <time>2017-04-05T09:44:46.000Z</time>
      </trkpt>
      <trkpt lat="45.90542" lon="6.16643">
        <ele>680.98291015625</ele>
        <time>2017-04-05T09:44:48.000Z</time>
      </trkpt>
      <trkpt lat="45.9054" lon="6.16641">
        <ele>679.87933349609</ele>
        <time>2017-04-05T09:44:51.000Z</time>
      </trkpt>
      <trkpt lat="45.90539" lon="6.16641">
        <ele>678.93731689453</ele>
        <time>2017-04-05T09:44:54.000Z</time>
      </trkpt>
      <trkpt lat="45.90538" lon="6.16638">
        <ele>677.97766113281</ele>
        <time>2017-04-05T09:44:57.000Z</time>
      </trkpt>
      <trkpt lat="45.90537" lon="6.16637">
        <ele>677.20330810547</ele>
        <time>2017-04-05T09:44:59.000Z</time>
      </trkpt>
      <trkpt lat="45.90535" lon="6.16636">
        <ele>676.43536376953</ele>
        <time>2017-04-05T09:45:02.000Z</time>
      </trkpt>
      <trkpt lat="45.90532" lon="6.16633">
        <ele>675.64343261719</ele>
        <time>2017-04-05T09:45:05.000Z</time>
      </trkpt>
      <trkpt lat="45.90531" lon="6.16631">
        <ele>674.6943359375</ele>
        <time>2017-04-05T09:45:07.000Z</time>
      </trkpt>
      <trkpt lat="45.90529" lon="6.1663">
        <ele>673.89691162109</ele>
        <time>2017-04-05T09:45:09.000Z</time>
      </trkpt>
      <trkpt lat="45.90527" lon="6.1663">
        <ele>673.22503662109</ele>
        <time>2017-04-05T09:45:12.000Z</time>
      </trkpt>
      <trkpt lat="45.90526" lon="6.16629">
        <ele>672.64074707031</ele>
        <time>2017-04-05T09:45:14.000Z</time>
      </trkpt>
      <trkpt lat="45.90524" lon="6.16628">
        <ele>672.17346191406</ele>
        <time>2017-04-05T09:45:16.000Z</time>
      </trkpt>
      <trkpt lat="45.90523" lon="6.16627">
        <ele>671.88537597656</ele>
        <time>2017-04-05T09:45:18.000Z</time>
      </trkpt>
      <trkpt lat="45.9052" lon="6.16627">
        <ele>671.75744628906</ele>
        <time>2017-04-05T09:45:21.000Z</time>
      </trkpt>
      <trkpt lat="45.90519" lon="6.16627">
        <ele>671.63360595703</ele>
        <time>2017-04-05T09:45:23.000Z</time>
      </trkpt>
      <trkpt lat="45.90518" lon="6.16626">
        <ele>671.48449707031</ele>
        <time>2017-04-05T09:45:26.000Z</time>
      </trkpt>
      <trkpt lat="45.90517" lon="6.16625">
        <ele>671.40063476562</ele>
        <time>2017-04-05T09:45:28.000Z</time>
      </trkpt>
      <trkpt lat="45.90517" lon="6.16622">
        <ele>670.95495605469</ele>
        <time>2017-04-05T09:45:30.000Z</time>
      </trkpt>
      <trkpt lat="45.9052" lon="6.1662">
        <ele>670.11639404297</ele>
        <time>2017-04-05T09:45:32.000Z</time>
      </trkpt>
      <trkpt lat="45.90523" lon="6.16617">
        <ele>668.93267822266</ele>
        <time>2017-04-05T09:45:35.000Z</time>
      </trkpt>
      <trkpt lat="45.90526" lon="6.16615">
        <ele>667.47772216797</ele>
        <time>2017-04-05T09:45:37.000Z</time>
      </trkpt>
      <trkpt lat="45.90528" lon="6.16612">
        <ele>665.73986816406</ele>
        <time>2017-04-05T09:45:39.000Z</time>
      </trkpt>
      <trkpt lat="45.90532" lon="6.16611">
        <ele>664.0859375</ele>
        <time>2017-04-05T09:45:42.000Z</time>
      </trkpt>
      <trkpt lat="45.90535" lon="6.16612">
        <ele>662.7080078125</ele>
        <time>2017-04-05T09:45:44.000Z</time>
      </trkpt>
      <trkpt lat="45.90538" lon="6.16612">
        <ele>661.60479736328</ele>
        <time>2017-04-05T09:45:46.000Z</time>
      </trkpt>
      <trkpt lat="45.90541" lon="6.1661">
        <ele>660.50177001953</ele>
        <time>2017-04-05T09:45:49.000Z</time>
      </trkpt>
      <trkpt lat="45.90542" lon="6.16608">
        <ele>659.49060058594</ele>
        <time>2017-04-05T09:45:52.000Z</time>
      </trkpt>
      <trkpt lat="45.9054" lon="6.16607">
        <ele>658.67657470703</ele>
        <time>2017-04-05T09:45:55.000Z</time>
      </trkpt>
      <trkpt lat="45.90538" lon="6.16606">
        <ele>657.84167480469</ele>
        <time>2017-04-05T09:45:57.000Z</time>
      </trkpt>
      <trkpt lat="45.90536" lon="6.16603">
        <ele>656.83239746094</ele>
        <time>2017-04-05T09:46:00.000Z</time>
      </trkpt>
      <trkpt lat="45.90532" lon="6.16602">
        <ele>656.27075195312</ele>
        <time>2017-04-05T09:46:02.000Z</time>
      </trkpt>
      <trkpt lat="45.90528" lon="6.16602">
        <ele>656.05627441406</ele>
        <time>2017-04-05T09:46:05.000Z</time>
      </trkpt>
      <trkpt lat="45.90524" lon="6.16601">
        <ele>656.05224609375</ele>
        <time>2017-04-05T09:46:07.000Z</time>
      </trkpt>
      <trkpt lat="45.90521" lon="6.16602">
        <ele>656.31469726562</ele>
        <time>2017-04-05T09:46:09.000Z</time>
      </trkpt>
      <trkpt lat="45.90518" lon="6.16602">
        <ele>656.96838378906</ele>
        <time>2017-04-05T09:46:12.000Z</time>
      </trkpt>
      <trkpt lat="45.90515" lon="6.16601">
        <ele>657.49456787109</ele>
        <time>2017-04-05T09:46:15.000Z</time>
      </trkpt>
      <trkpt lat="45.90512" lon="6.16598">
        <ele>657.69952392578</ele>
        <time>2017-04-05T09:46:17.000Z</time>
      </trkpt>
      <trkpt lat="45.90509" lon="6.16596">
        <ele>657.74822998047</ele>
        <time>2017-04-05T09:46:20.000Z</time>
      </trkpt>
      <trkpt lat="45.90507" lon="6.16596">
        <ele>657.67700195312</ele>
        <time>2017-04-05T09:46:23.000Z</time>
      </trkpt>
      <trkpt lat="45.90506" lon="6.16596">
        <ele>657.50830078125</ele>
        <time>2017-04-05T09:46:25.000Z</time>
      </trkpt>
      <trkpt lat="45.90504" lon="6.16595">
        <ele>657.36975097656</ele>
        <time>2017-04-05T09:46:28.000Z</time>
      </trkpt>
      <trkpt lat="45.90503" lon="6.16596">
        <ele>657.57116699219</ele>
        <time>2017-04-05T09:46:32.000Z</time>
      </trkpt>
      <trkpt lat="45.90501" lon="6.16594">
        <ele>657.78076171875</ele>
        <time>2017-04-05T09:46:35.000Z</time>
      </trkpt>
      <trkpt lat="45.905" lon="6.16594">
        <ele>657.94763183594</ele>
        <time>2017-04-05T09:46:37.000Z</time>
      </trkpt>
      <trkpt lat="45.90498" lon="6.16594">
        <ele>658.10632324219</ele>
        <time>2017-04-05T09:46:39.000Z</time>
      </trkpt>
      <trkpt lat="45.90495" lon="6.16593">
        <ele>658.22985839844</ele>
        <time>2017-04-05T09:46:42.000Z</time>
      </trkpt>
      <trkpt lat="45.90492" lon="6.16587">
        <ele>657.75012207031</ele>
        <time>2017-04-05T09:46:45.000Z</time>
      </trkpt>
      <trkpt lat="45.90491" lon="6.16584">
        <ele>657.00091552734</ele>
        <time>2017-04-05T09:46:48.000Z</time>
      </trkpt>
      <trkpt lat="45.90492" lon="6.16583">
        <ele>656.01025390625</ele>
        <time>2017-04-05T09:46:50.000Z</time>
      </trkpt>
      <trkpt lat="45.90494" lon="6.16582">
        <ele>654.82574462891</ele>
        <time>2017-04-05T09:46:52.000Z</time>
      </trkpt>
      <trkpt lat="45.90495" lon="6.1658">
        <ele>653.390625</ele>
        <time>2017-04-05T09:46:55.000Z</time>
      </trkpt>
      <trkpt lat="45.90496" lon="6.16577">
        <ele>652.05847167969</ele>
        <time>2017-04-05T09:46:57.000Z</time>
      </trkpt>
      <trkpt lat="45.90496" lon="6.16574">
        <ele>650.63671875</ele>
        <time>2017-04-05T09:46:59.000Z</time>
      </trkpt>
      <trkpt lat="45.90494" lon="6.16574">
        <ele>649.35827636719</ele>
        <time>2017-04-05T09:47:02.000Z</time>
      </trkpt>
      <trkpt lat="45.9049" lon="6.16573">
        <ele>648.24743652344</ele>
        <time>2017-04-05T09:47:05.000Z</time>
      </trkpt>
      <trkpt lat="45.90488" lon="6.16572">
        <ele>647.29992675781</ele>
        <time>2017-04-05T09:47:07.000Z</time>
      </trkpt>
      <trkpt lat="45.90485" lon="6.16567">
        <ele>646.12725830078</ele>
        <time>2017-04-05T09:47:10.000Z</time>
      </trkpt>
      <trkpt lat="45.90482" lon="6.16564">
        <ele>645.10430908203</ele>
        <time>2017-04-05T09:47:13.000Z</time>
      </trkpt>
      <trkpt lat="45.9048" lon="6.16563">
        <ele>644.07629394531</ele>
        <time>2017-04-05T09:47:15.000Z</time>
      </trkpt>
      <trkpt lat="45.90478" lon="6.16562">
        <ele>643.02624511719</ele>
        <time>2017-04-05T09:47:17.000Z</time>
      </trkpt>
      <trkpt lat="45.90475" lon="6.16563">
        <ele>642.27197265625</ele>
        <time>2017-04-05T09:47:19.000Z</time>
      </trkpt>
      <trkpt lat="45.90472" lon="6.16564">
        <ele>642.38415527344</ele>
        <time>2017-04-05T09:47:22.000Z</time>
      </trkpt>
      <trkpt lat="45.90468" lon="6.16566">
        <ele>642.98754882812</ele>
        <time>2017-04-05T09:47:25.000Z</time>
      </trkpt>
      <trkpt lat="45.90464" lon="6.16567">
        <ele>643.92901611328</ele>
        <time>2017-04-05T09:47:28.000Z</time>
      </trkpt>
      <trkpt lat="45.90462" lon="6.16566">
        <ele>644.82873535156</ele>
        <time>2017-04-05T09:47:30.000Z</time>
      </trkpt>
      <trkpt lat="45.9046" lon="6.16565">
        <ele>645.57006835938</ele>
        <time>2017-04-05T09:47:33.000Z</time>
      </trkpt>
      <trkpt lat="45.90459" lon="6.16566">
        <ele>646.13977050781</ele>
        <time>2017-04-05T09:47:35.000Z</time>
      </trkpt>
      <trkpt lat="45.90458" lon="6.16564">
        <ele>646.29357910156</ele>
        <time>2017-04-05T09:47:38.000Z</time>
      </trkpt>
      <trkpt lat="45.90461" lon="6.1656">
        <ele>645.53570556641</ele>
        <time>2017-04-05T09:47:41.000Z</time>
      </trkpt>
      <trkpt lat="45.90463" lon="6.16557">
        <ele>644.40899658203</ele>
        <time>2017-04-05T09:47:43.000Z</time>
      </trkpt>
      <trkpt lat="45.90467" lon="6.16555">
        <ele>642.82458496094</ele>
        <time>2017-04-05T09:47:46.000Z</time>
      </trkpt>
      <trkpt lat="45.90471" lon="6.16555">
        <ele>641.04821777344</ele>
        <time>2017-04-05T09:47:48.000Z</time>
      </trkpt>
      <trkpt lat="45.90474" lon="6.16555">
        <ele>639.39373779297</ele>
        <time>2017-04-05T09:47:50.000Z</time>
      </trkpt>
      <trkpt lat="45.90478" lon="6.16554">
        <ele>638.14422607422</ele>
        <time>2017-04-05T09:47:53.000Z</time>
      </trkpt>
      <trkpt lat="45.90479" lon="6.16554">
        <ele>637.158203125</ele>
        <time>2017-04-05T09:47:56.000Z</time>
      </trkpt>
      <trkpt lat="45.9048" lon="6.16552">
        <ele>636.40856933594</ele>
        <time>2017-04-05T09:48:00.000Z</time>
      </trkpt>
      <trkpt lat="45.9048" lon="6.1655">
        <ele>635.44689941406</ele>
        <time>2017-04-05T09:48:03.000Z</time>
      </trkpt>
      <trkpt lat="45.90483" lon="6.16549">
        <ele>634.30847167969</ele>
        <time>2017-04-05T09:48:06.000Z</time>
      </trkpt>
      <trkpt lat="45.90482" lon="6.16549">
        <ele>633.38055419922</ele>
        <time>2017-04-05T09:48:13.000Z</time>
      </trkpt>
      <trkpt lat="45.90483" lon="6.16548">
        <ele>632.56427001953</ele>
        <time>2017-04-05T09:48:17.000Z</time>
      </trkpt>
      <trkpt lat="45.90485" lon="6.16548">
        <ele>631.85607910156</ele>
        <time>2017-04-05T09:48:19.000Z</time>
      </trkpt>
      <trkpt lat="45.90486" lon="6.16547">
        <ele>631.25518798828</ele>
        <time>2017-04-05T09:48:22.000Z</time>
      </trkpt>
      <trkpt lat="45.90488" lon="6.16547">
        <ele>630.79431152344</ele>
        <time>2017-04-05T09:48:25.000Z</time>
      </trkpt>
      <trkpt lat="45.9049" lon="6.16548">
        <ele>630.42687988281</ele>
        <time>2017-04-05T09:48:28.000Z</time>
      </trkpt>
      <trkpt lat="45.90493" lon="6.16549">
        <ele>630.13446044922</ele>
        <time>2017-04-05T09:48:31.000Z</time>
      </trkpt>
      <trkpt lat="45.90495" lon="6.1655">
        <ele>630.02508544922</ele>
        <time>2017-04-05T09:48:33.000Z</time>
      </trkpt>
      <trkpt lat="45.90497" lon="6.16551">
        <ele>630.17395019531</ele>
        <time>2017-04-05T09:48:36.000Z</time>
      </trkpt>
      <trkpt lat="45.90498" lon="6.16551">
        <ele>630.41387939453</ele>
        <time>2017-04-05T09:48:41.000Z</time>
      </trkpt>
      <trkpt lat="45.90499" lon="6.16553">
        <ele>630.76965332031</ele>
        <time>2017-04-05T09:48:43.000Z</time>
      </trkpt>
      <trkpt lat="45.905" lon="6.16554">
        <ele>631.14636230469</ele>
        <time>2017-04-05T09:48:46.000Z</time>
      </trkpt>
      <trkpt lat="45.90501" lon="6.16552">
        <ele>631.20391845703</ele>
        <time>2017-04-05T09:48:49.000Z</time>
      </trkpt>
      <trkpt lat="45.90504" lon="6.16553">
        <ele>631.18255615234</ele>
        <time>2017-04-05T09:48:52.000Z</time>
      </trkpt>
      <trkpt lat="45.90505" lon="6.16552">
        <ele>630.97003173828</ele>
        <time>2017-04-05T09:48:54.000Z</time>
      </trkpt>
      <trkpt lat="45.90508" lon="6.16551">
        <ele>630.24499511719</ele>
        <time>2017-04-05T09:48:57.000Z</time>
      </trkpt>
      <trkpt lat="45.9051" lon="6.1655">
        <ele>629.30767822266</ele>
        <time>2017-04-05T09:49:00.000Z</time>
      </trkpt>
      <trkpt lat="45.90512" lon="6.1655">
        <ele>628.55908203125</ele>
        <time>2017-04-05T09:49:03.000Z</time>
      </trkpt>
      <trkpt lat="45.90513" lon="6.16551">
        <ele>627.8525390625</ele>
        <time>2017-04-05T09:49:09.000Z</time>
      </trkpt>
      <trkpt lat="45.90516" lon="6.16551">
        <ele>627.2216796875</ele>
        <time>2017-04-05T09:49:12.000Z</time>
      </trkpt>
      <trkpt lat="45.90517" lon="6.16551">
        <ele>626.83282470703</ele>
        <time>2017-04-05T09:49:14.000Z</time>
      </trkpt>
      <trkpt lat="45.90519" lon="6.16548">
        <ele>626.24169921875</ele>
        <time>2017-04-05T09:49:17.000Z</time>
      </trkpt>
      <trkpt lat="45.90521" lon="6.16548">
        <ele>625.57489013672</ele>
        <time>2017-04-05T09:49:20.000Z</time>
      </trkpt>
      <trkpt lat="45.90524" lon="6.16548">
        <ele>624.74536132812</ele>
        <time>2017-04-05T09:49:23.000Z</time>
      </trkpt>
      <trkpt lat="45.90525" lon="6.16547">
        <ele>623.83331298828</ele>
        <time>2017-04-05T09:49:25.000Z</time>
      </trkpt>
      <trkpt lat="45.90523" lon="6.16547">
        <ele>623.10546875</ele>
        <time>2017-04-05T09:49:29.000Z</time>
      </trkpt>
      <trkpt lat="45.90523" lon="6.16549">
        <ele>622.97265625</ele>
        <time>2017-04-05T09:49:31.000Z</time>
      </trkpt>
      <trkpt lat="45.90522" lon="6.1655">
        <ele>623.16485595703</ele>
        <time>2017-04-05T09:49:34.000Z</time>
      </trkpt>
      <trkpt lat="45.90521" lon="6.16552">
        <ele>623.78289794922</ele>
        <time>2017-04-05T09:49:37.000Z</time>
      </trkpt>
      <trkpt lat="45.9052" lon="6.16547">
        <ele>623.9619140625</ele>
        <time>2017-04-05T09:49:40.000Z</time>
      </trkpt>
      <trkpt lat="45.90522" lon="6.16544">
        <ele>623.52532958984</ele>
        <time>2017-04-05T09:49:42.000Z</time>
      </trkpt>
      <trkpt lat="45.90524" lon="6.16541">
        <ele>622.47985839844</ele>
        <time>2017-04-05T09:49:45.000Z</time>
      </trkpt>
      <trkpt lat="45.90526" lon="6.16541">
        <ele>621.05895996094</ele>
        <time>2017-04-05T09:49:47.000Z</time>
      </trkpt>
      <trkpt lat="45.90527" lon="6.1654">
        <ele>619.17620849609</ele>
        <time>2017-04-05T09:49:50.000Z</time>
      </trkpt>
      <trkpt lat="45.90528" lon="6.16541">
        <ele>618.06518554688</ele>
        <time>2017-04-05T09:49:55.000Z</time>
      </trkpt>
      <trkpt lat="45.9053" lon="6.16541">
        <ele>617.44079589844</ele>
        <time>2017-04-05T09:49:58.000Z</time>
      </trkpt>
      <trkpt lat="45.90531" lon="6.16541">
        <ele>617.12152099609</ele>
        <time>2017-04-05T09:50:01.000Z</time>
      </trkpt>
      <trkpt lat="45.90533" lon="6.16543">
        <ele>617.11047363281</ele>
        <time>2017-04-05T09:50:04.000Z</time>
      </trkpt>
      <trkpt lat="45.90534" lon="6.16543">
        <ele>617.25762939453</ele>
        <time>2017-04-05T09:50:07.000Z</time>
      </trkpt>
      <trkpt lat="45.90536" lon="6.16542">
        <ele>617.08984375</ele>
        <time>2017-04-05T09:50:10.000Z</time>
      </trkpt>
      <trkpt lat="45.90539" lon="6.16542">
        <ele>616.80157470703</ele>
        <time>2017-04-05T09:50:13.000Z</time>
      </trkpt>
      <trkpt lat="45.90542" lon="6.16541">
        <ele>616.35852050781</ele>
        <time>2017-04-05T09:50:15.000Z</time>
      </trkpt>
      <trkpt lat="45.90543" lon="6.16542">
        <ele>615.80926513672</ele>
        <time>2017-04-05T09:50:17.000Z</time>
      </trkpt>
      <trkpt lat="45.90544" lon="6.16542">
        <ele>615.33837890625</ele>
        <time>2017-04-05T09:50:21.000Z</time>
      </trkpt>
      <trkpt lat="45.90545" lon="6.16543">
        <ele>615.07598876953</ele>
        <time>2017-04-05T09:50:25.000Z</time>
      </trkpt>
      <trkpt lat="45.90546" lon="6.16544">
        <ele>615.01477050781</ele>
        <time>2017-04-05T09:50:30.000Z</time>
      </trkpt>
      <trkpt lat="45.90548" lon="6.16546">
        <ele>615.4423828125</ele>
        <time>2017-04-05T09:50:33.000Z</time>
      </trkpt>
      <trkpt lat="45.90549" lon="6.16548">
        <ele>615.95227050781</ele>
        <time>2017-04-05T09:50:35.000Z</time>
      </trkpt>
      <trkpt lat="45.9055" lon="6.16549">
        <ele>616.52331542969</ele>
        <time>2017-04-05T09:50:38.000Z</time>
      </trkpt>
      <trkpt lat="45.90551" lon="6.16547">
        <ele>616.76623535156</ele>
        <time>2017-04-05T09:50:41.000Z</time>
      </trkpt>
      <trkpt lat="45.90551" lon="6.16544">
        <ele>616.59222412109</ele>
        <time>2017-04-05T09:50:44.000Z</time>
      </trkpt>
      <trkpt lat="45.90551" lon="6.16539">
        <ele>615.54553222656</ele>
        <time>2017-04-05T09:50:47.000Z</time>
      </trkpt>
      <trkpt lat="45.90552" lon="6.16537">
        <ele>614.13562011719</ele>
        <time>2017-04-05T09:50:49.000Z</time>
      </trkpt>
      <trkpt lat="45.90551" lon="6.16537">
        <ele>612.58679199219</ele>
        <time>2017-04-05T09:50:55.000Z</time>
      </trkpt>
      <trkpt lat="45.90549" lon="6.16537">
        <ele>611.44708251953</ele>
        <time>2017-04-05T09:51:02.000Z</time>
      </trkpt>
      <trkpt lat="45.90549" lon="6.16536">
        <ele>610.49133300781</ele>
        <time>2017-04-05T09:51:05.000Z</time>
      </trkpt>
      <trkpt lat="45.9055" lon="6.16535">
        <ele>610.04870605469</ele>
        <time>2017-04-05T09:51:08.000Z</time>
      </trkpt>
      <trkpt lat="45.9055" lon="6.16537">
        <ele>610.04846191406</ele>
        <time>2017-04-05T09:51:11.000Z</time>
      </trkpt>
      <trkpt lat="45.90549" lon="6.16538">
        <ele>610.30383300781</ele>
        <time>2017-04-05T09:51:14.000Z</time>
      </trkpt>
      <trkpt lat="45.90549" lon="6.1654">
        <ele>610.64758300781</ele>
        <time>2017-04-05T09:51:16.000Z</time>
      </trkpt>
      <trkpt lat="45.90548" lon="6.16542">
        <ele>611.41369628906</ele>
        <time>2017-04-05T09:51:19.000Z</time>
      </trkpt>
      <trkpt lat="45.90548" lon="6.1654">
        <ele>612.04187011719</ele>
        <time>2017-04-05T09:51:23.000Z</time>
      </trkpt>
      <trkpt lat="45.90549" lon="6.16539">
        <ele>612.33984375</ele>
        <time>2017-04-05T09:51:26.000Z</time>
      </trkpt>
      <trkpt lat="45.90548" lon="6.16539">
        <ele>612.43719482422</ele>
        <time>2017-04-05T09:51:29.000Z</time>
      </trkpt>
      <trkpt lat="45.90546" lon="6.16538">
        <ele>612.23571777344</ele>
        <time>2017-04-05T09:51:31.000Z</time>
      </trkpt>
      <trkpt lat="45.90545" lon="6.16536">
        <ele>611.68780517578</ele>
        <time>2017-04-05T09:51:33.000Z</time>
      </trkpt>
      <trkpt lat="45.90543" lon="6.16535">
        <ele>611.3359375</ele>
        <time>2017-04-05T09:51:36.000Z</time>
      </trkpt>
      <trkpt lat="45.90543" lon="6.16538">
        <ele>611.40270996094</ele>
        <time>2017-04-05T09:51:41.000Z</time>
      </trkpt>
      <trkpt lat="45.90545" lon="6.16536">
        <ele>611.14617919922</ele>
        <time>2017-04-05T09:51:44.000Z</time>
      </trkpt>
      <trkpt lat="45.90544" lon="6.16533">
        <ele>610.60687255859</ele>
        <time>2017-04-05T09:51:46.000Z</time>
      </trkpt>
      <trkpt lat="45.90545" lon="6.16531">
        <ele>609.92852783203</ele>
        <time>2017-04-05T09:51:48.000Z</time>
      </trkpt>
      <trkpt lat="45.90545" lon="6.16529">
        <ele>608.98132324219</ele>
        <time>2017-04-05T09:51:51.000Z</time>
      </trkpt>
      <trkpt lat="45.90543" lon="6.16527">
        <ele>607.57550048828</ele>
        <time>2017-04-05T09:51:53.000Z</time>
      </trkpt>
      <trkpt lat="45.90542" lon="6.16525">
        <ele>606.26641845703</ele>
        <time>2017-04-05T09:51:56.000Z</time>
      </trkpt>
      <trkpt lat="45.90541" lon="6.16526">
        <ele>605.49255371094</ele>
        <time>2017-04-05T09:52:02.000Z</time>
      </trkpt>
      <trkpt lat="45.90541" lon="6.16528">
        <ele>605.2392578125</ele>
        <time>2017-04-05T09:52:10.000Z</time>
      </trkpt>
      <trkpt lat="45.9054" lon="6.16528">
        <ele>605.38049316406</ele>
        <time>2017-04-05T09:52:14.000Z</time>
      </trkpt>
      <trkpt lat="45.9054" lon="6.16526">
        <ele>605.41467285156</ele>
        <time>2017-04-05T09:52:17.000Z</time>
      </trkpt>
      <trkpt lat="45.9054" lon="6.16527">
        <ele>605.79370117188</ele>
        <time>2017-04-05T09:52:22.000Z</time>
      </trkpt>
      <trkpt lat="45.9054" lon="6.16526">
        <ele>605.89093017578</ele>
        <time>2017-04-05T09:52:30.000Z</time>
      </trkpt>
      <trkpt lat="45.90538" lon="6.16528">
        <ele>605.92956542969</ele>
        <time>2017-04-05T09:52:33.000Z</time>
      </trkpt>
      <trkpt lat="45.90538" lon="6.16526">
        <ele>605.70715332031</ele>
        <time>2017-04-05T09:52:35.000Z</time>
      </trkpt>
      <trkpt lat="45.90538" lon="6.16519">
        <ele>604.82897949219</ele>
        <time>2017-04-05T09:52:38.000Z</time>
      </trkpt>
      <trkpt lat="45.90537" lon="6.16516">
        <ele>603.50177001953</ele>
        <time>2017-04-05T09:52:41.000Z</time>
      </trkpt>
      <trkpt lat="45.90536" lon="6.16514">
        <ele>601.95245361328</ele>
        <time>2017-04-05T09:52:46.000Z</time>
      </trkpt>
      <trkpt lat="45.90536" lon="6.16512">
        <ele>599.98602294922</ele>
        <time>2017-04-05T09:52:48.000Z</time>
      </trkpt>
      <trkpt lat="45.90536" lon="6.16514">
        <ele>598.40270996094</ele>
        <time>2017-04-05T09:52:54.000Z</time>
      </trkpt>
      <trkpt lat="45.90537" lon="6.16515">
        <ele>598.01135253906</ele>
        <time>2017-04-05T09:53:02.000Z</time>
      </trkpt>
      <trkpt lat="45.90538" lon="6.16516">
        <ele>597.93054199219</ele>
        <time>2017-04-05T09:53:05.000Z</time>
      </trkpt>
      <trkpt lat="45.90539" lon="6.16515">
        <ele>598.08264160156</ele>
        <time>2017-04-05T09:53:08.000Z</time>
      </trkpt>
      <trkpt lat="45.9054" lon="6.16514">
        <ele>598.21612548828</ele>
        <time>2017-04-05T09:53:11.000Z</time>
      </trkpt>
      <trkpt lat="45.9054" lon="6.16512">
        <ele>597.95080566406</ele>
        <time>2017-04-05T09:53:13.000Z</time>
      </trkpt>
      <trkpt lat="45.90538" lon="6.16512">
        <ele>597.45172119141</ele>
        <time>2017-04-05T09:53:21.000Z</time>
      </trkpt>
      <trkpt lat="45.90536" lon="6.16509">
        <ele>596.67248535156</ele>
        <time>2017-04-05T09:53:26.000Z</time>
      </trkpt>
      <trkpt lat="45.90538" lon="6.1651">
        <ele>596.00146484375</ele>
        <time>2017-04-05T09:53:37.000Z</time>
      </trkpt>
      <trkpt lat="45.90539" lon="6.16509">
        <ele>595.43103027344</ele>
        <time>2017-04-05T09:53:39.000Z</time>
      </trkpt>
      <trkpt lat="45.9054" lon="6.16507">
        <ele>594.71575927734</ele>
        <time>2017-04-05T09:53:42.000Z</time>
      </trkpt>
      <trkpt lat="45.90538" lon="6.16505">
        <ele>593.75286865234</ele>
        <time>2017-04-05T09:53:45.000Z</time>
      </trkpt>
      <trkpt lat="45.90537" lon="6.16504">
        <ele>593.05358886719</ele>
        <time>2017-04-05T09:53:47.000Z</time>
      </trkpt>
      <trkpt lat="45.90536" lon="6.16505">
        <ele>592.47186279297</ele>
        <time>2017-04-05T09:53:49.000Z</time>
      </trkpt>
      <trkpt lat="45.90535" lon="6.16504">
        <ele>591.88604736328</ele>
        <time>2017-04-05T09:53:51.000Z</time>
      </trkpt>
      <trkpt lat="45.90536" lon="6.16502">
        <ele>591.33911132812</ele>
        <time>2017-04-05T09:53:54.000Z</time>
      </trkpt>
      <trkpt lat="45.90537" lon="6.16503">
        <ele>591.18823242188</ele>
        <time>2017-04-05T09:53:56.000Z</time>
      </trkpt>
      <trkpt lat="45.90534" lon="6.16507">
        <ele>591.60321044922</ele>
        <time>2017-04-05T09:53:59.000Z</time>
      </trkpt>
      <trkpt lat="45.90533" lon="6.16507">
        <ele>591.962890625</ele>
        <time>2017-04-05T09:54:01.000Z</time>
      </trkpt>
      <trkpt lat="45.90531" lon="6.16507">
        <ele>592.52209472656</ele>
        <time>2017-04-05T09:54:03.000Z</time>
      </trkpt>
      <trkpt lat="45.90528" lon="6.16508">
        <ele>593.55529785156</ele>
        <time>2017-04-05T09:54:06.000Z</time>
      </trkpt>
      <trkpt lat="45.90525" lon="6.16508">
        <ele>594.59539794922</ele>
        <time>2017-04-05T09:54:09.000Z</time>
      </trkpt>
      <trkpt lat="45.90523" lon="6.16507">
        <ele>595.00207519531</ele>
        <time>2017-04-05T09:54:11.000Z</time>
      </trkpt>
      <trkpt lat="45.90522" lon="6.16505">
        <ele>595.10656738281</ele>
        <time>2017-04-05T09:54:14.000Z</time>
      </trkpt>
      <trkpt lat="45.9052" lon="6.16505">
        <ele>595.13641357422</ele>
        <time>2017-04-05T09:54:16.000Z</time>
      </trkpt>
      <trkpt lat="45.90519" lon="6.16506">
        <ele>595.15832519531</ele>
        <time>2017-04-05T09:54:19.000Z</time>
      </trkpt>
      <trkpt lat="45.90517" lon="6.16504">
        <ele>594.85296630859</ele>
        <time>2017-04-05T09:54:21.000Z</time>
      </trkpt>
      <trkpt lat="45.90517" lon="6.16504">
        <ele>594.54650878906</ele>
        <time>2017-04-05T09:54:24.000Z</time>
      </trkpt>
      <trkpt lat="45.90516" lon="6.16503">
        <ele>594.39672851562</ele>
        <time>2017-04-05T09:54:27.000Z</time>
      </trkpt>
      <trkpt lat="45.90515" lon="6.16503">
        <ele>594.35949707031</ele>
        <time>2017-04-05T09:54:29.000Z</time>
      </trkpt>
      <trkpt lat="45.90511" lon="6.16502">
        <ele>594.0537109375</ele>
        <time>2017-04-05T09:54:32.000Z</time>
      </trkpt>
      <trkpt lat="45.90509" lon="6.16499">
        <ele>593.63635253906</ele>
        <time>2017-04-05T09:54:34.000Z</time>
      </trkpt>
      <trkpt lat="45.90507" lon="6.16498">
        <ele>593.23504638672</ele>
        <time>2017-04-05T09:54:37.000Z</time>
      </trkpt>
      <trkpt lat="45.90504" lon="6.16496">
        <ele>592.72515869141</ele>
        <time>2017-04-05T09:54:45.000Z</time>
      </trkpt>
      <trkpt lat="45.90502" lon="6.16494">
        <ele>591.97351074219</ele>
        <time>2017-04-05T09:54:48.000Z</time>
      </trkpt>
      <trkpt lat="45.905" lon="6.1649">
        <ele>590.99206542969</ele>
        <time>2017-04-05T09:54:51.000Z</time>
      </trkpt>
      <trkpt lat="45.90498" lon="6.16489">
        <ele>590.19110107422</ele>
        <time>2017-04-05T09:54:54.000Z</time>
      </trkpt>
      <trkpt lat="45.90497" lon="6.16488">
        <ele>589.46496582031</ele>
        <time>2017-04-05T09:54:56.000Z</time>
      </trkpt>
      <trkpt lat="45.90495" lon="6.1649">
        <ele>589.31079101562</ele>
        <time>2017-04-05T09:54:59.000Z</time>
      </trkpt>
      <trkpt lat="45.90493" lon="6.16492">
        <ele>589.56024169922</ele>
        <time>2017-04-05T09:55:02.000Z</time>
      </trkpt>
      <trkpt lat="45.90492" lon="6.16494">
        <ele>590.41290283203</ele>
        <time>2017-04-05T09:55:05.000Z</time>
      </trkpt>
      <trkpt lat="45.90491" lon="6.16496">
        <ele>591.55078125</ele>
        <time>2017-04-05T09:55:08.000Z</time>
      </trkpt>
      <trkpt lat="45.90491" lon="6.16497">
        <ele>592.83703613281</ele>
        <time>2017-04-05T09:55:10.000Z</time>
      </trkpt>
      <trkpt lat="45.90489" lon="6.16498">
        <ele>593.97912597656</ele>
        <time>2017-04-05T09:55:13.000Z</time>
      </trkpt>
      <trkpt lat="45.90488" lon="6.16499">
        <ele>595.01959228516</ele>
        <time>2017-04-05T09:55:15.000Z</time>
      </trkpt>
      <trkpt lat="45.90487" lon="6.16499">
        <ele>595.82482910156</ele>
        <time>2017-04-05T09:55:18.000Z</time>
      </trkpt>
      <trkpt lat="45.90486" lon="6.165">
        <ele>596.66424560547</ele>
        <time>2017-04-05T09:55:21.000Z</time>
      </trkpt>
      <trkpt lat="45.90483" lon="6.165">
        <ele>597.46716308594</ele>
        <time>2017-04-05T09:55:24.000Z</time>
      </trkpt>
      <trkpt lat="45.90481" lon="6.16497">
        <ele>597.89056396484</ele>
        <time>2017-04-05T09:55:26.000Z</time>
      </trkpt>
      <trkpt lat="45.90478" lon="6.16493">
        <ele>597.80993652344</ele>
        <time>2017-04-05T09:55:29.000Z</time>
      </trkpt>
      <trkpt lat="45.90476" lon="6.16489">
        <ele>597.38690185547</ele>
        <time>2017-04-05T09:55:32.000Z</time>
      </trkpt>
      <trkpt lat="45.90475" lon="6.16486">
        <ele>596.42321777344</ele>
        <time>2017-04-05T09:55:34.000Z</time>
      </trkpt>
      <trkpt lat="45.90473" lon="6.16481">
        <ele>594.79016113281</ele>
        <time>2017-04-05T09:55:37.000Z</time>
      </trkpt>
      <trkpt lat="45.90471" lon="6.16477">
        <ele>592.8955078125</ele>
        <time>2017-04-05T09:55:39.000Z</time>
      </trkpt>
      <trkpt lat="45.90469" lon="6.16473">
        <ele>591.03234863281</ele>
        <time>2017-04-05T09:55:42.000Z</time>
      </trkpt>
      <trkpt lat="45.90467" lon="6.16473">
        <ele>589.47625732422</ele>
        <time>2017-04-05T09:55:44.000Z</time>
      </trkpt>
      <trkpt lat="45.90468" lon="6.16476">
        <ele>588.58801269531</ele>
        <time>2017-04-05T09:55:47.000Z</time>
      </trkpt>
      <trkpt lat="45.90467" lon="6.16477">
        <ele>588.38427734375</ele>
        <time>2017-04-05T09:55:49.000Z</time>
      </trkpt>
      <trkpt lat="45.90466" lon="6.16475">
        <ele>588.421875</ele>
        <time>2017-04-05T09:55:51.000Z</time>
      </trkpt>
      <trkpt lat="45.90462" lon="6.16469">
        <ele>588.25085449219</ele>
        <time>2017-04-05T09:55:54.000Z</time>
      </trkpt>
      <trkpt lat="45.90461" lon="6.16465">
        <ele>587.58282470703</ele>
        <time>2017-04-05T09:55:56.000Z</time>
      </trkpt>
      <trkpt lat="45.9046" lon="6.16462">
        <ele>586.29083251953</ele>
        <time>2017-04-05T09:55:59.000Z</time>
      </trkpt>
      <trkpt lat="45.90458" lon="6.1646">
        <ele>584.71887207031</ele>
        <time>2017-04-05T09:56:02.000Z</time>
      </trkpt>
      <trkpt lat="45.90456" lon="6.16458">
        <ele>583.19244384766</ele>
        <time>2017-04-05T09:56:04.000Z</time>
      </trkpt>
      <trkpt lat="45.90454" lon="6.16457">
        <ele>582.12408447266</ele>
        <time>2017-04-05T09:56:07.000Z</time>
      </trkpt>
      <trkpt lat="45.90456" lon="6.16457">
        <ele>581.42834472656</ele>
        <time>2017-04-05T09:56:11.000Z</time>
      </trkpt>
      <trkpt lat="45.90459" lon="6.16458">
        <ele>581.02697753906</ele>
        <time>2017-04-05T09:56:14.000Z</time>
      </trkpt>
      <trkpt lat="45.90461" lon="6.16458">
        <ele>580.70031738281</ele>
        <time>2017-04-05T09:56:17.000Z</time>
      </trkpt>
      <trkpt lat="45.90462" lon="6.1646">
        <ele>580.62878417969</ele>
        <time>2017-04-05T09:56:19.000Z</time>
      </trkpt>
      <trkpt lat="45.90464" lon="6.16463">
        <ele>580.92120361328</ele>
        <time>2017-04-05T09:56:21.000Z</time>
      </trkpt>
      <trkpt lat="45.90465" lon="6.16464">
        <ele>581.34716796875</ele>
        <time>2017-04-05T09:56:23.000Z</time>
      </trkpt>
      <trkpt lat="45.90467" lon="6.16459">
        <ele>581.06506347656</ele>
        <time>2017-04-05T09:56:26.000Z</time>
      </trkpt>
      <trkpt lat="45.90466" lon="6.16457">
        <ele>580.70684814453</ele>
        <time>2017-04-05T09:56:28.000Z</time>
      </trkpt>
      <trkpt lat="45.90464" lon="6.16456">
        <ele>580.21240234375</ele>
        <time>2017-04-05T09:56:30.000Z</time>
      </trkpt>
      <trkpt lat="45.9046" lon="6.16454">
        <ele>579.298828125</ele>
        <time>2017-04-05T09:56:33.000Z</time>
      </trkpt>
      <trkpt lat="45.90458" lon="6.16454">
        <ele>578.39984130859</ele>
        <time>2017-04-05T09:56:35.000Z</time>
      </trkpt>
      <trkpt lat="45.90455" lon="6.16454">
        <ele>578.26623535156</ele>
        <time>2017-04-05T09:56:38.000Z</time>
      </trkpt>
      <trkpt lat="45.90453" lon="6.16452">
        <ele>578.20648193359</ele>
        <time>2017-04-05T09:56:41.000Z</time>
      </trkpt>
      <trkpt lat="45.9045" lon="6.16452">
        <ele>578.24768066406</ele>
        <time>2017-04-05T09:56:43.000Z</time>
      </trkpt>
      <trkpt lat="45.90449" lon="6.16454">
        <ele>578.62188720703</ele>
        <time>2017-04-05T09:56:45.000Z</time>
      </trkpt>
      <trkpt lat="45.90446" lon="6.16455">
        <ele>579.23046875</ele>
        <time>2017-04-05T09:56:47.000Z</time>
      </trkpt>
      <trkpt lat="45.90444" lon="6.16456">
        <ele>580.07214355469</ele>
        <time>2017-04-05T09:56:50.000Z</time>
      </trkpt>
      <trkpt lat="45.90443" lon="6.16459">
        <ele>581.33679199219</ele>
        <time>2017-04-05T09:56:53.000Z</time>
      </trkpt>
      <trkpt lat="45.90441" lon="6.16457">
        <ele>582.392578125</ele>
        <time>2017-04-05T09:56:56.000Z</time>
      </trkpt>
      <trkpt lat="45.90441" lon="6.16455">
        <ele>582.97119140625</ele>
        <time>2017-04-05T09:56:58.000Z</time>
      </trkpt>
      <trkpt lat="45.9044" lon="6.16454">
        <ele>583.12530517578</ele>
        <time>2017-04-05T09:57:00.000Z</time>
      </trkpt>
      <trkpt lat="45.90437" lon="6.16452">
        <ele>582.90319824219</ele>
        <time>2017-04-05T09:57:03.000Z</time>
      </trkpt>
      <trkpt lat="45.90434" lon="6.16448">
        <ele>581.9306640625</ele>
        <time>2017-04-05T09:57:05.000Z</time>
      </trkpt>
      <trkpt lat="45.90432" lon="6.16445">
        <ele>580.69885253906</ele>
        <time>2017-04-05T09:57:07.000Z</time>
      </trkpt>
      <trkpt lat="45.90429" lon="6.16442">
        <ele>579.41345214844</ele>
        <time>2017-04-05T09:57:09.000Z</time>
      </trkpt>
      <trkpt lat="45.90425" lon="6.1644">
        <ele>578.14202880859</ele>
        <time>2017-04-05T09:57:12.000Z</time>
      </trkpt>
      <trkpt lat="45.90424" lon="6.16438">
        <ele>576.69299316406</ele>
        <time>2017-04-05T09:57:15.000Z</time>
      </trkpt>
      <trkpt lat="45.90423" lon="6.16435">
        <ele>575.37097167969</ele>
        <time>2017-04-05T09:57:17.000Z</time>
      </trkpt>
      <trkpt lat="45.90422" lon="6.16436">
        <ele>574.52069091797</ele>
        <time>2017-04-05T09:57:21.000Z</time>
      </trkpt>
      <trkpt lat="45.90421" lon="6.16438">
        <ele>574.294921875</ele>
        <time>2017-04-05T09:57:24.000Z</time>
      </trkpt>
      <trkpt lat="45.90421" lon="6.16435">
        <ele>573.75640869141</ele>
        <time>2017-04-05T09:57:28.000Z</time>
      </trkpt>
      <trkpt lat="45.90422" lon="6.16431">
        <ele>572.86688232422</ele>
        <time>2017-04-05T09:57:30.000Z</time>
      </trkpt>
      <trkpt lat="45.90424" lon="6.16428">
        <ele>571.85797119141</ele>
        <time>2017-04-05T09:57:32.000Z</time>
      </trkpt>
      <trkpt lat="45.90427" lon="6.16426">
        <ele>570.37292480469</ele>
        <time>2017-04-05T09:57:35.000Z</time>
      </trkpt>
      <trkpt lat="45.90429" lon="6.16425">
        <ele>568.27990722656</ele>
        <time>2017-04-05T09:57:38.000Z</time>
      </trkpt>
      <trkpt lat="45.90433" lon="6.16425">
        <ele>566.58050537109</ele>
        <time>2017-04-05T09:57:41.000Z</time>
      </trkpt>
      <trkpt lat="45.90435" lon="6.16425">
        <ele>565.34289550781</ele>
        <time>2017-04-05T09:57:43.000Z</time>
      </trkpt>
      <trkpt lat="45.90437" lon="6.16423">
        <ele>564.26196289062</ele>
        <time>2017-04-05T09:57:46.000Z</time>
      </trkpt>
      <trkpt lat="45.90438" lon="6.1642">
        <ele>563.10595703125</ele>
        <time>2017-04-05T09:57:49.000Z</time>
      </trkpt>
      <trkpt lat="45.9044" lon="6.16419">
        <ele>562.05303955078</ele>
        <time>2017-04-05T09:57:51.000Z</time>
      </trkpt>
      <trkpt lat="45.90445" lon="6.1642">
        <ele>561.06689453125</ele>
        <time>2017-04-05T09:57:54.000Z</time>
      </trkpt>
      <trkpt lat="45.90447" lon="6.1642">
        <ele>560.10034179688</ele>
        <time>2017-04-05T09:57:56.000Z</time>
      </trkpt>
      <trkpt lat="45.90452" lon="6.16418">
        <ele>558.95593261719</ele>
        <time>2017-04-05T09:57:59.000Z</time>
      </trkpt>
      <trkpt lat="45.90454" lon="6.16418">
        <ele>558.18395996094</ele>
        <time>2017-04-05T09:58:01.000Z</time>
      </trkpt>
      <trkpt lat="45.90457" lon="6.16421">
        <ele>557.81878662109</ele>
        <time>2017-04-05T09:58:04.000Z</time>
      </trkpt>
      <trkpt lat="45.90459" lon="6.16422">
        <ele>557.52026367188</ele>
        <time>2017-04-05T09:58:06.000Z</time>
      </trkpt>
      <trkpt lat="45.90459" lon="6.16423">
        <ele>557.47869873047</ele>
        <time>2017-04-05T09:58:09.000Z</time>
      </trkpt>
      <trkpt lat="45.90461" lon="6.16424">
        <ele>557.91412353516</ele>
        <time>2017-04-05T09:58:11.000Z</time>
      </trkpt>
      <trkpt lat="45.90462" lon="6.16425">
        <ele>558.50744628906</ele>
        <time>2017-04-05T09:58:17.000Z</time>
      </trkpt>
      <trkpt lat="45.90464" lon="6.16424">
        <ele>558.76147460938</ele>
        <time>2017-04-05T09:58:20.000Z</time>
      </trkpt>
      <trkpt lat="45.90466" lon="6.16424">
        <ele>558.80194091797</ele>
        <time>2017-04-05T09:58:23.000Z</time>
      </trkpt>
      <trkpt lat="45.90468" lon="6.16423">
        <ele>558.60955810547</ele>
        <time>2017-04-05T09:58:26.000Z</time>
      </trkpt>
      <trkpt lat="45.90469" lon="6.16424">
        <ele>558.32885742188</ele>
        <time>2017-04-05T09:58:29.000Z</time>
      </trkpt>
      <trkpt lat="45.90472" lon="6.16424">
        <ele>557.95880126953</ele>
        <time>2017-04-05T09:58:32.000Z</time>
      </trkpt>
      <trkpt lat="45.90472" lon="6.16425">
        <ele>557.78436279297</ele>
        <time>2017-04-05T09:58:34.000Z</time>
      </trkpt>
      <trkpt lat="45.90472" lon="6.16425">
        <ele>557.74383544922</ele>
        <time>2017-04-05T09:58:38.000Z</time>
      </trkpt>
      <trkpt lat="45.90469" lon="6.16424">
        <ele>557.74206542969</ele>
        <time>2017-04-05T09:58:41.000Z</time>
      </trkpt>
      <trkpt lat="45.90465" lon="6.16425">
        <ele>558.03674316406</ele>
        <time>2017-04-05T09:58:44.000Z</time>
      </trkpt>
      <trkpt lat="45.90465" lon="6.16426">
        <ele>558.48901367188</ele>
        <time>2017-04-05T09:58:47.000Z</time>
      </trkpt>
      <trkpt lat="45.90463" lon="6.16427">
        <ele>558.98663330078</ele>
        <time>2017-04-05T09:58:50.000Z</time>
      </trkpt>
      <trkpt lat="45.90461" lon="6.16425">
        <ele>559.36657714844</ele>
        <time>2017-04-05T09:58:52.000Z</time>
      </trkpt>
      <trkpt lat="45.9046" lon="6.16424">
        <ele>559.69787597656</ele>
        <time>2017-04-05T09:58:54.000Z</time>
      </trkpt>
      <trkpt lat="45.90458" lon="6.16424">
        <ele>559.8056640625</ele>
        <time>2017-04-05T09:58:57.000Z</time>
      </trkpt>
      <trkpt lat="45.90456" lon="6.16423">
        <ele>559.67803955078</ele>
        <time>2017-04-05T09:58:59.000Z</time>
      </trkpt>
      <trkpt lat="45.90453" lon="6.16423">
        <ele>559.55584716797</ele>
        <time>2017-04-05T09:59:02.000Z</time>
      </trkpt>
      <trkpt lat="45.90451" lon="6.16424">
        <ele>559.70153808594</ele>
        <time>2017-04-05T09:59:05.000Z</time>
      </trkpt>
      <trkpt lat="45.9045" lon="6.16424">
        <ele>560.00354003906</ele>
        <time>2017-04-05T09:59:07.000Z</time>
      </trkpt>
      <trkpt lat="45.90448" lon="6.16422">
        <ele>560.01318359375</ele>
        <time>2017-04-05T09:59:10.000Z</time>
      </trkpt>
      <trkpt lat="45.90448" lon="6.16419">
        <ele>559.81280517578</ele>
        <time>2017-04-05T09:59:12.000Z</time>
      </trkpt>
      <trkpt lat="45.90448" lon="6.16415">
        <ele>559.02185058594</ele>
        <time>2017-04-05T09:59:15.000Z</time>
      </trkpt>
      <trkpt lat="45.90447" lon="6.16412">
        <ele>557.82336425781</ele>
        <time>2017-04-05T09:59:17.000Z</time>
      </trkpt>
      <trkpt lat="45.90445" lon="6.16408">
        <ele>556.22619628906</ele>
        <time>2017-04-05T09:59:19.000Z</time>
      </trkpt>
      <trkpt lat="45.90443" lon="6.16407">
        <ele>554.81591796875</ele>
        <time>2017-04-05T09:59:22.000Z</time>
      </trkpt>
      <trkpt lat="45.90443" lon="6.16408">
        <ele>553.80651855469</ele>
        <time>2017-04-05T09:59:24.000Z</time>
      </trkpt>
      <trkpt lat="45.90442" lon="6.16408">
        <ele>553.27703857422</ele>
        <time>2017-04-05T09:59:29.000Z</time>
      </trkpt>
      <trkpt lat="45.90442" lon="6.16406">
        <ele>552.82543945312</ele>
        <time>2017-04-05T09:59:32.000Z</time>
      </trkpt>
      <trkpt lat="45.90443" lon="6.16405">
        <ele>552.58776855469</ele>
        <time>2017-04-05T09:59:34.000Z</time>
      </trkpt>
      <trkpt lat="45.90445" lon="6.16404">
        <ele>552.31982421875</ele>
        <time>2017-04-05T09:59:36.000Z</time>
      </trkpt>
      <trkpt lat="45.90448" lon="6.16405">
        <ele>551.90557861328</ele>
        <time>2017-04-05T09:59:39.000Z</time>
      </trkpt>
      <trkpt lat="45.9045" lon="6.16405">
        <ele>551.41192626953</ele>
        <time>2017-04-05T09:59:41.000Z</time>
      </trkpt>
      <trkpt lat="45.90451" lon="6.16404">
        <ele>550.994140625</ele>
        <time>2017-04-05T09:59:43.000Z</time>
      </trkpt>
      <trkpt lat="45.90452" lon="6.16403">
        <ele>550.58654785156</ele>
        <time>2017-04-05T09:59:45.000Z</time>
      </trkpt>
      <trkpt lat="45.90454" lon="6.16402">
        <ele>550.16107177734</ele>
        <time>2017-04-05T09:59:47.000Z</time>
      </trkpt>
      <trkpt lat="45.90455" lon="6.16401">
        <ele>549.64343261719</ele>
        <time>2017-04-05T09:59:50.000Z</time>
      </trkpt>
      <trkpt lat="45.90458" lon="6.16402">
        <ele>549.14270019531</ele>
        <time>2017-04-05T09:59:52.000Z</time>
      </trkpt>
      <trkpt lat="45.90461" lon="6.16401">
        <ele>548.63745117188</ele>
        <time>2017-04-05T09:59:55.000Z</time>
      </trkpt>
      <trkpt lat="45.90464" lon="6.16399">
        <ele>547.99761962891</ele>
        <time>2017-04-05T09:59:58.000Z</time>
      </trkpt>
      <trkpt lat="45.90466" lon="6.16399">
        <ele>547.38415527344</ele>
        <time>2017-04-05T10:00:00.000Z</time>
      </trkpt>
      <trkpt lat="45.90469" lon="6.164">
        <ele>546.92004394531</ele>
        <time>2017-04-05T10:00:02.000Z</time>
      </trkpt>
      <trkpt lat="45.90472" lon="6.164">
        <ele>546.41546630859</ele>
        <time>2017-04-05T10:00:05.000Z</time>
      </trkpt>
      <trkpt lat="45.90475" lon="6.16397">
        <ele>545.63464355469</ele>
        <time>2017-04-05T10:00:08.000Z</time>
      </trkpt>
      <trkpt lat="45.90478" lon="6.16392">
        <ele>544.61462402344</ele>
        <time>2017-04-05T10:00:11.000Z</time>
      </trkpt>
      <trkpt lat="45.90481" lon="6.16389">
        <ele>543.34222412109</ele>
        <time>2017-04-05T10:00:14.000Z</time>
      </trkpt>
      <trkpt lat="45.90484" lon="6.16389">
        <ele>541.94757080078</ele>
        <time>2017-04-05T10:00:17.000Z</time>
      </trkpt>
      <trkpt lat="45.90485" lon="6.16389">
        <ele>540.60333251953</ele>
        <time>2017-04-05T10:00:19.000Z</time>
      </trkpt>
      <trkpt lat="45.90488" lon="6.16389">
        <ele>539.59442138672</ele>
        <time>2017-04-05T10:00:21.000Z</time>
      </trkpt>
      <trkpt lat="45.90491" lon="6.16391">
        <ele>539.14569091797</ele>
        <time>2017-04-05T10:00:24.000Z</time>
      </trkpt>
      <trkpt lat="45.90496" lon="6.16395">
        <ele>539.23699951172</ele>
        <time>2017-04-05T10:00:27.000Z</time>
      </trkpt>
      <trkpt lat="45.90498" lon="6.16395">
        <ele>539.36047363281</ele>
        <time>2017-04-05T10:00:29.000Z</time>
      </trkpt>
      <trkpt lat="45.90501" lon="6.16392">
        <ele>539.18920898438</ele>
        <time>2017-04-05T10:00:32.000Z</time>
      </trkpt>
      <trkpt lat="45.90503" lon="6.16391">
        <ele>538.96087646484</ele>
        <time>2017-04-05T10:00:34.000Z</time>
      </trkpt>
      <trkpt lat="45.90507" lon="6.16395">
        <ele>538.87951660156</ele>
        <time>2017-04-05T10:00:37.000Z</time>
      </trkpt>
      <trkpt lat="45.9051" lon="6.16398">
        <ele>538.70446777344</ele>
        <time>2017-04-05T10:00:40.000Z</time>
      </trkpt>
      <trkpt lat="45.90513" lon="6.16401">
        <ele>538.70397949219</ele>
        <time>2017-04-05T10:00:43.000Z</time>
      </trkpt>
      <trkpt lat="45.90515" lon="6.16402">
        <ele>539.09844970703</ele>
        <time>2017-04-05T10:00:45.000Z</time>
      </trkpt>
      <trkpt lat="45.90516" lon="6.16402">
        <ele>539.58380126953</ele>
        <time>2017-04-05T10:00:47.000Z</time>
      </trkpt>
      <trkpt lat="45.90518" lon="6.16402">
        <ele>539.73175048828</ele>
        <time>2017-04-05T10:00:50.000Z</time>
      </trkpt>
      <trkpt lat="45.90517" lon="6.164">
        <ele>539.62561035156</ele>
        <time>2017-04-05T10:00:53.000Z</time>
      </trkpt>
      <trkpt lat="45.90516" lon="6.164">
        <ele>539.45861816406</ele>
        <time>2017-04-05T10:00:55.000Z</time>
      </trkpt>
      <trkpt lat="45.90514" lon="6.16398">
        <ele>539.18981933594</ele>
        <time>2017-04-05T10:00:58.000Z</time>
      </trkpt>
      <trkpt lat="45.90511" lon="6.16395">
        <ele>538.79406738281</ele>
        <time>2017-04-05T10:01:01.000Z</time>
      </trkpt>
      <trkpt lat="45.90508" lon="6.16394">
        <ele>538.4912109375</ele>
        <time>2017-04-05T10:01:04.000Z</time>
      </trkpt>
      <trkpt lat="45.90505" lon="6.16393">
        <ele>538.36535644531</ele>
        <time>2017-04-05T10:01:06.000Z</time>
      </trkpt>
      <trkpt lat="45.90503" lon="6.16394">
        <ele>538.32305908203</ele>
        <time>2017-04-05T10:01:09.000Z</time>
      </trkpt>
      <trkpt lat="45.90502" lon="6.16395">
        <ele>538.39923095703</ele>
        <time>2017-04-05T10:01:11.000Z</time>
      </trkpt>
      <trkpt lat="45.90499" lon="6.16395">
        <ele>538.75842285156</ele>
        <time>2017-04-05T10:01:14.000Z</time>
      </trkpt>
      <trkpt lat="45.90498" lon="6.16395">
        <ele>539.12316894531</ele>
        <time>2017-04-05T10:01:17.000Z</time>
      </trkpt>
      <trkpt lat="45.90496" lon="6.16394">
        <ele>539.43792724609</ele>
        <time>2017-04-05T10:01:21.000Z</time>
      </trkpt>
      <trkpt lat="45.90495" lon="6.16395">
        <ele>539.69561767578</ele>
        <time>2017-04-05T10:01:23.000Z</time>
      </trkpt>
      <trkpt lat="45.90494" lon="6.16395">
        <ele>539.95660400391</ele>
        <time>2017-04-05T10:01:25.000Z</time>
      </trkpt>
      <trkpt lat="45.90492" lon="6.16394">
        <ele>540.06329345703</ele>
        <time>2017-04-05T10:01:27.000Z</time>
      </trkpt>
      <trkpt lat="45.90491" lon="6.16393">
        <ele>540.07409667969</ele>
        <time>2017-04-05T10:01:29.000Z</time>
      </trkpt>
      <trkpt lat="45.90491" lon="6.16391">
        <ele>539.93420410156</ele>
        <time>2017-04-05T10:01:31.000Z</time>
      </trkpt>
      <trkpt lat="45.90489" lon="6.1639">
        <ele>539.70477294922</ele>
        <time>2017-04-05T10:01:34.000Z</time>
      </trkpt>
      <trkpt lat="45.90488" lon="6.16389">
        <ele>539.341796875</ele>
        <time>2017-04-05T10:01:36.000Z</time>
      </trkpt>
      <trkpt lat="45.90486" lon="6.16386">
        <ele>538.80633544922</ele>
        <time>2017-04-05T10:01:39.000Z</time>
      </trkpt>
      <trkpt lat="45.90484" lon="6.16385">
        <ele>538.30975341797</ele>
        <time>2017-04-05T10:01:42.000Z</time>
      </trkpt>
      <trkpt lat="45.90482" lon="6.16382">
        <ele>537.80017089844</ele>
        <time>2017-04-05T10:01:44.000Z</time>
      </trkpt>
      <trkpt lat="45.9048" lon="6.1638">
        <ele>537.15405273438</ele>
        <time>2017-04-05T10:01:47.000Z</time>
      </trkpt>
      <trkpt lat="45.90479" lon="6.16379">
        <ele>536.54205322266</ele>
        <time>2017-04-05T10:01:49.000Z</time>
      </trkpt>
      <trkpt lat="45.90475" lon="6.16378">
        <ele>536.06988525391</ele>
        <time>2017-04-05T10:01:52.000Z</time>
      </trkpt>
      <trkpt lat="45.90473" lon="6.16375">
        <ele>535.48345947266</ele>
        <time>2017-04-05T10:01:55.000Z</time>
      </trkpt>
      <trkpt lat="45.90471" lon="6.16373">
        <ele>534.93939208984</ele>
        <time>2017-04-05T10:01:58.000Z</time>
      </trkpt>
      <trkpt lat="45.9047" lon="6.16372">
        <ele>534.49249267578</ele>
        <time>2017-04-05T10:02:00.000Z</time>
      </trkpt>
      <trkpt lat="45.90467" lon="6.16371">
        <ele>534.03045654297</ele>
        <time>2017-04-05T10:02:03.000Z</time>
      </trkpt>
      <trkpt lat="45.90465" lon="6.1637">
        <ele>533.57928466797</ele>
        <time>2017-04-05T10:02:06.000Z</time>
      </trkpt>
      <trkpt lat="45.90462" lon="6.16368">
        <ele>533.20764160156</ele>
        <time>2017-04-05T10:02:09.000Z</time>
      </trkpt>
      <trkpt lat="45.9046" lon="6.16365">
        <ele>532.7685546875</ele>
        <time>2017-04-05T10:02:12.000Z</time>
      </trkpt>
      <trkpt lat="45.90459" lon="6.16363">
        <ele>532.18640136719</ele>
        <time>2017-04-05T10:02:14.000Z</time>
      </trkpt>
      <trkpt lat="45.90456" lon="6.16357">
        <ele>531.22039794922</ele>
        <time>2017-04-05T10:02:17.000Z</time>
      </trkpt>
      <trkpt lat="45.90456" lon="6.16355">
        <ele>530.15692138672</ele>
        <time>2017-04-05T10:02:20.000Z</time>
      </trkpt>
      <trkpt lat="45.90455" lon="6.16354">
        <ele>529.07446289062</ele>
        <time>2017-04-05T10:02:22.000Z</time>
      </trkpt>
      <trkpt lat="45.90454" lon="6.1635">
        <ele>527.8994140625</ele>
        <time>2017-04-05T10:02:25.000Z</time>
      </trkpt>
      <trkpt lat="45.90453" lon="6.16347">
        <ele>526.62542724609</ele>
        <time>2017-04-05T10:02:28.000Z</time>
      </trkpt>
      <trkpt lat="45.90452" lon="6.16342">
        <ele>525.34973144531</ele>
        <time>2017-04-05T10:02:31.000Z</time>
      </trkpt>
      <trkpt lat="45.90451" lon="6.1634">
        <ele>524.03063964844</ele>
        <time>2017-04-05T10:02:34.000Z</time>
      </trkpt>
      <trkpt lat="45.90451" lon="6.16338">
        <ele>522.69207763672</ele>
        <time>2017-04-05T10:02:37.000Z</time>
      </trkpt>
      <trkpt lat="45.90449" lon="6.16336">
        <ele>521.51593017578</ele>
        <time>2017-04-05T10:02:39.000Z</time>
      </trkpt>
      <trkpt lat="45.90448" lon="6.16333">
        <ele>520.42004394531</ele>
        <time>2017-04-05T10:02:42.000Z</time>
      </trkpt>
      <trkpt lat="45.90446" lon="6.16332">
        <ele>519.65667724609</ele>
        <time>2017-04-05T10:02:44.000Z</time>
      </trkpt>
      <trkpt lat="45.90447" lon="6.1633">
        <ele>518.95025634766</ele>
        <time>2017-04-05T10:02:47.000Z</time>
      </trkpt>
      <trkpt lat="45.90448" lon="6.16327">
        <ele>518.22473144531</ele>
        <time>2017-04-05T10:02:49.000Z</time>
      </trkpt>
      <trkpt lat="45.90449" lon="6.16326">
        <ele>517.52160644531</ele>
        <time>2017-04-05T10:02:51.000Z</time>
      </trkpt>
      <trkpt lat="45.9045" lon="6.16324">
        <ele>516.90808105469</ele>
        <time>2017-04-05T10:02:54.000Z</time>
      </trkpt>
      <trkpt lat="45.90451" lon="6.16319">
        <ele>516.02557373047</ele>
        <time>2017-04-05T10:02:57.000Z</time>
      </trkpt>
      <trkpt lat="45.90451" lon="6.16316">
        <ele>515.06896972656</ele>
        <time>2017-04-05T10:03:00.000Z</time>
      </trkpt>
      <trkpt lat="45.9045" lon="6.16313">
        <ele>514.16314697266</ele>
        <time>2017-04-05T10:03:02.000Z</time>
      </trkpt>
      <trkpt lat="45.90449" lon="6.16313">
        <ele>513.322265625</ele>
        <time>2017-04-05T10:03:06.000Z</time>
      </trkpt>
      <trkpt lat="45.90449" lon="6.16311">
        <ele>512.48254394531</ele>
        <time>2017-04-05T10:03:09.000Z</time>
      </trkpt>
      <trkpt lat="45.90449" lon="6.16308">
        <ele>511.85366821289</ele>
        <time>2017-04-05T10:03:11.000Z</time>
      </trkpt>
      <trkpt lat="45.9045" lon="6.16306">
        <ele>511.28295898438</ele>
        <time>2017-04-05T10:03:13.000Z</time>
      </trkpt>
      <trkpt lat="45.9045" lon="6.16305">
        <ele>510.73983764648</ele>
        <time>2017-04-05T10:03:15.000Z</time>
      </trkpt>
      <trkpt lat="45.9045" lon="6.16302">
        <ele>510.03262329102</ele>
        <time>2017-04-05T10:03:18.000Z</time>
      </trkpt>
      <trkpt lat="45.9045" lon="6.16297">
        <ele>509.19345092773</ele>
        <time>2017-04-05T10:03:21.000Z</time>
      </trkpt>
      <trkpt lat="45.90451" lon="6.16295">
        <ele>508.31243896484</ele>
        <time>2017-04-05T10:03:24.000Z</time>
      </trkpt>
      <trkpt lat="45.90452" lon="6.16293">
        <ele>507.48306274414</ele>
        <time>2017-04-05T10:03:27.000Z</time>
      </trkpt>
      <trkpt lat="45.90453" lon="6.1629">
        <ele>506.53393554688</ele>
        <time>2017-04-05T10:03:30.000Z</time>
      </trkpt>
      <trkpt lat="45.90452" lon="6.16287">
        <ele>505.63116455078</ele>
        <time>2017-04-05T10:03:33.000Z</time>
      </trkpt>
      <trkpt lat="45.90453" lon="6.16286">
        <ele>504.86849975586</ele>
        <time>2017-04-05T10:03:35.000Z</time>
      </trkpt>
      <trkpt lat="45.90453" lon="6.16283">
        <ele>504.11309814453</ele>
        <time>2017-04-05T10:03:38.000Z</time>
      </trkpt>
      <trkpt lat="45.90453" lon="6.16281">
        <ele>503.35626220703</ele>
        <time>2017-04-05T10:03:40.000Z</time>
      </trkpt>
      <trkpt lat="45.90454" lon="6.1628">
        <ele>502.69842529297</ele>
        <time>2017-04-05T10:03:42.000Z</time>
      </trkpt>
      <trkpt lat="45.90454" lon="6.16276">
        <ele>501.98159790039</ele>
        <time>2017-04-05T10:03:45.000Z</time>
      </trkpt>
      <trkpt lat="45.90455" lon="6.16273">
        <ele>501.13467407227</ele>
        <time>2017-04-05T10:03:48.000Z</time>
      </trkpt>
      <trkpt lat="45.90455" lon="6.1627">
        <ele>500.27352905273</ele>
        <time>2017-04-05T10:03:51.000Z</time>
      </trkpt>
      <trkpt lat="45.90455" lon="6.16266">
        <ele>499.31030273438</ele>
        <time>2017-04-05T10:03:54.000Z</time>
      </trkpt>
      <trkpt lat="45.90455" lon="6.16264">
        <ele>498.33551025391</ele>
        <time>2017-04-05T10:03:56.000Z</time>
      </trkpt>
      <trkpt lat="45.90456" lon="6.16261">
        <ele>497.35913085938</ele>
        <time>2017-04-05T10:03:59.000Z</time>
      </trkpt>
      <trkpt lat="45.90456" lon="6.16258">
        <ele>496.45904541016</ele>
        <time>2017-04-05T10:04:01.000Z</time>
      </trkpt>
      <trkpt lat="45.90456" lon="6.16253">
        <ele>495.43765258789</ele>
        <time>2017-04-05T10:04:04.000Z</time>
      </trkpt>
      <trkpt lat="45.90457" lon="6.16249">
        <ele>494.37164306641</ele>
        <time>2017-04-05T10:04:07.000Z</time>
      </trkpt>
      <trkpt lat="45.90458" lon="6.16246">
        <ele>493.31292724609</ele>
        <time>2017-04-05T10:04:10.000Z</time>
      </trkpt>
      <trkpt lat="45.90457" lon="6.16243">
        <ele>492.31909179688</ele>
        <time>2017-04-05T10:04:13.000Z</time>
      </trkpt>
      <trkpt lat="45.90457" lon="6.16241">
        <ele>491.40737915039</ele>
        <time>2017-04-05T10:04:15.000Z</time>
      </trkpt>
      <trkpt lat="45.90457" lon="6.16237">
        <ele>490.66424560547</ele>
        <time>2017-04-05T10:04:18.000Z</time>
      </trkpt>
      <trkpt lat="45.90457" lon="6.16235">
        <ele>490.07022094727</ele>
        <time>2017-04-05T10:04:21.000Z</time>
      </trkpt>
      <trkpt lat="45.90457" lon="6.16232">
        <ele>489.48892211914</ele>
        <time>2017-04-05T10:04:23.000Z</time>
      </trkpt>
      <trkpt lat="45.90456" lon="6.1623">
        <ele>488.94912719727</ele>
        <time>2017-04-05T10:04:25.000Z</time>
      </trkpt>
      <trkpt lat="45.90457" lon="6.16227">
        <ele>488.37286376953</ele>
        <time>2017-04-05T10:04:28.000Z</time>
      </trkpt>
      <trkpt lat="45.90456" lon="6.16224">
        <ele>487.80493164062</ele>
        <time>2017-04-05T10:04:30.000Z</time>
      </trkpt>
      <trkpt lat="45.90454" lon="6.1622">
        <ele>487.20654296875</ele>
        <time>2017-04-05T10:04:33.000Z</time>
      </trkpt>
      <trkpt lat="45.90454" lon="6.16217">
        <ele>486.60797119141</ele>
        <time>2017-04-05T10:04:36.000Z</time>
      </trkpt>
      <trkpt lat="45.90453" lon="6.16214">
        <ele>485.99517822266</ele>
        <time>2017-04-05T10:04:38.000Z</time>
      </trkpt>
      <trkpt lat="45.90453" lon="6.16211">
        <ele>485.36752319336</ele>
        <time>2017-04-05T10:04:40.000Z</time>
      </trkpt>
      <trkpt lat="45.90452" lon="6.16208">
        <ele>484.73895263672</ele>
        <time>2017-04-05T10:04:42.000Z</time>
      </trkpt>
      <trkpt lat="45.90452" lon="6.16203">
        <ele>484.06176757812</ele>
        <time>2017-04-05T10:04:45.000Z</time>
      </trkpt>
      <trkpt lat="45.90451" lon="6.16201">
        <ele>483.40948486328</ele>
        <time>2017-04-05T10:04:47.000Z</time>
      </trkpt>
      <trkpt lat="45.90451" lon="6.16198">
        <ele>482.74081420898</ele>
        <time>2017-04-05T10:04:49.000Z</time>
      </trkpt>
      <trkpt lat="45.90451" lon="6.16194">
        <ele>482.0234375</ele>
        <time>2017-04-05T10:04:52.000Z</time>
      </trkpt>
      <trkpt lat="45.90451" lon="6.16192">
        <ele>481.35165405273</ele>
        <time>2017-04-05T10:04:55.000Z</time>
      </trkpt>
      <trkpt lat="45.90451" lon="6.16189">
        <ele>480.75546264648</ele>
        <time>2017-04-05T10:04:58.000Z</time>
      </trkpt>
      <trkpt lat="45.90451" lon="6.16186">
        <ele>480.10025024414</ele>
        <time>2017-04-05T10:05:00.000Z</time>
      </trkpt>
      <trkpt lat="45.90451" lon="6.16183">
        <ele>479.47119140625</ele>
        <time>2017-04-05T10:05:02.000Z</time>
      </trkpt>
      <trkpt lat="45.90451" lon="6.16182">
        <ele>478.95147705078</ele>
        <time>2017-04-05T10:05:05.000Z</time>
      </trkpt>
      <trkpt lat="45.90451" lon="6.1618">
        <ele>478.44775390625</ele>
        <time>2017-04-05T10:05:12.000Z</time>
      </trkpt>
      <trkpt lat="45.90451" lon="6.16178">
        <ele>477.95684814453</ele>
        <time>2017-04-05T10:05:14.000Z</time>
      </trkpt>
      <trkpt lat="45.90451" lon="6.16174">
        <ele>477.47100830078</ele>
        <time>2017-04-05T10:05:17.000Z</time>
      </trkpt>
      <trkpt lat="45.90452" lon="6.16172">
        <ele>477.00048828125</ele>
        <time>2017-04-05T10:05:19.000Z</time>
      </trkpt>
      <trkpt lat="45.90451" lon="6.16171">
        <ele>476.54107666016</ele>
        <time>2017-04-05T10:05:22.000Z</time>
      </trkpt>
      <trkpt lat="45.90451" lon="6.16169">
        <ele>476.07684326172</ele>
        <time>2017-04-05T10:05:25.000Z</time>
      </trkpt>
      <trkpt lat="45.9045" lon="6.16168">
        <ele>475.65982055664</ele>
        <time>2017-04-05T10:05:28.000Z</time>
      </trkpt>
      <trkpt lat="45.90449" lon="6.16167">
        <ele>475.34692382812</ele>
        <time>2017-04-05T10:05:30.000Z</time>
      </trkpt>
      <trkpt lat="45.90447" lon="6.16164">
        <ele>475.05645751953</ele>
        <time>2017-04-05T10:05:33.000Z</time>
      </trkpt>
      <trkpt lat="45.90446" lon="6.1616">
        <ele>474.72421264648</ele>
        <time>2017-04-05T10:05:36.000Z</time>
      </trkpt>
      <trkpt lat="45.90446" lon="6.16158">
        <ele>474.412109375</ele>
        <time>2017-04-05T10:05:38.000Z</time>
      </trkpt>
      <trkpt lat="45.90445" lon="6.16157">
        <ele>474.11416625977</ele>
        <time>2017-04-05T10:05:40.000Z</time>
      </trkpt>
      <trkpt lat="45.90443" lon="6.16154">
        <ele>473.77841186523</ele>
        <time>2017-04-05T10:05:43.000Z</time>
      </trkpt>
      <trkpt lat="45.90441" lon="6.16151">
        <ele>473.43710327148</ele>
        <time>2017-04-05T10:05:46.000Z</time>
      </trkpt>
      <trkpt lat="45.9044" lon="6.16148">
        <ele>473.13046264648</ele>
        <time>2017-04-05T10:05:49.000Z</time>
      </trkpt>
      <trkpt lat="45.90438" lon="6.16148">
        <ele>472.87896728516</ele>
        <time>2017-04-05T10:05:52.000Z</time>
      </trkpt>
      <trkpt lat="45.90436" lon="6.16147">
        <ele>472.65863037109</ele>
        <time>2017-04-05T10:05:54.000Z</time>
      </trkpt>
      <trkpt lat="45.90434" lon="6.16145">
        <ele>472.4638671875</ele>
        <time>2017-04-05T10:05:56.000Z</time>
      </trkpt>
      <trkpt lat="45.90432" lon="6.16143">
        <ele>472.28509521484</ele>
        <time>2017-04-05T10:05:58.000Z</time>
      </trkpt>
      <trkpt lat="45.90432" lon="6.1614">
        <ele>472.10467529297</ele>
        <time>2017-04-05T10:06:00.000Z</time>
      </trkpt>
      <trkpt lat="45.90431" lon="6.16138">
        <ele>471.85116577148</ele>
        <time>2017-04-05T10:06:02.000Z</time>
      </trkpt>
      <trkpt lat="45.90429" lon="6.16135">
        <ele>471.5244140625</ele>
        <time>2017-04-05T10:06:05.000Z</time>
      </trkpt>
      <trkpt lat="45.90426" lon="6.16133">
        <ele>471.18936157227</ele>
        <time>2017-04-05T10:06:08.000Z</time>
      </trkpt>
      <trkpt lat="45.90423" lon="6.1613">
        <ele>470.85440063477</ele>
        <time>2017-04-05T10:06:11.000Z</time>
      </trkpt>
      <trkpt lat="45.90422" lon="6.16129">
        <ele>470.54760742188</ele>
        <time>2017-04-05T10:06:13.000Z</time>
      </trkpt>
      <trkpt lat="45.90421" lon="6.16126">
        <ele>470.24258422852</ele>
        <time>2017-04-05T10:06:16.000Z</time>
      </trkpt>
      <trkpt lat="45.90421" lon="6.16123">
        <ele>469.91961669922</ele>
        <time>2017-04-05T10:06:19.000Z</time>
      </trkpt>
      <trkpt lat="45.90419" lon="6.1612">
        <ele>469.53213500977</ele>
        <time>2017-04-05T10:06:22.000Z</time>
      </trkpt>
      <trkpt lat="45.90419" lon="6.16118">
        <ele>469.15460205078</ele>
        <time>2017-04-05T10:06:24.000Z</time>
      </trkpt>
      <trkpt lat="45.90419" lon="6.16116">
        <ele>468.78387451172</ele>
        <time>2017-04-05T10:06:26.000Z</time>
      </trkpt>
      <trkpt lat="45.90419" lon="6.16114">
        <ele>468.40640258789</ele>
        <time>2017-04-05T10:06:29.000Z</time>
      </trkpt>
      <trkpt lat="45.90419" lon="6.16112">
        <ele>468.05682373047</ele>
        <time>2017-04-05T10:06:31.000Z</time>
      </trkpt>
      <trkpt lat="45.90417" lon="6.16108">
        <ele>467.69741821289</ele>
        <time>2017-04-05T10:06:34.000Z</time>
      </trkpt>
      <trkpt lat="45.90416" lon="6.16104">
        <ele>467.28204345703</ele>
        <time>2017-04-05T10:06:36.000Z</time>
      </trkpt>
      <trkpt lat="45.90415" lon="6.161">
        <ele>466.78009033203</ele>
        <time>2017-04-05T10:06:39.000Z</time>
      </trkpt>
      <trkpt lat="45.90414" lon="6.16097">
        <ele>466.24249267578</ele>
        <time>2017-04-05T10:06:42.000Z</time>
      </trkpt>
      <trkpt lat="45.90413" lon="6.16093">
        <ele>465.65692138672</ele>
        <time>2017-04-05T10:06:45.000Z</time>
      </trkpt>
      <trkpt lat="45.90411" lon="6.16089">
        <ele>465.08520507812</ele>
        <time>2017-04-05T10:06:48.000Z</time>
      </trkpt>
      <trkpt lat="45.90409" lon="6.16087">
        <ele>464.55868530273</ele>
        <time>2017-04-05T10:06:50.000Z</time>
      </trkpt>
      <trkpt lat="45.90409" lon="6.16085">
        <ele>464.07876586914</ele>
        <time>2017-04-05T10:06:52.000Z</time>
      </trkpt>
      <trkpt lat="45.90408" lon="6.16081">
        <ele>463.61279296875</ele>
        <time>2017-04-05T10:06:55.000Z</time>
      </trkpt>
      <trkpt lat="45.90408" lon="6.16078">
        <ele>463.19317626953</ele>
        <time>2017-04-05T10:06:58.000Z</time>
      </trkpt>
      <trkpt lat="45.90407" lon="6.16076">
        <ele>462.82437133789</ele>
        <time>2017-04-05T10:07:01.000Z</time>
      </trkpt>
      <trkpt lat="45.90406" lon="6.16073">
        <ele>462.45660400391</ele>
        <time>2017-04-05T10:07:03.000Z</time>
      </trkpt>
      <trkpt lat="45.90405" lon="6.16071">
        <ele>462.11401367188</ele>
        <time>2017-04-05T10:07:05.000Z</time>
      </trkpt>
      <trkpt lat="45.90404" lon="6.16068">
        <ele>461.80255126953</ele>
        <time>2017-04-05T10:07:08.000Z</time>
      </trkpt>
      <trkpt lat="45.90402" lon="6.16064">
        <ele>461.45013427734</ele>
        <time>2017-04-05T10:07:11.000Z</time>
      </trkpt>
      <trkpt lat="45.90401" lon="6.16061">
        <ele>461.07733154297</ele>
        <time>2017-04-05T10:07:14.000Z</time>
      </trkpt>
      <trkpt lat="45.90401" lon="6.16059">
        <ele>460.72882080078</ele>
        <time>2017-04-05T10:07:16.000Z</time>
      </trkpt>
      <trkpt lat="45.90401" lon="6.16057">
        <ele>460.37274169922</ele>
        <time>2017-04-05T10:07:19.000Z</time>
      </trkpt>
      <trkpt lat="45.904" lon="6.16054">
        <ele>460.02911376953</ele>
        <time>2017-04-05T10:07:21.000Z</time>
      </trkpt>
      <trkpt lat="45.90399" lon="6.16052">
        <ele>459.72088623047</ele>
        <time>2017-04-05T10:07:24.000Z</time>
      </trkpt>
      <trkpt lat="45.90398" lon="6.16049">
        <ele>459.43936157227</ele>
        <time>2017-04-05T10:07:27.000Z</time>
      </trkpt>
      <trkpt lat="45.90398" lon="6.16048">
        <ele>459.15692138672</ele>
        <time>2017-04-05T10:07:29.000Z</time>
      </trkpt>
      <trkpt lat="45.90398" lon="6.16044">
        <ele>458.83819580078</ele>
        <time>2017-04-05T10:07:32.000Z</time>
      </trkpt>
      <trkpt lat="45.90397" lon="6.1604">
        <ele>458.48193359375</ele>
        <time>2017-04-05T10:07:35.000Z</time>
      </trkpt>
      <trkpt lat="45.90396" lon="6.16036">
        <ele>458.10113525391</ele>
        <time>2017-04-05T10:07:38.000Z</time>
      </trkpt>
      <trkpt lat="45.90395" lon="6.16034">
        <ele>457.728515625</ele>
        <time>2017-04-05T10:07:40.000Z</time>
      </trkpt>
      <trkpt lat="45.90394" lon="6.16032">
        <ele>457.34140014648</ele>
        <time>2017-04-05T10:07:43.000Z</time>
      </trkpt>
      <trkpt lat="45.90392" lon="6.16028">
        <ele>456.94555664062</ele>
        <time>2017-04-05T10:07:46.000Z</time>
      </trkpt>
      <trkpt lat="45.90391" lon="6.16025">
        <ele>456.57183837891</ele>
        <time>2017-04-05T10:07:48.000Z</time>
      </trkpt>
      <trkpt lat="45.90391" lon="6.16022">
        <ele>456.20587158203</ele>
        <time>2017-04-05T10:07:51.000Z</time>
      </trkpt>
      <trkpt lat="45.90391" lon="6.16019">
        <ele>455.82266235352</ele>
        <time>2017-04-05T10:07:53.000Z</time>
      </trkpt>
      <trkpt lat="45.90392" lon="6.16016">
        <ele>455.41943359375</ele>
        <time>2017-04-05T10:07:56.000Z</time>
      </trkpt>
      <trkpt lat="45.90393" lon="6.16014">
        <ele>455.07949829102</ele>
        <time>2017-04-05T10:07:58.000Z</time>
      </trkpt>
      <trkpt lat="45.90395" lon="6.16008">
        <ele>454.64959716797</ele>
        <time>2017-04-05T10:08:01.000Z</time>
      </trkpt>
      <trkpt lat="45.90395" lon="6.16003">
        <ele>454.18954467773</ele>
        <time>2017-04-05T10:08:04.000Z</time>
      </trkpt>
      <trkpt lat="45.90395" lon="6.15998">
        <ele>453.70379638672</ele>
        <time>2017-04-05T10:08:07.000Z</time>
      </trkpt>
      <trkpt lat="45.90395" lon="6.15991">
        <ele>453.22979736328</ele>
        <time>2017-04-05T10:08:10.000Z</time>
      </trkpt>
      <trkpt lat="45.90396" lon="6.15988">
        <ele>452.7734375</ele>
        <time>2017-04-05T10:08:13.000Z</time>
      </trkpt>
      <trkpt lat="45.90399" lon="6.15986">
        <ele>452.46401977539</ele>
        <time>2017-04-05T10:08:16.000Z</time>
      </trkpt>
      <trkpt lat="45.90401" lon="6.15985">
        <ele>452.2705078125</ele>
        <time>2017-04-05T10:08:18.000Z</time>
      </trkpt>
      <trkpt lat="45.90405" lon="6.15983">
        <ele>452.1552734375</ele>
        <time>2017-04-05T10:08:21.000Z</time>
      </trkpt>
      <trkpt lat="45.90409" lon="6.15983">
        <ele>452.1123046875</ele>
        <time>2017-04-05T10:08:24.000Z</time>
      </trkpt>
      <trkpt lat="45.90412" lon="6.15983">
        <ele>452.0966796875</ele>
        <time>2017-04-05T10:08:27.000Z</time>
      </trkpt>
      <trkpt lat="45.90416" lon="6.15981">
        <ele>452.08544921875</ele>
        <time>2017-04-05T10:08:30.000Z</time>
      </trkpt>
      <trkpt lat="45.90417" lon="6.1598">
        <ele>452.0810546875</ele>
        <time>2017-04-05T10:08:32.000Z</time>
      </trkpt>
      <trkpt lat="45.9042" lon="6.1598">
        <ele>452.09521484375</ele>
        <time>2017-04-05T10:08:34.000Z</time>
      </trkpt>
      <trkpt lat="45.90422" lon="6.1598">
        <ele>452.10498046875</ele>
        <time>2017-04-05T10:08:36.000Z</time>
      </trkpt>
      <trkpt lat="45.90425" lon="6.15979">
        <ele>452.12060546875</ele>
        <time>2017-04-05T10:08:39.000Z</time>
      </trkpt>
      <trkpt lat="45.90427" lon="6.15979">
        <ele>452.15087890625</ele>
        <time>2017-04-05T10:08:41.000Z</time>
      </trkpt>
      <trkpt lat="45.9043" lon="6.15977">
        <ele>452.18212890625</ele>
        <time>2017-04-05T10:08:44.000Z</time>
      </trkpt>
      <trkpt lat="45.90432" lon="6.15977">
        <ele>452.208984375</ele>
        <time>2017-04-05T10:08:46.000Z</time>
      </trkpt>
      <trkpt lat="45.90434" lon="6.15977">
        <ele>452.2412109375</ele>
        <time>2017-04-05T10:08:48.000Z</time>
      </trkpt>
      <trkpt lat="45.90437" lon="6.15976">
        <ele>452.2666015625</ele>
        <time>2017-04-05T10:08:51.000Z</time>
      </trkpt>
      <trkpt lat="45.90438" lon="6.15974">
        <ele>452.27880859375</ele>
        <time>2017-04-05T10:08:53.000Z</time>
      </trkpt>
      <trkpt lat="45.90439" lon="6.15973">
        <ele>452.27587890625</ele>
        <time>2017-04-05T10:08:56.000Z</time>
      </trkpt>
      <trkpt lat="45.90439" lon="6.1597">
        <ele>452.24560546875</ele>
        <time>2017-04-05T10:08:59.000Z</time>
      </trkpt>
      <trkpt lat="45.90438" lon="6.15969">
        <ele>452.1884765625</ele>
        <time>2017-04-05T10:09:03.000Z</time>
      </trkpt>
      <trkpt lat="45.90438" lon="6.15969">
        <ele>452.1884765625</ele>
        <time>2017-04-05T10:09:24.000Z</time>
      </trkpt>
    </trkseg>
  </trk>
</gpx>